<?xml version='1.0' encoding='UTF-8'?><gpx version="1.1" creator="JPX - https://github.com/jenetics/jpx" xmlns="http://www.topografix.com/GPX/1/1"><trk><trkseg><trkpt lat="42.436296108688616" lon="14.035768217164955"><ele>92.0</ele><time>2026-03-29T06:53:01Z</time></trkpt><trkpt lat="42.43623819356294" lon="14.035868088123408"><ele>92.0</ele><time>2026-03-29T06:55:13Z</time></trkpt><trkpt lat="42.43616505365029" lon="14.03587043477383"><ele>92.0</ele><time>2026-03-29T06:56:18Z</time></trkpt><trkpt lat="42.43623978692581" lon="14.035885944514233"><ele>92.0</ele><time>2026-03-29T06:59:41Z</time></trkpt><trkpt lat="42.43628559487697" lon="14.035946944108892"><ele>92.0</ele><time>2026-03-29T06:59:47Z</time></trkpt><trkpt lat="42.436328824158004" lon="14.036069879220586"><ele>92.0</ele><time>2026-03-29T07:03:08Z</time></trkpt><trkpt lat="42.43642256515364" lon="14.036178216006828"><ele>92.0</ele><time>2026-03-29T07:03:23Z</time></trkpt><trkpt lat="42.43626817167419" lon="14.036078165190618"><ele>92.0</ele><time>2026-03-29T07:03:30Z</time></trkpt><trkpt lat="42.43621103684224" lon="14.03600866916023"><ele>92.0</ele><time>2026-03-29T07:03:31Z</time></trkpt><trkpt lat="42.43615678117422" lon="14.0359441672578"><ele>92.0</ele><time>2026-03-29T07:03:32Z</time></trkpt><trkpt lat="42.43610187129474" lon="14.035875154028494"><ele>92.0</ele><time>2026-03-29T07:03:33Z</time></trkpt><trkpt lat="42.43603562695608" lon="14.035793366028917"><ele>92.0</ele><time>2026-03-29T07:03:34Z</time></trkpt><trkpt lat="42.435954643087264" lon="14.03569956697818"><ele>92.0</ele><time>2026-03-29T07:03:35Z</time></trkpt><trkpt lat="42.43588529447255" lon="14.03560874510946"><ele>92.0</ele><time>2026-03-29T07:03:36Z</time></trkpt><trkpt lat="42.43581631995025" lon="14.035518824621446"><ele>92.0</ele><time>2026-03-29T07:03:37Z</time></trkpt><trkpt lat="42.43574642295298" lon="14.035430989668383"><ele>92.0</ele><time>2026-03-29T07:03:38Z</time></trkpt><trkpt lat="42.43567659217556" lon="14.035346010929826"><ele>92.0</ele><time>2026-03-29T07:03:39Z</time></trkpt><trkpt lat="42.43559979113704" lon="14.035244337919389"><ele>92.0</ele><time>2026-03-29T07:03:40Z</time></trkpt><trkpt lat="42.435515322125816" lon="14.03513429801507"><ele>92.0</ele><time>2026-03-29T07:03:41Z</time></trkpt><trkpt lat="42.43541367842813" lon="14.035008231672926"><ele>92.0</ele><time>2026-03-29T07:03:42Z</time></trkpt><trkpt lat="42.43528725571812" lon="14.034849702822772"><ele>92.75</ele><time>2026-03-29T07:03:43Z</time></trkpt><trkpt lat="42.43516470812399" lon="14.034726926037699"><ele>93.5</ele><time>2026-03-29T07:03:44Z</time></trkpt><trkpt lat="42.43508118618105" lon="14.034613328195444"><ele>94.25</ele><time>2026-03-29T07:03:45Z</time></trkpt><trkpt lat="42.435011468475054" lon="14.034518467852324"><ele>95.0</ele><time>2026-03-29T07:03:46Z</time></trkpt><trkpt lat="42.434943172786014" lon="14.03443364578618"><ele>95.0</ele><time>2026-03-29T07:03:47Z</time></trkpt><trkpt lat="42.43487114133596" lon="14.03434077862945"><ele>95.0</ele><time>2026-03-29T07:03:48Z</time></trkpt><trkpt lat="42.434798098694145" lon="14.03425155787429"><ele>95.0</ele><time>2026-03-29T07:03:49Z</time></trkpt><trkpt lat="42.43470604784744" lon="14.034149702492307"><ele>95.0</ele><time>2026-03-29T07:03:50Z</time></trkpt><trkpt lat="42.43460457632285" lon="14.034039037381694"><ele>95.0</ele><time>2026-03-29T07:03:51Z</time></trkpt><trkpt lat="42.434498953311774" lon="14.03391759906518"><ele>95.0</ele><time>2026-03-29T07:03:52Z</time></trkpt><trkpt lat="42.434413248384466" lon="14.033806204473157"><ele>95.0</ele><time>2026-03-29T07:03:53Z</time></trkpt><trkpt lat="42.434343120631375" lon="14.033713434840935"><ele>95.0</ele><time>2026-03-29T07:03:54Z</time></trkpt><trkpt lat="42.434287120196934" lon="14.033642835770419"><ele>95.0</ele><time>2026-03-29T07:03:55Z</time></trkpt><trkpt lat="42.43423000282302" lon="14.033577661600487"><ele>95.0</ele><time>2026-03-29T07:03:56Z</time></trkpt><trkpt lat="42.434167112688684" lon="14.033553268034463"><ele>95.0</ele><time>2026-03-29T07:03:57Z</time></trkpt><trkpt lat="42.43403923581303" lon="14.0336368757067"><ele>95.0</ele><time>2026-03-29T07:03:59Z</time></trkpt><trkpt lat="42.433952398283445" lon="14.033731677060029"><ele>95.0</ele><time>2026-03-29T07:04:00Z</time></trkpt><trkpt lat="42.43387265355418" lon="14.033848409068737"><ele>95.0</ele><time>2026-03-29T07:04:01Z</time></trkpt><trkpt lat="42.43380510713886" lon="14.033945246361013"><ele>95.0</ele><time>2026-03-29T07:04:02Z</time></trkpt><trkpt lat="42.43371757533033" lon="14.034058250249956"><ele>95.0</ele><time>2026-03-29T07:04:03Z</time></trkpt><trkpt lat="42.4336164726437" lon="14.034176621303192"><ele>94.2</ele><time>2026-03-29T07:04:04Z</time></trkpt><trkpt lat="42.433538136819415" lon="14.034265069983702"><ele>93.4</ele><time>2026-03-29T07:04:05Z</time></trkpt><trkpt lat="42.43346593028087" lon="14.034351015388312"><ele>92.6</ele><time>2026-03-29T07:04:06Z</time></trkpt><trkpt lat="42.43338165060181" lon="14.034447323996437"><ele>91.8</ele><time>2026-03-29T07:04:07Z</time></trkpt><trkpt lat="42.433294428940144" lon="14.034550696647772"><ele>91.0</ele><time>2026-03-29T07:04:08Z</time></trkpt><trkpt lat="42.43320942530194" lon="14.034658005451298"><ele>91.0</ele><time>2026-03-29T07:04:09Z</time></trkpt><trkpt lat="42.43313650799477" lon="14.034739958268267"><ele>91.0</ele><time>2026-03-29T07:04:10Z</time></trkpt><trkpt lat="42.433070362195075" lon="14.03481327667338"><ele>91.0</ele><time>2026-03-29T07:04:11Z</time></trkpt><trkpt lat="42.43300325822349" lon="14.03488552857763"><ele>91.0</ele><time>2026-03-29T07:04:12Z</time></trkpt><trkpt lat="42.4329356582342" lon="14.034954971558854"><ele>91.0</ele><time>2026-03-29T07:04:13Z</time></trkpt><trkpt lat="42.43286515179463" lon="14.035021319296929"><ele>91.0</ele><time>2026-03-29T07:04:14Z</time></trkpt><trkpt lat="42.43278291931529" lon="14.035097504273699"><ele>90.16666666666666</ele><time>2026-03-29T07:04:15Z</time></trkpt><trkpt lat="42.43270735900004" lon="14.035171352169833"><ele>89.33333333333333</ele><time>2026-03-29T07:04:16Z</time></trkpt><trkpt lat="42.43263304916368" lon="14.035238751448846"><ele>88.5</ele><time>2026-03-29T07:04:17Z</time></trkpt><trkpt lat="42.43257246858154" lon="14.03529575291827"><ele>87.66666666666667</ele><time>2026-03-29T07:04:18Z</time></trkpt><trkpt lat="42.43252117112773" lon="14.03535576082465"><ele>86.83333333333334</ele><time>2026-03-29T07:04:19Z</time></trkpt><trkpt lat="42.43248127563161" lon="14.035457682464255"><ele>86.0</ele><time>2026-03-29T07:04:21Z</time></trkpt><trkpt lat="42.43249857173663" lon="14.035618014294649"><ele>86.0</ele><time>2026-03-29T07:04:23Z</time></trkpt><trkpt lat="42.43252329879503" lon="14.035719661331287"><ele>86.0</ele><time>2026-03-29T07:04:25Z</time></trkpt><trkpt lat="42.43253839773543" lon="14.035818306591608"><ele>86.0</ele><time>2026-03-29T07:04:53Z</time></trkpt><trkpt lat="42.4325478917528" lon="14.035903330987344"><ele>86.0</ele><time>2026-03-29T07:04:56Z</time></trkpt><trkpt lat="42.43257250687448" lon="14.03598790431189"><ele>86.0</ele><time>2026-03-29T07:05:08Z</time></trkpt><trkpt lat="42.43257868297157" lon="14.036085462749236"><ele>86.0</ele><time>2026-03-29T07:05:12Z</time></trkpt><trkpt lat="42.43261803676456" lon="14.036228063452562"><ele>86.0</ele><time>2026-03-29T07:05:14Z</time></trkpt><trkpt lat="42.43266992547118" lon="14.0363215726119"><ele>86.0</ele><time>2026-03-29T07:05:17Z</time></trkpt><trkpt lat="42.43274196275357" lon="14.036383988009057"><ele>86.0</ele><time>2026-03-29T07:05:20Z</time></trkpt><trkpt lat="42.43282026256656" lon="14.036351692488521"><ele>86.0</ele><time>2026-03-29T07:05:22Z</time></trkpt><trkpt lat="42.43288583561182" lon="14.036352933284073"><ele>86.0</ele><time>2026-03-29T07:05:23Z</time></trkpt><trkpt lat="42.43295533739978" lon="14.036371473415754"><ele>86.0</ele><time>2026-03-29T07:05:25Z</time></trkpt><trkpt lat="42.43305288816212" lon="14.036405254989091"><ele>86.0</ele><time>2026-03-29T07:05:29Z</time></trkpt><trkpt lat="42.43310162373033" lon="14.036466189403209"><ele>86.0</ele><time>2026-03-29T07:05:32Z</time></trkpt><trkpt lat="42.43314155500011" lon="14.036533122601087"><ele>86.0</ele><time>2026-03-29T07:05:34Z</time></trkpt><trkpt lat="42.433211745845206" lon="14.036616286126831"><ele>86.0</ele><time>2026-03-29T07:05:36Z</time></trkpt><trkpt lat="42.433247917424794" lon="14.036689256822367"><ele>86.0</ele><time>2026-03-29T07:05:38Z</time></trkpt><trkpt lat="42.43324201824433" lon="14.03679619450464"><ele>86.0</ele><time>2026-03-29T07:05:40Z</time></trkpt><trkpt lat="42.433281902850894" lon="14.03690116209864"><ele>86.0</ele><time>2026-03-29T07:05:42Z</time></trkpt><trkpt lat="42.43336233894101" lon="14.036988446067774"><ele>86.0</ele><time>2026-03-29T07:05:44Z</time></trkpt><trkpt lat="42.43341521829396" lon="14.037039256545093"><ele>86.0</ele><time>2026-03-29T07:05:45Z</time></trkpt><trkpt lat="42.43349489552666" lon="14.037145688375391"><ele>86.0</ele><time>2026-03-29T07:05:47Z</time></trkpt><trkpt lat="42.43358721038543" lon="14.037234924845622"><ele>86.0</ele><time>2026-03-29T07:05:50Z</time></trkpt><trkpt lat="42.433650941788976" lon="14.03730505825017"><ele>86.0</ele><time>2026-03-29T07:05:53Z</time></trkpt><trkpt lat="42.433700951467884" lon="14.03737596223738"><ele>86.0</ele><time>2026-03-29T07:05:57Z</time></trkpt><trkpt lat="42.43372894185868" lon="14.037473222465765"><ele>86.0</ele><time>2026-03-29T07:06:00Z</time></trkpt><trkpt lat="42.43375369416999" lon="14.037570455250235"><ele>86.0</ele><time>2026-03-29T07:06:01Z</time></trkpt><trkpt lat="42.43378580825443" lon="14.037658877926813"><ele>86.0</ele><time>2026-03-29T07:06:02Z</time></trkpt><trkpt lat="42.43385711524428" lon="14.037773082673262"><ele>86.0</ele><time>2026-03-29T07:06:04Z</time></trkpt><trkpt lat="42.43388894185171" lon="14.037936097953153"><ele>86.33333333333334</ele><time>2026-03-29T07:06:07Z</time></trkpt><trkpt lat="42.43389779188611" lon="14.038099290375596"><ele>86.66666666666667</ele><time>2026-03-29T07:06:09Z</time></trkpt><trkpt lat="42.433907688032136" lon="14.038188791307842"><ele>87.0</ele><time>2026-03-29T07:06:10Z</time></trkpt><trkpt lat="42.43391603693675" lon="14.038289321860534"><ele>87.33333333333333</ele><time>2026-03-29T07:06:11Z</time></trkpt><trkpt lat="42.43392458778993" lon="14.038390722075858"><ele>87.66666666666666</ele><time>2026-03-29T07:06:12Z</time></trkpt><trkpt lat="42.43394761015986" lon="14.038507463367699"><ele>88.0</ele><time>2026-03-29T07:06:13Z</time></trkpt><trkpt lat="42.43398816754815" lon="14.038640938066914"><ele>86.75</ele><time>2026-03-29T07:06:14Z</time></trkpt><trkpt lat="42.434038040975516" lon="14.038784415374879"><ele>85.5</ele><time>2026-03-29T07:06:15Z</time></trkpt><trkpt lat="42.43408745596666" lon="14.038934243699831"><ele>84.25</ele><time>2026-03-29T07:06:16Z</time></trkpt><trkpt lat="42.43413377896921" lon="14.039107378930012"><ele>83.0</ele><time>2026-03-29T07:06:17Z</time></trkpt><trkpt lat="42.4341778959308" lon="14.039268817244473"><ele>82.60000000000001</ele><time>2026-03-29T07:06:18Z</time></trkpt><trkpt lat="42.43421167475023" lon="14.039388265380826"><ele>82.2</ele><time>2026-03-29T07:06:19Z</time></trkpt><trkpt lat="42.434244992785914" lon="14.039517679903641"><ele>81.8</ele><time>2026-03-29T07:06:20Z</time></trkpt><trkpt lat="42.43426905446388" lon="14.039670252533483"><ele>81.4</ele><time>2026-03-29T07:06:21Z</time></trkpt><trkpt lat="42.43428343298477" lon="14.039831763094881"><ele>81.0</ele><time>2026-03-29T07:06:22Z</time></trkpt><trkpt lat="42.43429282160287" lon="14.039993004141385"><ele>80.75</ele><time>2026-03-29T07:06:23Z</time></trkpt><trkpt lat="42.43430274281968" lon="14.040161904239701"><ele>80.5</ele><time>2026-03-29T07:06:24Z</time></trkpt><trkpt lat="42.43432109399634" lon="14.040347166424418"><ele>80.25</ele><time>2026-03-29T07:06:25Z</time></trkpt><trkpt lat="42.434338231629134" lon="14.040543339419056"><ele>80.0</ele><time>2026-03-29T07:06:26Z</time></trkpt><trkpt lat="42.4343479876758" lon="14.04072715168413"><ele>79.8</ele><time>2026-03-29T07:06:27Z</time></trkpt><trkpt lat="42.43433814689068" lon="14.040907899007005"><ele>79.6</ele><time>2026-03-29T07:06:28Z</time></trkpt><trkpt lat="42.43432648262519" lon="14.04104843852352"><ele>79.4</ele><time>2026-03-29T07:06:29Z</time></trkpt><trkpt lat="42.43432265464354" lon="14.041149606916708"><ele>79.2</ele><time>2026-03-29T07:06:30Z</time></trkpt><trkpt lat="42.43432237754724" lon="14.041307118445188"><ele>79.0</ele><time>2026-03-29T07:06:32Z</time></trkpt><trkpt lat="42.43433349716227" lon="14.041475353248728"><ele>79.0</ele><time>2026-03-29T07:06:34Z</time></trkpt><trkpt lat="42.43433767515343" lon="14.04157266132569"><ele>79.0</ele><time>2026-03-29T07:06:35Z</time></trkpt><trkpt lat="42.43433983102595" lon="14.041678460565345"><ele>79.0</ele><time>2026-03-29T07:06:36Z</time></trkpt><trkpt lat="42.434341581346814" lon="14.041768485880423"><ele>79.0</ele><time>2026-03-29T07:06:37Z</time></trkpt><trkpt lat="42.434344378286035" lon="14.041915127698331"><ele>79.0</ele><time>2026-03-29T07:06:39Z</time></trkpt><trkpt lat="42.43436008000871" lon="14.04202447054343"><ele>79.0</ele><time>2026-03-29T07:06:41Z</time></trkpt><trkpt lat="42.434387441759064" lon="14.042143410770475"><ele>79.0</ele><time>2026-03-29T07:06:43Z</time></trkpt><trkpt lat="42.4344116230014" lon="14.042291861258482"><ele>79.0</ele><time>2026-03-29T07:06:45Z</time></trkpt><trkpt lat="42.434442388968506" lon="14.042389547164532"><ele>79.0</ele><time>2026-03-29T07:06:46Z</time></trkpt><trkpt lat="42.43448653630427" lon="14.042479694391274"><ele>79.0</ele><time>2026-03-29T07:06:47Z</time></trkpt><trkpt lat="42.43454002725242" lon="14.042565427092924"><ele>79.0</ele><time>2026-03-29T07:06:48Z</time></trkpt><trkpt lat="42.434590974172785" lon="14.042670124170483"><ele>79.0</ele><time>2026-03-29T07:06:49Z</time></trkpt><trkpt lat="42.434646509588426" lon="14.042807497030047"><ele>79.0</ele><time>2026-03-29T07:06:50Z</time></trkpt><trkpt lat="42.43470220011014" lon="14.04300158981541"><ele>79.0</ele><time>2026-03-29T07:06:51Z</time></trkpt><trkpt lat="42.43476148899986" lon="14.043190386982841"><ele>79.0</ele><time>2026-03-29T07:06:52Z</time></trkpt><trkpt lat="42.43479181895487" lon="14.043296549771805"><ele>79.0</ele><time>2026-03-29T07:06:53Z</time></trkpt><trkpt lat="42.43482362893003" lon="14.04340920894874"><ele>79.0</ele><time>2026-03-29T07:06:55Z</time></trkpt><trkpt lat="42.4348741156544" lon="14.043493268676468"><ele>79.0</ele><time>2026-03-29T07:06:58Z</time></trkpt><trkpt lat="42.434940370334346" lon="14.043569875932283"><ele>79.0</ele><time>2026-03-29T07:07:00Z</time></trkpt><trkpt lat="42.43498872576159" lon="14.043662856803799"><ele>79.0</ele><time>2026-03-29T07:07:02Z</time></trkpt><trkpt lat="42.43501425129972" lon="14.04377153477554"><ele>79.0</ele><time>2026-03-29T07:07:04Z</time></trkpt><trkpt lat="42.435097503877806" lon="14.043903504553459"><ele>79.0</ele><time>2026-03-29T07:07:06Z</time></trkpt><trkpt lat="42.43515510216627" lon="14.0440138554686"><ele>79.0</ele><time>2026-03-29T07:07:08Z</time></trkpt><trkpt lat="42.43520277613371" lon="14.044127420035712"><ele>79.0</ele><time>2026-03-29T07:07:10Z</time></trkpt><trkpt lat="42.43526225881619" lon="14.044237979708093"><ele>79.0</ele><time>2026-03-29T07:07:12Z</time></trkpt><trkpt lat="42.43530671500167" lon="14.044336790325197"><ele>79.0</ele><time>2026-03-29T07:07:14Z</time></trkpt><trkpt lat="42.4353424457268" lon="14.044411472843748"><ele>79.0</ele><time>2026-03-29T07:07:16Z</time></trkpt><trkpt lat="42.43539884210847" lon="14.04450839882493"><ele>78.5</ele><time>2026-03-29T07:07:18Z</time></trkpt><trkpt lat="42.43546915611291" lon="14.044581688589215"><ele>78.0</ele><time>2026-03-29T07:07:20Z</time></trkpt><trkpt lat="42.4355390464416" lon="14.044661268605514"><ele>77.5</ele><time>2026-03-29T07:07:23Z</time></trkpt><trkpt lat="42.4356355529997" lon="14.044673769137454"><ele>77.0</ele><time>2026-03-29T07:07:25Z</time></trkpt><trkpt lat="42.43568877518366" lon="14.044626814412839"><ele>76.5</ele><time>2026-03-29T07:07:27Z</time></trkpt><trkpt lat="42.43577123069496" lon="14.044639923612534"><ele>76.0</ele><time>2026-03-29T07:07:37Z</time></trkpt><trkpt lat="42.435834945354266" lon="14.044596911915308"><ele>76.0</ele><time>2026-03-29T07:07:41Z</time></trkpt><trkpt lat="42.435895292367704" lon="14.044563162805806"><ele>76.0</ele><time>2026-03-29T07:07:44Z</time></trkpt><trkpt lat="42.43596349942148" lon="14.04454868280958"><ele>76.0</ele><time>2026-03-29T07:08:44Z</time></trkpt><trkpt lat="42.43602849359526" lon="14.044497484841463"><ele>76.0</ele><time>2026-03-29T07:08:46Z</time></trkpt><trkpt lat="42.43611859542855" lon="14.044402836458337"><ele>76.0</ele><time>2026-03-29T07:08:48Z</time></trkpt><trkpt lat="42.436212546135565" lon="14.044287931205657"><ele>76.0</ele><time>2026-03-29T07:08:50Z</time></trkpt><trkpt lat="42.43626527714044" lon="14.044222641304682"><ele>76.0</ele><time>2026-03-29T07:08:51Z</time></trkpt><trkpt lat="42.43631082204654" lon="14.044144007609717"><ele>76.0</ele><time>2026-03-29T07:08:52Z</time></trkpt><trkpt lat="42.436388848493024" lon="14.04408099027086"><ele>76.0</ele><time>2026-03-29T07:08:53Z</time></trkpt><trkpt lat="42.43646639361224" lon="14.044021199391409"><ele>76.0</ele><time>2026-03-29T07:08:54Z</time></trkpt><trkpt lat="42.436528768331364" lon="14.04396450101797"><ele>76.0</ele><time>2026-03-29T07:08:55Z</time></trkpt><trkpt lat="42.43661053876814" lon="14.043848648014919"><ele>76.6</ele><time>2026-03-29T07:08:57Z</time></trkpt><trkpt lat="42.436679117084935" lon="14.043725441661055"><ele>77.19999999999999</ele><time>2026-03-29T07:08:59Z</time></trkpt><trkpt lat="42.43673292446577" lon="14.043570908949544"><ele>77.80000000000001</ele><time>2026-03-29T07:09:01Z</time></trkpt><trkpt lat="42.43676372417554" lon="14.04349186014839"><ele>78.4</ele><time>2026-03-29T07:09:02Z</time></trkpt><trkpt lat="42.43680156235666" lon="14.043423456357354"><ele>79.0</ele><time>2026-03-29T07:09:03Z</time></trkpt><trkpt lat="42.4368763458759" lon="14.04326558767088"><ele>79.2</ele><time>2026-03-29T07:09:05Z</time></trkpt><trkpt lat="42.43691364981211" lon="14.04316041226205"><ele>79.4</ele><time>2026-03-29T07:09:06Z</time></trkpt><trkpt lat="42.4369253637911" lon="14.043065740476882"><ele>79.6</ele><time>2026-03-29T07:09:07Z</time></trkpt><trkpt lat="42.43689084373581" lon="14.042906883196544"><ele>79.8</ele><time>2026-03-29T07:09:09Z</time></trkpt><trkpt lat="42.43684594537216" lon="14.042778266574294"><ele>80.0</ele><time>2026-03-29T07:09:11Z</time></trkpt><trkpt lat="42.43683203243171" lon="14.042625106592055"><ele>80.0</ele><time>2026-03-29T07:09:13Z</time></trkpt><trkpt lat="42.43683020569611" lon="14.042537753112295"><ele>80.0</ele><time>2026-03-29T07:09:15Z</time></trkpt><trkpt lat="42.436816432868596" lon="14.042449923696202"><ele>80.0</ele><time>2026-03-29T07:09:29Z</time></trkpt><trkpt lat="42.4369024658748" lon="14.04238646011412"><ele>80.0</ele><time>2026-03-29T07:09:31Z</time></trkpt><trkpt lat="42.436984564209986" lon="14.042365050301353"><ele>80.0</ele><time>2026-03-29T07:09:33Z</time></trkpt><trkpt lat="42.437077388827" lon="14.042361112653593"><ele>80.0</ele><time>2026-03-29T07:09:35Z</time></trkpt><trkpt lat="42.437150895601846" lon="14.042366030921274"><ele>80.66666666666667</ele><time>2026-03-29T07:09:37Z</time></trkpt><trkpt lat="42.43723275750153" lon="14.042364356185155"><ele>81.33333333333334</ele><time>2026-03-29T07:09:39Z</time></trkpt><trkpt lat="42.43729814197615" lon="14.042354741576007"><ele>82.0</ele><time>2026-03-29T07:09:42Z</time></trkpt><trkpt lat="42.43738297829797" lon="14.042312395659756"><ele>82.66666666666667</ele><time>2026-03-29T07:09:45Z</time></trkpt><trkpt lat="42.43745051893891" lon="14.042216384892091"><ele>83.33333333333333</ele><time>2026-03-29T07:09:47Z</time></trkpt><trkpt lat="42.43751811733035" lon="14.042133447199936"><ele>84.0</ele><time>2026-03-29T07:09:50Z</time></trkpt><trkpt lat="42.43759403666361" lon="14.042071338990258"><ele>84.0</ele><time>2026-03-29T07:09:52Z</time></trkpt><trkpt lat="42.43766260520234" lon="14.042075029257743"><ele>84.0</ele><time>2026-03-29T07:10:00Z</time></trkpt><trkpt lat="42.43778420623283" lon="14.042129489333966"><ele>84.0</ele><time>2026-03-29T07:10:03Z</time></trkpt><trkpt lat="42.43783909464077" lon="14.042209939939696"><ele>84.0</ele><time>2026-03-29T07:10:05Z</time></trkpt><trkpt lat="42.437902529832954" lon="14.042301951878583"><ele>84.0</ele><time>2026-03-29T07:10:07Z</time></trkpt><trkpt lat="42.43795085482757" lon="14.042386940926843"><ele>83.83333333333333</ele><time>2026-03-29T07:10:09Z</time></trkpt><trkpt lat="42.43797415166482" lon="14.04247865919468"><ele>83.66666666666667</ele><time>2026-03-29T07:10:11Z</time></trkpt><trkpt lat="42.438037405424886" lon="14.042553706299929"><ele>83.5</ele><time>2026-03-29T07:10:14Z</time></trkpt><trkpt lat="42.438106502232685" lon="14.04261172130098"><ele>83.33333333333334</ele><time>2026-03-29T07:10:16Z</time></trkpt><trkpt lat="42.4381757713276" lon="14.042653042178644"><ele>83.16666666666667</ele><time>2026-03-29T07:10:18Z</time></trkpt><trkpt lat="42.43826167466947" lon="14.042725504207358"><ele>83.0</ele><time>2026-03-29T07:10:20Z</time></trkpt><trkpt lat="42.43834326888597" lon="14.04281816143188"><ele>83.0</ele><time>2026-03-29T07:10:22Z</time></trkpt><trkpt lat="42.438405690327244" lon="14.042882190222244"><ele>83.0</ele><time>2026-03-29T07:10:24Z</time></trkpt><trkpt lat="42.438502462508595" lon="14.04292539454221"><ele>83.0</ele><time>2026-03-29T07:10:27Z</time></trkpt><trkpt lat="42.43856035651962" lon="14.042966490349656"><ele>83.0</ele><time>2026-03-29T07:10:28Z</time></trkpt><trkpt lat="42.43861495322922" lon="14.043035082970146"><ele>83.0</ele><time>2026-03-29T07:10:29Z</time></trkpt><trkpt lat="42.43866432018063" lon="14.043111224603607"><ele>83.0</ele><time>2026-03-29T07:10:30Z</time></trkpt><trkpt lat="42.43871358458538" lon="14.043189549159438"><ele>83.0</ele><time>2026-03-29T07:10:31Z</time></trkpt><trkpt lat="42.43876204164158" lon="14.043264233198528"><ele>83.0</ele><time>2026-03-29T07:10:32Z</time></trkpt><trkpt lat="42.438809444624596" lon="14.043329851941564"><ele>83.0</ele><time>2026-03-29T07:10:33Z</time></trkpt><trkpt lat="42.43886867617523" lon="14.04339039189916"><ele>83.0</ele><time>2026-03-29T07:10:34Z</time></trkpt><trkpt lat="42.438940722383734" lon="14.043422837428718"><ele>83.0</ele><time>2026-03-29T07:10:35Z</time></trkpt><trkpt lat="42.439022908733165" lon="14.043422144501834"><ele>83.0</ele><time>2026-03-29T07:10:36Z</time></trkpt><trkpt lat="42.43912137535899" lon="14.043396472659975"><ele>84.33333333333334</ele><time>2026-03-29T07:10:37Z</time></trkpt><trkpt lat="42.43922574037524" lon="14.043333733497501"><ele>85.66666666666667</ele><time>2026-03-29T07:10:38Z</time></trkpt><trkpt lat="42.43944485125793" lon="14.043410539528548"><ele>87.0</ele><time>2026-03-29T07:10:39Z</time></trkpt><trkpt lat="42.439537170623375" lon="14.043293375655187"><ele>87.0</ele><time>2026-03-29T07:10:40Z</time></trkpt><trkpt lat="42.4394856670228" lon="14.042948367703936"><ele>87.0</ele><time>2026-03-29T07:10:41Z</time></trkpt><trkpt lat="42.43962900856667" lon="14.042797051133846"><ele>87.0</ele><time>2026-03-29T07:10:42Z</time></trkpt><trkpt lat="42.43980096052619" lon="14.042619582927227"><ele>87.0</ele><time>2026-03-29T07:10:43Z</time></trkpt><trkpt lat="42.44005500076009" lon="14.042613854353714"><ele>87.0</ele><time>2026-03-29T07:10:44Z</time></trkpt><trkpt lat="42.440161319140266" lon="14.04246698123896"><ele>87.0</ele><time>2026-03-29T07:10:45Z</time></trkpt><trkpt lat="42.4401856202471" lon="14.04224582593222"><ele>87.19999999999999</ele><time>2026-03-29T07:10:46Z</time></trkpt><trkpt lat="42.44028325338336" lon="14.042152726829794"><ele>87.4</ele><time>2026-03-29T07:10:47Z</time></trkpt><trkpt lat="42.4403707977206" lon="14.042072814989789"><ele>87.6</ele><time>2026-03-29T07:10:48Z</time></trkpt><trkpt lat="42.44044304817983" lon="14.042001385960527"><ele>87.80000000000001</ele><time>2026-03-29T07:10:49Z</time></trkpt><trkpt lat="42.44050753915115" lon="14.04194169967351"><ele>88.0</ele><time>2026-03-29T07:10:50Z</time></trkpt><trkpt lat="42.44060934588456" lon="14.041864715985511"><ele>88.0</ele><time>2026-03-29T07:10:52Z</time></trkpt><trkpt lat="42.44070378718221" lon="14.041867158277192"><ele>88.0</ele><time>2026-03-29T07:10:54Z</time></trkpt><trkpt lat="42.44076997567694" lon="14.041898941216305"><ele>88.0</ele><time>2026-03-29T07:10:55Z</time></trkpt><trkpt lat="42.44084921390401" lon="14.041973231732042"><ele>88.0</ele><time>2026-03-29T07:10:56Z</time></trkpt><trkpt lat="42.44091940710286" lon="14.042072819237562"><ele>88.0</ele><time>2026-03-29T07:10:57Z</time></trkpt><trkpt lat="42.44099194219841" lon="14.0421825174785"><ele>88.0</ele><time>2026-03-29T07:10:58Z</time></trkpt><trkpt lat="42.44107834914871" lon="14.042291505013322"><ele>88.0</ele><time>2026-03-29T07:10:59Z</time></trkpt><trkpt lat="42.44116105624574" lon="14.042392854198111"><ele>88.0</ele><time>2026-03-29T07:11:00Z</time></trkpt><trkpt lat="42.44124341589106" lon="14.042499567258167"><ele>88.0</ele><time>2026-03-29T07:11:01Z</time></trkpt><trkpt lat="42.44133089598762" lon="14.042617533479936"><ele>88.0</ele><time>2026-03-29T07:11:02Z</time></trkpt><trkpt lat="42.44143046493928" lon="14.042741109149897"><ele>88.0</ele><time>2026-03-29T07:11:03Z</time></trkpt><trkpt lat="42.4415426010252" lon="14.042880730912039"><ele>88.0</ele><time>2026-03-29T07:11:04Z</time></trkpt><trkpt lat="42.44166942534124" lon="14.043038910109196"><ele>88.0</ele><time>2026-03-29T07:11:05Z</time></trkpt><trkpt lat="42.44178663044034" lon="14.043185902699621"><ele>88.0</ele><time>2026-03-29T07:11:06Z</time></trkpt><trkpt lat="42.44188065863268" lon="14.043312985182801"><ele>88.0</ele><time>2026-03-29T07:11:07Z</time></trkpt><trkpt lat="42.44196606755759" lon="14.043417101408846"><ele>88.0</ele><time>2026-03-29T07:11:08Z</time></trkpt><trkpt lat="42.44204138787805" lon="14.043512582935314"><ele>88.0</ele><time>2026-03-29T07:11:09Z</time></trkpt><trkpt lat="42.4421073982235" lon="14.043602381253539"><ele>88.0</ele><time>2026-03-29T07:11:10Z</time></trkpt><trkpt lat="42.442167823037316" lon="14.043682591043225"><ele>88.0</ele><time>2026-03-29T07:11:11Z</time></trkpt><trkpt lat="42.44224202376023" lon="14.04377329319331"><ele>88.0</ele><time>2026-03-29T07:11:12Z</time></trkpt><trkpt lat="42.442327326072004" lon="14.04387985774622"><ele>88.0</ele><time>2026-03-29T07:11:13Z</time></trkpt><trkpt lat="42.44241512788589" lon="14.044010618921847"><ele>88.0</ele><time>2026-03-29T07:11:14Z</time></trkpt><trkpt lat="42.44250330920109" lon="14.044159360223656"><ele>88.0</ele><time>2026-03-29T07:11:15Z</time></trkpt><trkpt lat="42.44259364859869" lon="14.04431764852386"><ele>88.0</ele><time>2026-03-29T07:11:16Z</time></trkpt><trkpt lat="42.44267771516701" lon="14.04449493379514"><ele>88.0</ele><time>2026-03-29T07:11:17Z</time></trkpt><trkpt lat="42.4427495690615" lon="14.044679215489568"><ele>88.0</ele><time>2026-03-29T07:11:18Z</time></trkpt><trkpt lat="42.442801954492246" lon="14.044841101696544"><ele>88.0</ele><time>2026-03-29T07:11:19Z</time></trkpt><trkpt lat="42.44282830553778" lon="14.044958674597252"><ele>88.0</ele><time>2026-03-29T07:11:20Z</time></trkpt><trkpt lat="42.442852045901226" lon="14.045078540351597"><ele>88.0</ele><time>2026-03-29T07:11:21Z</time></trkpt><trkpt lat="42.44288102151807" lon="14.045220281439109"><ele>88.0</ele><time>2026-03-29T07:11:22Z</time></trkpt><trkpt lat="42.442946749840836" lon="14.04534894883047"><ele>88.0</ele><time>2026-03-29T07:11:23Z</time></trkpt><trkpt lat="42.4430219743592" lon="14.045481121171132"><ele>88.0</ele><time>2026-03-29T07:11:24Z</time></trkpt><trkpt lat="42.44309462694482" lon="14.045629989894872"><ele>88.0</ele><time>2026-03-29T07:11:25Z</time></trkpt><trkpt lat="42.44315703567169" lon="14.045783389932849"><ele>88.0</ele><time>2026-03-29T07:11:26Z</time></trkpt><trkpt lat="42.44321864946433" lon="14.045950966967201"><ele>87.75</ele><time>2026-03-29T07:11:27Z</time></trkpt><trkpt lat="42.44327256886888" lon="14.046108650753261"><ele>87.5</ele><time>2026-03-29T07:11:28Z</time></trkpt><trkpt lat="42.443325237464606" lon="14.04625887728008"><ele>87.25</ele><time>2026-03-29T07:11:29Z</time></trkpt><trkpt lat="42.44338357417201" lon="14.046410620830754"><ele>87.0</ele><time>2026-03-29T07:11:30Z</time></trkpt><trkpt lat="42.44344673029049" lon="14.046575026113338"><ele>86.25</ele><time>2026-03-29T07:11:31Z</time></trkpt><trkpt lat="42.44351159501211" lon="14.046748597567989"><ele>85.5</ele><time>2026-03-29T07:11:32Z</time></trkpt><trkpt lat="42.44357585268534" lon="14.046923315643582"><ele>84.75</ele><time>2026-03-29T07:11:33Z</time></trkpt><trkpt lat="42.443641910062205" lon="14.047091601674051"><ele>84.0</ele><time>2026-03-29T07:11:34Z</time></trkpt><trkpt lat="42.44370719373558" lon="14.047252757827655"><ele>84.0</ele><time>2026-03-29T07:11:35Z</time></trkpt><trkpt lat="42.44377313859201" lon="14.047402738930815"><ele>84.0</ele><time>2026-03-29T07:11:36Z</time></trkpt><trkpt lat="42.443838893916514" lon="14.04755868910905"><ele>84.0</ele><time>2026-03-29T07:11:37Z</time></trkpt><trkpt lat="42.44389785289008" lon="14.04772597958929"><ele>84.0</ele><time>2026-03-29T07:11:38Z</time></trkpt><trkpt lat="42.443956961182856" lon="14.04790233299119"><ele>84.0</ele><time>2026-03-29T07:11:39Z</time></trkpt><trkpt lat="42.44401773864808" lon="14.04807699175091"><ele>84.0</ele><time>2026-03-29T07:11:40Z</time></trkpt><trkpt lat="42.44408541048893" lon="14.048251479626131"><ele>84.0</ele><time>2026-03-29T07:11:41Z</time></trkpt><trkpt lat="42.44415452358345" lon="14.048428784190895"><ele>84.0</ele><time>2026-03-29T07:11:42Z</time></trkpt><trkpt lat="42.44421914266515" lon="14.048603835626183"><ele>84.0</ele><time>2026-03-29T07:11:43Z</time></trkpt><trkpt lat="42.44427984799688" lon="14.048782786985942"><ele>84.0</ele><time>2026-03-29T07:11:44Z</time></trkpt><trkpt lat="42.44434304993465" lon="14.048962831321623"><ele>84.0</ele><time>2026-03-29T07:11:45Z</time></trkpt><trkpt lat="42.44440837978607" lon="14.049144591181609"><ele>84.0</ele><time>2026-03-29T07:11:46Z</time></trkpt><trkpt lat="42.44447903802655" lon="14.049317931997784"><ele>83.75</ele><time>2026-03-29T07:11:47Z</time></trkpt><trkpt lat="42.44455393574576" lon="14.049486125539714"><ele>83.5</ele><time>2026-03-29T07:11:48Z</time></trkpt><trkpt lat="42.44461243922367" lon="14.049664878995218"><ele>83.25</ele><time>2026-03-29T07:11:49Z</time></trkpt><trkpt lat="42.444671975051484" lon="14.049840021436982"><ele>83.0</ele><time>2026-03-29T07:11:50Z</time></trkpt><trkpt lat="42.44474669488337" lon="14.050012317005407"><ele>82.25</ele><time>2026-03-29T07:11:51Z</time></trkpt><trkpt lat="42.4448087705118" lon="14.050187823464853"><ele>81.5</ele><time>2026-03-29T07:11:52Z</time></trkpt><trkpt lat="42.444870742239786" lon="14.05036724203084"><ele>80.75</ele><time>2026-03-29T07:11:53Z</time></trkpt><trkpt lat="42.444940717064554" lon="14.050540200538125"><ele>80.0</ele><time>2026-03-29T07:11:54Z</time></trkpt><trkpt lat="42.44501215738343" lon="14.050726294560139"><ele>79.66666666666667</ele><time>2026-03-29T07:11:55Z</time></trkpt><trkpt lat="42.44508158447308" lon="14.050908816621467"><ele>79.33333333333333</ele><time>2026-03-29T07:11:56Z</time></trkpt><trkpt lat="42.44515086686618" lon="14.051096753541588"><ele>79.0</ele><time>2026-03-29T07:11:57Z</time></trkpt><trkpt lat="42.4452210417155" lon="14.05127898449232"><ele>79.0</ele><time>2026-03-29T07:11:58Z</time></trkpt><trkpt lat="42.445288736029504" lon="14.051457928795744"><ele>79.0</ele><time>2026-03-29T07:11:59Z</time></trkpt><trkpt lat="42.445352337753405" lon="14.051635077949184"><ele>79.0</ele><time>2026-03-29T07:12:00Z</time></trkpt><trkpt lat="42.44541666851947" lon="14.05180345539759"><ele>79.0</ele><time>2026-03-29T07:12:01Z</time></trkpt><trkpt lat="42.44547982439593" lon="14.051962749215225"><ele>78.75</ele><time>2026-03-29T07:12:02Z</time></trkpt><trkpt lat="42.44553928016956" lon="14.052127512473653"><ele>78.5</ele><time>2026-03-29T07:12:03Z</time></trkpt><trkpt lat="42.445591399248386" lon="14.052292781155602"><ele>78.25</ele><time>2026-03-29T07:12:04Z</time></trkpt><trkpt lat="42.4456444525538" lon="14.052456460998464"><ele>78.0</ele><time>2026-03-29T07:12:05Z</time></trkpt><trkpt lat="42.44570352290343" lon="14.05261956191884"><ele>78.0</ele><time>2026-03-29T07:12:06Z</time></trkpt><trkpt lat="42.44576478463858" lon="14.052778832260193"><ele>78.0</ele><time>2026-03-29T07:12:07Z</time></trkpt><trkpt lat="42.445828098684935" lon="14.052936732650469"><ele>78.0</ele><time>2026-03-29T07:12:08Z</time></trkpt><trkpt lat="42.445889819130194" lon="14.053099780305999"><ele>78.0</ele><time>2026-03-29T07:12:09Z</time></trkpt><trkpt lat="42.44595107085376" lon="14.05327014516488"><ele>77.5</ele><time>2026-03-29T07:12:10Z</time></trkpt><trkpt lat="42.44601884457864" lon="14.053446658520052"><ele>77.0</ele><time>2026-03-29T07:12:11Z</time></trkpt><trkpt lat="42.44608900923098" lon="14.053626945791482"><ele>76.5</ele><time>2026-03-29T07:12:12Z</time></trkpt><trkpt lat="42.446157694879" lon="14.053807075049601"><ele>76.0</ele><time>2026-03-29T07:12:13Z</time></trkpt><trkpt lat="42.44622484975087" lon="14.053986045308426"><ele>76.0</ele><time>2026-03-29T07:12:14Z</time></trkpt><trkpt lat="42.44628993365387" lon="14.054163123934146"><ele>76.0</ele><time>2026-03-29T07:12:15Z</time></trkpt><trkpt lat="42.44635536997067" lon="14.054339425011426"><ele>76.0</ele><time>2026-03-29T07:12:16Z</time></trkpt><trkpt lat="42.44641949484037" lon="14.054509448482191"><ele>76.0</ele><time>2026-03-29T07:12:17Z</time></trkpt><trkpt lat="42.44648008991368" lon="14.054680399497753"><ele>76.0</ele><time>2026-03-29T07:12:18Z</time></trkpt><trkpt lat="42.44654217543914" lon="14.05484884849873"><ele>76.0</ele><time>2026-03-29T07:12:19Z</time></trkpt><trkpt lat="42.44660599807408" lon="14.05501648759671"><ele>76.0</ele><time>2026-03-29T07:12:20Z</time></trkpt><trkpt lat="42.44667816959087" lon="14.055195175864167"><ele>76.0</ele><time>2026-03-29T07:12:21Z</time></trkpt><trkpt lat="42.446749829552104" lon="14.055381578443404"><ele>76.0</ele><time>2026-03-29T07:12:22Z</time></trkpt><trkpt lat="42.44681542287513" lon="14.055577400537127"><ele>76.0</ele><time>2026-03-29T07:12:23Z</time></trkpt><trkpt lat="42.4468744849611" lon="14.055769102466497"><ele>76.0</ele><time>2026-03-29T07:12:24Z</time></trkpt><trkpt lat="42.44693603243862" lon="14.055941360631454"><ele>75.75</ele><time>2026-03-29T07:12:25Z</time></trkpt><trkpt lat="42.447001584997395" lon="14.056091141831013"><ele>75.5</ele><time>2026-03-29T07:12:26Z</time></trkpt><trkpt lat="42.44706043115721" lon="14.056230845140156"><ele>75.25</ele><time>2026-03-29T07:12:27Z</time></trkpt><trkpt lat="42.44711975383319" lon="14.056384302534877"><ele>75.0</ele><time>2026-03-29T07:12:28Z</time></trkpt><trkpt lat="42.44717855208054" lon="14.056550190336822"><ele>74.33333333333333</ele><time>2026-03-29T07:12:29Z</time></trkpt><trkpt lat="42.447239099792114" lon="14.05672545169802"><ele>73.66666666666666</ele><time>2026-03-29T07:12:30Z</time></trkpt><trkpt lat="42.44730456560482" lon="14.056912393070787"><ele>73.0</ele><time>2026-03-29T07:12:31Z</time></trkpt><trkpt lat="42.44737922647315" lon="14.057109286455985"><ele>73.0</ele><time>2026-03-29T07:12:32Z</time></trkpt><trkpt lat="42.447452570025504" lon="14.05730994497715"><ele>73.0</ele><time>2026-03-29T07:12:33Z</time></trkpt><trkpt lat="42.44753211948246" lon="14.05751131141048"><ele>73.0</ele><time>2026-03-29T07:12:34Z</time></trkpt><trkpt lat="42.44760868400665" lon="14.057711331146631"><ele>71.66666666666666</ele><time>2026-03-29T07:12:35Z</time></trkpt><trkpt lat="42.44768049204739" lon="14.057907274718191"><ele>70.33333333333333</ele><time>2026-03-29T07:12:36Z</time></trkpt><trkpt lat="42.447751518634284" lon="14.0580944375383"><ele>69.0</ele><time>2026-03-29T07:12:37Z</time></trkpt><trkpt lat="42.44782491125426" lon="14.058277918951045"><ele>69.0</ele><time>2026-03-29T07:12:38Z</time></trkpt><trkpt lat="42.44790114766287" lon="14.058465074916784"><ele>69.0</ele><time>2026-03-29T07:12:39Z</time></trkpt><trkpt lat="42.447969171309374" lon="14.058658007271912"><ele>69.0</ele><time>2026-03-29T07:12:40Z</time></trkpt><trkpt lat="42.4480414685641" lon="14.058848275957242"><ele>69.0</ele><time>2026-03-29T07:12:41Z</time></trkpt><trkpt lat="42.448115822765956" lon="14.059037825857375"><ele>69.0</ele><time>2026-03-29T07:12:42Z</time></trkpt><trkpt lat="42.448192020253714" lon="14.059233134909812"><ele>69.0</ele><time>2026-03-29T07:12:43Z</time></trkpt><trkpt lat="42.44826091096348" lon="14.059432971478696"><ele>69.0</ele><time>2026-03-29T07:12:44Z</time></trkpt><trkpt lat="42.44832742259493" lon="14.059632731264227"><ele>69.0</ele><time>2026-03-29T07:12:45Z</time></trkpt><trkpt lat="42.44840131669837" lon="14.059828380271357"><ele>69.0</ele><time>2026-03-29T07:12:46Z</time></trkpt><trkpt lat="42.448478523528024" lon="14.06001975531579"><ele>68.0</ele><time>2026-03-29T07:12:47Z</time></trkpt><trkpt lat="42.448552417457684" lon="14.060209751226212"><ele>67.0</ele><time>2026-03-29T07:12:48Z</time></trkpt><trkpt lat="42.44861897617931" lon="14.060396201839835"><ele>66.0</ele><time>2026-03-29T07:12:49Z</time></trkpt><trkpt lat="42.448687932050404" lon="14.060576480871044"><ele>66.0</ele><time>2026-03-29T07:12:50Z</time></trkpt><trkpt lat="42.44875667818875" lon="14.060755137206778"><ele>66.0</ele><time>2026-03-29T07:12:51Z</time></trkpt><trkpt lat="42.448821641344175" lon="14.060932349656511"><ele>66.0</ele><time>2026-03-29T07:12:52Z</time></trkpt><trkpt lat="42.44888591017729" lon="14.061108983191026"><ele>66.0</ele><time>2026-03-29T07:12:53Z</time></trkpt><trkpt lat="42.44895026669532" lon="14.06128350018542"><ele>65.5</ele><time>2026-03-29T07:12:54Z</time></trkpt><trkpt lat="42.44901529322335" lon="14.061453554407766"><ele>65.0</ele><time>2026-03-29T07:12:55Z</time></trkpt><trkpt lat="42.44907961383842" lon="14.061625127291613"><ele>64.5</ele><time>2026-03-29T07:12:56Z</time></trkpt><trkpt lat="42.44914401818071" lon="14.061794371782359"><ele>64.0</ele><time>2026-03-29T07:12:57Z</time></trkpt><trkpt lat="42.44920743514844" lon="14.061961335595113"><ele>63.99999999999999</ele><time>2026-03-29T07:12:58Z</time></trkpt><trkpt lat="42.44926401099704" lon="14.062107572853247"><ele>64.0</ele><time>2026-03-29T07:12:59Z</time></trkpt><trkpt lat="42.44930166013464" lon="14.062217611487199"><ele>64.0</ele><time>2026-03-29T07:13:00Z</time></trkpt><trkpt lat="42.44933542568355" lon="14.062314177121538"><ele>64.0</ele><time>2026-03-29T07:13:01Z</time></trkpt><trkpt lat="42.44935928068026" lon="14.0623973144521"><ele>63.99999999999999</ele><time>2026-03-29T07:13:02Z</time></trkpt><trkpt lat="42.44937762402849" lon="14.06248099907324"><ele>64.0</ele><time>2026-03-29T07:13:03Z</time></trkpt><trkpt lat="42.44941139372757" lon="14.06261890855116"><ele>63.800000000000004</ele><time>2026-03-29T07:13:05Z</time></trkpt><trkpt lat="42.44943658723661" lon="14.062700095260125"><ele>63.60000000000001</ele><time>2026-03-29T07:13:07Z</time></trkpt><trkpt lat="42.44948211324209" lon="14.06280192142478"><ele>63.4</ele><time>2026-03-29T07:13:39Z</time></trkpt><trkpt lat="42.44954171051125" lon="14.062965617012743"><ele>63.2</ele><time>2026-03-29T07:13:41Z</time></trkpt><trkpt lat="42.44958378371775" lon="14.063057258967323"><ele>63.0</ele><time>2026-03-29T07:13:42Z</time></trkpt><trkpt lat="42.44963132022255" lon="14.063161607214587"><ele>63.25</ele><time>2026-03-29T07:13:43Z</time></trkpt><trkpt lat="42.449684400384044" lon="14.063293481998414"><ele>63.5</ele><time>2026-03-29T07:13:44Z</time></trkpt><trkpt lat="42.449742100475895" lon="14.063438659809245"><ele>63.75</ele><time>2026-03-29T07:13:45Z</time></trkpt><trkpt lat="42.449793316184184" lon="14.063576774424746"><ele>64.0</ele><time>2026-03-29T07:13:46Z</time></trkpt><trkpt lat="42.44984823126636" lon="14.063733677164842"><ele>64.0</ele><time>2026-03-29T07:13:47Z</time></trkpt><trkpt lat="42.44992845031914" lon="14.063959789261885"><ele>64.0</ele><time>2026-03-29T07:13:48Z</time></trkpt><trkpt lat="42.45001733960221" lon="14.064194159440818"><ele>64.0</ele><time>2026-03-29T07:13:49Z</time></trkpt><trkpt lat="42.45010335795296" lon="14.064416840831624"><ele>64.0</ele><time>2026-03-29T07:13:50Z</time></trkpt><trkpt lat="42.450207617177604" lon="14.064685771445406"><ele>64.0</ele><time>2026-03-29T07:13:51Z</time></trkpt><trkpt lat="42.45031653855785" lon="14.06497127725089"><ele>64.0</ele><time>2026-03-29T07:13:52Z</time></trkpt><trkpt lat="42.45042465864845" lon="14.065257141865866"><ele>64.0</ele><time>2026-03-29T07:13:53Z</time></trkpt><trkpt lat="42.45051563267188" lon="14.065495463023023"><ele>64.0</ele><time>2026-03-29T07:13:54Z</time></trkpt><trkpt lat="42.45059364423673" lon="14.065695154060444"><ele>63.666666666666664</ele><time>2026-03-29T07:13:55Z</time></trkpt><trkpt lat="42.450663767187365" lon="14.065888873987229"><ele>63.33333333333333</ele><time>2026-03-29T07:13:56Z</time></trkpt><trkpt lat="42.45073660210188" lon="14.066097642886543"><ele>63.0</ele><time>2026-03-29T07:13:57Z</time></trkpt><trkpt lat="42.45081757658021" lon="14.066325434657417"><ele>63.0</ele><time>2026-03-29T07:13:58Z</time></trkpt><trkpt lat="42.45090214548258" lon="14.066560329288102"><ele>63.0</ele><time>2026-03-29T07:13:59Z</time></trkpt><trkpt lat="42.45099075472613" lon="14.066794347487765"><ele>63.0</ele><time>2026-03-29T07:14:00Z</time></trkpt><trkpt lat="42.451082832054865" lon="14.06702682290207"><ele>63.0</ele><time>2026-03-29T07:14:01Z</time></trkpt><trkpt lat="42.45116863128989" lon="14.067253088408899"><ele>63.0</ele><time>2026-03-29T07:14:02Z</time></trkpt><trkpt lat="42.45124907768782" lon="14.067472709504626"><ele>63.0</ele><time>2026-03-29T07:14:03Z</time></trkpt><trkpt lat="42.45132797540762" lon="14.067691319370557"><ele>62.66666666666667</ele><time>2026-03-29T07:14:04Z</time></trkpt><trkpt lat="42.45140948226673" lon="14.0678993654617"><ele>62.333333333333336</ele><time>2026-03-29T07:14:05Z</time></trkpt><trkpt lat="42.451487072544644" lon="14.068106955506618"><ele>62.0</ele><time>2026-03-29T07:14:06Z</time></trkpt><trkpt lat="42.451560544976076" lon="14.068310539256808"><ele>62.0</ele><time>2026-03-29T07:14:07Z</time></trkpt><trkpt lat="42.45163532519856" lon="14.068510409694948"><ele>62.0</ele><time>2026-03-29T07:14:08Z</time></trkpt><trkpt lat="42.45170972581633" lon="14.0687079299506"><ele>62.0</ele><time>2026-03-29T07:14:09Z</time></trkpt><trkpt lat="42.4517845018639" lon="14.068902162279718"><ele>62.0</ele><time>2026-03-29T07:14:10Z</time></trkpt><trkpt lat="42.45185703620438" lon="14.069097217517895"><ele>62.0</ele><time>2026-03-29T07:14:11Z</time></trkpt><trkpt lat="42.45192829968714" lon="14.069287577888355"><ele>62.0</ele><time>2026-03-29T07:14:12Z</time></trkpt><trkpt lat="42.452002019388935" lon="14.069474021580254"><ele>62.0</ele><time>2026-03-29T07:14:13Z</time></trkpt><trkpt lat="42.452077296208344" lon="14.069671761965349"><ele>62.0</ele><time>2026-03-29T07:14:14Z</time></trkpt><trkpt lat="42.45215671686897" lon="14.069877916858584"><ele>62.0</ele><time>2026-03-29T07:14:15Z</time></trkpt><trkpt lat="42.45223924187694" lon="14.07009052036954"><ele>61.66666666666667</ele><time>2026-03-29T07:14:16Z</time></trkpt><trkpt lat="42.45231568515499" lon="14.070303370657834"><ele>61.33333333333333</ele><time>2026-03-29T07:14:17Z</time></trkpt><trkpt lat="42.452390301533455" lon="14.070523959665122"><ele>61.0</ele><time>2026-03-29T07:14:18Z</time></trkpt><trkpt lat="42.45246900221499" lon="14.070742430863758"><ele>60.666666666666664</ele><time>2026-03-29T07:14:19Z</time></trkpt><trkpt lat="42.45255602168063" lon="14.070963508970733"><ele>60.33333333333333</ele><time>2026-03-29T07:14:20Z</time></trkpt><trkpt lat="42.45264496084675" lon="14.071189268941522"><ele>60.0</ele><time>2026-03-29T07:14:21Z</time></trkpt><trkpt lat="42.4527368685275" lon="14.071426940498451"><ele>59.66666666666667</ele><time>2026-03-29T07:14:22Z</time></trkpt><trkpt lat="42.452822716576655" lon="14.071651464090568"><ele>59.333333333333336</ele><time>2026-03-29T07:14:23Z</time></trkpt><trkpt lat="42.45290080644489" lon="14.071855740392682"><ele>59.0</ele><time>2026-03-29T07:14:24Z</time></trkpt><trkpt lat="42.452982589529014" lon="14.072064075747035"><ele>58.66666666666667</ele><time>2026-03-29T07:14:25Z</time></trkpt><trkpt lat="42.45305860202324" lon="14.072267132491506"><ele>58.33333333333333</ele><time>2026-03-29T07:14:26Z</time></trkpt><trkpt lat="42.45312798499032" lon="14.07246977489341"><ele>58.0</ele><time>2026-03-29T07:14:27Z</time></trkpt><trkpt lat="42.45320126994948" lon="14.072674028871837"><ele>58.33333333333333</ele><time>2026-03-29T07:14:28Z</time></trkpt><trkpt lat="42.45327672986178" lon="14.072876086784353"><ele>58.66666666666667</ele><time>2026-03-29T07:14:29Z</time></trkpt><trkpt lat="42.45335165825317" lon="14.07307908810642"><ele>59.0</ele><time>2026-03-29T07:14:30Z</time></trkpt><trkpt lat="42.45342654311296" lon="14.073281625464444"><ele>59.0</ele><time>2026-03-29T07:14:31Z</time></trkpt><trkpt lat="42.45350157224634" lon="14.073477998691693"><ele>59.0</ele><time>2026-03-29T07:14:32Z</time></trkpt><trkpt lat="42.45357525834773" lon="14.073663686411784"><ele>59.0</ele><time>2026-03-29T07:14:33Z</time></trkpt><trkpt lat="42.45364398423969" lon="14.073844307586338"><ele>59.0</ele><time>2026-03-29T07:14:34Z</time></trkpt><trkpt lat="42.45370722995145" lon="14.074019451640504"><ele>59.0</ele><time>2026-03-29T07:14:35Z</time></trkpt><trkpt lat="42.45377036334921" lon="14.074189526388869"><ele>59.0</ele><time>2026-03-29T07:14:36Z</time></trkpt><trkpt lat="42.45383284908206" lon="14.074354176405508"><ele>59.0</ele><time>2026-03-29T07:14:37Z</time></trkpt><trkpt lat="42.4538897293718" lon="14.07451285430383"><ele>58.800000000000004</ele><time>2026-03-29T07:14:38Z</time></trkpt><trkpt lat="42.4539465757928" lon="14.07464736728209"><ele>58.60000000000001</ele><time>2026-03-29T07:14:39Z</time></trkpt><trkpt lat="42.454003115578125" lon="14.074773232069077"><ele>58.4</ele><time>2026-03-29T07:14:40Z</time></trkpt><trkpt lat="42.454041077292686" lon="14.074918323786264"><ele>58.2</ele><time>2026-03-29T07:14:41Z</time></trkpt><trkpt lat="42.45410693140298" lon="14.075021121094476"><ele>58.0</ele><time>2026-03-29T07:14:42Z</time></trkpt><trkpt lat="42.45415269659304" lon="14.07512228347809"><ele>58.0</ele><time>2026-03-29T07:14:43Z</time></trkpt><trkpt lat="42.45419691481385" lon="14.075221649423167"><ele>58.0</ele><time>2026-03-29T07:14:44Z</time></trkpt><trkpt lat="42.45423347627306" lon="14.075304661511897"><ele>58.0</ele><time>2026-03-29T07:14:45Z</time></trkpt><trkpt lat="42.4542641853353" lon="14.07538035522155"><ele>58.0</ele><time>2026-03-29T07:14:46Z</time></trkpt><trkpt lat="42.45442062917346" lon="14.075320413682311"><ele>58.0</ele><time>2026-03-29T07:14:48Z</time></trkpt><trkpt lat="42.454509496705214" lon="14.075214198800333"><ele>57.5</ele><time>2026-03-29T07:14:49Z</time></trkpt><trkpt lat="42.45462468941727" lon="14.075117578923765"><ele>57.0</ele><time>2026-03-29T07:14:50Z</time></trkpt><trkpt lat="42.45475200669323" lon="14.075037990922201"><ele>56.5</ele><time>2026-03-29T07:14:51Z</time></trkpt><trkpt lat="42.45488297698961" lon="14.074953831703436"><ele>56.0</ele><time>2026-03-29T07:14:52Z</time></trkpt><trkpt lat="42.45502862846607" lon="14.074864703311833"><ele>55.75</ele><time>2026-03-29T07:14:53Z</time></trkpt><trkpt lat="42.455175676006625" lon="14.07478340674666"><ele>55.5</ele><time>2026-03-29T07:14:54Z</time></trkpt><trkpt lat="42.4553034864739" lon="14.074721988621322"><ele>55.25</ele><time>2026-03-29T07:14:55Z</time></trkpt><trkpt lat="42.455435306848" lon="14.074671654686899"><ele>55.0</ele><time>2026-03-29T07:14:56Z</time></trkpt><trkpt lat="42.455581771257876" lon="14.07460258564363"><ele>54.5</ele><time>2026-03-29T07:14:57Z</time></trkpt><trkpt lat="42.45573261473787" lon="14.07452999893064"><ele>54.0</ele><time>2026-03-29T07:14:58Z</time></trkpt><trkpt lat="42.455867399229554" lon="14.074469237326884"><ele>53.5</ele><time>2026-03-29T07:14:59Z</time></trkpt><trkpt lat="42.45599803233735" lon="14.07440978707993"><ele>53.0</ele><time>2026-03-29T07:15:00Z</time></trkpt><trkpt lat="42.45613821920234" lon="14.074339388258394"><ele>53.0</ele><time>2026-03-29T07:15:01Z</time></trkpt><trkpt lat="42.45627657432291" lon="14.074269820507263"><ele>53.0</ele><time>2026-03-29T07:15:02Z</time></trkpt><trkpt lat="42.456411481057266" lon="14.074203785958648"><ele>53.0</ele><time>2026-03-29T07:15:03Z</time></trkpt><trkpt lat="42.456546675801214" lon="14.074138114867422"><ele>53.0</ele><time>2026-03-29T07:15:04Z</time></trkpt><trkpt lat="42.45666699425213" lon="14.074083279605901"><ele>53.0</ele><time>2026-03-29T07:15:05Z</time></trkpt><trkpt lat="42.45678072675522" lon="14.07403729424825"><ele>53.0</ele><time>2026-03-29T07:15:06Z</time></trkpt><trkpt lat="42.45689100628817" lon="14.073993817258499"><ele>53.0</ele><time>2026-03-29T07:15:07Z</time></trkpt><trkpt lat="42.45701287255787" lon="14.07394966798014"><ele>53.0</ele><time>2026-03-29T07:15:08Z</time></trkpt><trkpt lat="42.45713838209004" lon="14.073900929387204"><ele>53.2</ele><time>2026-03-29T07:15:09Z</time></trkpt><trkpt lat="42.45725071746638" lon="14.073855047206619"><ele>53.4</ele><time>2026-03-29T07:15:10Z</time></trkpt><trkpt lat="42.45734714070966" lon="14.073815898280191"><ele>53.60000000000001</ele><time>2026-03-29T07:15:11Z</time></trkpt><trkpt lat="42.457436892513634" lon="14.073779567612101"><ele>53.800000000000004</ele><time>2026-03-29T07:15:12Z</time></trkpt><trkpt lat="42.4575252981587" lon="14.07374728732075"><ele>54.0</ele><time>2026-03-29T07:15:13Z</time></trkpt><trkpt lat="42.457613035233436" lon="14.073720748972326"><ele>54.0</ele><time>2026-03-29T07:15:14Z</time></trkpt><trkpt lat="42.45769607632865" lon="14.073684603130676"><ele>54.00000000000001</ele><time>2026-03-29T07:15:15Z</time></trkpt><trkpt lat="42.45777725637165" lon="14.073656749699996"><ele>54.00000000000001</ele><time>2026-03-29T07:15:16Z</time></trkpt><trkpt lat="42.45784631258665" lon="14.073624692004511"><ele>54.0</ele><time>2026-03-29T07:15:17Z</time></trkpt><trkpt lat="42.45795952739903" lon="14.073577849683035"><ele>54.0</ele><time>2026-03-29T07:15:19Z</time></trkpt><trkpt lat="42.45810034980489" lon="14.073498886477735"><ele>54.2</ele><time>2026-03-29T07:15:21Z</time></trkpt><trkpt lat="42.458208247996865" lon="14.073449021194968"><ele>54.400000000000006</ele><time>2026-03-29T07:15:22Z</time></trkpt><trkpt lat="42.458323539292834" lon="14.073423685219964"><ele>54.6</ele><time>2026-03-29T07:15:23Z</time></trkpt><trkpt lat="42.458412907242376" lon="14.073402333148609"><ele>54.8</ele><time>2026-03-29T07:15:24Z</time></trkpt><trkpt lat="42.45847426434231" lon="14.073377454656294"><ele>55.0</ele><time>2026-03-29T07:15:25Z</time></trkpt><trkpt lat="42.45852760544597" lon="14.073328244597999"><ele>55.0</ele><time>2026-03-29T07:15:26Z</time></trkpt><trkpt lat="42.45855801807068" lon="14.073242119022845"><ele>55.0</ele><time>2026-03-29T07:15:28Z</time></trkpt><trkpt lat="42.4585489512357" lon="14.073124375742273"><ele>55.0</ele><time>2026-03-29T07:15:34Z</time></trkpt><trkpt lat="42.458489417234986" lon="14.072951007457508"><ele>55.0</ele><time>2026-03-29T07:15:36Z</time></trkpt><trkpt lat="42.45846301221676" lon="14.072850186060235"><ele>55.0</ele><time>2026-03-29T07:15:37Z</time></trkpt><trkpt lat="42.45842560183078" lon="14.072751935451759"><ele>55.0</ele><time>2026-03-29T07:15:38Z</time></trkpt><trkpt lat="42.458363125304395" lon="14.072629925077374"><ele>55.0</ele><time>2026-03-29T07:15:39Z</time></trkpt><trkpt lat="42.458296940385466" lon="14.072507849780843"><ele>55.0</ele><time>2026-03-29T07:15:40Z</time></trkpt><trkpt lat="42.45824875702962" lon="14.072321342544551"><ele>55.0</ele><time>2026-03-29T07:15:41Z</time></trkpt><trkpt lat="42.45820904471654" lon="14.072107225250965"><ele>54.75</ele><time>2026-03-29T07:15:42Z</time></trkpt><trkpt lat="42.45817946198772" lon="14.071882545295182"><ele>54.5</ele><time>2026-03-29T07:15:43Z</time></trkpt><trkpt lat="42.45816310389057" lon="14.071704241040937"><ele>54.25</ele><time>2026-03-29T07:15:44Z</time></trkpt><trkpt lat="42.45816622713764" lon="14.07153057225851"><ele>54.0</ele><time>2026-03-29T07:15:45Z</time></trkpt><trkpt lat="42.45816786444472" lon="14.071371029212056"><ele>54.0</ele><time>2026-03-29T07:15:46Z</time></trkpt><trkpt lat="42.45815109939261" lon="14.071198860365115"><ele>54.0</ele><time>2026-03-29T07:15:47Z</time></trkpt><trkpt lat="42.45810044001284" lon="14.070999329096594"><ele>54.0</ele><time>2026-03-29T07:15:48Z</time></trkpt><trkpt lat="42.45801552341496" lon="14.0707682449438"><ele>53.33333333333333</ele><time>2026-03-29T07:15:49Z</time></trkpt><trkpt lat="42.457936765012846" lon="14.070547461744562"><ele>52.666666666666664</ele><time>2026-03-29T07:15:50Z</time></trkpt><trkpt lat="42.45786219944663" lon="14.070340160503124"><ele>52.0</ele><time>2026-03-29T07:15:51Z</time></trkpt><trkpt lat="42.457807283684396" lon="14.0701514672868"><ele>52.0</ele><time>2026-03-29T07:15:52Z</time></trkpt><trkpt lat="42.457781589557875" lon="14.06997314197442"><ele>52.0</ele><time>2026-03-29T07:15:53Z</time></trkpt><trkpt lat="42.45776870105451" lon="14.069809862018058"><ele>52.0</ele><time>2026-03-29T07:15:54Z</time></trkpt><trkpt lat="42.45773365594964" lon="14.069659886533486"><ele>52.0</ele><time>2026-03-29T07:15:55Z</time></trkpt><trkpt lat="42.45768479995194" lon="14.069507980247701"><ele>52.5</ele><time>2026-03-29T07:15:56Z</time></trkpt><trkpt lat="42.45760169270164" lon="14.06938612075149"><ele>53.0</ele><time>2026-03-29T07:15:57Z</time></trkpt><trkpt lat="42.45750690951886" lon="14.069256568453453"><ele>53.5</ele><time>2026-03-29T07:15:58Z</time></trkpt><trkpt lat="42.457419847167685" lon="14.069132693171145"><ele>54.0</ele><time>2026-03-29T07:15:59Z</time></trkpt><trkpt lat="42.45734622746249" lon="14.069020356614331"><ele>54.400000000000006</ele><time>2026-03-29T07:16:00Z</time></trkpt><trkpt lat="42.457281968152074" lon="14.068925868849803"><ele>54.800000000000004</ele><time>2026-03-29T07:16:01Z</time></trkpt><trkpt lat="42.45720969020628" lon="14.06884156788312"><ele>55.199999999999996</ele><time>2026-03-29T07:16:02Z</time></trkpt><trkpt lat="42.45711965607064" lon="14.068766905695565"><ele>55.599999999999994</ele><time>2026-03-29T07:16:03Z</time></trkpt><trkpt lat="42.45701031397033" lon="14.068681724521891"><ele>56.0</ele><time>2026-03-29T07:16:04Z</time></trkpt><trkpt lat="42.456893879669586" lon="14.068564418796253"><ele>56.0</ele><time>2026-03-29T07:16:05Z</time></trkpt><trkpt lat="42.4567888833307" lon="14.068415294161579"><ele>56.0</ele><time>2026-03-29T07:16:06Z</time></trkpt><trkpt lat="42.456711522823376" lon="14.06826032279829"><ele>56.0</ele><time>2026-03-29T07:16:07Z</time></trkpt><trkpt lat="42.45665926756759" lon="14.068114786280017"><ele>56.0</ele><time>2026-03-29T07:16:08Z</time></trkpt><trkpt lat="42.45662010674762" lon="14.067939395848954"><ele>56.0</ele><time>2026-03-29T07:16:09Z</time></trkpt><trkpt lat="42.45659147396452" lon="14.067724595539241"><ele>56.0</ele><time>2026-03-29T07:16:10Z</time></trkpt><trkpt lat="42.45655112224767" lon="14.067519027217928"><ele>56.0</ele><time>2026-03-29T07:16:11Z</time></trkpt><trkpt lat="42.456523008714626" lon="14.067386511572849"><ele>56.0</ele><time>2026-03-29T07:16:12Z</time></trkpt><trkpt lat="42.456473880354864" lon="14.067267635929651"><ele>56.0</ele><time>2026-03-29T07:16:13Z</time></trkpt><trkpt lat="42.45638378806594" lon="14.067117051766417"><ele>56.0</ele><time>2026-03-29T07:16:14Z</time></trkpt><trkpt lat="42.456301254477665" lon="14.066969126469694"><ele>56.0</ele><time>2026-03-29T07:16:15Z</time></trkpt><trkpt lat="42.45622051700816" lon="14.06683942739124"><ele>56.0</ele><time>2026-03-29T07:16:16Z</time></trkpt><trkpt lat="42.45612994922681" lon="14.066717234995306"><ele>56.25</ele><time>2026-03-29T07:16:17Z</time></trkpt><trkpt lat="42.4560092597063" lon="14.066591330115152"><ele>56.5</ele><time>2026-03-29T07:16:18Z</time></trkpt><trkpt lat="42.455881228520134" lon="14.066479445207287"><ele>56.75</ele><time>2026-03-29T07:16:19Z</time></trkpt><trkpt lat="42.45576006891027" lon="14.066414091086147"><ele>57.0</ele><time>2026-03-29T07:16:20Z</time></trkpt><trkpt lat="42.4556203787089" lon="14.066368103262034"><ele>57.0</ele><time>2026-03-29T07:16:21Z</time></trkpt><trkpt lat="42.45550705181702" lon="14.066347531052974"><ele>57.0</ele><time>2026-03-29T07:16:22Z</time></trkpt><trkpt lat="42.455430818271765" lon="14.06632078389923"><ele>57.0</ele><time>2026-03-29T07:16:23Z</time></trkpt><trkpt lat="42.45535621769733" lon="14.066263070155733"><ele>57.0</ele><time>2026-03-29T07:16:24Z</time></trkpt><trkpt lat="42.45528197141775" lon="14.06620222835842"><ele>57.0</ele><time>2026-03-29T07:16:25Z</time></trkpt><trkpt lat="42.45521315942179" lon="14.066142239028485"><ele>57.0</ele><time>2026-03-29T07:16:26Z</time></trkpt><trkpt lat="42.45513948424558" lon="14.06608793983673"><ele>57.0</ele><time>2026-03-29T07:16:27Z</time></trkpt><trkpt lat="42.45507378361949" lon="14.066046116528947"><ele>57.0</ele><time>2026-03-29T07:16:28Z</time></trkpt><trkpt lat="42.4549957755304" lon="14.06601429379451"><ele>57.0</ele><time>2026-03-29T07:16:29Z</time></trkpt><trkpt lat="42.454902557915155" lon="14.065986375798921"><ele>57.0</ele><time>2026-03-29T07:16:30Z</time></trkpt><trkpt lat="42.454793656068304" lon="14.06595781752685"><ele>57.0</ele><time>2026-03-29T07:16:31Z</time></trkpt><trkpt lat="42.454692917885204" lon="14.065934197724781"><ele>57.400000000000006</ele><time>2026-03-29T07:16:32Z</time></trkpt><trkpt lat="42.45459812082785" lon="14.065921083750572"><ele>57.800000000000004</ele><time>2026-03-29T07:16:33Z</time></trkpt><trkpt lat="42.45450964497202" lon="14.065936551956776"><ele>58.2</ele><time>2026-03-29T07:16:34Z</time></trkpt><trkpt lat="42.454421425823305" lon="14.065958251667453"><ele>58.6</ele><time>2026-03-29T07:16:35Z</time></trkpt><trkpt lat="42.4543320933413" lon="14.065943151484857"><ele>59.0</ele><time>2026-03-29T07:16:36Z</time></trkpt><trkpt lat="42.45423971898771" lon="14.0659080934271"><ele>59.0</ele><time>2026-03-29T07:16:37Z</time></trkpt><trkpt lat="42.45416575111149" lon="14.065886603213588"><ele>59.00000000000001</ele><time>2026-03-29T07:16:38Z</time></trkpt><trkpt lat="42.454091315247176" lon="14.065870345402804"><ele>59.00000000000001</ele><time>2026-03-29T07:16:39Z</time></trkpt><trkpt lat="42.45400135935917" lon="14.065880404869468"><ele>59.0</ele><time>2026-03-29T07:16:40Z</time></trkpt><trkpt lat="42.45389216132812" lon="14.065883910381382"><ele>59.0</ele><time>2026-03-29T07:16:41Z</time></trkpt><trkpt lat="42.45377131590345" lon="14.065865121477417"><ele>59.16666666666667</ele><time>2026-03-29T07:16:42Z</time></trkpt><trkpt lat="42.45367560387906" lon="14.06584252970753"><ele>59.333333333333336</ele><time>2026-03-29T07:16:43Z</time></trkpt><trkpt lat="42.453606009805156" lon="14.065831180985356"><ele>59.5</ele><time>2026-03-29T07:16:44Z</time></trkpt><trkpt lat="42.453541337613586" lon="14.06581927261209"><ele>59.66666666666667</ele><time>2026-03-29T07:16:45Z</time></trkpt><trkpt lat="42.45348681306553" lon="14.065773073763573"><ele>59.833333333333336</ele><time>2026-03-29T07:16:46Z</time></trkpt><trkpt lat="42.453431963265544" lon="14.065689991805423"><ele>60.0</ele><time>2026-03-29T07:16:47Z</time></trkpt><trkpt lat="42.45331221875949" lon="14.065620267818357"><ele>60.0</ele><time>2026-03-29T07:16:49Z</time></trkpt><trkpt lat="42.453235790513396" lon="14.06559212881122"><ele>60.0</ele><time>2026-03-29T07:16:50Z</time></trkpt><trkpt lat="42.45316265427062" lon="14.065565494631757"><ele>60.0</ele><time>2026-03-29T07:16:51Z</time></trkpt><trkpt lat="42.45309814138285" lon="14.065547456207453"><ele>60.0</ele><time>2026-03-29T07:16:52Z</time></trkpt><trkpt lat="42.45302869599112" lon="14.065534235294113"><ele>60.0</ele><time>2026-03-29T07:16:53Z</time></trkpt><trkpt lat="42.452957659227756" lon="14.065506999129717"><ele>60.0</ele><time>2026-03-29T07:16:54Z</time></trkpt><trkpt lat="42.45287443447327" lon="14.065462218538539"><ele>60.166666666666664</ele><time>2026-03-29T07:16:55Z</time></trkpt><trkpt lat="42.452783691678775" lon="14.065409215941992"><ele>60.33333333333333</ele><time>2026-03-29T07:16:56Z</time></trkpt><trkpt lat="42.452687568979016" lon="14.06538129917032"><ele>60.5</ele><time>2026-03-29T07:16:57Z</time></trkpt><trkpt lat="42.452605467195575" lon="14.06536095836474"><ele>60.666666666666664</ele><time>2026-03-29T07:16:58Z</time></trkpt><trkpt lat="42.452534847640045" lon="14.065348426615024"><ele>60.83333333333333</ele><time>2026-03-29T07:16:59Z</time></trkpt><trkpt lat="42.45246192318982" lon="14.065360480887563"><ele>61.0</ele><time>2026-03-29T07:17:00Z</time></trkpt><trkpt lat="42.45236308154185" lon="14.06537295604266"><ele>60.99999999999999</ele><time>2026-03-29T07:17:01Z</time></trkpt><trkpt lat="42.45226981249374" lon="14.065359289539067"><ele>61.0</ele><time>2026-03-29T07:17:02Z</time></trkpt><trkpt lat="42.45219735259187" lon="14.06535838153863"><ele>61.0</ele><time>2026-03-29T07:17:03Z</time></trkpt><trkpt lat="42.452121604834815" lon="14.06534110844865"><ele>61.0</ele><time>2026-03-29T07:17:04Z</time></trkpt><trkpt lat="42.4520539351627" lon="14.065303568758019"><ele>60.99999999999999</ele><time>2026-03-29T07:17:05Z</time></trkpt><trkpt lat="42.45197827814738" lon="14.065228874294792"><ele>61.0</ele><time>2026-03-29T07:17:06Z</time></trkpt><trkpt lat="42.45191320821052" lon="14.065147833067552"><ele>61.0</ele><time>2026-03-29T07:17:07Z</time></trkpt><trkpt lat="42.45182500137168" lon="14.065082898456822"><ele>60.99999999999999</ele><time>2026-03-29T07:17:08Z</time></trkpt><trkpt lat="42.451735433339564" lon="14.065029137758167"><ele>60.99999999999999</ele><time>2026-03-29T07:17:09Z</time></trkpt><trkpt lat="42.45163140781219" lon="14.064977270210694"><ele>61.0</ele><time>2026-03-29T07:17:10Z</time></trkpt><trkpt lat="42.4515311895061" lon="14.064944653060728"><ele>61.0</ele><time>2026-03-29T07:17:11Z</time></trkpt><trkpt lat="42.45142790623335" lon="14.064911530982759"><ele>60.99999999999999</ele><time>2026-03-29T07:17:12Z</time></trkpt><trkpt lat="42.451323006436226" lon="14.064882247073461"><ele>61.0</ele><time>2026-03-29T07:17:13Z</time></trkpt><trkpt lat="42.451248370398424" lon="14.064870297361276"><ele>61.0</ele><time>2026-03-29T07:17:14Z</time></trkpt><trkpt lat="42.45116926216552" lon="14.064855034127197"><ele>61.0</ele><time>2026-03-29T07:17:15Z</time></trkpt><trkpt lat="42.4510968660693" lon="14.064862016804764"><ele>60.99999999999999</ele><time>2026-03-29T07:17:16Z</time></trkpt><trkpt lat="42.4510067298546" lon="14.064872199326098"><ele>61.0</ele><time>2026-03-29T07:17:17Z</time></trkpt><trkpt lat="42.45090854617578" lon="14.064899985147877"><ele>60.83333333333333</ele><time>2026-03-29T07:17:18Z</time></trkpt><trkpt lat="42.450817395021296" lon="14.064923507396113"><ele>60.666666666666664</ele><time>2026-03-29T07:17:19Z</time></trkpt><trkpt lat="42.45072370218827" lon="14.064944449036888"><ele>60.5</ele><time>2026-03-29T07:17:20Z</time></trkpt><trkpt lat="42.45062929387837" lon="14.064915720963052"><ele>60.33333333333333</ele><time>2026-03-29T07:17:21Z</time></trkpt><trkpt lat="42.4505563001039" lon="14.064889469856583"><ele>60.166666666666664</ele><time>2026-03-29T07:17:22Z</time></trkpt><trkpt lat="42.450493228716944" lon="14.064869716507621"><ele>60.0</ele><time>2026-03-29T07:17:23Z</time></trkpt><trkpt lat="42.45038880228077" lon="14.064838494220066"><ele>60.4</ele><time>2026-03-29T07:17:25Z</time></trkpt><trkpt lat="42.45029388940374" lon="14.064744046281586"><ele>60.8</ele><time>2026-03-29T07:17:27Z</time></trkpt><trkpt lat="42.450255085757256" lon="14.064650345640095"><ele>61.2</ele><time>2026-03-29T07:17:28Z</time></trkpt><trkpt lat="42.45022850930606" lon="14.064519384150994"><ele>61.6</ele><time>2026-03-29T07:17:30Z</time></trkpt><trkpt lat="42.45018862733337" lon="14.06443263297174"><ele>62.0</ele><time>2026-03-29T07:17:33Z</time></trkpt><trkpt lat="42.45002075216742" lon="14.064475567567596"><ele>62.0</ele><time>2026-03-29T07:17:47Z</time></trkpt><trkpt lat="42.449960553856144" lon="14.064533369351556"><ele>62.0</ele><time>2026-03-29T07:17:48Z</time></trkpt><trkpt lat="42.449884848745064" lon="14.064574623884024"><ele>62.0</ele><time>2026-03-29T07:17:49Z</time></trkpt><trkpt lat="42.449785666574364" lon="14.064651074368394"><ele>62.0</ele><time>2026-03-29T07:17:50Z</time></trkpt><trkpt lat="42.44968335855401" lon="14.06471740388605"><ele>62.0</ele><time>2026-03-29T07:17:51Z</time></trkpt><trkpt lat="42.44957376492659" lon="14.064756046535637"><ele>62.2</ele><time>2026-03-29T07:17:52Z</time></trkpt><trkpt lat="42.449471948670876" lon="14.064800504027769"><ele>62.400000000000006</ele><time>2026-03-29T07:17:53Z</time></trkpt><trkpt lat="42.44936799100844" lon="14.064841633989367"><ele>62.599999999999994</ele><time>2026-03-29T07:17:54Z</time></trkpt><trkpt lat="42.44926259922406" lon="14.064878076800232"><ele>62.8</ele><time>2026-03-29T07:17:55Z</time></trkpt><trkpt lat="42.44915956093949" lon="14.064914881517076"><ele>63.0</ele><time>2026-03-29T07:17:56Z</time></trkpt><trkpt lat="42.4490769963723" lon="14.064946225716913"><ele>63.0</ele><time>2026-03-29T07:17:57Z</time></trkpt><trkpt lat="42.44900367746269" lon="14.064964210432088"><ele>63.0</ele><time>2026-03-29T07:17:58Z</time></trkpt><trkpt lat="42.44893874160149" lon="14.064936995287956"><ele>63.0</ele><time>2026-03-29T07:17:59Z</time></trkpt><trkpt lat="42.44886235583443" lon="14.06487201059268"><ele>63.0</ele><time>2026-03-29T07:18:00Z</time></trkpt><trkpt lat="42.44879617220098" lon="14.06483431108336"><ele>63.0</ele><time>2026-03-29T07:18:01Z</time></trkpt><trkpt lat="42.448715320043945" lon="14.064820017474418"><ele>63.0</ele><time>2026-03-29T07:18:02Z</time></trkpt><trkpt lat="42.44862378386734" lon="14.064793077550549"><ele>63.333333333333336</ele><time>2026-03-29T07:18:03Z</time></trkpt><trkpt lat="42.44853618417962" lon="14.064752830335122"><ele>63.66666666666667</ele><time>2026-03-29T07:18:04Z</time></trkpt><trkpt lat="42.448452198724404" lon="14.064725111471"><ele>64.0</ele><time>2026-03-29T07:18:05Z</time></trkpt><trkpt lat="42.44837797595698" lon="14.064722613088783"><ele>64.33333333333334</ele><time>2026-03-29T07:18:06Z</time></trkpt><trkpt lat="42.44829855755619" lon="14.064728192179494"><ele>64.66666666666667</ele><time>2026-03-29T07:18:07Z</time></trkpt><trkpt lat="42.448212688241604" lon="14.064740224636772"><ele>65.0</ele><time>2026-03-29T07:18:08Z</time></trkpt><trkpt lat="42.44813625243141" lon="14.064763486696942"><ele>65.0</ele><time>2026-03-29T07:18:09Z</time></trkpt><trkpt lat="42.44807292857698" lon="14.064788240751891"><ele>65.0</ele><time>2026-03-29T07:18:10Z</time></trkpt><trkpt lat="42.447987664071206" lon="14.064794962333517"><ele>65.0</ele><time>2026-03-29T07:18:12Z</time></trkpt><trkpt lat="42.447945039514785" lon="14.064712319224508"><ele>65.0</ele><time>2026-03-29T07:18:14Z</time></trkpt><trkpt lat="42.44789248621598" lon="14.064612119825465"><ele>65.0</ele><time>2026-03-29T07:18:16Z</time></trkpt><trkpt lat="42.447781002503525" lon="14.06460978126366"><ele>65.0</ele><time>2026-03-29T07:18:19Z</time></trkpt><trkpt lat="42.44766201401824" lon="14.064615102660245"><ele>65.4</ele><time>2026-03-29T07:18:21Z</time></trkpt><trkpt lat="42.44758991011989" lon="14.06461935729836"><ele>65.8</ele><time>2026-03-29T07:18:22Z</time></trkpt><trkpt lat="42.44749496179724" lon="14.064585615604956"><ele>66.2</ele><time>2026-03-29T07:18:24Z</time></trkpt><trkpt lat="42.44746068511252" lon="14.06450370696982"><ele>66.6</ele><time>2026-03-29T07:18:26Z</time></trkpt><trkpt lat="42.447348413129085" lon="14.06440621999385"><ele>67.0</ele><time>2026-03-29T07:18:28Z</time></trkpt><trkpt lat="42.44727302196857" lon="14.064376680114218"><ele>67.0</ele><time>2026-03-29T07:18:29Z</time></trkpt><trkpt lat="42.44719392245885" lon="14.064322281169352"><ele>67.0</ele><time>2026-03-29T07:18:30Z</time></trkpt><trkpt lat="42.44713240385054" lon="14.06426335034189"><ele>67.0</ele><time>2026-03-29T07:18:31Z</time></trkpt><trkpt lat="42.44707447731971" lon="14.064197506811148"><ele>67.0</ele><time>2026-03-29T07:18:32Z</time></trkpt><trkpt lat="42.447021374378245" lon="14.064136680308712"><ele>67.0</ele><time>2026-03-29T07:18:33Z</time></trkpt><trkpt lat="42.4469601445366" lon="14.064081565650131"><ele>67.0</ele><time>2026-03-29T07:18:34Z</time></trkpt><trkpt lat="42.44690255346925" lon="14.064037664636704"><ele>67.0</ele><time>2026-03-29T07:18:35Z</time></trkpt><trkpt lat="42.446841047003375" lon="14.064018722576401"><ele>67.0</ele><time>2026-03-29T07:18:36Z</time></trkpt><trkpt lat="42.44673063891173" lon="14.063939415561977"><ele>67.0</ele><time>2026-03-29T07:18:38Z</time></trkpt><trkpt lat="42.44667718566078" lon="14.063868601157255"><ele>67.0</ele><time>2026-03-29T07:18:39Z</time></trkpt><trkpt lat="42.44661736896016" lon="14.063811879689498"><ele>67.0</ele><time>2026-03-29T07:18:40Z</time></trkpt><trkpt lat="42.44653885375404" lon="14.063778485808104"><ele>67.0</ele><time>2026-03-29T07:18:41Z</time></trkpt><trkpt lat="42.44647047771007" lon="14.063774291630207"><ele>67.0</ele><time>2026-03-29T07:18:42Z</time></trkpt><trkpt lat="42.446405830347956" lon="14.063750225053568"><ele>67.0</ele><time>2026-03-29T07:18:45Z</time></trkpt><trkpt lat="42.446327118346126" lon="14.063767085790895"><ele>67.0</ele><time>2026-03-29T07:18:54Z</time></trkpt><trkpt lat="42.44622672806349" lon="14.063834234728407"><ele>67.0</ele><time>2026-03-29T07:18:56Z</time></trkpt><trkpt lat="42.44616882905895" lon="14.063890203380508"><ele>67.0</ele><time>2026-03-29T07:18:58Z</time></trkpt><trkpt lat="42.44612272373574" lon="14.063952874144391"><ele>67.0</ele><time>2026-03-29T07:19:00Z</time></trkpt><trkpt lat="42.44604970464594" lon="14.064019788362955"><ele>67.0</ele><time>2026-03-29T07:19:02Z</time></trkpt><trkpt lat="42.445950254146545" lon="14.063962182706335"><ele>67.4</ele><time>2026-03-29T07:19:04Z</time></trkpt><trkpt lat="42.4458902102604" lon="14.063888690244227"><ele>67.80000000000001</ele><time>2026-03-29T07:19:05Z</time></trkpt><trkpt lat="42.44582021686426" lon="14.063812325369605"><ele>68.2</ele><time>2026-03-29T07:19:06Z</time></trkpt><trkpt lat="42.44574616567287" lon="14.063752596383598"><ele>68.60000000000001</ele><time>2026-03-29T07:19:07Z</time></trkpt><trkpt lat="42.44565489939411" lon="14.063676891536879"><ele>69.0</ele><time>2026-03-29T07:19:08Z</time></trkpt><trkpt lat="42.44556143528544" lon="14.06357846040166"><ele>69.0</ele><time>2026-03-29T07:19:09Z</time></trkpt><trkpt lat="42.445455240675464" lon="14.063469111782377"><ele>69.0</ele><time>2026-03-29T07:19:10Z</time></trkpt><trkpt lat="42.44535262270743" lon="14.063369683616488"><ele>69.0</ele><time>2026-03-29T07:19:11Z</time></trkpt><trkpt lat="42.44523783615788" lon="14.063274104533813"><ele>69.0</ele><time>2026-03-29T07:19:12Z</time></trkpt><trkpt lat="42.44511574995379" lon="14.063192737458374"><ele>69.0</ele><time>2026-03-29T07:19:13Z</time></trkpt><trkpt lat="42.44498408153081" lon="14.063138718163339"><ele>69.0</ele><time>2026-03-29T07:19:14Z</time></trkpt><trkpt lat="42.444826126394545" lon="14.063111315707426"><ele>69.0</ele><time>2026-03-29T07:19:15Z</time></trkpt><trkpt lat="42.44469017351737" lon="14.063110006357949"><ele>69.0</ele><time>2026-03-29T07:19:16Z</time></trkpt><trkpt lat="42.4445687671482" lon="14.063104969642872"><ele>69.0</ele><time>2026-03-29T07:19:17Z</time></trkpt><trkpt lat="42.444439947450114" lon="14.063062906309792"><ele>69.0</ele><time>2026-03-29T07:19:18Z</time></trkpt><trkpt lat="42.444305579416266" lon="14.062964372816353"><ele>69.0</ele><time>2026-03-29T07:19:19Z</time></trkpt><trkpt lat="42.44415235688484" lon="14.06280159949931"><ele>69.0</ele><time>2026-03-29T07:19:20Z</time></trkpt><trkpt lat="42.44399682175513" lon="14.062657224574732"><ele>69.0</ele><time>2026-03-29T07:19:21Z</time></trkpt><trkpt lat="42.44386514161044" lon="14.062534716833946"><ele>69.0</ele><time>2026-03-29T07:19:22Z</time></trkpt><trkpt lat="42.4437622651989" lon="14.062420232651348"><ele>68.75</ele><time>2026-03-29T07:19:23Z</time></trkpt><trkpt lat="42.44366811742713" lon="14.062296631120367"><ele>68.5</ele><time>2026-03-29T07:19:24Z</time></trkpt><trkpt lat="42.44359114045481" lon="14.062150245290708"><ele>68.25</ele><time>2026-03-29T07:19:25Z</time></trkpt><trkpt lat="42.44354921550766" lon="14.061988560701078"><ele>68.0</ele><time>2026-03-29T07:19:26Z</time></trkpt><trkpt lat="42.44352571080864" lon="14.061819696622507"><ele>68.0</ele><time>2026-03-29T07:19:27Z</time></trkpt><trkpt lat="42.443487811810634" lon="14.061672046196552"><ele>68.0</ele><time>2026-03-29T07:19:28Z</time></trkpt><trkpt lat="42.443408716513915" lon="14.061558132638716"><ele>68.0</ele><time>2026-03-29T07:19:29Z</time></trkpt><trkpt lat="42.44331267956874" lon="14.061456473483798"><ele>68.0</ele><time>2026-03-29T07:19:30Z</time></trkpt><trkpt lat="42.443200402249936" lon="14.061362096035626"><ele>68.5</ele><time>2026-03-29T07:19:31Z</time></trkpt><trkpt lat="42.44307694981774" lon="14.061261845832682"><ele>69.0</ele><time>2026-03-29T07:19:32Z</time></trkpt><trkpt lat="42.44294739708909" lon="14.061152770162195"><ele>69.5</ele><time>2026-03-29T07:19:33Z</time></trkpt><trkpt lat="42.44281968521358" lon="14.061040476827841"><ele>70.0</ele><time>2026-03-29T07:19:34Z</time></trkpt><trkpt lat="42.44269402181468" lon="14.060925684193373"><ele>70.0</ele><time>2026-03-29T07:19:35Z</time></trkpt><trkpt lat="42.44257077794807" lon="14.060812579164596"><ele>70.0</ele><time>2026-03-29T07:19:36Z</time></trkpt><trkpt lat="42.4424430320592" lon="14.060695761715804"><ele>70.0</ele><time>2026-03-29T07:19:37Z</time></trkpt><trkpt lat="42.442313779621394" lon="14.060583625387777"><ele>70.0</ele><time>2026-03-29T07:19:38Z</time></trkpt><trkpt lat="42.442187882239914" lon="14.060474401364823"><ele>70.0</ele><time>2026-03-29T07:19:39Z</time></trkpt><trkpt lat="42.44206218372424" lon="14.060358662979501"><ele>70.0</ele><time>2026-03-29T07:19:40Z</time></trkpt><trkpt lat="42.44192732381708" lon="14.060233593619246"><ele>70.0</ele><time>2026-03-29T07:19:41Z</time></trkpt><trkpt lat="42.44179096398064" lon="14.060107888983477"><ele>70.0</ele><time>2026-03-29T07:19:42Z</time></trkpt><trkpt lat="42.44166493299943" lon="14.060000219376896"><ele>70.0</ele><time>2026-03-29T07:19:43Z</time></trkpt><trkpt lat="42.441550114943745" lon="14.059905147918256"><ele>70.0</ele><time>2026-03-29T07:19:44Z</time></trkpt><trkpt lat="42.44147664507918" lon="14.05980221041434"><ele>70.4</ele><time>2026-03-29T07:19:45Z</time></trkpt><trkpt lat="42.441404425693435" lon="14.059716238991342"><ele>70.8</ele><time>2026-03-29T07:19:46Z</time></trkpt><trkpt lat="42.44137424536194" lon="14.059526694761473"><ele>71.2</ele><time>2026-03-29T07:19:48Z</time></trkpt><trkpt lat="42.44146165856175" lon="14.05945662345414"><ele>71.6</ele><time>2026-03-29T07:19:50Z</time></trkpt><trkpt lat="42.44153071895502" lon="14.059349785049173"><ele>72.0</ele><time>2026-03-29T07:19:51Z</time></trkpt><trkpt lat="42.44164106211874" lon="14.059287922941076"><ele>72.0</ele><time>2026-03-29T07:19:52Z</time></trkpt><trkpt lat="42.44176563452509" lon="14.059200478485163"><ele>72.0</ele><time>2026-03-29T07:19:53Z</time></trkpt><trkpt lat="42.44192545517019" lon="14.05909030992387"><ele>72.0</ele><time>2026-03-29T07:19:54Z</time></trkpt><trkpt lat="42.442049626376246" lon="14.059006387171433"><ele>71.6</ele><time>2026-03-29T07:19:55Z</time></trkpt><trkpt lat="42.44216158457971" lon="14.058926363379301"><ele>71.2</ele><time>2026-03-29T07:19:56Z</time></trkpt><trkpt lat="42.44226648034401" lon="14.058896985120843"><ele>70.8</ele><time>2026-03-29T07:19:57Z</time></trkpt><trkpt lat="42.44234501595969" lon="14.058819529167037"><ele>70.4</ele><time>2026-03-29T07:19:58Z</time></trkpt><trkpt lat="42.442433384279475" lon="14.05871977932321"><ele>70.0</ele><time>2026-03-29T07:20:00Z</time></trkpt><trkpt lat="42.442420620265395" lon="14.058622054143093"><ele>70.0</ele><time>2026-03-29T07:20:02Z</time></trkpt><trkpt lat="42.442389376611345" lon="14.058506891286111"><ele>70.0</ele><time>2026-03-29T07:20:03Z</time></trkpt><trkpt lat="42.44232599586278" lon="14.058359004632747"><ele>70.0</ele><time>2026-03-29T07:20:04Z</time></trkpt><trkpt lat="42.442277826156065" lon="14.058223109245244"><ele>70.0</ele><time>2026-03-29T07:20:05Z</time></trkpt><trkpt lat="42.442223028447856" lon="14.05805362737106"><ele>70.33333333333333</ele><time>2026-03-29T07:20:06Z</time></trkpt><trkpt lat="42.442152628076634" lon="14.05785945080637"><ele>70.66666666666667</ele><time>2026-03-29T07:20:07Z</time></trkpt><trkpt lat="42.44208584514397" lon="14.057680483249298"><ele>71.0</ele><time>2026-03-29T07:20:08Z</time></trkpt><trkpt lat="42.44201718792831" lon="14.057488639106074"><ele>71.66666666666667</ele><time>2026-03-29T07:20:09Z</time></trkpt><trkpt lat="42.44193795730167" lon="14.05726423361405"><ele>72.33333333333333</ele><time>2026-03-29T07:20:10Z</time></trkpt><trkpt lat="42.44186039370721" lon="14.057047938222482"><ele>73.0</ele><time>2026-03-29T07:20:11Z</time></trkpt><trkpt lat="42.441785462521125" lon="14.056830248657576"><ele>73.0</ele><time>2026-03-29T07:20:12Z</time></trkpt><trkpt lat="42.441712295159235" lon="14.056633301711374"><ele>73.0</ele><time>2026-03-29T07:20:13Z</time></trkpt><trkpt lat="42.441657381638734" lon="14.05647535750561"><ele>73.0</ele><time>2026-03-29T07:20:14Z</time></trkpt><trkpt lat="42.441613765870876" lon="14.056334063303762"><ele>73.0</ele><time>2026-03-29T07:20:15Z</time></trkpt><trkpt lat="42.44156217799063" lon="14.056164529680252"><ele>73.0</ele><time>2026-03-29T07:20:16Z</time></trkpt><trkpt lat="42.44149926166788" lon="14.056001517037403"><ele>73.0</ele><time>2026-03-29T07:20:17Z</time></trkpt><trkpt lat="42.44142362520046" lon="14.055846167211515"><ele>73.0</ele><time>2026-03-29T07:20:18Z</time></trkpt><trkpt lat="42.441347724580574" lon="14.055698688295873"><ele>73.0</ele><time>2026-03-29T07:20:19Z</time></trkpt><trkpt lat="42.44126734302603" lon="14.05554271571555"><ele>73.0</ele><time>2026-03-29T07:20:20Z</time></trkpt><trkpt lat="42.44117021262823" lon="14.055384309175489"><ele>73.0</ele><time>2026-03-29T07:20:21Z</time></trkpt><trkpt lat="42.44105438270118" lon="14.055206385109855"><ele>73.0</ele><time>2026-03-29T07:20:22Z</time></trkpt><trkpt lat="42.44096598564198" lon="14.054987194431153"><ele>72.66666666666666</ele><time>2026-03-29T07:20:23Z</time></trkpt><trkpt lat="42.44086551071889" lon="14.054759729170588"><ele>72.33333333333333</ele><time>2026-03-29T07:20:24Z</time></trkpt><trkpt lat="42.440787261562946" lon="14.054612122989552"><ele>72.0</ele><time>2026-03-29T07:20:25Z</time></trkpt><trkpt lat="42.440696067309254" lon="14.05447784340408"><ele>72.0</ele><time>2026-03-29T07:20:26Z</time></trkpt><trkpt lat="42.44060152810829" lon="14.054353688127248"><ele>72.0</ele><time>2026-03-29T07:20:27Z</time></trkpt><trkpt lat="42.44051540006508" lon="14.054265130602252"><ele>72.0</ele><time>2026-03-29T07:20:28Z</time></trkpt><trkpt lat="42.44043653374891" lon="14.05417167682158"><ele>72.0</ele><time>2026-03-29T07:20:29Z</time></trkpt><trkpt lat="42.4403576294889" lon="14.054068708767742"><ele>72.25</ele><time>2026-03-29T07:20:30Z</time></trkpt><trkpt lat="42.44027598187941" lon="14.053952147300954"><ele>72.5</ele><time>2026-03-29T07:20:31Z</time></trkpt><trkpt lat="42.44022461056715" lon="14.053806041264346"><ele>72.75</ele><time>2026-03-29T07:20:32Z</time></trkpt><trkpt lat="42.4400981497907" lon="14.053643636592698"><ele>73.0</ele><time>2026-03-29T07:20:33Z</time></trkpt><trkpt lat="42.44001083047294" lon="14.053532892417373"><ele>73.0</ele><time>2026-03-29T07:20:34Z</time></trkpt><trkpt lat="42.43993288824851" lon="14.05342451981078"><ele>73.0</ele><time>2026-03-29T07:20:35Z</time></trkpt><trkpt lat="42.43986134501174" lon="14.053291456402889"><ele>73.0</ele><time>2026-03-29T07:20:36Z</time></trkpt><trkpt lat="42.439805304397254" lon="14.053183357280329"><ele>73.0</ele><time>2026-03-29T07:20:37Z</time></trkpt><trkpt lat="42.43976667017056" lon="14.053096145048524"><ele>73.0</ele><time>2026-03-29T07:20:38Z</time></trkpt><trkpt lat="42.43972700964409" lon="14.053019389793763"><ele>73.0</ele><time>2026-03-29T07:20:54Z</time></trkpt><trkpt lat="42.43981153827247" lon="14.053130592004692"><ele>73.0</ele><time>2026-03-29T07:23:29Z</time></trkpt><trkpt lat="42.43985496944795" lon="14.053237141879013"><ele>73.0</ele><time>2026-03-29T07:23:30Z</time></trkpt><trkpt lat="42.43991025165003" lon="14.053347160187283"><ele>73.0</ele><time>2026-03-29T07:23:31Z</time></trkpt><trkpt lat="42.43997158171987" lon="14.053452088263649"><ele>73.0</ele><time>2026-03-29T07:23:32Z</time></trkpt><trkpt lat="42.44003543943434" lon="14.053559007628435"><ele>73.0</ele><time>2026-03-29T07:23:33Z</time></trkpt><trkpt lat="42.440099240257354" lon="14.053661748735966"><ele>73.0</ele><time>2026-03-29T07:23:34Z</time></trkpt><trkpt lat="42.44017046201348" lon="14.05375378816291"><ele>73.0</ele><time>2026-03-29T07:23:35Z</time></trkpt><trkpt lat="42.44024755586367" lon="14.053846510779954"><ele>73.0</ele><time>2026-03-29T07:23:36Z</time></trkpt><trkpt lat="42.440321823798975" lon="14.053951821545976"><ele>73.0</ele><time>2026-03-29T07:23:37Z</time></trkpt><trkpt lat="42.44039132171373" lon="14.054066700428018"><ele>73.0</ele><time>2026-03-29T07:23:38Z</time></trkpt><trkpt lat="42.440453282497735" lon="14.054187011675104"><ele>73.0</ele><time>2026-03-29T07:23:39Z</time></trkpt><trkpt lat="42.44051841261767" lon="14.054296583294484"><ele>73.0</ele><time>2026-03-29T07:23:40Z</time></trkpt><trkpt lat="42.440595176482816" lon="14.054395080213482"><ele>73.0</ele><time>2026-03-29T07:23:41Z</time></trkpt><trkpt lat="42.44068838309082" lon="14.05448846912927"><ele>73.0</ele><time>2026-03-29T07:23:42Z</time></trkpt><trkpt lat="42.440778253768826" lon="14.054605601504957"><ele>73.0</ele><time>2026-03-29T07:23:43Z</time></trkpt><trkpt lat="42.4408692193149" lon="14.054746654015126"><ele>73.0</ele><time>2026-03-29T07:23:44Z</time></trkpt><trkpt lat="42.440955868153836" lon="14.054909588261841"><ele>73.0</ele><time>2026-03-29T07:23:45Z</time></trkpt><trkpt lat="42.44102073980883" lon="14.055071270172746"><ele>73.0</ele><time>2026-03-29T07:23:46Z</time></trkpt><trkpt lat="42.44109186898367" lon="14.055241204450791"><ele>73.0</ele><time>2026-03-29T07:23:47Z</time></trkpt><trkpt lat="42.44117076195579" lon="14.055413754902133"><ele>73.0</ele><time>2026-03-29T07:23:48Z</time></trkpt><trkpt lat="42.44125820417711" lon="14.0555843475408"><ele>73.0</ele><time>2026-03-29T07:23:49Z</time></trkpt><trkpt lat="42.44133862648192" lon="14.055714009677622"><ele>73.0</ele><time>2026-03-29T07:23:50Z</time></trkpt><trkpt lat="42.44141065599151" lon="14.055838257314676"><ele>72.6</ele><time>2026-03-29T07:23:51Z</time></trkpt><trkpt lat="42.44147261992118" lon="14.055971020252644"><ele>72.19999999999999</ele><time>2026-03-29T07:23:52Z</time></trkpt><trkpt lat="42.441523053269385" lon="14.056076393843288"><ele>71.8</ele><time>2026-03-29T07:23:53Z</time></trkpt><trkpt lat="42.44156484364132" lon="14.056175127059367"><ele>71.39999999999999</ele><time>2026-03-29T07:23:54Z</time></trkpt><trkpt lat="42.44160765819642" lon="14.056299866125409"><ele>71.0</ele><time>2026-03-29T07:23:55Z</time></trkpt><trkpt lat="42.441641513799084" lon="14.056441655496569"><ele>71.0</ele><time>2026-03-29T07:23:56Z</time></trkpt><trkpt lat="42.441675949539594" lon="14.05658573384528"><ele>71.0</ele><time>2026-03-29T07:23:57Z</time></trkpt><trkpt lat="42.44172910713314" lon="14.056725808184135"><ele>71.0</ele><time>2026-03-29T07:23:58Z</time></trkpt><trkpt lat="42.44178535511273" lon="14.056868879505004"><ele>71.0</ele><time>2026-03-29T07:23:59Z</time></trkpt><trkpt lat="42.44184613771213" lon="14.057016901842784"><ele>71.5</ele><time>2026-03-29T07:24:00Z</time></trkpt><trkpt lat="42.44189951342593" lon="14.057169275147873"><ele>72.0</ele><time>2026-03-29T07:24:01Z</time></trkpt><trkpt lat="42.44193192413336" lon="14.05733532395907"><ele>72.5</ele><time>2026-03-29T07:24:02Z</time></trkpt><trkpt lat="42.441999044301966" lon="14.057477313415637"><ele>73.0</ele><time>2026-03-29T07:24:03Z</time></trkpt><trkpt lat="42.44204095565945" lon="14.05764068055624"><ele>73.0</ele><time>2026-03-29T07:24:04Z</time></trkpt><trkpt lat="42.44209662555175" lon="14.05779771348874"><ele>73.0</ele><time>2026-03-29T07:24:05Z</time></trkpt><trkpt lat="42.442151812322386" lon="14.057956302511565"><ele>73.0</ele><time>2026-03-29T07:24:06Z</time></trkpt><trkpt lat="42.44220675906528" lon="14.058114201406523"><ele>73.0</ele><time>2026-03-29T07:24:07Z</time></trkpt><trkpt lat="42.44226081161272" lon="14.058269530831934"><ele>72.5</ele><time>2026-03-29T07:24:08Z</time></trkpt><trkpt lat="42.44232856657172" lon="14.058405960907896"><ele>72.0</ele><time>2026-03-29T07:24:09Z</time></trkpt><trkpt lat="42.44236811711989" lon="14.058529743359578"><ele>71.5</ele><time>2026-03-29T07:24:10Z</time></trkpt><trkpt lat="42.44239186448177" lon="14.058626781152203"><ele>71.0</ele><time>2026-03-29T07:24:11Z</time></trkpt><trkpt lat="42.44240753635343" lon="14.058718275345349"><ele>70.5</ele><time>2026-03-29T07:24:12Z</time></trkpt><trkpt lat="42.442399612347984" lon="14.058806249713655"><ele>70.0</ele><time>2026-03-29T07:24:13Z</time></trkpt><trkpt lat="42.442338289427646" lon="14.05885266894576"><ele>70.0</ele><time>2026-03-29T07:24:14Z</time></trkpt><trkpt lat="42.442274712820556" lon="14.058842493975412"><ele>70.0</ele><time>2026-03-29T07:24:15Z</time></trkpt><trkpt lat="42.4422095035727" lon="14.058882431259434"><ele>70.0</ele><time>2026-03-29T07:24:16Z</time></trkpt><trkpt lat="42.442144133718166" lon="14.058922367744776"><ele>70.0</ele><time>2026-03-29T07:24:17Z</time></trkpt><trkpt lat="42.44206216397595" lon="14.058977525456516"><ele>70.0</ele><time>2026-03-29T07:24:18Z</time></trkpt><trkpt lat="42.44196441132033" lon="14.05904274399601"><ele>70.0</ele><time>2026-03-29T07:24:19Z</time></trkpt><trkpt lat="42.44186188897091" lon="14.059113806525481"><ele>70.4</ele><time>2026-03-29T07:24:20Z</time></trkpt><trkpt lat="42.44175968005485" lon="14.05918485562471"><ele>70.8</ele><time>2026-03-29T07:24:21Z</time></trkpt><trkpt lat="42.44165692496019" lon="14.059256284382588"><ele>71.2</ele><time>2026-03-29T07:24:22Z</time></trkpt><trkpt lat="42.44156903781552" lon="14.059357615904203"><ele>71.6</ele><time>2026-03-29T07:24:23Z</time></trkpt><trkpt lat="42.4414839040427" lon="14.059408376400361"><ele>72.0</ele><time>2026-03-29T07:24:24Z</time></trkpt><trkpt lat="42.44140842392517" lon="14.05946543091136"><ele>72.0</ele><time>2026-03-29T07:24:25Z</time></trkpt><trkpt lat="42.44137143141702" lon="14.059539180605611"><ele>72.0</ele><time>2026-03-29T07:24:26Z</time></trkpt><trkpt lat="42.44136746680981" lon="14.059685677917448"><ele>72.0</ele><time>2026-03-29T07:24:28Z</time></trkpt><trkpt lat="42.44140876039047" lon="14.059777087866102"><ele>72.0</ele><time>2026-03-29T07:24:29Z</time></trkpt><trkpt lat="42.44147588412913" lon="14.05985755134578"><ele>72.0</ele><time>2026-03-29T07:24:30Z</time></trkpt><trkpt lat="42.44157369768835" lon="14.059940512566008"><ele>71.5</ele><time>2026-03-29T07:24:31Z</time></trkpt><trkpt lat="42.441670469170234" lon="14.060011836003051"><ele>71.0</ele><time>2026-03-29T07:24:32Z</time></trkpt><trkpt lat="42.44176174828521" lon="14.060095204212038"><ele>70.5</ele><time>2026-03-29T07:24:33Z</time></trkpt><trkpt lat="42.441850845200534" lon="14.060187845809297"><ele>70.0</ele><time>2026-03-29T07:24:34Z</time></trkpt><trkpt lat="42.441953343635774" lon="14.060284295240624"><ele>70.0</ele><time>2026-03-29T07:24:35Z</time></trkpt><trkpt lat="42.44206272129929" lon="14.060392413635114"><ele>70.0</ele><time>2026-03-29T07:24:36Z</time></trkpt><trkpt lat="42.44217858726715" lon="14.060501944777775"><ele>70.0</ele><time>2026-03-29T07:24:37Z</time></trkpt><trkpt lat="42.442302041627165" lon="14.06061284529122"><ele>70.0</ele><time>2026-03-29T07:24:38Z</time></trkpt><trkpt lat="42.44243029350786" lon="14.060724120017586"><ele>70.0</ele><time>2026-03-29T07:24:39Z</time></trkpt><trkpt lat="42.44255825769421" lon="14.060831972920136"><ele>70.0</ele><time>2026-03-29T07:24:40Z</time></trkpt><trkpt lat="42.44269530070699" lon="14.060951849369163"><ele>70.0</ele><time>2026-03-29T07:24:41Z</time></trkpt><trkpt lat="42.442830220853644" lon="14.06107411990483"><ele>70.0</ele><time>2026-03-29T07:24:42Z</time></trkpt><trkpt lat="42.44296043008886" lon="14.061195014286604"><ele>70.0</ele><time>2026-03-29T07:24:43Z</time></trkpt><trkpt lat="42.44308780064033" lon="14.061315525183343"><ele>70.0</ele><time>2026-03-29T07:24:44Z</time></trkpt><trkpt lat="42.443214103021376" lon="14.061430329978846"><ele>70.0</ele><time>2026-03-29T07:24:45Z</time></trkpt><trkpt lat="42.443323961020596" lon="14.061536110278123"><ele>70.0</ele><time>2026-03-29T07:24:46Z</time></trkpt><trkpt lat="42.44341464435202" lon="14.06161982368162"><ele>70.0</ele><time>2026-03-29T07:24:47Z</time></trkpt><trkpt lat="42.44347488611606" lon="14.061691118001887"><ele>70.0</ele><time>2026-03-29T07:24:48Z</time></trkpt><trkpt lat="42.44350814047248" lon="14.061772569956663"><ele>70.0</ele><time>2026-03-29T07:24:49Z</time></trkpt><trkpt lat="42.44353287140337" lon="14.061871415754137"><ele>69.6</ele><time>2026-03-29T07:24:50Z</time></trkpt><trkpt lat="42.44354657075416" lon="14.061980611214826"><ele>69.2</ele><time>2026-03-29T07:24:51Z</time></trkpt><trkpt lat="42.443565589279956" lon="14.062089866864284"><ele>68.8</ele><time>2026-03-29T07:24:52Z</time></trkpt><trkpt lat="42.44359700070196" lon="14.062205460250667"><ele>68.4</ele><time>2026-03-29T07:24:53Z</time></trkpt><trkpt lat="42.44364728959352" lon="14.06232681823465"><ele>68.0</ele><time>2026-03-29T07:24:54Z</time></trkpt><trkpt lat="42.443719761109726" lon="14.06243938891088"><ele>68.25</ele><time>2026-03-29T07:24:55Z</time></trkpt><trkpt lat="42.443816491794415" lon="14.06253843464055"><ele>68.5</ele><time>2026-03-29T07:24:56Z</time></trkpt><trkpt lat="42.443921328581816" lon="14.062631248786571"><ele>68.75</ele><time>2026-03-29T07:24:57Z</time></trkpt><trkpt lat="42.44403387904937" lon="14.062720791105411"><ele>69.0</ele><time>2026-03-29T07:24:58Z</time></trkpt><trkpt lat="42.4441446424943" lon="14.062812906904057"><ele>69.0</ele><time>2026-03-29T07:24:59Z</time></trkpt><trkpt lat="42.444245377022014" lon="14.062904579887766"><ele>69.0</ele><time>2026-03-29T07:25:00Z</time></trkpt><trkpt lat="42.44434034760123" lon="14.062993838424648"><ele>69.0</ele><time>2026-03-29T07:25:01Z</time></trkpt><trkpt lat="42.44443805306142" lon="14.06307206670783"><ele>69.0</ele><time>2026-03-29T07:25:02Z</time></trkpt><trkpt lat="42.444544219429" lon="14.063129056352473"><ele>68.25</ele><time>2026-03-29T07:25:03Z</time></trkpt><trkpt lat="42.44466867500511" lon="14.06315492095641"><ele>67.5</ele><time>2026-03-29T07:25:04Z</time></trkpt><trkpt lat="42.44481095140367" lon="14.063144162095275"><ele>66.75</ele><time>2026-03-29T07:25:05Z</time></trkpt><trkpt lat="42.44495674738883" lon="14.063157654112032"><ele>66.0</ele><time>2026-03-29T07:25:06Z</time></trkpt><trkpt lat="42.4450969145742" lon="14.06317194183005"><ele>66.0</ele><time>2026-03-29T07:25:07Z</time></trkpt><trkpt lat="42.44522039865417" lon="14.063252885002818"><ele>66.0</ele><time>2026-03-29T07:25:08Z</time></trkpt><trkpt lat="42.445335366287345" lon="14.06336039937022"><ele>66.0</ele><time>2026-03-29T07:25:09Z</time></trkpt><trkpt lat="42.445449280144835" lon="14.063480294599715"><ele>66.0</ele><time>2026-03-29T07:25:10Z</time></trkpt><trkpt lat="42.44557180900073" lon="14.063593620941916"><ele>66.75</ele><time>2026-03-29T07:25:11Z</time></trkpt><trkpt lat="42.445703828648455" lon="14.06371498692276"><ele>67.5</ele><time>2026-03-29T07:25:12Z</time></trkpt><trkpt lat="42.44581761913934" lon="14.06382454407518"><ele>68.25</ele><time>2026-03-29T07:25:13Z</time></trkpt><trkpt lat="42.445926904480274" lon="14.063934091079108"><ele>69.0</ele><time>2026-03-29T07:25:14Z</time></trkpt><trkpt lat="42.446040987106066" lon="14.064040626958155"><ele>69.0</ele><time>2026-03-29T07:25:15Z</time></trkpt><trkpt lat="42.44615270565285" lon="14.064160949700854"><ele>69.0</ele><time>2026-03-29T07:25:16Z</time></trkpt><trkpt lat="42.446257060113965" lon="14.064295191444124"><ele>69.0</ele><time>2026-03-29T07:25:17Z</time></trkpt><trkpt lat="42.44635263127442" lon="14.064430097248021"><ele>69.0</ele><time>2026-03-29T07:25:18Z</time></trkpt><trkpt lat="42.44645249206659" lon="14.064542855940736"><ele>68.5</ele><time>2026-03-29T07:25:19Z</time></trkpt><trkpt lat="42.44656054437457" lon="14.064643698846018"><ele>68.0</ele><time>2026-03-29T07:25:20Z</time></trkpt><trkpt lat="42.44666920440522" lon="14.064748481256117"><ele>67.5</ele><time>2026-03-29T07:25:21Z</time></trkpt><trkpt lat="42.44678614449359" lon="14.06487474048161"><ele>67.0</ele><time>2026-03-29T07:25:22Z</time></trkpt><trkpt lat="42.4468942006442" lon="14.065011019857895"><ele>66.75</ele><time>2026-03-29T07:25:23Z</time></trkpt><trkpt lat="42.4469961088613" lon="14.06517254792285"><ele>66.5</ele><time>2026-03-29T07:25:24Z</time></trkpt><trkpt lat="42.44708415373643" lon="14.065314853551978"><ele>66.25</ele><time>2026-03-29T07:25:25Z</time></trkpt><trkpt lat="42.44716517552101" lon="14.065441153856803"><ele>66.0</ele><time>2026-03-29T07:25:26Z</time></trkpt><trkpt lat="42.44725173895315" lon="14.065561803101817"><ele>65.6</ele><time>2026-03-29T07:25:27Z</time></trkpt><trkpt lat="42.447330755546545" lon="14.06566559572982"><ele>65.19999999999999</ele><time>2026-03-29T07:25:28Z</time></trkpt><trkpt lat="42.44740847031251" lon="14.065763701133355"><ele>64.80000000000001</ele><time>2026-03-29T07:25:29Z</time></trkpt><trkpt lat="42.44748658350446" lon="14.065858075526421"><ele>64.4</ele><time>2026-03-29T07:25:30Z</time></trkpt><trkpt lat="42.447582211380066" lon="14.0659596034097"><ele>64.0</ele><time>2026-03-29T07:25:31Z</time></trkpt><trkpt lat="42.44766141604865" lon="14.06604694770704"><ele>64.0</ele><time>2026-03-29T07:25:32Z</time></trkpt><trkpt lat="42.447734721630624" lon="14.066117668426147"><ele>64.0</ele><time>2026-03-29T07:25:33Z</time></trkpt><trkpt lat="42.44781671522934" lon="14.066169790781972"><ele>64.0</ele><time>2026-03-29T07:25:34Z</time></trkpt><trkpt lat="42.44789703235346" lon="14.0662333545415"><ele>64.0</ele><time>2026-03-29T07:25:35Z</time></trkpt><trkpt lat="42.447954367101566" lon="14.06633410672224"><ele>64.0</ele><time>2026-03-29T07:25:36Z</time></trkpt><trkpt lat="42.44800909182512" lon="14.066455714120396"><ele>64.0</ele><time>2026-03-29T07:25:37Z</time></trkpt><trkpt lat="42.448062139399696" lon="14.066615530629766"><ele>64.0</ele><time>2026-03-29T07:25:38Z</time></trkpt><trkpt lat="42.44812019332907" lon="14.066793929431464"><ele>64.0</ele><time>2026-03-29T07:25:39Z</time></trkpt><trkpt lat="42.44817336406903" lon="14.066960055381987"><ele>64.0</ele><time>2026-03-29T07:25:40Z</time></trkpt><trkpt lat="42.4482362188568" lon="14.06712210364319"><ele>64.0</ele><time>2026-03-29T07:25:41Z</time></trkpt><trkpt lat="42.44831397958964" lon="14.067279866276714"><ele>64.0</ele><time>2026-03-29T07:25:42Z</time></trkpt><trkpt lat="42.448390008455526" lon="14.067434010895234"><ele>64.0</ele><time>2026-03-29T07:25:43Z</time></trkpt><trkpt lat="42.44845030865809" lon="14.067575412970497"><ele>64.0</ele><time>2026-03-29T07:25:44Z</time></trkpt><trkpt lat="42.44849670811015" lon="14.06771621245238"><ele>64.25</ele><time>2026-03-29T07:25:45Z</time></trkpt><trkpt lat="42.44854549548857" lon="14.067852886198255"><ele>64.5</ele><time>2026-03-29T07:25:46Z</time></trkpt><trkpt lat="42.44859653649991" lon="14.067990068392279"><ele>64.75</ele><time>2026-03-29T07:25:47Z</time></trkpt><trkpt lat="42.44864996771964" lon="14.068127195312213"><ele>65.0</ele><time>2026-03-29T07:25:48Z</time></trkpt><trkpt lat="42.44870001600445" lon="14.068276364883854"><ele>65.2</ele><time>2026-03-29T07:25:49Z</time></trkpt><trkpt lat="42.44875942745462" lon="14.068431544996335"><ele>65.4</ele><time>2026-03-29T07:25:50Z</time></trkpt><trkpt lat="42.44881330813785" lon="14.068582024072981"><ele>65.6</ele><time>2026-03-29T07:25:51Z</time></trkpt><trkpt lat="42.44885620310362" lon="14.068703992899854"><ele>65.8</ele><time>2026-03-29T07:25:52Z</time></trkpt><trkpt lat="42.44887496734625" lon="14.068795510954564"><ele>66.0</ele><time>2026-03-29T07:25:53Z</time></trkpt><trkpt lat="42.44888079767337" lon="14.068884637878964"><ele>66.25</ele><time>2026-03-29T07:25:55Z</time></trkpt><trkpt lat="42.44877635850412" lon="14.068958581235204"><ele>66.5</ele><time>2026-03-29T07:25:57Z</time></trkpt><trkpt lat="42.448668074781565" lon="14.068984748781208"><ele>66.75</ele><time>2026-03-29T07:25:58Z</time></trkpt><trkpt lat="42.448538106762044" lon="14.06902191615821"><ele>67.0</ele><time>2026-03-29T07:25:59Z</time></trkpt><trkpt lat="42.44840590045965" lon="14.06907924432436"><ele>67.25</ele><time>2026-03-29T07:26:00Z</time></trkpt><trkpt lat="42.44828281948661" lon="14.069134529449261"><ele>67.5</ele><time>2026-03-29T07:26:01Z</time></trkpt><trkpt lat="42.44815600749914" lon="14.069181574475365"><ele>67.75</ele><time>2026-03-29T07:26:02Z</time></trkpt><trkpt lat="42.4480189258913" lon="14.069231352359862"><ele>68.0</ele><time>2026-03-29T07:26:03Z</time></trkpt><trkpt lat="42.447878835917436" lon="14.069288334638735"><ele>68.75</ele><time>2026-03-29T07:26:04Z</time></trkpt><trkpt lat="42.44773981400658" lon="14.069352518734377"><ele>69.5</ele><time>2026-03-29T07:26:05Z</time></trkpt><trkpt lat="42.447600464210076" lon="14.069417658955205"><ele>70.25</ele><time>2026-03-29T07:26:06Z</time></trkpt><trkpt lat="42.44746477378543" lon="14.069478998898788"><ele>71.0</ele><time>2026-03-29T07:26:07Z</time></trkpt><trkpt lat="42.44733503674356" lon="14.069535035661604"><ele>71.0</ele><time>2026-03-29T07:26:08Z</time></trkpt><trkpt lat="42.447216700667134" lon="14.069580109620375"><ele>71.0</ele><time>2026-03-29T07:26:09Z</time></trkpt><trkpt lat="42.44711516686227" lon="14.069576038017004"><ele>71.0</ele><time>2026-03-29T07:26:10Z</time></trkpt><trkpt lat="42.44702998268209" lon="14.069510833610632"><ele>71.0</ele><time>2026-03-29T07:26:11Z</time></trkpt><trkpt lat="42.44697569600859" lon="14.069397358993301"><ele>71.0</ele><time>2026-03-29T07:26:12Z</time></trkpt><trkpt lat="42.44694895967913" lon="14.06925174269197"><ele>74.0</ele><time>2026-03-29T07:26:13Z</time></trkpt><trkpt lat="42.44694428172328" lon="14.069087907252621"><ele>77.0</ele><time>2026-03-29T07:26:14Z</time></trkpt><trkpt lat="42.44694072578173" lon="14.06891041313202"><ele>80.0</ele><time>2026-03-29T07:26:15Z</time></trkpt><trkpt lat="42.4469496162646" lon="14.068720751020606"><ele>83.0</ele><time>2026-03-29T07:26:16Z</time></trkpt><trkpt lat="42.446963221578315" lon="14.068523252351989"><ele>83.0</ele><time>2026-03-29T07:26:17Z</time></trkpt><trkpt lat="42.44694196525524" lon="14.068315483220621"><ele>83.0</ele><time>2026-03-29T07:26:18Z</time></trkpt><trkpt lat="42.44689041027961" lon="14.068126931685761"><ele>83.0</ele><time>2026-03-29T07:26:19Z</time></trkpt><trkpt lat="42.44679896069013" lon="14.06795205468929"><ele>80.66666666666667</ele><time>2026-03-29T07:26:20Z</time></trkpt><trkpt lat="42.446675894129875" lon="14.06778994256357"><ele>78.33333333333333</ele><time>2026-03-29T07:26:21Z</time></trkpt><trkpt lat="42.44652366479712" lon="14.0676090028187"><ele>76.0</ele><time>2026-03-29T07:26:22Z</time></trkpt><trkpt lat="42.446378396534904" lon="14.067430930957487"><ele>79.66666666666666</ele><time>2026-03-29T07:26:23Z</time></trkpt><trkpt lat="42.44624658277284" lon="14.067241494810759"><ele>83.33333333333333</ele><time>2026-03-29T07:26:24Z</time></trkpt><trkpt lat="42.44612738903274" lon="14.067078870735319"><ele>87.0</ele><time>2026-03-29T07:26:25Z</time></trkpt><trkpt lat="42.44602430900464" lon="14.066918806981874"><ele>87.0</ele><time>2026-03-29T07:26:26Z</time></trkpt><trkpt lat="42.44593313070107" lon="14.066774279300569"><ele>87.0</ele><time>2026-03-29T07:26:27Z</time></trkpt><trkpt lat="42.44585734649722" lon="14.066647624875603"><ele>87.0</ele><time>2026-03-29T07:26:28Z</time></trkpt><trkpt lat="42.44579050957025" lon="14.066557580840941"><ele>87.0</ele><time>2026-03-29T07:26:29Z</time></trkpt><trkpt lat="42.445722921281686" lon="14.066529268840082"><ele>87.0</ele><time>2026-03-29T07:26:30Z</time></trkpt><trkpt lat="42.4456608844854" lon="14.066558262951157"><ele>87.0</ele><time>2026-03-29T07:26:31Z</time></trkpt><trkpt lat="42.44564111353764" lon="14.066704653494751"><ele>87.0</ele><time>2026-03-29T07:26:33Z</time></trkpt><trkpt lat="42.44567577237641" lon="14.066775925188217"><ele>87.0</ele><time>2026-03-29T07:26:34Z</time></trkpt><trkpt lat="42.445736596108" lon="14.066856148601483"><ele>87.0</ele><time>2026-03-29T07:26:35Z</time></trkpt><trkpt lat="42.445806737526766" lon="14.066980297981797"><ele>87.0</ele><time>2026-03-29T07:26:36Z</time></trkpt><trkpt lat="42.445900236389" lon="14.067153464672238"><ele>87.0</ele><time>2026-03-29T07:26:37Z</time></trkpt><trkpt lat="42.44600386490324" lon="14.067346901337686"><ele>87.0</ele><time>2026-03-29T07:26:38Z</time></trkpt><trkpt lat="42.44608846082461" lon="14.067502526545532"><ele>87.0</ele><time>2026-03-29T07:26:39Z</time></trkpt><trkpt lat="42.44615397643999" lon="14.067646531060676"><ele>87.0</ele><time>2026-03-29T07:26:40Z</time></trkpt><trkpt lat="42.44621622944486" lon="14.067749521094974"><ele>89.39999999999999</ele><time>2026-03-29T07:26:41Z</time></trkpt><trkpt lat="42.44626956446932" lon="14.067836022209693"><ele>91.8</ele><time>2026-03-29T07:26:42Z</time></trkpt><trkpt lat="42.44619961071951" lon="14.067898147605785"><ele>94.2</ele><time>2026-03-29T07:26:44Z</time></trkpt><trkpt lat="42.44610976137041" lon="14.067848367950086"><ele>96.6</ele><time>2026-03-29T07:26:45Z</time></trkpt><trkpt lat="42.4460564522906" lon="14.067783299309067"><ele>99.0</ele><time>2026-03-29T07:26:46Z</time></trkpt><trkpt lat="42.44598616824856" lon="14.06765259172513"><ele>95.0</ele><time>2026-03-29T07:26:47Z</time></trkpt><trkpt lat="42.445867138404815" lon="14.067419611259094"><ele>91.0</ele><time>2026-03-29T07:26:48Z</time></trkpt><trkpt lat="42.44574968734574" lon="14.067224831170009"><ele>87.0</ele><time>2026-03-29T07:26:49Z</time></trkpt><trkpt lat="42.445633565428224" lon="14.06708587137691"><ele>87.0</ele><time>2026-03-29T07:26:50Z</time></trkpt><trkpt lat="42.44552529094438" lon="14.066962679877728"><ele>87.0</ele><time>2026-03-29T07:26:51Z</time></trkpt><trkpt lat="42.44546425913811" lon="14.06688964753715"><ele>87.0</ele><time>2026-03-29T07:26:52Z</time></trkpt><trkpt lat="42.44538402710129" lon="14.06681293427664"><ele>87.0</ele><time>2026-03-29T07:26:53Z</time></trkpt><trkpt lat="42.445317803142174" lon="14.066821992726576"><ele>87.0</ele><time>2026-03-29T07:26:54Z</time></trkpt><trkpt lat="42.44527361639209" lon="14.066901552206122"><ele>87.0</ele><time>2026-03-29T07:26:55Z</time></trkpt><trkpt lat="42.4452860833684" lon="14.0669908497401"><ele>87.0</ele><time>2026-03-29T07:26:56Z</time></trkpt><trkpt lat="42.44532989936235" lon="14.067098056785605"><ele>87.0</ele><time>2026-03-29T07:26:57Z</time></trkpt><trkpt lat="42.44540347061565" lon="14.06717591649546"><ele>87.0</ele><time>2026-03-29T07:26:58Z</time></trkpt><trkpt lat="42.4455041209997" lon="14.067304185660875"><ele>87.0</ele><time>2026-03-29T07:26:59Z</time></trkpt><trkpt lat="42.445633810145566" lon="14.067473646275824"><ele>90.0</ele><time>2026-03-29T07:27:00Z</time></trkpt><trkpt lat="42.44574048921266" lon="14.06761704992214"><ele>93.0</ele><time>2026-03-29T07:27:01Z</time></trkpt><trkpt lat="42.445823411316624" lon="14.067748377755319"><ele>96.0</ele><time>2026-03-29T07:27:02Z</time></trkpt><trkpt lat="42.445864928913934" lon="14.067889926364204"><ele>99.0</ele><time>2026-03-29T07:27:03Z</time></trkpt><trkpt lat="42.4458288459123" lon="14.068038759416696"><ele>99.0</ele><time>2026-03-29T07:27:04Z</time></trkpt><trkpt lat="42.44581049703787" lon="14.068187783618725"><ele>99.0</ele><time>2026-03-29T07:27:05Z</time></trkpt><trkpt lat="42.44578096241135" lon="14.068290173071656"><ele>99.0</ele><time>2026-03-29T07:27:06Z</time></trkpt><trkpt lat="42.44572949106057" lon="14.068343723817994"><ele>99.0</ele><time>2026-03-29T07:27:07Z</time></trkpt><trkpt lat="42.445635871928914" lon="14.06828114717742"><ele>99.0</ele><time>2026-03-29T07:27:09Z</time></trkpt><trkpt lat="42.44560386799602" lon="14.068167467942832"><ele>99.0</ele><time>2026-03-29T07:27:10Z</time></trkpt><trkpt lat="42.44556965918163" lon="14.06800578408533"><ele>99.0</ele><time>2026-03-29T07:27:11Z</time></trkpt><trkpt lat="42.44549793565225" lon="14.067846046746613"><ele>99.0</ele><time>2026-03-29T07:27:12Z</time></trkpt><trkpt lat="42.4453873099188" lon="14.067709138013724"><ele>99.0</ele><time>2026-03-29T07:27:13Z</time></trkpt><trkpt lat="42.445246153773056" lon="14.06759075505008"><ele>102.0</ele><time>2026-03-29T07:27:14Z</time></trkpt><trkpt lat="42.445115029697575" lon="14.067490728357239"><ele>105.0</ele><time>2026-03-29T07:27:15Z</time></trkpt><trkpt lat="42.444984016941845" lon="14.067354764192142"><ele>108.0</ele><time>2026-03-29T07:27:16Z</time></trkpt><trkpt lat="42.444862780813196" lon="14.06716887264946"><ele>108.0</ele><time>2026-03-29T07:27:17Z</time></trkpt><trkpt lat="42.44473485592261" lon="14.066996552536319"><ele>108.0</ele><time>2026-03-29T07:27:18Z</time></trkpt><trkpt lat="42.4446019709951" lon="14.066817253180988"><ele>108.0</ele><time>2026-03-29T07:27:19Z</time></trkpt><trkpt lat="42.4444335353847" lon="14.066646888650208"><ele>112.0</ele><time>2026-03-29T07:27:20Z</time></trkpt><trkpt lat="42.44430710390758" lon="14.066413861680436"><ele>116.0</ele><time>2026-03-29T07:27:21Z</time></trkpt><trkpt lat="42.44419274685042" lon="14.066186035891063"><ele>120.0</ele><time>2026-03-29T07:27:22Z</time></trkpt><trkpt lat="42.444098010844016" lon="14.06601583984997"><ele>120.0</ele><time>2026-03-29T07:27:23Z</time></trkpt><trkpt lat="42.44401890793872" lon="14.065879293836872"><ele>120.0</ele><time>2026-03-29T07:27:24Z</time></trkpt><trkpt lat="42.44395071338905" lon="14.065753527622531"><ele>120.0</ele><time>2026-03-29T07:27:25Z</time></trkpt><trkpt lat="42.44389528753384" lon="14.065648162449701"><ele>120.0</ele><time>2026-03-29T07:27:26Z</time></trkpt><trkpt lat="42.443838606964476" lon="14.065568409953546"><ele>120.0</ele><time>2026-03-29T07:27:27Z</time></trkpt><trkpt lat="42.44373951107408" lon="14.065579101459976"><ele>120.0</ele><time>2026-03-29T07:27:29Z</time></trkpt><trkpt lat="42.4437033766825" lon="14.06570901400477"><ele>120.0</ele><time>2026-03-29T07:27:31Z</time></trkpt><trkpt lat="42.44380659838532" lon="14.065965694239313"><ele>120.0</ele><time>2026-03-29T07:27:33Z</time></trkpt><trkpt lat="42.44387633509038" lon="14.06617141744268"><ele>120.0</ele><time>2026-03-29T07:27:34Z</time></trkpt><trkpt lat="42.44394249660007" lon="14.066361164461831"><ele>120.0</ele><time>2026-03-29T07:27:35Z</time></trkpt><trkpt lat="42.44399669094451" lon="14.066520733426133"><ele>120.0</ele><time>2026-03-29T07:27:36Z</time></trkpt><trkpt lat="42.444051732563" lon="14.06669003880045"><ele>120.0</ele><time>2026-03-29T07:27:37Z</time></trkpt><trkpt lat="42.44411435299364" lon="14.066876047931151"><ele>123.0</ele><time>2026-03-29T07:27:38Z</time></trkpt><trkpt lat="42.444184818045784" lon="14.067075581580085"><ele>126.0</ele><time>2026-03-29T07:27:39Z</time></trkpt><trkpt lat="42.4442440995537" lon="14.067253986650767"><ele>129.0</ele><time>2026-03-29T07:27:40Z</time></trkpt><trkpt lat="42.44429264670545" lon="14.06741767389062"><ele>132.0</ele><time>2026-03-29T07:27:41Z</time></trkpt><trkpt lat="42.444313660272115" lon="14.067567997354168"><ele>133.4</ele><time>2026-03-29T07:27:42Z</time></trkpt><trkpt lat="42.44429713725723" lon="14.067696764995036"><ele>134.79999999999998</ele><time>2026-03-29T07:27:43Z</time></trkpt><trkpt lat="42.44422521518249" lon="14.067789754279426"><ele>136.2</ele><time>2026-03-29T07:27:44Z</time></trkpt><trkpt lat="42.44415953608421" lon="14.06789831919257"><ele>137.6</ele><time>2026-03-29T07:27:45Z</time></trkpt><trkpt lat="42.44405005188122" lon="14.067972697856444"><ele>139.0</ele><time>2026-03-29T07:27:46Z</time></trkpt><trkpt lat="42.443955182091024" lon="14.068058361552845"><ele>139.0</ele><time>2026-03-29T07:27:47Z</time></trkpt><trkpt lat="42.44387960993019" lon="14.06811725772825"><ele>139.0</ele><time>2026-03-29T07:27:48Z</time></trkpt><trkpt lat="42.443814756125846" lon="14.068162051928145"><ele>139.0</ele><time>2026-03-29T07:27:49Z</time></trkpt><trkpt lat="42.44375627574856" lon="14.068125916450693"><ele>139.0</ele><time>2026-03-29T07:27:50Z</time></trkpt><trkpt lat="42.44372663152424" lon="14.06804543877527"><ele>139.0</ele><time>2026-03-29T07:27:51Z</time></trkpt><trkpt lat="42.44373725041007" lon="14.06794396205337"><ele>139.0</ele><time>2026-03-29T07:27:52Z</time></trkpt><trkpt lat="42.44379769063409" lon="14.067854260529769"><ele>139.0</ele><time>2026-03-29T07:27:53Z</time></trkpt><trkpt lat="42.44383010817608" lon="14.067739103138338"><ele>139.0</ele><time>2026-03-29T07:27:54Z</time></trkpt><trkpt lat="42.44387186232902" lon="14.067606402339855"><ele>139.0</ele><time>2026-03-29T07:27:55Z</time></trkpt><trkpt lat="42.44388478129896" lon="14.067453005438448"><ele>139.0</ele><time>2026-03-29T07:27:56Z</time></trkpt><trkpt lat="42.44386531231831" lon="14.067286114516355"><ele>139.0</ele><time>2026-03-29T07:27:57Z</time></trkpt><trkpt lat="42.44381646708347" lon="14.067115710480362"><ele>144.66666666666669</ele><time>2026-03-29T07:27:58Z</time></trkpt><trkpt lat="42.44374546319106" lon="14.066944060735024"><ele>150.33333333333334</ele><time>2026-03-29T07:27:59Z</time></trkpt><trkpt lat="42.44364361327109" lon="14.066786523046016"><ele>156.0</ele><time>2026-03-29T07:28:00Z</time></trkpt><trkpt lat="42.44353775763985" lon="14.06663090394298"><ele>153.5</ele><time>2026-03-29T07:28:01Z</time></trkpt><trkpt lat="42.44343604006291" lon="14.066493527364225"><ele>151.0</ele><time>2026-03-29T07:28:02Z</time></trkpt><trkpt lat="42.44333064875945" lon="14.066353591537775"><ele>148.5</ele><time>2026-03-29T07:28:03Z</time></trkpt><trkpt lat="42.443223538193386" lon="14.066208408225105"><ele>146.0</ele><time>2026-03-29T07:28:04Z</time></trkpt><trkpt lat="42.44311745410012" lon="14.066060473828962"><ele>146.0</ele><time>2026-03-29T07:28:05Z</time></trkpt><trkpt lat="42.44301301377418" lon="14.06590726289014"><ele>146.0</ele><time>2026-03-29T07:28:06Z</time></trkpt><trkpt lat="42.44290711736636" lon="14.065741667286455"><ele>146.0</ele><time>2026-03-29T07:28:07Z</time></trkpt><trkpt lat="42.44279866784871" lon="14.065569611761621"><ele>149.0</ele><time>2026-03-29T07:28:08Z</time></trkpt><trkpt lat="42.4426906191713" lon="14.065397990281774"><ele>152.0</ele><time>2026-03-29T07:28:09Z</time></trkpt><trkpt lat="42.44257975975122" lon="14.065230791632528"><ele>155.0</ele><time>2026-03-29T07:28:10Z</time></trkpt><trkpt lat="42.44247045935621" lon="14.065071339443017"><ele>155.5</ele><time>2026-03-29T07:28:11Z</time></trkpt><trkpt lat="42.442363523043994" lon="14.064918851610345"><ele>156.0</ele><time>2026-03-29T07:28:12Z</time></trkpt><trkpt lat="42.44226455896727" lon="14.064777209885195"><ele>156.5</ele><time>2026-03-29T07:28:13Z</time></trkpt><trkpt lat="42.44216746895435" lon="14.064653488071183"><ele>157.0</ele><time>2026-03-29T07:28:14Z</time></trkpt><trkpt lat="42.44207282064706" lon="14.06455124032803"><ele>157.0</ele><time>2026-03-29T07:28:15Z</time></trkpt><trkpt lat="42.44197637319714" lon="14.064456528462932"><ele>157.0</ele><time>2026-03-29T07:28:16Z</time></trkpt><trkpt lat="42.44188719823416" lon="14.064378418994146"><ele>157.0</ele><time>2026-03-29T07:28:17Z</time></trkpt><trkpt lat="42.44181463347489" lon="14.064329021182866"><ele>157.0</ele><time>2026-03-29T07:28:18Z</time></trkpt><trkpt lat="42.4417435685928" lon="14.064316407607572"><ele>157.0</ele><time>2026-03-29T07:28:19Z</time></trkpt><trkpt lat="42.44166819618142" lon="14.064347149975838"><ele>157.0</ele><time>2026-03-29T07:28:20Z</time></trkpt><trkpt lat="42.44159428428316" lon="14.064404712199686"><ele>157.0</ele><time>2026-03-29T07:28:21Z</time></trkpt><trkpt lat="42.44152778700083" lon="14.064499560370942"><ele>157.0</ele><time>2026-03-29T07:28:22Z</time></trkpt><trkpt lat="42.44147379429117" lon="14.06462288106461"><ele>157.0</ele><time>2026-03-29T07:28:23Z</time></trkpt><trkpt lat="42.4414184763237" lon="14.06475664349178"><ele>157.0</ele><time>2026-03-29T07:28:24Z</time></trkpt><trkpt lat="42.441343488156285" lon="14.064872606927194"><ele>158.8</ele><time>2026-03-29T07:28:25Z</time></trkpt><trkpt lat="42.4412611254593" lon="14.064955429241467"><ele>160.6</ele><time>2026-03-29T07:28:26Z</time></trkpt><trkpt lat="42.44117459047585" lon="14.065011256622364"><ele>162.4</ele><time>2026-03-29T07:28:27Z</time></trkpt><trkpt lat="42.44108266769472" lon="14.065042382682874"><ele>164.20000000000002</ele><time>2026-03-29T07:28:28Z</time></trkpt><trkpt lat="42.440983475105895" lon="14.065046551895474"><ele>166.0</ele><time>2026-03-29T07:28:29Z</time></trkpt><trkpt lat="42.44087777045206" lon="14.065026995241691"><ele>166.0</ele><time>2026-03-29T07:28:30Z</time></trkpt><trkpt lat="42.44076834038002" lon="14.064982305413267"><ele>166.0</ele><time>2026-03-29T07:28:31Z</time></trkpt><trkpt lat="42.44066408814818" lon="14.064927743058167"><ele>166.0</ele><time>2026-03-29T07:28:32Z</time></trkpt><trkpt lat="42.44056844666808" lon="14.064870217561657"><ele>166.0</ele><time>2026-03-29T07:28:33Z</time></trkpt><trkpt lat="42.44048234743148" lon="14.06480921045066"><ele>166.0</ele><time>2026-03-29T07:28:34Z</time></trkpt><trkpt lat="42.44040496383453" lon="14.064747655284137"><ele>166.0</ele><time>2026-03-29T07:28:35Z</time></trkpt><trkpt lat="42.44033094903452" lon="14.064698345446384"><ele>166.0</ele><time>2026-03-29T07:28:36Z</time></trkpt><trkpt lat="42.44026836090394" lon="14.064653145587219"><ele>166.0</ele><time>2026-03-29T07:28:37Z</time></trkpt><trkpt lat="42.440181051298005" lon="14.064577171679076"><ele>166.0</ele><time>2026-03-29T07:28:39Z</time></trkpt><trkpt lat="42.440077511798044" lon="14.064497042375073"><ele>166.0</ele><time>2026-03-29T07:28:41Z</time></trkpt><trkpt lat="42.44001914395846" lon="14.064452854198283"><ele>166.0</ele><time>2026-03-29T07:28:42Z</time></trkpt><trkpt lat="42.43993729075087" lon="14.064357754512137"><ele>166.0</ele><time>2026-03-29T07:28:44Z</time></trkpt><trkpt lat="42.43982856013102" lon="14.06428089558654"><ele>166.0</ele><time>2026-03-29T07:28:46Z</time></trkpt><trkpt lat="42.43974010388585" lon="14.064171839587413"><ele>166.0</ele><time>2026-03-29T07:28:48Z</time></trkpt><trkpt lat="42.43969743537868" lon="14.06410500502473"><ele>166.0</ele><time>2026-03-29T07:28:49Z</time></trkpt><trkpt lat="42.439649968341755" lon="14.06403135802473"><ele>166.0</ele><time>2026-03-29T07:28:50Z</time></trkpt><trkpt lat="42.4396050943426" lon="14.063939886483187"><ele>165.8</ele><time>2026-03-29T07:28:51Z</time></trkpt><trkpt lat="42.43956199757774" lon="14.063824864249924"><ele>165.60000000000002</ele><time>2026-03-29T07:28:52Z</time></trkpt><trkpt lat="42.43952433299727" lon="14.063690175943"><ele>165.4</ele><time>2026-03-29T07:28:53Z</time></trkpt><trkpt lat="42.439490624710935" lon="14.06354164796008"><ele>165.2</ele><time>2026-03-29T07:28:54Z</time></trkpt><trkpt lat="42.439458375515386" lon="14.063381796055467"><ele>165.0</ele><time>2026-03-29T07:28:55Z</time></trkpt><trkpt lat="42.43941895416212" lon="14.063215604627905"><ele>165.0</ele><time>2026-03-29T07:28:56Z</time></trkpt><trkpt lat="42.43936948040281" lon="14.063052047812077"><ele>165.0</ele><time>2026-03-29T07:28:57Z</time></trkpt><trkpt lat="42.439316115423445" lon="14.062892294948554"><ele>165.0</ele><time>2026-03-29T07:28:58Z</time></trkpt><trkpt lat="42.43925931959688" lon="14.062770168466042"><ele>165.0</ele><time>2026-03-29T07:28:59Z</time></trkpt><trkpt lat="42.43917878148236" lon="14.062658839835443"><ele>165.0</ele><time>2026-03-29T07:29:00Z</time></trkpt><trkpt lat="42.43902390569709" lon="14.062545369951058"><ele>165.0</ele><time>2026-03-29T07:29:01Z</time></trkpt><trkpt lat="42.43883675278911" lon="14.06244501983146"><ele>165.0</ele><time>2026-03-29T07:29:02Z</time></trkpt><trkpt lat="42.43868471628258" lon="14.062340736398333"><ele>164.25</ele><time>2026-03-29T07:29:03Z</time></trkpt><trkpt lat="42.43857690039144" lon="14.062207937024649"><ele>163.5</ele><time>2026-03-29T07:29:04Z</time></trkpt><trkpt lat="42.438493486140516" lon="14.062061198782894"><ele>162.75</ele><time>2026-03-29T07:29:05Z</time></trkpt><trkpt lat="42.43842918678952" lon="14.061910081330502"><ele>162.0</ele><time>2026-03-29T07:29:06Z</time></trkpt><trkpt lat="42.438374206905074" lon="14.061762281659378"><ele>162.0</ele><time>2026-03-29T07:29:07Z</time></trkpt><trkpt lat="42.43831776293568" lon="14.061626607866012"><ele>162.0</ele><time>2026-03-29T07:29:08Z</time></trkpt><trkpt lat="42.438255101164714" lon="14.061485590964699"><ele>162.0</ele><time>2026-03-29T07:29:09Z</time></trkpt><trkpt lat="42.43818946657167" lon="14.061337979145707"><ele>162.0</ele><time>2026-03-29T07:29:10Z</time></trkpt><trkpt lat="42.438128782879886" lon="14.061196672732954"><ele>160.0</ele><time>2026-03-29T07:29:11Z</time></trkpt><trkpt lat="42.43806284072187" lon="14.061046719128406"><ele>158.0</ele><time>2026-03-29T07:29:12Z</time></trkpt><trkpt lat="42.43799446119266" lon="14.060891579912974"><ele>156.0</ele><time>2026-03-29T07:29:13Z</time></trkpt><trkpt lat="42.437926785227376" lon="14.060737196643279"><ele>154.0</ele><time>2026-03-29T07:29:14Z</time></trkpt><trkpt lat="42.437861639596356" lon="14.060581721457433"><ele>154.0</ele><time>2026-03-29T07:29:15Z</time></trkpt><trkpt lat="42.43780564575349" lon="14.060410028280511"><ele>154.0</ele><time>2026-03-29T07:29:16Z</time></trkpt><trkpt lat="42.437744408653785" lon="14.060229550380814"><ele>154.0</ele><time>2026-03-29T07:29:17Z</time></trkpt><trkpt lat="42.4376998817889" lon="14.060030978527182"><ele>154.0</ele><time>2026-03-29T07:29:18Z</time></trkpt><trkpt lat="42.437694121089145" lon="14.059826167966284"><ele>153.33333333333334</ele><time>2026-03-29T07:29:19Z</time></trkpt><trkpt lat="42.43769205605385" lon="14.05961636596353"><ele>152.66666666666666</ele><time>2026-03-29T07:29:20Z</time></trkpt><trkpt lat="42.437674821683956" lon="14.059410367209958"><ele>152.0</ele><time>2026-03-29T07:29:21Z</time></trkpt><trkpt lat="42.43765142999034" lon="14.059208996816645"><ele>152.25</ele><time>2026-03-29T07:29:22Z</time></trkpt><trkpt lat="42.43762932444404" lon="14.059018587476357"><ele>152.5</ele><time>2026-03-29T07:29:23Z</time></trkpt><trkpt lat="42.437608428054716" lon="14.058847293242842"><ele>152.75</ele><time>2026-03-29T07:29:24Z</time></trkpt><trkpt lat="42.43758944864811" lon="14.05867748571926"><ele>153.0</ele><time>2026-03-29T07:29:25Z</time></trkpt><trkpt lat="42.43757210801497" lon="14.058496964035038"><ele>153.0</ele><time>2026-03-29T07:29:26Z</time></trkpt><trkpt lat="42.4375660292318" lon="14.05830895376301"><ele>153.0</ele><time>2026-03-29T07:29:27Z</time></trkpt><trkpt lat="42.43757326103489" lon="14.058114315657413"><ele>153.0</ele><time>2026-03-29T07:29:28Z</time></trkpt><trkpt lat="42.437595264600105" lon="14.057909880286767"><ele>153.0</ele><time>2026-03-29T07:29:29Z</time></trkpt><trkpt lat="42.43761831500989" lon="14.057699373959274"><ele>154.0</ele><time>2026-03-29T07:29:30Z</time></trkpt><trkpt lat="42.437639515732954" lon="14.057484469087566"><ele>155.0</ele><time>2026-03-29T07:29:31Z</time></trkpt><trkpt lat="42.43764986777619" lon="14.057271776800949"><ele>156.0</ele><time>2026-03-29T07:29:32Z</time></trkpt><trkpt lat="42.43765095897597" lon="14.05706090617245"><ele>156.75</ele><time>2026-03-29T07:29:33Z</time></trkpt><trkpt lat="42.437648991499785" lon="14.056859337293075"><ele>157.5</ele><time>2026-03-29T07:29:34Z</time></trkpt><trkpt lat="42.43764526520947" lon="14.05668596934903"><ele>158.25</ele><time>2026-03-29T07:29:35Z</time></trkpt><trkpt lat="42.437640816143876" lon="14.056534644702866"><ele>159.0</ele><time>2026-03-29T07:29:36Z</time></trkpt><trkpt lat="42.4376391257586" lon="14.05637711365698"><ele>160.0</ele><time>2026-03-29T07:29:37Z</time></trkpt><trkpt lat="42.43763972206193" lon="14.056217086891161"><ele>161.0</ele><time>2026-03-29T07:29:38Z</time></trkpt><trkpt lat="42.437639339385136" lon="14.05605797117084"><ele>162.0</ele><time>2026-03-29T07:29:39Z</time></trkpt><trkpt lat="42.43762486392568" lon="14.05590740010825"><ele>163.0</ele><time>2026-03-29T07:29:40Z</time></trkpt><trkpt lat="42.437579910383846" lon="14.055781104385268"><ele>164.0</ele><time>2026-03-29T07:29:41Z</time></trkpt><trkpt lat="42.437484121663836" lon="14.055688526849035"><ele>165.0</ele><time>2026-03-29T07:29:42Z</time></trkpt><trkpt lat="42.43734261108634" lon="14.055643582746695"><ele>166.0</ele><time>2026-03-29T07:29:43Z</time></trkpt><trkpt lat="42.43717498115735" lon="14.055640598905272"><ele>167.0</ele><time>2026-03-29T07:29:44Z</time></trkpt><trkpt lat="42.437010895083205" lon="14.055649587738834"><ele>170.33333333333331</ele><time>2026-03-29T07:29:45Z</time></trkpt><trkpt lat="42.436864199781155" lon="14.055646107582918"><ele>173.66666666666666</ele><time>2026-03-29T07:29:46Z</time></trkpt><trkpt lat="42.436707736040205" lon="14.055647326620578"><ele>177.0</ele><time>2026-03-29T07:29:47Z</time></trkpt><trkpt lat="42.43655630917263" lon="14.055652343663764"><ele>177.0</ele><time>2026-03-29T07:29:48Z</time></trkpt><trkpt lat="42.43640799430888" lon="14.055659308226803"><ele>177.0</ele><time>2026-03-29T07:29:49Z</time></trkpt><trkpt lat="42.436268238567116" lon="14.055663920899962"><ele>177.0</ele><time>2026-03-29T07:29:50Z</time></trkpt><trkpt lat="42.43614513645482" lon="14.055669248920902"><ele>177.0</ele><time>2026-03-29T07:29:51Z</time></trkpt><trkpt lat="42.43601184889869" lon="14.055670196941561"><ele>177.2</ele><time>2026-03-29T07:29:52Z</time></trkpt><trkpt lat="42.43588901037931" lon="14.055674214266606"><ele>177.39999999999998</ele><time>2026-03-29T07:29:53Z</time></trkpt><trkpt lat="42.43578265803266" lon="14.055682524435714"><ele>177.60000000000002</ele><time>2026-03-29T07:29:54Z</time></trkpt><trkpt lat="42.43569679041766" lon="14.055694870987683"><ele>177.8</ele><time>2026-03-29T07:29:55Z</time></trkpt><trkpt lat="42.43560325856191" lon="14.055698540925082"><ele>178.0</ele><time>2026-03-29T07:29:57Z</time></trkpt><trkpt lat="42.435635683291295" lon="14.0556007392193"><ele>178.0</ele><time>2026-03-29T07:30:00Z</time></trkpt><trkpt lat="42.435694578549445" lon="14.055442202705107"><ele>178.0</ele><time>2026-03-29T07:30:02Z</time></trkpt><trkpt lat="42.43573121882592" lon="14.055343572644036"><ele>178.0</ele><time>2026-03-29T07:30:03Z</time></trkpt><trkpt lat="42.43576867572512" lon="14.055242744718996"><ele>178.0</ele><time>2026-03-29T07:30:04Z</time></trkpt><trkpt lat="42.43581089070569" lon="14.055129110970572"><ele>178.0</ele><time>2026-03-29T07:30:05Z</time></trkpt><trkpt lat="42.43585197643468" lon="14.05501549554729"><ele>177.2</ele><time>2026-03-29T07:30:06Z</time></trkpt><trkpt lat="42.43587575062881" lon="14.054885485598506"><ele>176.4</ele><time>2026-03-29T07:30:07Z</time></trkpt><trkpt lat="42.43591214637075" lon="14.054786106551802"><ele>175.6</ele><time>2026-03-29T07:30:08Z</time></trkpt><trkpt lat="42.43594511536175" lon="14.05470515510205"><ele>174.79999999999998</ele><time>2026-03-29T07:30:09Z</time></trkpt><trkpt lat="42.435996740834305" lon="14.054553391464706"><ele>174.0</ele><time>2026-03-29T07:30:11Z</time></trkpt><trkpt lat="42.4360474095554" lon="14.054412498355436"><ele>174.0</ele><time>2026-03-29T07:30:13Z</time></trkpt><trkpt lat="42.436094495158336" lon="14.054283872155596"><ele>174.0</ele><time>2026-03-29T07:30:15Z</time></trkpt><trkpt lat="42.436136425602314" lon="14.054154802170626"><ele>174.0</ele><time>2026-03-29T07:30:17Z</time></trkpt><trkpt lat="42.436169126907224" lon="14.05406835754017"><ele>174.0</ele><time>2026-03-29T07:30:18Z</time></trkpt><trkpt lat="42.43620689445434" lon="14.05397763705929"><ele>174.0</ele><time>2026-03-29T07:30:19Z</time></trkpt><trkpt lat="42.436248689891784" lon="14.053888197362784"><ele>174.0</ele><time>2026-03-29T07:30:20Z</time></trkpt><trkpt lat="42.43629203282022" lon="14.0537965936499"><ele>172.71428571428572</ele><time>2026-03-29T07:30:21Z</time></trkpt><trkpt lat="42.43633309819142" lon="14.053706151709727"><ele>171.42857142857144</ele><time>2026-03-29T07:30:22Z</time></trkpt><trkpt lat="42.43636494041361" lon="14.053621909089228"><ele>170.14285714285717</ele><time>2026-03-29T07:30:23Z</time></trkpt><trkpt lat="42.43639088726635" lon="14.053539942339576"><ele>168.85714285714286</ele><time>2026-03-29T07:30:24Z</time></trkpt><trkpt lat="42.43642140417423" lon="14.053453492174237"><ele>167.57142857142858</ele><time>2026-03-29T07:30:25Z</time></trkpt><trkpt lat="42.43645820908723" lon="14.053364957599795"><ele>166.2857142857143</ele><time>2026-03-29T07:30:26Z</time></trkpt><trkpt lat="42.43649329559993" lon="14.053280311754062"><ele>165.0</ele><time>2026-03-29T07:30:27Z</time></trkpt><trkpt lat="42.43655254640619" lon="14.053137821472312"><ele>164.0</ele><time>2026-03-29T07:30:29Z</time></trkpt><trkpt lat="42.43658626301518" lon="14.053063005967557"><ele>163.0</ele><time>2026-03-29T07:30:30Z</time></trkpt><trkpt lat="42.43664354663711" lon="14.052923511917948"><ele>162.0</ele><time>2026-03-29T07:30:32Z</time></trkpt><trkpt lat="42.43668021436304" lon="14.052766082490198"><ele>161.0</ele><time>2026-03-29T07:30:34Z</time></trkpt><trkpt lat="42.43668747129498" lon="14.052674714620169"><ele>160.0</ele><time>2026-03-29T07:30:35Z</time></trkpt><trkpt lat="42.436689853088275" lon="14.052582710907393"><ele>159.0</ele><time>2026-03-29T07:30:36Z</time></trkpt><trkpt lat="42.43667564897357" lon="14.052498226456434"><ele>158.2</ele><time>2026-03-29T07:30:37Z</time></trkpt><trkpt lat="42.436669620402455" lon="14.052350486135282"><ele>157.4</ele><time>2026-03-29T07:30:39Z</time></trkpt><trkpt lat="42.43666365176611" lon="14.052240336060015"><ele>156.6</ele><time>2026-03-29T07:30:40Z</time></trkpt><trkpt lat="42.43666698204112" lon="14.052112742732893"><ele>155.8</ele><time>2026-03-29T07:30:41Z</time></trkpt><trkpt lat="42.43667081025149" lon="14.051989647755628"><ele>155.0</ele><time>2026-03-29T07:30:42Z</time></trkpt><trkpt lat="42.43666035874838" lon="14.051867975895428"><ele>155.0</ele><time>2026-03-29T07:30:43Z</time></trkpt><trkpt lat="42.43664110402255" lon="14.051747059852659"><ele>155.0</ele><time>2026-03-29T07:30:44Z</time></trkpt><trkpt lat="42.43661467603612" lon="14.05163410242506"><ele>155.0</ele><time>2026-03-29T07:30:45Z</time></trkpt><trkpt lat="42.43658867470361" lon="14.051542912335536"><ele>155.0</ele><time>2026-03-29T07:30:46Z</time></trkpt><trkpt lat="42.436560622518904" lon="14.05145048892871"><ele>155.0</ele><time>2026-03-29T07:30:47Z</time></trkpt><trkpt lat="42.4365323892807" lon="14.051344457116883"><ele>155.0</ele><time>2026-03-29T07:30:48Z</time></trkpt><trkpt lat="42.43650687746374" lon="14.051244760773095"><ele>154.0</ele><time>2026-03-29T07:30:49Z</time></trkpt><trkpt lat="42.43647991869523" lon="14.051166865514277"><ele>153.0</ele><time>2026-03-29T07:30:50Z</time></trkpt><trkpt lat="42.436420519808806" lon="14.051007464466064"><ele>152.0</ele><time>2026-03-29T07:30:52Z</time></trkpt><trkpt lat="42.43638515179891" lon="14.05089825325104"><ele>151.0</ele><time>2026-03-29T07:30:53Z</time></trkpt><trkpt lat="42.43634109514532" lon="14.050766712599401"><ele>150.0</ele><time>2026-03-29T07:30:54Z</time></trkpt><trkpt lat="42.43627627608006" lon="14.050628391627516"><ele>150.0</ele><time>2026-03-29T07:30:55Z</time></trkpt><trkpt lat="42.43620875841481" lon="14.050495133964699"><ele>150.0</ele><time>2026-03-29T07:30:56Z</time></trkpt><trkpt lat="42.43614715140285" lon="14.05034810195935"><ele>150.0</ele><time>2026-03-29T07:30:57Z</time></trkpt><trkpt lat="42.436105225175844" lon="14.050194749621191"><ele>150.0</ele><time>2026-03-29T07:30:58Z</time></trkpt><trkpt lat="42.436065907241286" lon="14.050069400833882"><ele>149.99999999999997</ele><time>2026-03-29T07:30:59Z</time></trkpt><trkpt lat="42.436030732085115" lon="14.049980203841747"><ele>150.0</ele><time>2026-03-29T07:31:00Z</time></trkpt><trkpt lat="42.43599563024971" lon="14.04988775443479"><ele>150.0</ele><time>2026-03-29T07:31:02Z</time></trkpt><trkpt lat="42.4359649533278" lon="14.049809065971635"><ele>150.0</ele><time>2026-03-29T07:31:07Z</time></trkpt><trkpt lat="42.435933361286054" lon="14.049726105571414"><ele>150.0</ele><time>2026-03-29T07:31:11Z</time></trkpt><trkpt lat="42.435918998127555" lon="14.04963816226233"><ele>149.99999999999997</ele><time>2026-03-29T07:31:15Z</time></trkpt><trkpt lat="42.435957346854245" lon="14.04974959497048"><ele>150.0</ele><time>2026-03-29T07:31:20Z</time></trkpt><trkpt lat="42.43597743769732" lon="14.04987628188087"><ele>150.0</ele><time>2026-03-29T07:31:22Z</time></trkpt><trkpt lat="42.43601769610247" lon="14.04999588279747"><ele>150.0</ele><time>2026-03-29T07:31:24Z</time></trkpt><trkpt lat="42.43606778498218" lon="14.050116681295364"><ele>150.0</ele><time>2026-03-29T07:31:26Z</time></trkpt><trkpt lat="42.43611630652116" lon="14.05025041292668"><ele>150.0</ele><time>2026-03-29T07:31:28Z</time></trkpt><trkpt lat="42.43617266063438" lon="14.050410385635391"><ele>150.0</ele><time>2026-03-29T07:31:30Z</time></trkpt><trkpt lat="42.4362085560788" lon="14.050501584075176"><ele>150.0</ele><time>2026-03-29T07:31:31Z</time></trkpt><trkpt lat="42.436247796101576" lon="14.050579973188576"><ele>150.0</ele><time>2026-03-29T07:31:32Z</time></trkpt><trkpt lat="42.43627791305704" lon="14.05068625233374"><ele>150.0</ele><time>2026-03-29T07:31:33Z</time></trkpt><trkpt lat="42.43632941536878" lon="14.050813207764266"><ele>150.0</ele><time>2026-03-29T07:31:34Z</time></trkpt><trkpt lat="42.43637382310826" lon="14.050933893728232"><ele>150.0</ele><time>2026-03-29T07:31:35Z</time></trkpt><trkpt lat="42.436411322058916" lon="14.051042651726823"><ele>150.0</ele><time>2026-03-29T07:31:36Z</time></trkpt><trkpt lat="42.43644497577539" lon="14.051144211487475"><ele>149.33333333333334</ele><time>2026-03-29T07:31:37Z</time></trkpt><trkpt lat="42.43647609925475" lon="14.051244190977577"><ele>148.66666666666666</ele><time>2026-03-29T07:31:38Z</time></trkpt><trkpt lat="42.43650148754396" lon="14.051332552910125"><ele>148.0</ele><time>2026-03-29T07:31:39Z</time></trkpt><trkpt lat="42.436542186025726" lon="14.051486501802685"><ele>147.33333333333331</ele><time>2026-03-29T07:31:41Z</time></trkpt><trkpt lat="42.43656872682034" lon="14.051568342809766"><ele>146.66666666666666</ele><time>2026-03-29T07:31:43Z</time></trkpt><trkpt lat="42.436491026621574" lon="14.051474713433734"><ele>146.0</ele><time>2026-03-29T07:31:46Z</time></trkpt><trkpt lat="42.43642275424838" lon="14.051404539868157"><ele>146.0</ele><time>2026-03-29T07:31:47Z</time></trkpt><trkpt lat="42.436354546064884" lon="14.051361900793228"><ele>146.0</ele><time>2026-03-29T07:31:48Z</time></trkpt><trkpt lat="42.43628426957422" lon="14.05129892768404"><ele>146.0</ele><time>2026-03-29T07:31:49Z</time></trkpt><trkpt lat="42.43618357637655" lon="14.05121348353222"><ele>146.0</ele><time>2026-03-29T07:31:50Z</time></trkpt><trkpt lat="42.43608206169269" lon="14.051127655812953"><ele>146.0</ele><time>2026-03-29T07:31:51Z</time></trkpt><trkpt lat="42.435987416436696" lon="14.051054105770616"><ele>146.8</ele><time>2026-03-29T07:31:52Z</time></trkpt><trkpt lat="42.43589162622309" lon="14.05098257106116"><ele>147.6</ele><time>2026-03-29T07:31:53Z</time></trkpt><trkpt lat="42.435795666593776" lon="14.050918128135358"><ele>148.4</ele><time>2026-03-29T07:31:54Z</time></trkpt><trkpt lat="42.43570899017544" lon="14.050858152702379"><ele>149.2</ele><time>2026-03-29T07:31:55Z</time></trkpt><trkpt lat="42.43563494402443" lon="14.050800701096088"><ele>150.0</ele><time>2026-03-29T07:31:56Z</time></trkpt><trkpt lat="42.43556159567895" lon="14.050736620665297"><ele>150.0</ele><time>2026-03-29T07:31:57Z</time></trkpt><trkpt lat="42.43549367969557" lon="14.050657893140896"><ele>150.0</ele><time>2026-03-29T07:31:58Z</time></trkpt><trkpt lat="42.43543495192403" lon="14.050561167971837"><ele>150.0</ele><time>2026-03-29T07:31:59Z</time></trkpt><trkpt lat="42.435383500294705" lon="14.050470166876426"><ele>150.0</ele><time>2026-03-29T07:32:00Z</time></trkpt><trkpt lat="42.435330282067326" lon="14.050381498332396"><ele>150.0</ele><time>2026-03-29T07:32:01Z</time></trkpt><trkpt lat="42.435269067459295" lon="14.050281679204634"><ele>150.0</ele><time>2026-03-29T07:32:02Z</time></trkpt><trkpt lat="42.435205236778145" lon="14.050173130611403"><ele>149.8</ele><time>2026-03-29T07:32:03Z</time></trkpt><trkpt lat="42.435142196096805" lon="14.050064363880571"><ele>149.6</ele><time>2026-03-29T07:32:04Z</time></trkpt><trkpt lat="42.43507874751787" lon="14.049954327176637"><ele>149.4</ele><time>2026-03-29T07:32:05Z</time></trkpt><trkpt lat="42.43501302823037" lon="14.049843553874986"><ele>149.2</ele><time>2026-03-29T07:32:06Z</time></trkpt><trkpt lat="42.43494469550381" lon="14.049733951612938"><ele>149.0</ele><time>2026-03-29T07:32:07Z</time></trkpt><trkpt lat="42.43487385722443" lon="14.04961979013697"><ele>147.5</ele><time>2026-03-29T07:32:08Z</time></trkpt><trkpt lat="42.434796228606565" lon="14.049494244659808"><ele>146.0</ele><time>2026-03-29T07:32:09Z</time></trkpt><trkpt lat="42.434709924804665" lon="14.04935475111505"><ele>144.5</ele><time>2026-03-29T07:32:10Z</time></trkpt><trkpt lat="42.434626515733875" lon="14.049219302651245"><ele>143.0</ele><time>2026-03-29T07:32:11Z</time></trkpt><trkpt lat="42.43455494657269" lon="14.049104600858518"><ele>141.4</ele><time>2026-03-29T07:32:12Z</time></trkpt><trkpt lat="42.43448995289927" lon="14.048993386279506"><ele>139.8</ele><time>2026-03-29T07:32:13Z</time></trkpt><trkpt lat="42.43442053821982" lon="14.04887982573171"><ele>138.2</ele><time>2026-03-29T07:32:14Z</time></trkpt><trkpt lat="42.434353831723925" lon="14.048766603799995"><ele>136.6</ele><time>2026-03-29T07:32:15Z</time></trkpt><trkpt lat="42.43428323476936" lon="14.048653284044464"><ele>135.0</ele><time>2026-03-29T07:32:16Z</time></trkpt><trkpt lat="42.43421237789976" lon="14.048538684693124"><ele>135.0</ele><time>2026-03-29T07:32:17Z</time></trkpt><trkpt lat="42.43414075428927" lon="14.048423802407468"><ele>135.0</ele><time>2026-03-29T07:32:18Z</time></trkpt><trkpt lat="42.43407414672161" lon="14.048300333924974"><ele>135.0</ele><time>2026-03-29T07:32:19Z</time></trkpt><trkpt lat="42.434011622524146" lon="14.048169750657026"><ele>135.0</ele><time>2026-03-29T07:32:20Z</time></trkpt><trkpt lat="42.43394355350767" lon="14.04802162830303"><ele>132.75</ele><time>2026-03-29T07:32:21Z</time></trkpt><trkpt lat="42.43388697594764" lon="14.047882737696932"><ele>130.5</ele><time>2026-03-29T07:32:22Z</time></trkpt><trkpt lat="42.43385805391777" lon="14.04772753185464"><ele>128.25</ele><time>2026-03-29T07:32:23Z</time></trkpt><trkpt lat="42.43382086546575" lon="14.047581796837743"><ele>126.0</ele><time>2026-03-29T07:32:24Z</time></trkpt><trkpt lat="42.43378467070455" lon="14.04742841123621"><ele>125.75</ele><time>2026-03-29T07:32:25Z</time></trkpt><trkpt lat="42.43374953496175" lon="14.047271716152894"><ele>125.5</ele><time>2026-03-29T07:32:26Z</time></trkpt><trkpt lat="42.43371381714041" lon="14.047109204433786"><ele>125.25</ele><time>2026-03-29T07:32:27Z</time></trkpt><trkpt lat="42.43365926038689" lon="14.046948469374838"><ele>125.0</ele><time>2026-03-29T07:32:28Z</time></trkpt><trkpt lat="42.43362842792006" lon="14.046796369994961"><ele>125.0</ele><time>2026-03-29T07:32:29Z</time></trkpt><trkpt lat="42.4335998313205" lon="14.046652606899706"><ele>125.0</ele><time>2026-03-29T07:32:30Z</time></trkpt><trkpt lat="42.43357147924923" lon="14.046518670246922"><ele>125.0</ele><time>2026-03-29T07:32:31Z</time></trkpt><trkpt lat="42.43353521077505" lon="14.046387054461245"><ele>125.0</ele><time>2026-03-29T07:32:32Z</time></trkpt><trkpt lat="42.43349475766827" lon="14.046255978372198"><ele>125.0</ele><time>2026-03-29T07:32:33Z</time></trkpt><trkpt lat="42.433450654879735" lon="14.046122899218743"><ele>124.25</ele><time>2026-03-29T07:32:34Z</time></trkpt><trkpt lat="42.433406590285344" lon="14.045992998941493"><ele>123.5</ele><time>2026-03-29T07:32:35Z</time></trkpt><trkpt lat="42.43336238337609" lon="14.045856883254643"><ele>122.75</ele><time>2026-03-29T07:32:36Z</time></trkpt><trkpt lat="42.433316151132104" lon="14.04571507736145"><ele>122.0</ele><time>2026-03-29T07:32:37Z</time></trkpt><trkpt lat="42.4332675613309" lon="14.045566580188435"><ele>119.5</ele><time>2026-03-29T07:32:38Z</time></trkpt><trkpt lat="42.433213757958136" lon="14.04541846897919"><ele>117.0</ele><time>2026-03-29T07:32:39Z</time></trkpt><trkpt lat="42.43316485423518" lon="14.045266418667719"><ele>114.5</ele><time>2026-03-29T07:32:40Z</time></trkpt><trkpt lat="42.43311617621373" lon="14.045124397588149"><ele>112.0</ele><time>2026-03-29T07:32:41Z</time></trkpt><trkpt lat="42.43308335255723" lon="14.044982331884594"><ele>109.75</ele><time>2026-03-29T07:32:42Z</time></trkpt><trkpt lat="42.43305259357155" lon="14.044837304053354"><ele>107.5</ele><time>2026-03-29T07:32:43Z</time></trkpt><trkpt lat="42.43308828812163" lon="14.044674486120885"><ele>105.25</ele><time>2026-03-29T07:32:44Z</time></trkpt><trkpt lat="42.433176691693994" lon="14.044549445813859"><ele>103.0</ele><time>2026-03-29T07:32:45Z</time></trkpt><trkpt lat="42.43324903415924" lon="14.044410325207377"><ele>103.0</ele><time>2026-03-29T07:32:46Z</time></trkpt><trkpt lat="42.43332683354404" lon="14.04429782414313"><ele>103.0</ele><time>2026-03-29T07:32:47Z</time></trkpt><trkpt lat="42.43338125650154" lon="14.044179612620532"><ele>103.0</ele><time>2026-03-29T07:32:48Z</time></trkpt><trkpt lat="42.43341013886534" lon="14.044046739476226"><ele>103.0</ele><time>2026-03-29T07:32:49Z</time></trkpt><trkpt lat="42.43339759832235" lon="14.043892468591674"><ele>103.0</ele><time>2026-03-29T07:32:50Z</time></trkpt><trkpt lat="42.43335908805977" lon="14.043732765252695"><ele>101.4</ele><time>2026-03-29T07:32:51Z</time></trkpt><trkpt lat="42.433303238260336" lon="14.043588820535529"><ele>99.80000000000001</ele><time>2026-03-29T07:32:52Z</time></trkpt><trkpt lat="42.43325067461049" lon="14.043462420815526"><ele>98.2</ele><time>2026-03-29T07:32:53Z</time></trkpt><trkpt lat="42.43315043897158" lon="14.043398752560806"><ele>96.6</ele><time>2026-03-29T07:32:54Z</time></trkpt><trkpt lat="42.43304055204829" lon="14.043402104689676"><ele>95.0</ele><time>2026-03-29T07:32:55Z</time></trkpt><trkpt lat="42.43294562338517" lon="14.043559684995628"><ele>95.0</ele><time>2026-03-29T07:32:56Z</time></trkpt><trkpt lat="42.43285764766805" lon="14.043678889888852"><ele>95.0</ele><time>2026-03-29T07:32:57Z</time></trkpt><trkpt lat="42.432806236475216" lon="14.043835589680526"><ele>95.0</ele><time>2026-03-29T07:32:58Z</time></trkpt><trkpt lat="42.43275641537221" lon="14.043934115326987"><ele>95.0</ele><time>2026-03-29T07:32:59Z</time></trkpt><trkpt lat="42.43269644681002" lon="14.044025977505227"><ele>95.0</ele><time>2026-03-29T07:33:00Z</time></trkpt><trkpt lat="42.432618584939576" lon="14.04405385686528"><ele>95.0</ele><time>2026-03-29T07:33:01Z</time></trkpt><trkpt lat="42.43254626758292" lon="14.044002839473343"><ele>95.0</ele><time>2026-03-29T07:33:02Z</time></trkpt><trkpt lat="42.43249840933573" lon="14.043931579563987"><ele>95.0</ele><time>2026-03-29T07:33:03Z</time></trkpt><trkpt lat="42.43246248188225" lon="14.043837368089335"><ele>95.0</ele><time>2026-03-29T07:33:04Z</time></trkpt><trkpt lat="42.43248935414934" lon="14.043691891298176"><ele>95.0</ele><time>2026-03-29T07:33:05Z</time></trkpt><trkpt lat="42.43253436717517" lon="14.043539041335091"><ele>95.0</ele><time>2026-03-29T07:33:06Z</time></trkpt><trkpt lat="42.43255490756638" lon="14.04340642107482"><ele>95.0</ele><time>2026-03-29T07:33:07Z</time></trkpt><trkpt lat="42.432547503435615" lon="14.043235002129673"><ele>95.0</ele><time>2026-03-29T07:33:09Z</time></trkpt><trkpt lat="42.43249522461891" lon="14.043137433896167"><ele>95.0</ele><time>2026-03-29T07:33:10Z</time></trkpt><trkpt lat="42.43244328393347" lon="14.043025359385457"><ele>95.0</ele><time>2026-03-29T07:33:11Z</time></trkpt><trkpt lat="42.43236314088022" lon="14.042925625545273"><ele>95.5</ele><time>2026-03-29T07:33:12Z</time></trkpt><trkpt lat="42.43225773385455" lon="14.042833589683937"><ele>96.0</ele><time>2026-03-29T07:33:13Z</time></trkpt><trkpt lat="42.43214554456323" lon="14.042745558416895"><ele>96.5</ele><time>2026-03-29T07:33:14Z</time></trkpt><trkpt lat="42.43203054447189" lon="14.042657274912331"><ele>97.0</ele><time>2026-03-29T07:33:15Z</time></trkpt><trkpt lat="42.43191314056192" lon="14.042561863128528"><ele>97.0</ele><time>2026-03-29T07:33:16Z</time></trkpt><trkpt lat="42.431794120293745" lon="14.042464882256898"><ele>97.0</ele><time>2026-03-29T07:33:17Z</time></trkpt><trkpt lat="42.431667475218525" lon="14.042367038607358"><ele>97.0</ele><time>2026-03-29T07:33:18Z</time></trkpt><trkpt lat="42.431544639181745" lon="14.042268096466882"><ele>97.0</ele><time>2026-03-29T07:33:19Z</time></trkpt><trkpt lat="42.43142608256917" lon="14.042167260316573"><ele>96.0</ele><time>2026-03-29T07:33:20Z</time></trkpt><trkpt lat="42.43129862606874" lon="14.042054775577476"><ele>95.0</ele><time>2026-03-29T07:33:21Z</time></trkpt><trkpt lat="42.43115638318308" lon="14.04193179435554"><ele>94.0</ele><time>2026-03-29T07:33:22Z</time></trkpt><trkpt lat="42.43100225923396" lon="14.041809030610414"><ele>94.0</ele><time>2026-03-29T07:33:23Z</time></trkpt><trkpt lat="42.430874507190524" lon="14.041702371748368"><ele>94.0</ele><time>2026-03-29T07:33:24Z</time></trkpt><trkpt lat="42.43076317908235" lon="14.041611969198161"><ele>94.0</ele><time>2026-03-29T07:33:25Z</time></trkpt><trkpt lat="42.43066842627805" lon="14.041534175618787"><ele>94.0</ele><time>2026-03-29T07:33:26Z</time></trkpt><trkpt lat="42.430587609557726" lon="14.041432990943628"><ele>95.0</ele><time>2026-03-29T07:33:27Z</time></trkpt><trkpt lat="42.430499666953246" lon="14.041291968369467"><ele>96.0</ele><time>2026-03-29T07:33:28Z</time></trkpt><trkpt lat="42.4304094564255" lon="14.041100713330845"><ele>97.0</ele><time>2026-03-29T07:33:29Z</time></trkpt><trkpt lat="42.430322957406986" lon="14.040910884110849"><ele>95.0</ele><time>2026-03-29T07:33:30Z</time></trkpt><trkpt lat="42.43023538236053" lon="14.040723640092162"><ele>93.0</ele><time>2026-03-29T07:33:31Z</time></trkpt><trkpt lat="42.43014293055335" lon="14.040522241190244"><ele>91.0</ele><time>2026-03-29T07:33:32Z</time></trkpt><trkpt lat="42.43003977745993" lon="14.040299733451416"><ele>91.0</ele><time>2026-03-29T07:33:33Z</time></trkpt><trkpt lat="42.42992210436073" lon="14.040052841505965"><ele>91.0</ele><time>2026-03-29T07:33:34Z</time></trkpt><trkpt lat="42.42979905289289" lon="14.039783668525638"><ele>90.66666666666666</ele><time>2026-03-29T07:33:35Z</time></trkpt><trkpt lat="42.429680716177124" lon="14.039523459794815"><ele>90.33333333333333</ele><time>2026-03-29T07:33:36Z</time></trkpt><trkpt lat="42.4295660801361" lon="14.039278443427955"><ele>90.0</ele><time>2026-03-29T07:33:37Z</time></trkpt><trkpt lat="42.42944353716934" lon="14.039033009766458"><ele>89.66666666666667</ele><time>2026-03-29T07:33:38Z</time></trkpt><trkpt lat="42.429322563638834" lon="14.038794089838534"><ele>89.33333333333334</ele><time>2026-03-29T07:33:39Z</time></trkpt><trkpt lat="42.42920861132329" lon="14.03857944568419"><ele>89.0</ele><time>2026-03-29T07:33:40Z</time></trkpt><trkpt lat="42.42911049978234" lon="14.03835923270254"><ele>89.33333333333334</ele><time>2026-03-29T07:33:41Z</time></trkpt><trkpt lat="42.428986023614854" lon="14.03815333659295"><ele>89.66666666666667</ele><time>2026-03-29T07:33:42Z</time></trkpt><trkpt lat="42.42884830338152" lon="14.037955388128013"><ele>90.0</ele><time>2026-03-29T07:33:43Z</time></trkpt><trkpt lat="42.428695781618416" lon="14.037750457671208"><ele>91.0</ele><time>2026-03-29T07:33:44Z</time></trkpt><trkpt lat="42.42853630851614" lon="14.037550922456612"><ele>92.0</ele><time>2026-03-29T07:33:45Z</time></trkpt><trkpt lat="42.42837044435864" lon="14.037339757325642"><ele>93.0</ele><time>2026-03-29T07:33:46Z</time></trkpt><trkpt lat="42.428204582982836" lon="14.037102798770377"><ele>93.0</ele><time>2026-03-29T07:33:47Z</time></trkpt><trkpt lat="42.428044147336166" lon="14.036876397177807"><ele>93.0</ele><time>2026-03-29T07:33:48Z</time></trkpt><trkpt lat="42.427886671837676" lon="14.036696972836266"><ele>93.0</ele><time>2026-03-29T07:33:49Z</time></trkpt><trkpt lat="42.42775817186848" lon="14.036529209342692"><ele>93.25</ele><time>2026-03-29T07:33:50Z</time></trkpt><trkpt lat="42.42765547842895" lon="14.036370288420118"><ele>93.5</ele><time>2026-03-29T07:33:51Z</time></trkpt><trkpt lat="42.427549360107925" lon="14.036238015668422"><ele>93.75</ele><time>2026-03-29T07:33:52Z</time></trkpt><trkpt lat="42.427444380007955" lon="14.036122902230408"><ele>94.0</ele><time>2026-03-29T07:33:53Z</time></trkpt><trkpt lat="42.427347091566105" lon="14.036029775636884"><ele>94.0</ele><time>2026-03-29T07:33:54Z</time></trkpt><trkpt lat="42.427237190983035" lon="14.035931092839572"><ele>94.0</ele><time>2026-03-29T07:33:55Z</time></trkpt><trkpt lat="42.42713241441147" lon="14.035838521445758"><ele>94.0</ele><time>2026-03-29T07:33:56Z</time></trkpt><trkpt lat="42.42702279146323" lon="14.035742751057146"><ele>94.0</ele><time>2026-03-29T07:33:57Z</time></trkpt><trkpt lat="42.4269126623057" lon="14.035646728699685"><ele>94.0</ele><time>2026-03-29T07:33:58Z</time></trkpt><trkpt lat="42.426802688970035" lon="14.035551805907962"><ele>94.0</ele><time>2026-03-29T07:33:59Z</time></trkpt><trkpt lat="42.42669865416006" lon="14.035455489898776"><ele>94.0</ele><time>2026-03-29T07:34:00Z</time></trkpt><trkpt lat="42.42659804443111" lon="14.03535946585603"><ele>94.0</ele><time>2026-03-29T07:34:01Z</time></trkpt><trkpt lat="42.426508428032726" lon="14.03526256621011"><ele>94.0</ele><time>2026-03-29T07:34:02Z</time></trkpt><trkpt lat="42.42642778998093" lon="14.035156018546997"><ele>94.0</ele><time>2026-03-29T07:34:03Z</time></trkpt><trkpt lat="42.42634918757484" lon="14.035028672360736"><ele>94.0</ele><time>2026-03-29T07:34:04Z</time></trkpt><trkpt lat="42.42627189567705" lon="14.03488865736445"><ele>94.0</ele><time>2026-03-29T07:34:05Z</time></trkpt><trkpt lat="42.42618831778667" lon="14.034734941669909"><ele>93.75</ele><time>2026-03-29T07:34:06Z</time></trkpt><trkpt lat="42.42610194135639" lon="14.034581768014048"><ele>93.5</ele><time>2026-03-29T07:34:07Z</time></trkpt><trkpt lat="42.42601142887008" lon="14.034430426386912"><ele>93.25</ele><time>2026-03-29T07:34:08Z</time></trkpt><trkpt lat="42.425919130098826" lon="14.034275618166985"><ele>93.0</ele><time>2026-03-29T07:34:09Z</time></trkpt><trkpt lat="42.42582904332622" lon="14.034105190648337"><ele>93.0</ele><time>2026-03-29T07:34:10Z</time></trkpt><trkpt lat="42.42573295596075" lon="14.03390524459121"><ele>93.0</ele><time>2026-03-29T07:34:11Z</time></trkpt><trkpt lat="42.42563939211049" lon="14.033701751831028"><ele>93.0</ele><time>2026-03-29T07:34:12Z</time></trkpt><trkpt lat="42.42554628606265" lon="14.033500778350778"><ele>96.33333333333334</ele><time>2026-03-29T07:34:13Z</time></trkpt><trkpt lat="42.42545553495642" lon="14.033310215042178"><ele>99.66666666666667</ele><time>2026-03-29T07:34:14Z</time></trkpt><trkpt lat="42.42536715815087" lon="14.03312463749939"><ele>103.0</ele><time>2026-03-29T07:34:15Z</time></trkpt><trkpt lat="42.425280090926684" lon="14.032941223957275"><ele>103.0</ele><time>2026-03-29T07:34:16Z</time></trkpt><trkpt lat="42.42520008963731" lon="14.032771619294348"><ele>103.0</ele><time>2026-03-29T07:34:17Z</time></trkpt><trkpt lat="42.42512791719685" lon="14.032618221188185"><ele>103.0</ele><time>2026-03-29T07:34:18Z</time></trkpt><trkpt lat="42.425053308620896" lon="14.032457799380737"><ele>103.0</ele><time>2026-03-29T07:34:19Z</time></trkpt><trkpt lat="42.42497772836775" lon="14.032295288392675"><ele>101.75</ele><time>2026-03-29T07:34:20Z</time></trkpt><trkpt lat="42.42490542273551" lon="14.032139818286428"><ele>100.5</ele><time>2026-03-29T07:34:21Z</time></trkpt><trkpt lat="42.424835444158845" lon="14.031989351846077"><ele>99.25</ele><time>2026-03-29T07:34:22Z</time></trkpt><trkpt lat="42.424754901914994" lon="14.031848482946797"><ele>98.0</ele><time>2026-03-29T07:34:23Z</time></trkpt><trkpt lat="42.424692677106876" lon="14.031693525240488"><ele>100.0</ele><time>2026-03-29T07:34:24Z</time></trkpt><trkpt lat="42.42462073155403" lon="14.031555647438175"><ele>102.0</ele><time>2026-03-29T07:34:25Z</time></trkpt><trkpt lat="42.424554879182566" lon="14.03141718512519"><ele>104.0</ele><time>2026-03-29T07:34:26Z</time></trkpt><trkpt lat="42.42448979505959" lon="14.03126803383427"><ele>106.0</ele><time>2026-03-29T07:34:27Z</time></trkpt><trkpt lat="42.42442165664257" lon="14.031110206489885"><ele>106.0</ele><time>2026-03-29T07:34:28Z</time></trkpt><trkpt lat="42.42434111800615" lon="14.030947342670274"><ele>106.0</ele><time>2026-03-29T07:34:29Z</time></trkpt><trkpt lat="42.42425947988599" lon="14.03077919264615"><ele>106.0</ele><time>2026-03-29T07:34:30Z</time></trkpt><trkpt lat="42.42417750317473" lon="14.030608330225876"><ele>106.0</ele><time>2026-03-29T07:34:31Z</time></trkpt><trkpt lat="42.42409815633212" lon="14.03044318929153"><ele>104.5</ele><time>2026-03-29T07:34:32Z</time></trkpt><trkpt lat="42.424023555369956" lon="14.030295807933413"><ele>103.0</ele><time>2026-03-29T07:34:33Z</time></trkpt><trkpt lat="42.42394113543515" lon="14.030171115287105"><ele>101.5</ele><time>2026-03-29T07:34:34Z</time></trkpt><trkpt lat="42.4238640858391" lon="14.030087790425979"><ele>100.0</ele><time>2026-03-29T07:34:35Z</time></trkpt><trkpt lat="42.42377617860289" lon="14.030025926687319"><ele>100.8</ele><time>2026-03-29T07:34:36Z</time></trkpt><trkpt lat="42.423682765645125" lon="14.02998445579796"><ele>101.6</ele><time>2026-03-29T07:34:37Z</time></trkpt><trkpt lat="42.4235799537376" lon="14.02995939231736"><ele>102.4</ele><time>2026-03-29T07:34:38Z</time></trkpt><trkpt lat="42.42346799706967" lon="14.029948458563162"><ele>103.2</ele><time>2026-03-29T07:34:39Z</time></trkpt><trkpt lat="42.423364091663466" lon="14.029952810165922"><ele>104.0</ele><time>2026-03-29T07:34:40Z</time></trkpt><trkpt lat="42.42326251055228" lon="14.029926756530925"><ele>104.0</ele><time>2026-03-29T07:34:41Z</time></trkpt><trkpt lat="42.423151209610616" lon="14.029904975458411"><ele>104.0</ele><time>2026-03-29T07:34:42Z</time></trkpt><trkpt lat="42.423053834239575" lon="14.029785542426724"><ele>104.0</ele><time>2026-03-29T07:34:43Z</time></trkpt><trkpt lat="42.42293144116681" lon="14.02970238062422"><ele>104.0</ele><time>2026-03-29T07:34:44Z</time></trkpt><trkpt lat="42.42282803280807" lon="14.029610869342143"><ele>106.4</ele><time>2026-03-29T07:34:45Z</time></trkpt><trkpt lat="42.42271634495874" lon="14.029543939540892"><ele>108.80000000000001</ele><time>2026-03-29T07:34:46Z</time></trkpt><trkpt lat="42.42262080037253" lon="14.02952969040829"><ele>111.19999999999999</ele><time>2026-03-29T07:34:47Z</time></trkpt><trkpt lat="42.422551061974175" lon="14.029534728211448"><ele>113.6</ele><time>2026-03-29T07:34:48Z</time></trkpt><trkpt lat="42.42249276332645" lon="14.029604971493907"><ele>116.0</ele><time>2026-03-29T07:34:49Z</time></trkpt><trkpt lat="42.42249045262702" lon="14.029744480888574"><ele>116.0</ele><time>2026-03-29T07:34:50Z</time></trkpt><trkpt lat="42.422520851597874" lon="14.029876053235641"><ele>116.0</ele><time>2026-03-29T07:34:51Z</time></trkpt><trkpt lat="42.42256133521618" lon="14.030003494745847"><ele>116.0</ele><time>2026-03-29T07:34:52Z</time></trkpt><trkpt lat="42.42260412547428" lon="14.030133632772142"><ele>116.0</ele><time>2026-03-29T07:34:53Z</time></trkpt><trkpt lat="42.42263418494692" lon="14.030278115017646"><ele>116.0</ele><time>2026-03-29T07:34:54Z</time></trkpt><trkpt lat="42.42264349668399" lon="14.03043315447641"><ele>118.75</ele><time>2026-03-29T07:34:55Z</time></trkpt><trkpt lat="42.422613859091925" lon="14.030608615645763"><ele>121.5</ele><time>2026-03-29T07:34:56Z</time></trkpt><trkpt lat="42.42253519720343" lon="14.030778599577415"><ele>124.25</ele><time>2026-03-29T07:34:57Z</time></trkpt><trkpt lat="42.42247733687315" lon="14.030949132498357"><ele>127.0</ele><time>2026-03-29T07:34:58Z</time></trkpt><trkpt lat="42.42242088359149" lon="14.03109530792499"><ele>128.16666666666669</ele><time>2026-03-29T07:34:59Z</time></trkpt><trkpt lat="42.42236820450628" lon="14.031202832219297"><ele>129.33333333333334</ele><time>2026-03-29T07:35:00Z</time></trkpt><trkpt lat="42.42230227342096" lon="14.031271815407724"><ele>130.5</ele><time>2026-03-29T07:35:01Z</time></trkpt><trkpt lat="42.422225586247194" lon="14.03129654549283"><ele>131.66666666666666</ele><time>2026-03-29T07:35:02Z</time></trkpt><trkpt lat="42.42215092943953" lon="14.031276061878375"><ele>132.83333333333331</ele><time>2026-03-29T07:35:03Z</time></trkpt><trkpt lat="42.42209829035926" lon="14.031165161187312"><ele>134.0</ele><time>2026-03-29T07:35:04Z</time></trkpt><trkpt lat="42.42200951544001" lon="14.031084161605094"><ele>133.5</ele><time>2026-03-29T07:35:05Z</time></trkpt><trkpt lat="42.42191936222498" lon="14.030980092906045"><ele>133.0</ele><time>2026-03-29T07:35:06Z</time></trkpt><trkpt lat="42.42180626548787" lon="14.030892229619656"><ele>132.5</ele><time>2026-03-29T07:35:07Z</time></trkpt><trkpt lat="42.42167925794557" lon="14.030827608521047"><ele>132.0</ele><time>2026-03-29T07:35:08Z</time></trkpt><trkpt lat="42.42155669643747" lon="14.030747007236554"><ele>132.0</ele><time>2026-03-29T07:35:09Z</time></trkpt><trkpt lat="42.421432764279935" lon="14.030675420640874"><ele>132.0</ele><time>2026-03-29T07:35:10Z</time></trkpt><trkpt lat="42.42130432647728" lon="14.03060077873971"><ele>132.0</ele><time>2026-03-29T07:35:11Z</time></trkpt><trkpt lat="42.421175050173886" lon="14.03052334799725"><ele>132.0</ele><time>2026-03-29T07:35:12Z</time></trkpt><trkpt lat="42.42105161003525" lon="14.03044829166764"><ele>134.5</ele><time>2026-03-29T07:35:13Z</time></trkpt><trkpt lat="42.42092631080334" lon="14.030393298657534"><ele>137.0</ele><time>2026-03-29T07:35:14Z</time></trkpt><trkpt lat="42.42081098185432" lon="14.030320223313323"><ele>139.5</ele><time>2026-03-29T07:35:15Z</time></trkpt><trkpt lat="42.42068946303489" lon="14.0302457749356"><ele>142.0</ele><time>2026-03-29T07:35:16Z</time></trkpt><trkpt lat="42.42056909300379" lon="14.03017096561578"><ele>143.0</ele><time>2026-03-29T07:35:17Z</time></trkpt><trkpt lat="42.42046414256897" lon="14.030083003820081"><ele>144.0</ele><time>2026-03-29T07:35:18Z</time></trkpt><trkpt lat="42.42038129254141" lon="14.030030609284347"><ele>145.0</ele><time>2026-03-29T07:35:19Z</time></trkpt><trkpt lat="42.420312759723274" lon="14.030013421093038"><ele>146.0</ele><time>2026-03-29T07:35:20Z</time></trkpt><trkpt lat="42.42033352519133" lon="14.029859498384097"><ele>147.0</ele><time>2026-03-29T07:35:23Z</time></trkpt><trkpt lat="42.420412252853" lon="14.029793895750936"><ele>146.6</ele><time>2026-03-29T07:35:24Z</time></trkpt><trkpt lat="42.42052101927686" lon="14.029720962799265"><ele>146.2</ele><time>2026-03-29T07:35:25Z</time></trkpt><trkpt lat="42.42063554859107" lon="14.029657493253481"><ele>145.8</ele><time>2026-03-29T07:35:26Z</time></trkpt><trkpt lat="42.42070707682637" lon="14.029590401923707"><ele>145.4</ele><time>2026-03-29T07:35:27Z</time></trkpt><trkpt lat="42.42076307330683" lon="14.029510587610487"><ele>145.0</ele><time>2026-03-29T07:35:28Z</time></trkpt><trkpt lat="42.42082526438139" lon="14.029416577157228"><ele>145.0</ele><time>2026-03-29T07:35:30Z</time></trkpt><trkpt lat="42.420876050751666" lon="14.029341015921647"><ele>145.0</ele><time>2026-03-29T07:35:33Z</time></trkpt><trkpt lat="42.42093822422201" lon="14.029260315968141"><ele>145.0</ele><time>2026-03-29T07:35:35Z</time></trkpt><trkpt lat="42.42098569848358" lon="14.029197027236961"><ele>145.0</ele><time>2026-03-29T07:35:36Z</time></trkpt><trkpt lat="42.42103820544287" lon="14.029121419655128"><ele>145.0</ele><time>2026-03-29T07:35:37Z</time></trkpt><trkpt lat="42.42108073908484" lon="14.02904988189123"><ele>145.0</ele><time>2026-03-29T07:35:38Z</time></trkpt><trkpt lat="42.4211234289027" lon="14.02897465441035"><ele>145.0</ele><time>2026-03-29T07:35:39Z</time></trkpt><trkpt lat="42.42116344749661" lon="14.028904267623153"><ele>144.0</ele><time>2026-03-29T07:35:40Z</time></trkpt><trkpt lat="42.42120502472084" lon="14.028836363338419"><ele>143.0</ele><time>2026-03-29T07:35:41Z</time></trkpt><trkpt lat="42.42124296627818" lon="14.02876300731716"><ele>142.0</ele><time>2026-03-29T07:35:42Z</time></trkpt><trkpt lat="42.42129225636902" lon="14.028683218392413"><ele>141.0</ele><time>2026-03-29T07:35:44Z</time></trkpt><trkpt lat="42.421360984708045" lon="14.028638305166387"><ele>140.0</ele><time>2026-03-29T07:35:46Z</time></trkpt><trkpt lat="42.42142631733113" lon="14.028579384777657"><ele>139.0</ele><time>2026-03-29T07:35:48Z</time></trkpt><trkpt lat="42.42150231342418" lon="14.02850935968634"><ele>137.33333333333334</ele><time>2026-03-29T07:35:50Z</time></trkpt><trkpt lat="42.42160627018606" lon="14.02847615341458"><ele>135.66666666666669</ele><time>2026-03-29T07:35:52Z</time></trkpt><trkpt lat="42.421720326106026" lon="14.02847008730228"><ele>134.0</ele><time>2026-03-29T07:35:54Z</time></trkpt><trkpt lat="42.42179177949755" lon="14.028469210622765"><ele>132.33333333333334</ele><time>2026-03-29T07:35:55Z</time></trkpt><trkpt lat="42.4218695038218" lon="14.028463685562686"><ele>130.66666666666666</ele><time>2026-03-29T07:35:56Z</time></trkpt><trkpt lat="42.421936619803844" lon="14.02847254231854"><ele>129.0</ele><time>2026-03-29T07:35:57Z</time></trkpt><trkpt lat="42.42204733844225" lon="14.028523593837962"><ele>129.0</ele><time>2026-03-29T07:35:59Z</time></trkpt><trkpt lat="42.42213898604131" lon="14.028520230980437"><ele>129.0</ele><time>2026-03-29T07:36:01Z</time></trkpt><trkpt lat="42.422171078069255" lon="14.028409572462886"><ele>129.0</ele><time>2026-03-29T07:36:03Z</time></trkpt><trkpt lat="42.4221600447688" lon="14.028243488263627"><ele>129.0</ele><time>2026-03-29T07:36:05Z</time></trkpt><trkpt lat="42.42213219200468" lon="14.028134944775502"><ele>129.0</ele><time>2026-03-29T07:36:06Z</time></trkpt><trkpt lat="42.422113681328135" lon="14.028017355668585"><ele>127.16666666666667</ele><time>2026-03-29T07:36:07Z</time></trkpt><trkpt lat="42.42209513431726" lon="14.027916754152171"><ele>125.33333333333334</ele><time>2026-03-29T07:36:08Z</time></trkpt><trkpt lat="42.42207340556776" lon="14.02781663357381"><ele>123.5</ele><time>2026-03-29T07:36:09Z</time></trkpt><trkpt lat="42.422019168154605" lon="14.027736005515447"><ele>121.66666666666667</ele><time>2026-03-29T07:36:10Z</time></trkpt><trkpt lat="42.42199917276308" lon="14.027633462865262"><ele>119.83333333333334</ele><time>2026-03-29T07:36:12Z</time></trkpt><trkpt lat="42.422002647245016" lon="14.027523849159396"><ele>118.0</ele><time>2026-03-29T07:36:14Z</time></trkpt><trkpt lat="42.42207536808097" lon="14.027502013962398"><ele>115.33333333333334</ele><time>2026-03-29T07:36:21Z</time></trkpt><trkpt lat="42.422154495657324" lon="14.027535854126242"><ele>112.66666666666667</ele><time>2026-03-29T07:36:24Z</time></trkpt><trkpt lat="42.4222268569742" lon="14.027581416094137"><ele>110.0</ele><time>2026-03-29T07:36:27Z</time></trkpt><trkpt lat="42.42229415317591" lon="14.027609397105712"><ele>107.33333333333334</ele><time>2026-03-29T07:36:30Z</time></trkpt><trkpt lat="42.42237168712773" lon="14.027657311236544"><ele>104.66666666666667</ele><time>2026-03-29T07:36:33Z</time></trkpt><trkpt lat="42.42243215328064" lon="14.027719671076882"><ele>102.0</ele><time>2026-03-29T07:36:37Z</time></trkpt><trkpt lat="42.42260331367798" lon="14.027676504220512"><ele>102.0</ele><time>2026-03-29T07:37:16Z</time></trkpt><trkpt lat="42.42269671153923" lon="14.027612082206591"><ele>102.0</ele><time>2026-03-29T07:37:18Z</time></trkpt><trkpt lat="42.422777089241265" lon="14.027526548222351"><ele>102.0</ele><time>2026-03-29T07:37:20Z</time></trkpt><trkpt lat="42.4228541710129" lon="14.027448135007441"><ele>102.0</ele><time>2026-03-29T07:37:22Z</time></trkpt><trkpt lat="42.422926987948514" lon="14.027387774605536"><ele>102.0</ele><time>2026-03-29T07:37:24Z</time></trkpt><trkpt lat="42.42300353892116" lon="14.027300378704378"><ele>101.0</ele><time>2026-03-29T07:37:26Z</time></trkpt><trkpt lat="42.423086251602754" lon="14.027217362793419"><ele>100.0</ele><time>2026-03-29T07:37:28Z</time></trkpt><trkpt lat="42.4231701729805" lon="14.02714061216465"><ele>99.0</ele><time>2026-03-29T07:37:30Z</time></trkpt><trkpt lat="42.42325772448186" lon="14.027062205200641"><ele>98.0</ele><time>2026-03-29T07:37:32Z</time></trkpt><trkpt lat="42.423339904011804" lon="14.026972018942208"><ele>97.0</ele><time>2026-03-29T07:37:34Z</time></trkpt><trkpt lat="42.42341105770768" lon="14.026876510332743"><ele>97.0</ele><time>2026-03-29T07:37:36Z</time></trkpt><trkpt lat="42.42349051898796" lon="14.026814470408643"><ele>97.0</ele><time>2026-03-29T07:37:38Z</time></trkpt><trkpt lat="42.423613404479426" lon="14.026724069086248"><ele>97.0</ele><time>2026-03-29T07:37:41Z</time></trkpt><trkpt lat="42.42369277122513" lon="14.026680187119677"><ele>97.0</ele><time>2026-03-29T07:37:43Z</time></trkpt><trkpt lat="42.423768689720866" lon="14.026678368591847"><ele>97.0</ele><time>2026-03-29T07:37:45Z</time></trkpt><trkpt lat="42.423819589847476" lon="14.026740684505763"><ele>97.50000000000001</ele><time>2026-03-29T07:37:47Z</time></trkpt><trkpt lat="42.42387432557043" lon="14.026817868076149"><ele>98.0</ele><time>2026-03-29T07:37:49Z</time></trkpt><trkpt lat="42.42394532602509" lon="14.026938684095068"><ele>98.5</ele><time>2026-03-29T07:37:51Z</time></trkpt><trkpt lat="42.42398864594895" lon="14.027001348871858"><ele>99.0</ele><time>2026-03-29T07:37:52Z</time></trkpt><trkpt lat="42.4240468296887" lon="14.027074205992447"><ele>99.50000000000001</ele><time>2026-03-29T07:37:53Z</time></trkpt><trkpt lat="42.42411295099819" lon="14.027141558378215"><ele>100.0</ele><time>2026-03-29T07:37:54Z</time></trkpt><trkpt lat="42.42417375784919" lon="14.027201985206359"><ele>100.0</ele><time>2026-03-29T07:37:55Z</time></trkpt><trkpt lat="42.424235980325754" lon="14.027264666927419"><ele>100.0</ele><time>2026-03-29T07:37:56Z</time></trkpt><trkpt lat="42.424317588947446" lon="14.02739999270836"><ele>100.0</ele><time>2026-03-29T07:37:57Z</time></trkpt><trkpt lat="42.42436292153655" lon="14.027515088313569"><ele>100.0</ele><time>2026-03-29T07:37:58Z</time></trkpt><trkpt lat="42.42440395572611" lon="14.027589210022215"><ele>100.0</ele><time>2026-03-29T07:37:59Z</time></trkpt><trkpt lat="42.424484739545605" lon="14.027668567699145"><ele>100.00000000000001</ele><time>2026-03-29T07:38:01Z</time></trkpt><trkpt lat="42.424540398097804" lon="14.027626543472827"><ele>100.0</ele><time>2026-03-29T07:39:14Z</time></trkpt><trkpt lat="42.42445232901944" lon="14.027630390313648"><ele>100.0</ele><time>2026-03-29T07:41:34Z</time></trkpt><trkpt lat="42.42438286517588" lon="14.027563075781801"><ele>100.0</ele><time>2026-03-29T07:41:36Z</time></trkpt><trkpt lat="42.4243391368802" lon="14.027473808940606"><ele>100.00000000000001</ele><time>2026-03-29T07:41:38Z</time></trkpt><trkpt lat="42.42429156768186" lon="14.027361897593346"><ele>100.0</ele><time>2026-03-29T07:41:40Z</time></trkpt><trkpt lat="42.42423358596941" lon="14.027260312124898"><ele>100.0</ele><time>2026-03-29T07:41:42Z</time></trkpt><trkpt lat="42.424142869587264" lon="14.027154218988695"><ele>100.0</ele><time>2026-03-29T07:41:44Z</time></trkpt><trkpt lat="42.42403967755184" lon="14.027054178021228"><ele>100.0</ele><time>2026-03-29T07:41:46Z</time></trkpt><trkpt lat="42.4239847301906" lon="14.027000734023327"><ele>100.0</ele><time>2026-03-29T07:41:47Z</time></trkpt><trkpt lat="42.423931091356714" lon="14.026943477528901"><ele>100.0</ele><time>2026-03-29T07:41:48Z</time></trkpt><trkpt lat="42.42385704542389" lon="14.026838190749762"><ele>100.00000000000001</ele><time>2026-03-29T07:41:50Z</time></trkpt><trkpt lat="42.423801459865814" lon="14.026761683844294"><ele>100.0</ele><time>2026-03-29T07:41:52Z</time></trkpt><trkpt lat="42.42373794212382" lon="14.026712841462862"><ele>100.0</ele><time>2026-03-29T07:42:23Z</time></trkpt><trkpt lat="42.42368841506269" lon="14.026622794329818"><ele>100.0</ele><time>2026-03-29T07:42:26Z</time></trkpt><trkpt lat="42.423636509436164" lon="14.026538653800133"><ele>100.00000000000001</ele><time>2026-03-29T07:42:29Z</time></trkpt><trkpt lat="42.42359836291797" lon="14.026469534765758"><ele>100.0</ele><time>2026-03-29T07:42:31Z</time></trkpt><trkpt lat="42.423545848063775" lon="14.0263914386997"><ele>100.00000000000001</ele><time>2026-03-29T07:42:34Z</time></trkpt><trkpt lat="42.423505031989464" lon="14.026310507993028"><ele>100.0</ele><time>2026-03-29T07:42:37Z</time></trkpt><trkpt lat="42.42343667401392" lon="14.026240719520873"><ele>100.0</ele><time>2026-03-29T07:42:40Z</time></trkpt><trkpt lat="42.42336098193753" lon="14.026222190005454"><ele>100.0</ele><time>2026-03-29T07:42:42Z</time></trkpt><trkpt lat="42.42328870330528" lon="14.026173826471526"><ele>100.00000000000001</ele><time>2026-03-29T07:42:45Z</time></trkpt><trkpt lat="42.42320136490436" lon="14.026108244665037"><ele>100.0</ele><time>2026-03-29T07:42:49Z</time></trkpt><trkpt lat="42.423104333436605" lon="14.026075390443738"><ele>100.00000000000001</ele><time>2026-03-29T07:42:52Z</time></trkpt><trkpt lat="42.42304187256499" lon="14.02604298510074"><ele>100.0</ele><time>2026-03-29T07:42:55Z</time></trkpt><trkpt lat="42.42297775962149" lon="14.026001028447455"><ele>100.0</ele><time>2026-03-29T07:42:58Z</time></trkpt><trkpt lat="42.42290090095056" lon="14.025927698900526"><ele>100.0</ele><time>2026-03-29T07:43:01Z</time></trkpt><trkpt lat="42.4228593818727" lon="14.025860344050923"><ele>100.00000000000001</ele><time>2026-03-29T07:43:05Z</time></trkpt><trkpt lat="42.42281112193852" lon="14.02576442736019"><ele>100.0</ele><time>2026-03-29T07:43:29Z</time></trkpt><trkpt lat="42.422766963193126" lon="14.025691828769768"><ele>100.00000000000001</ele><time>2026-03-29T07:43:32Z</time></trkpt><trkpt lat="42.42273953789293" lon="14.025593948062774"><ele>100.0</ele><time>2026-03-29T07:43:35Z</time></trkpt><trkpt lat="42.422737647844905" lon="14.025688034470024"><ele>100.0</ele><time>2026-03-29T07:45:35Z</time></trkpt><trkpt lat="42.42269247443235" lon="14.025779167111065"><ele>100.0</ele><time>2026-03-29T07:45:38Z</time></trkpt><trkpt lat="42.42266074524093" lon="14.025872141832169"><ele>100.00000000000001</ele><time>2026-03-29T07:45:40Z</time></trkpt><trkpt lat="42.42263028744018" lon="14.025964214931808"><ele>100.0</ele><time>2026-03-29T07:45:42Z</time></trkpt><trkpt lat="42.422582330897335" lon="14.02605242207603"><ele>99.83333333333334</ele><time>2026-03-29T07:45:45Z</time></trkpt><trkpt lat="42.422556158715935" lon="14.026148520035447"><ele>99.66666666666667</ele><time>2026-03-29T07:45:48Z</time></trkpt><trkpt lat="42.4225236629803" lon="14.026252160728301"><ele>99.5</ele><time>2026-03-29T07:45:51Z</time></trkpt><trkpt lat="42.422506213370106" lon="14.026341361977806"><ele>99.33333333333334</ele><time>2026-03-29T07:45:53Z</time></trkpt><trkpt lat="42.42248709013207" lon="14.026453687626788"><ele>99.16666666666667</ele><time>2026-03-29T07:45:55Z</time></trkpt><trkpt lat="42.422430620487845" lon="14.02657062201681"><ele>99.0</ele><time>2026-03-29T07:45:57Z</time></trkpt><trkpt lat="42.422388444325605" lon="14.026666912255445"><ele>99.0</ele><time>2026-03-29T07:45:59Z</time></trkpt><trkpt lat="42.42233217395687" lon="14.026753019268495"><ele>99.0</ele><time>2026-03-29T07:46:02Z</time></trkpt><trkpt lat="42.42229162180545" lon="14.02681922000206"><ele>99.0</ele><time>2026-03-29T07:46:04Z</time></trkpt><trkpt lat="42.42222553734604" lon="14.026897866897004"><ele>99.0</ele><time>2026-03-29T07:46:07Z</time></trkpt><trkpt lat="42.42216755407858" lon="14.02697811895099"><ele>99.0</ele><time>2026-03-29T07:46:10Z</time></trkpt><trkpt lat="42.422117470856215" lon="14.027034746790788"><ele>99.0</ele><time>2026-03-29T07:46:12Z</time></trkpt><trkpt lat="42.422103091043475" lon="14.027126199012795"><ele>99.0</ele><time>2026-03-29T07:46:15Z</time></trkpt><trkpt lat="42.42217151048501" lon="14.027102247122617"><ele>99.0</ele><time>2026-03-29T07:46:20Z</time></trkpt><trkpt lat="42.42222915934076" lon="14.027158178556144"><ele>99.0</ele><time>2026-03-29T07:46:23Z</time></trkpt><trkpt lat="42.42225579137094" lon="14.027240628214091"><ele>99.0</ele><time>2026-03-29T07:46:25Z</time></trkpt><trkpt lat="42.422298711326654" lon="14.027326018834794"><ele>99.0</ele><time>2026-03-29T07:46:28Z</time></trkpt><trkpt lat="42.42234364210646" lon="14.027402952722031"><ele>99.0</ele><time>2026-03-29T07:46:42Z</time></trkpt><trkpt lat="42.42236033265334" lon="14.027519935183301"><ele>99.0</ele><time>2026-03-29T07:46:59Z</time></trkpt><trkpt lat="42.422401386311044" lon="14.027607194041002"><ele>99.6</ele><time>2026-03-29T07:47:01Z</time></trkpt><trkpt lat="42.42245454529959" lon="14.027656226391056"><ele>100.2</ele><time>2026-03-29T07:47:03Z</time></trkpt><trkpt lat="42.42237696619818" lon="14.027620102317925"><ele>100.8</ele><time>2026-03-29T07:47:31Z</time></trkpt><trkpt lat="42.42226912515479" lon="14.027568317271017"><ele>101.39999999999999</ele><time>2026-03-29T07:47:33Z</time></trkpt><trkpt lat="42.42214685957165" lon="14.027507835445952"><ele>102.0</ele><time>2026-03-29T07:47:35Z</time></trkpt><trkpt lat="42.422080711135266" lon="14.027471336115656"><ele>105.19999999999999</ele><time>2026-03-29T07:47:36Z</time></trkpt><trkpt lat="42.42200906553135" lon="14.027512254185968"><ele>108.4</ele><time>2026-03-29T07:47:38Z</time></trkpt><trkpt lat="42.422026441773276" lon="14.027672786543"><ele>111.60000000000001</ele><time>2026-03-29T07:47:40Z</time></trkpt><trkpt lat="42.4220620311857" lon="14.027756853188773"><ele>114.80000000000001</ele><time>2026-03-29T07:47:41Z</time></trkpt><trkpt lat="42.4220991488027" lon="14.02785948904698"><ele>118.0</ele><time>2026-03-29T07:47:42Z</time></trkpt><trkpt lat="42.422141839301645" lon="14.02799413612175"><ele>116.2</ele><time>2026-03-29T07:47:43Z</time></trkpt><trkpt lat="42.42216162207991" lon="14.028113080466532"><ele>114.4</ele><time>2026-03-29T07:47:44Z</time></trkpt><trkpt lat="42.42217910679996" lon="14.028231580913324"><ele>112.60000000000001</ele><time>2026-03-29T07:47:45Z</time></trkpt><trkpt lat="42.42220094602025" lon="14.028330285640793"><ele>110.80000000000001</ele><time>2026-03-29T07:47:46Z</time></trkpt><trkpt lat="42.422195146629505" lon="14.02845429624279"><ele>109.0</ele><time>2026-03-29T07:47:48Z</time></trkpt><trkpt lat="42.42210538243804" lon="14.028545312407495"><ele>113.0</ele><time>2026-03-29T07:47:50Z</time></trkpt><trkpt lat="42.42198837913556" lon="14.02850260526345"><ele>117.0</ele><time>2026-03-29T07:47:52Z</time></trkpt><trkpt lat="42.42190803755687" lon="14.028450298078425"><ele>121.0</ele><time>2026-03-29T07:47:53Z</time></trkpt><trkpt lat="42.42180610105596" lon="14.028441865054688"><ele>125.0</ele><time>2026-03-29T07:47:54Z</time></trkpt><trkpt lat="42.42170349316703" lon="14.028460093145352"><ele>129.0</ele><time>2026-03-29T07:47:55Z</time></trkpt><trkpt lat="42.421603160238654" lon="14.028475994217379"><ele>129.0</ele><time>2026-03-29T07:47:56Z</time></trkpt><trkpt lat="42.42151182345624" lon="14.028495298523705"><ele>129.0</ele><time>2026-03-29T07:47:57Z</time></trkpt><trkpt lat="42.42143409873035" lon="14.028545723321322"><ele>129.0</ele><time>2026-03-29T07:47:58Z</time></trkpt><trkpt lat="42.42137329093132" lon="14.02861067946512"><ele>129.0</ele><time>2026-03-29T07:47:59Z</time></trkpt><trkpt lat="42.42131143068516" lon="14.0286819102703"><ele>129.0</ele><time>2026-03-29T07:48:00Z</time></trkpt><trkpt lat="42.4212578739095" lon="14.02873173970837"><ele>129.0</ele><time>2026-03-29T07:48:01Z</time></trkpt><trkpt lat="42.42119930571817" lon="14.028865298426966"><ele>131.0</ele><time>2026-03-29T07:48:03Z</time></trkpt><trkpt lat="42.421162122363256" lon="14.02894947389614"><ele>133.0</ele><time>2026-03-29T07:48:04Z</time></trkpt><trkpt lat="42.42111145019253" lon="14.029007820208772"><ele>135.0</ele><time>2026-03-29T07:48:05Z</time></trkpt><trkpt lat="42.4210177738582" lon="14.029125248903783"><ele>137.0</ele><time>2026-03-29T07:48:07Z</time></trkpt><trkpt lat="42.42093961639393" lon="14.029242139511027"><ele>139.0</ele><time>2026-03-29T07:48:09Z</time></trkpt><trkpt lat="42.420854385843384" lon="14.029381197592597"><ele>140.0</ele><time>2026-03-29T07:48:11Z</time></trkpt><trkpt lat="42.42079156448347" lon="14.029465704123558"><ele>141.0</ele><time>2026-03-29T07:48:12Z</time></trkpt><trkpt lat="42.42072067553507" lon="14.029543382077994"><ele>142.0</ele><time>2026-03-29T07:48:13Z</time></trkpt><trkpt lat="42.420658336342754" lon="14.029605275290773"><ele>143.0</ele><time>2026-03-29T07:48:14Z</time></trkpt><trkpt lat="42.42060128037792" lon="14.0296575285007"><ele>144.0</ele><time>2026-03-29T07:48:15Z</time></trkpt><trkpt lat="42.42054502829969" lon="14.029704517021191"><ele>145.0</ele><time>2026-03-29T07:48:16Z</time></trkpt><trkpt lat="42.420436713306856" lon="14.029786241762869"><ele>145.4</ele><time>2026-03-29T07:48:18Z</time></trkpt><trkpt lat="42.42034142307746" lon="14.029868735225724"><ele>145.8</ele><time>2026-03-29T07:48:20Z</time></trkpt><trkpt lat="42.4202608943102" lon="14.029921214632934"><ele>146.2</ele><time>2026-03-29T07:48:22Z</time></trkpt><trkpt lat="42.420201226210864" lon="14.029962728579752"><ele>146.6</ele><time>2026-03-29T07:48:25Z</time></trkpt><trkpt lat="42.4201284117714" lon="14.030002988058811"><ele>147.0</ele><time>2026-03-29T07:48:28Z</time></trkpt><trkpt lat="42.42004846159223" lon="14.030116476115134"><ele>147.0</ele><time>2026-03-29T07:49:36.001Z</time></trkpt><trkpt lat="42.41999841608668" lon="14.030194863668244"><ele>147.0</ele><time>2026-03-29T07:49:37.001Z</time></trkpt><trkpt lat="42.41994839553489" lon="14.030263692712348"><ele>147.0</ele><time>2026-03-29T07:49:38.001Z</time></trkpt><trkpt lat="42.41987563129499" lon="14.03031247942308"><ele>147.0</ele><time>2026-03-29T07:49:39.001Z</time></trkpt><trkpt lat="42.41980589081526" lon="14.030408355503448"><ele>147.0</ele><time>2026-03-29T07:49:40.001Z</time></trkpt><trkpt lat="42.41973436018137" lon="14.030543982190224"><ele>151.25</ele><time>2026-03-29T07:49:41.001Z</time></trkpt><trkpt lat="42.419648642063194" lon="14.030656037953126"><ele>155.5</ele><time>2026-03-29T07:49:42.001Z</time></trkpt><trkpt lat="42.41956222629869" lon="14.030767460802146"><ele>159.75</ele><time>2026-03-29T07:49:43.001Z</time></trkpt><trkpt lat="42.41946777433528" lon="14.03087571042317"><ele>164.0</ele><time>2026-03-29T07:49:44.001Z</time></trkpt><trkpt lat="42.41938164286092" lon="14.030988854884423"><ele>164.5</ele><time>2026-03-29T07:49:45.001Z</time></trkpt><trkpt lat="42.41929779084524" lon="14.031101589812451"><ele>165.0</ele><time>2026-03-29T07:49:46.001Z</time></trkpt><trkpt lat="42.419202223671874" lon="14.031224106366292"><ele>165.5</ele><time>2026-03-29T07:49:47.001Z</time></trkpt><trkpt lat="42.41910127639439" lon="14.03134676579834"><ele>166.0</ele><time>2026-03-29T07:49:48.001Z</time></trkpt><trkpt lat="42.41899949096995" lon="14.031482840956082"><ele>166.0</ele><time>2026-03-29T07:49:49.001Z</time></trkpt><trkpt lat="42.41890881061837" lon="14.031617405154217"><ele>166.0</ele><time>2026-03-29T07:49:50.001Z</time></trkpt><trkpt lat="42.41882419484877" lon="14.031751273878045"><ele>166.0</ele><time>2026-03-29T07:49:51.001Z</time></trkpt><trkpt lat="42.41874742310866" lon="14.031877002599783"><ele>166.0</ele><time>2026-03-29T07:49:52.001Z</time></trkpt><trkpt lat="42.41867841635646" lon="14.031994607780085"><ele>170.8</ele><time>2026-03-29T07:49:53.001Z</time></trkpt><trkpt lat="42.4186120344793" lon="14.032117629730067"><ele>175.60000000000002</ele><time>2026-03-29T07:49:54.001Z</time></trkpt><trkpt lat="42.41854741661048" lon="14.032237935571128"><ele>180.4</ele><time>2026-03-29T07:49:55.001Z</time></trkpt><trkpt lat="42.41849178844535" lon="14.03234446940624"><ele>185.2</ele><time>2026-03-29T07:49:56.001Z</time></trkpt><trkpt lat="42.41845241117009" lon="14.03242643252507"><ele>190.0</ele><time>2026-03-29T07:49:57.001Z</time></trkpt><trkpt lat="42.41840015101713" lon="14.03251126859615"><ele>190.0</ele><time>2026-03-29T07:49:59.001Z</time></trkpt><trkpt lat="42.41829454177647" lon="14.03252940619763"><ele>190.0</ele><time>2026-03-29T07:50:21.001Z</time></trkpt><trkpt lat="42.41822229151988" lon="14.032467525500882"><ele>190.0</ele><time>2026-03-29T07:50:22.001Z</time></trkpt><trkpt lat="42.41815031165165" lon="14.032382415954158"><ele>190.0</ele><time>2026-03-29T07:50:23.001Z</time></trkpt><trkpt lat="42.418064869819496" lon="14.032315267223876"><ele>190.0</ele><time>2026-03-29T07:50:24.001Z</time></trkpt><trkpt lat="42.4179380204493" lon="14.032280085110775"><ele>191.5</ele><time>2026-03-29T07:50:25.001Z</time></trkpt><trkpt lat="42.41779509475595" lon="14.032285596303984"><ele>193.0</ele><time>2026-03-29T07:50:26.001Z</time></trkpt><trkpt lat="42.41766092290586" lon="14.032332013031617"><ele>194.5</ele><time>2026-03-29T07:50:27.001Z</time></trkpt><trkpt lat="42.41754577097688" lon="14.032372353794454"><ele>196.0</ele><time>2026-03-29T07:50:28.001Z</time></trkpt><trkpt lat="42.417454474908304" lon="14.032387721062667"><ele>196.0</ele><time>2026-03-29T07:50:29.001Z</time></trkpt><trkpt lat="42.417358124457" lon="14.032396368211767"><ele>196.0</ele><time>2026-03-29T07:50:30.001Z</time></trkpt><trkpt lat="42.41725329382088" lon="14.032405774193377"><ele>196.0</ele><time>2026-03-29T07:50:31.001Z</time></trkpt><trkpt lat="42.41714475369776" lon="14.03240686702733"><ele>196.0</ele><time>2026-03-29T07:50:32.001Z</time></trkpt><trkpt lat="42.4170377332631" lon="14.032379641584246"><ele>196.0</ele><time>2026-03-29T07:50:33.001Z</time></trkpt><trkpt lat="42.416934492468855" lon="14.032316434724777"><ele>193.0</ele><time>2026-03-29T07:50:34.001Z</time></trkpt><trkpt lat="42.41682785150235" lon="14.03223000739961"><ele>190.0</ele><time>2026-03-29T07:50:35.001Z</time></trkpt><trkpt lat="42.416728184869626" lon="14.03214771127859"><ele>187.0</ele><time>2026-03-29T07:50:36.001Z</time></trkpt><trkpt lat="42.41662835323762" lon="14.032060913872172"><ele>184.0</ele><time>2026-03-29T07:50:37.001Z</time></trkpt><trkpt lat="42.41653027466737" lon="14.031970902120452"><ele>184.0</ele><time>2026-03-29T07:50:38.001Z</time></trkpt><trkpt lat="42.41644084912984" lon="14.031861883373486"><ele>184.0</ele><time>2026-03-29T07:50:39.001Z</time></trkpt><trkpt lat="42.41636450613263" lon="14.03172829642503"><ele>184.0</ele><time>2026-03-29T07:50:40.001Z</time></trkpt><trkpt lat="42.41630664749958" lon="14.031569310056923"><ele>184.0</ele><time>2026-03-29T07:50:41.001Z</time></trkpt><trkpt lat="42.416268212578956" lon="14.031392959547238"><ele>183.5</ele><time>2026-03-29T07:50:42.001Z</time></trkpt><trkpt lat="42.41624126036454" lon="14.031208421628117"><ele>183.0</ele><time>2026-03-29T07:50:43.001Z</time></trkpt><trkpt lat="42.41621238689338" lon="14.031020412960732"><ele>182.5</ele><time>2026-03-29T07:50:44.001Z</time></trkpt><trkpt lat="42.41617557727324" lon="14.030829365524747"><ele>182.0</ele><time>2026-03-29T07:50:45.001Z</time></trkpt><trkpt lat="42.41613675328411" lon="14.030626907336382"><ele>182.0</ele><time>2026-03-29T07:50:46.001Z</time></trkpt><trkpt lat="42.416100398094436" lon="14.03041824843061"><ele>182.0</ele><time>2026-03-29T07:50:47.001Z</time></trkpt><trkpt lat="42.416063042710284" lon="14.03020893918532"><ele>182.0</ele><time>2026-03-29T07:50:48.001Z</time></trkpt><trkpt lat="42.41602097943363" lon="14.030015442623418"><ele>178.25</ele><time>2026-03-29T07:50:49.001Z</time></trkpt><trkpt lat="42.415984756470884" lon="14.029832688977661"><ele>174.5</ele><time>2026-03-29T07:50:50.001Z</time></trkpt><trkpt lat="42.415948032361406" lon="14.029651684314576"><ele>170.75</ele><time>2026-03-29T07:50:51.001Z</time></trkpt><trkpt lat="42.41591580591475" lon="14.029469846302078"><ele>167.0</ele><time>2026-03-29T07:50:52.001Z</time></trkpt><trkpt lat="42.41587804661917" lon="14.029292307653046"><ele>166.0</ele><time>2026-03-29T07:50:53.001Z</time></trkpt><trkpt lat="42.4158293149989" lon="14.02911965454739"><ele>165.0</ele><time>2026-03-29T07:50:54.001Z</time></trkpt><trkpt lat="42.41577300314541" lon="14.028950093128694"><ele>164.0</ele><time>2026-03-29T07:50:55.001Z</time></trkpt><trkpt lat="42.41571623170201" lon="14.028776718482352"><ele>163.0</ele><time>2026-03-29T07:50:56.001Z</time></trkpt><trkpt lat="42.41566120358553" lon="14.028586809642386"><ele>163.0</ele><time>2026-03-29T07:50:57.001Z</time></trkpt><trkpt lat="42.41559488924803" lon="14.028383960463234"><ele>163.0</ele><time>2026-03-29T07:50:58.001Z</time></trkpt><trkpt lat="42.415523739927465" lon="14.028175527591603"><ele>163.0</ele><time>2026-03-29T07:50:59.001Z</time></trkpt><trkpt lat="42.41546061367436" lon="14.027977965383645"><ele>162.33333333333334</ele><time>2026-03-29T07:51:00.001Z</time></trkpt><trkpt lat="42.41539566403" lon="14.027778416935293"><ele>161.66666666666666</ele><time>2026-03-29T07:51:01.001Z</time></trkpt><trkpt lat="42.41532991635573" lon="14.027570098628502"><ele>161.0</ele><time>2026-03-29T07:51:02.001Z</time></trkpt><trkpt lat="42.41526042474492" lon="14.027360568761553"><ele>159.66666666666666</ele><time>2026-03-29T07:51:03.001Z</time></trkpt><trkpt lat="42.41519123354847" lon="14.027151705318074"><ele>158.33333333333334</ele><time>2026-03-29T07:51:04.001Z</time></trkpt><trkpt lat="42.41512679150039" lon="14.026941162098744"><ele>157.0</ele><time>2026-03-29T07:51:05.001Z</time></trkpt><trkpt lat="42.4150651300228" lon="14.02672882785624"><ele>156.0</ele><time>2026-03-29T07:51:06.001Z</time></trkpt><trkpt lat="42.415008877939826" lon="14.026516281416233"><ele>155.0</ele><time>2026-03-29T07:51:07.001Z</time></trkpt><trkpt lat="42.41495466767122" lon="14.026305149502718"><ele>154.0</ele><time>2026-03-29T07:51:08.001Z</time></trkpt><trkpt lat="42.414906633769306" lon="14.02609315319398"><ele>154.0</ele><time>2026-03-29T07:51:09.001Z</time></trkpt><trkpt lat="42.41486282811648" lon="14.025883080958128"><ele>154.0</ele><time>2026-03-29T07:51:10.001Z</time></trkpt><trkpt lat="42.41482288750317" lon="14.025674036895218"><ele>154.0</ele><time>2026-03-29T07:51:11.001Z</time></trkpt><trkpt lat="42.414779464484084" lon="14.025467567239666"><ele>154.0</ele><time>2026-03-29T07:51:12.001Z</time></trkpt><trkpt lat="42.4147382001399" lon="14.02526367493642"><ele>154.0</ele><time>2026-03-29T07:51:13.001Z</time></trkpt><trkpt lat="42.41469617419332" lon="14.025062824635784"><ele>154.0</ele><time>2026-03-29T07:51:14.001Z</time></trkpt><trkpt lat="42.41465413443124" lon="14.024868512859777"><ele>154.0</ele><time>2026-03-29T07:51:15.001Z</time></trkpt><trkpt lat="42.414614253950795" lon="14.024673953219281"><ele>154.0</ele><time>2026-03-29T07:51:16.001Z</time></trkpt><trkpt lat="42.41457604578165" lon="14.024478859939991"><ele>154.0</ele><time>2026-03-29T07:51:17.001Z</time></trkpt><trkpt lat="42.41453959077717" lon="14.024283311259667"><ele>154.0</ele><time>2026-03-29T07:51:18.001Z</time></trkpt><trkpt lat="42.41450099014868" lon="14.024086551748036"><ele>153.25</ele><time>2026-03-29T07:51:19.001Z</time></trkpt><trkpt lat="42.41446127107455" lon="14.023902644257596"><ele>152.5</ele><time>2026-03-29T07:51:20.001Z</time></trkpt><trkpt lat="42.41441854154107" lon="14.023733716975633"><ele>151.75</ele><time>2026-03-29T07:51:21.001Z</time></trkpt><trkpt lat="42.414353992829945" lon="14.023583286036617"><ele>151.0</ele><time>2026-03-29T07:51:22.001Z</time></trkpt><trkpt lat="42.414271843055715" lon="14.023454335853017"><ele>151.0</ele><time>2026-03-29T07:51:23.001Z</time></trkpt><trkpt lat="42.41418056537864" lon="14.023337285956185"><ele>151.0</ele><time>2026-03-29T07:51:24.001Z</time></trkpt><trkpt lat="42.414084461152534" lon="14.0232320150554"><ele>151.0</ele><time>2026-03-29T07:51:25.001Z</time></trkpt><trkpt lat="42.41398282254874" lon="14.02313659721645"><ele>151.0</ele><time>2026-03-29T07:51:26.001Z</time></trkpt><trkpt lat="42.41388336190551" lon="14.023042055043344"><ele>149.75</ele><time>2026-03-29T07:51:27.001Z</time></trkpt><trkpt lat="42.41378887526966" lon="14.022941875777677"><ele>148.5</ele><time>2026-03-29T07:51:28.001Z</time></trkpt><trkpt lat="42.41369754622413" lon="14.022835078334523"><ele>147.25</ele><time>2026-03-29T07:51:29.001Z</time></trkpt><trkpt lat="42.41360434851217" lon="14.02273041222113"><ele>146.0</ele><time>2026-03-29T07:51:30.001Z</time></trkpt><trkpt lat="42.41351583043051" lon="14.022636042166715"><ele>146.0</ele><time>2026-03-29T07:51:31.001Z</time></trkpt><trkpt lat="42.41343549683804" lon="14.022543537660546"><ele>146.0</ele><time>2026-03-29T07:51:32.001Z</time></trkpt><trkpt lat="42.41337186839342" lon="14.02243966551868"><ele>146.0</ele><time>2026-03-29T07:51:33.001Z</time></trkpt><trkpt lat="42.413336987111784" lon="14.022319315260086"><ele>146.0</ele><time>2026-03-29T07:51:34.001Z</time></trkpt><trkpt lat="42.41332859573284" lon="14.022173629514937"><ele>146.0</ele><time>2026-03-29T07:51:35.001Z</time></trkpt><trkpt lat="42.413352968653534" lon="14.022030739340451"><ele>147.25</ele><time>2026-03-29T07:51:36.001Z</time></trkpt><trkpt lat="42.41340858659747" lon="14.021888124985313"><ele>148.5</ele><time>2026-03-29T07:51:37.001Z</time></trkpt><trkpt lat="42.413482665821554" lon="14.021745340824149"><ele>149.75</ele><time>2026-03-29T07:51:38.001Z</time></trkpt><trkpt lat="42.41356059041265" lon="14.021603055590486"><ele>151.0</ele><time>2026-03-29T07:51:39.001Z</time></trkpt><trkpt lat="42.413637500440146" lon="14.02145474729129"><ele>152.25</ele><time>2026-03-29T07:51:40.001Z</time></trkpt><trkpt lat="42.4137117515273" lon="14.021302481509556"><ele>153.5</ele><time>2026-03-29T07:51:41.001Z</time></trkpt><trkpt lat="42.41378434550682" lon="14.021149655654218"><ele>154.75</ele><time>2026-03-29T07:51:42.001Z</time></trkpt><trkpt lat="42.41385798283156" lon="14.02099159610789"><ele>156.0</ele><time>2026-03-29T07:51:43.001Z</time></trkpt><trkpt lat="42.41393277785589" lon="14.020832453627706"><ele>152.75</ele><time>2026-03-29T07:51:44.001Z</time></trkpt><trkpt lat="42.41399727047699" lon="14.020677157285622"><ele>149.5</ele><time>2026-03-29T07:51:45.001Z</time></trkpt><trkpt lat="42.4140368602885" lon="14.020517873392771"><ele>146.25</ele><time>2026-03-29T07:51:46.001Z</time></trkpt><trkpt lat="42.41404703528761" lon="14.020358475789541"><ele>143.0</ele><time>2026-03-29T07:51:47.001Z</time></trkpt><trkpt lat="42.41403415109503" lon="14.020199863414046"><ele>143.0</ele><time>2026-03-29T07:51:48.001Z</time></trkpt><trkpt lat="42.413995608105175" lon="14.020028319985823"><ele>143.0</ele><time>2026-03-29T07:51:49.001Z</time></trkpt><trkpt lat="42.41394000139278" lon="14.019822377327547"><ele>143.0</ele><time>2026-03-29T07:51:50.001Z</time></trkpt><trkpt lat="42.413873720904576" lon="14.01959128039648"><ele>143.0</ele><time>2026-03-29T07:51:51.001Z</time></trkpt><trkpt lat="42.413808823023494" lon="14.019365946330344"><ele>143.0</ele><time>2026-03-29T07:51:52.001Z</time></trkpt><trkpt lat="42.41373750079601" lon="14.01912039077709"><ele>143.0</ele><time>2026-03-29T07:51:53.001Z</time></trkpt><trkpt lat="42.413665622534175" lon="14.01886098506953"><ele>141.5</ele><time>2026-03-29T07:51:54.001Z</time></trkpt><trkpt lat="42.41358816568493" lon="14.018583025261913"><ele>140.0</ele><time>2026-03-29T07:51:55.001Z</time></trkpt><trkpt lat="42.41350733067782" lon="14.018289137851188"><ele>137.33333333333331</ele><time>2026-03-29T07:51:56.001Z</time></trkpt><trkpt lat="42.4134278432342" lon="14.01800606581247"><ele>134.66666666666666</ele><time>2026-03-29T07:51:57.001Z</time></trkpt><trkpt lat="42.413347268356866" lon="14.01772600748062"><ele>132.0</ele><time>2026-03-29T07:51:58.001Z</time></trkpt><trkpt lat="42.413259674511835" lon="14.017450641629727"><ele>129.5</ele><time>2026-03-29T07:51:59.001Z</time></trkpt><trkpt lat="42.413190224038004" lon="14.017154542592136"><ele>127.0</ele><time>2026-03-29T07:52:00.001Z</time></trkpt><trkpt lat="42.4131036693195" lon="14.016849377349496"><ele>124.5</ele><time>2026-03-29T07:52:01.001Z</time></trkpt><trkpt lat="42.41301676778346" lon="14.016546437582798"><ele>122.0</ele><time>2026-03-29T07:52:02.001Z</time></trkpt><trkpt lat="42.41293481470774" lon="14.016254861984896"><ele>125.33333333333333</ele><time>2026-03-29T07:52:03.001Z</time></trkpt><trkpt lat="42.41285839681048" lon="14.015976882753952"><ele>128.66666666666666</ele><time>2026-03-29T07:52:04.001Z</time></trkpt><trkpt lat="42.4127737406343" lon="14.015732380363291"><ele>132.0</ele><time>2026-03-29T07:52:05.001Z</time></trkpt><trkpt lat="42.412706941569105" lon="14.01548803629955"><ele>132.0</ele><time>2026-03-29T07:52:06.001Z</time></trkpt><trkpt lat="42.41263867605537" lon="14.015253127625177"><ele>132.0</ele><time>2026-03-29T07:52:07.001Z</time></trkpt><trkpt lat="42.41259153423063" lon="14.015020805764902"><ele>132.0</ele><time>2026-03-29T07:52:08.001Z</time></trkpt><trkpt lat="42.41252143801673" lon="14.014801907175217"><ele>131.0</ele><time>2026-03-29T07:52:09.001Z</time></trkpt><trkpt lat="42.41246746475758" lon="14.014585785290887"><ele>130.0</ele><time>2026-03-29T07:52:10.001Z</time></trkpt><trkpt lat="42.41241753436532" lon="14.014391028642587"><ele>129.0</ele><time>2026-03-29T07:52:11.001Z</time></trkpt><trkpt lat="42.412363427088124" lon="14.014206394804853"><ele>128.0</ele><time>2026-03-29T07:52:12.001Z</time></trkpt><trkpt lat="42.41230659194984" lon="14.014033053157094"><ele>127.0</ele><time>2026-03-29T07:52:13.001Z</time></trkpt><trkpt lat="42.412261130609444" lon="14.013880493736277"><ele>126.0</ele><time>2026-03-29T07:52:14.001Z</time></trkpt><trkpt lat="42.412242366634146" lon="14.013770303428148"><ele>125.0</ele><time>2026-03-29T07:52:15.001Z</time></trkpt><trkpt lat="42.412241574822936" lon="14.013683406058263"><ele>124.0</ele><time>2026-03-29T07:52:16.001Z</time></trkpt><trkpt lat="42.41227621696983" lon="14.013589511152983"><ele>124.0</ele><time>2026-03-29T07:52:18.001Z</time></trkpt><trkpt lat="42.412320042965476" lon="14.013512147284615"><ele>124.0</ele><time>2026-03-29T07:52:24.001Z</time></trkpt><trkpt lat="42.41237802238854" lon="14.013443602253703"><ele>124.0</ele><time>2026-03-29T07:52:26.001Z</time></trkpt><trkpt lat="42.41240025351803" lon="14.013575388131631"><ele>124.0</ele><time>2026-03-29T07:52:29.001Z</time></trkpt><trkpt lat="42.41260948454204" lon="14.013422010573436"><ele>124.0</ele><time>2026-03-29T07:52:32.001Z</time></trkpt><trkpt lat="42.41269678745307" lon="14.013404375281032"><ele>124.0</ele><time>2026-03-29T07:52:34.001Z</time></trkpt><trkpt lat="42.412795261049375" lon="14.013409927786473"><ele>124.0</ele><time>2026-03-29T07:52:36.001Z</time></trkpt><trkpt lat="42.412895065700944" lon="14.01345690329134"><ele>124.0</ele><time>2026-03-29T07:52:38.001Z</time></trkpt><trkpt lat="42.41298964982105" lon="14.013477761262756"><ele>124.0</ele><time>2026-03-29T07:52:40.001Z</time></trkpt><trkpt lat="42.4130567826306" lon="14.01352849479178"><ele>121.50000000000001</ele><time>2026-03-29T07:52:42.001Z</time></trkpt><trkpt lat="42.41312351672592" lon="14.013537901521575"><ele>119.0</ele><time>2026-03-29T07:52:44.001Z</time></trkpt><trkpt lat="42.41317663139143" lon="14.013481031246444"><ele>116.5</ele><time>2026-03-29T07:52:46.001Z</time></trkpt><trkpt lat="42.41325041344745" lon="14.013401359014367"><ele>114.0</ele><time>2026-03-29T07:52:49.001Z</time></trkpt><trkpt lat="42.41333118740131" lon="14.013301931453846"><ele>111.50000000000001</ele><time>2026-03-29T07:52:51.001Z</time></trkpt><trkpt lat="42.41340204371105" lon="14.013218170781325"><ele>109.0</ele><time>2026-03-29T07:52:53.001Z</time></trkpt><trkpt lat="42.413451242283415" lon="14.013129535100449"><ele>109.00000000000001</ele><time>2026-03-29T07:52:55.001Z</time></trkpt><trkpt lat="42.41344873316579" lon="14.013003752040218"><ele>109.0</ele><time>2026-03-29T07:52:58.001Z</time></trkpt><trkpt lat="42.41343302956778" lon="14.012891878096804"><ele>109.0</ele><time>2026-03-29T07:53:00.001Z</time></trkpt><trkpt lat="42.41346004719825" lon="14.012995068086889"><ele>109.0</ele><time>2026-03-29T07:53:28.001Z</time></trkpt><trkpt lat="42.41346910970228" lon="14.01310674481953"><ele>109.00000000000001</ele><time>2026-03-29T07:53:30.001Z</time></trkpt><trkpt lat="42.41345385392592" lon="14.01319263904989"><ele>109.0</ele><time>2026-03-29T07:53:32.001Z</time></trkpt><trkpt lat="42.413389050313185" lon="14.01328231187871"><ele>108.83333333333334</ele><time>2026-03-29T07:53:35.001Z</time></trkpt><trkpt lat="42.413333350206365" lon="14.013338826141172"><ele>108.66666666666667</ele><time>2026-03-29T07:53:37.001Z</time></trkpt><trkpt lat="42.41326684840314" lon="14.013419624324873"><ele>108.5</ele><time>2026-03-29T07:53:39.001Z</time></trkpt><trkpt lat="42.413218749320336" lon="14.013481035611365"><ele>108.33333333333334</ele><time>2026-03-29T07:53:40.001Z</time></trkpt><trkpt lat="42.41314032686048" lon="14.013557367820402"><ele>108.16666666666667</ele><time>2026-03-29T07:53:42.001Z</time></trkpt><trkpt lat="42.413059207187736" lon="14.01353651108148"><ele>108.0</ele><time>2026-03-29T07:53:44.001Z</time></trkpt><trkpt lat="42.41296926100604" lon="14.013459974647516"><ele>110.28571428571428</ele><time>2026-03-29T07:53:46.001Z</time></trkpt><trkpt lat="42.412899445645245" lon="14.013450297318677"><ele>112.57142857142857</ele><time>2026-03-29T07:53:47.001Z</time></trkpt><trkpt lat="42.41282501503739" lon="14.013441514330538"><ele>114.85714285714286</ele><time>2026-03-29T07:53:48.001Z</time></trkpt><trkpt lat="42.41275539085888" lon="14.013425013655645"><ele>117.14285714285714</ele><time>2026-03-29T07:53:49.001Z</time></trkpt><trkpt lat="42.41269024598656" lon="14.013419832594415"><ele>119.42857142857144</ele><time>2026-03-29T07:53:50.001Z</time></trkpt><trkpt lat="42.41261337136299" lon="14.013435910224107"><ele>121.71428571428572</ele><time>2026-03-29T07:53:51.001Z</time></trkpt><trkpt lat="42.41254511144016" lon="14.013451927731449"><ele>124.0</ele><time>2026-03-29T07:53:52.001Z</time></trkpt><trkpt lat="42.412473446359485" lon="14.013456990021707"><ele>124.00000000000001</ele><time>2026-03-29T07:53:53.001Z</time></trkpt><trkpt lat="42.41240670339795" lon="14.013454384204547"><ele>124.0</ele><time>2026-03-29T07:53:54.001Z</time></trkpt><trkpt lat="42.41233194103097" lon="14.013459271675297"><ele>124.0</ele><time>2026-03-29T07:53:57.001Z</time></trkpt><trkpt lat="42.412354853119794" lon="14.013569113026454"><ele>124.0</ele><time>2026-03-29T07:53:59.001Z</time></trkpt><trkpt lat="42.412414309326046" lon="14.013635873524162"><ele>124.00000000000001</ele><time>2026-03-29T07:54:00.001Z</time></trkpt><trkpt lat="42.41248528926353" lon="14.013690254719842"><ele>124.0</ele><time>2026-03-29T07:54:01.001Z</time></trkpt><trkpt lat="42.41256252203682" lon="14.013768802583266"><ele>124.0</ele><time>2026-03-29T07:54:02.001Z</time></trkpt><trkpt lat="42.41264900062158" lon="14.013879591002537"><ele>124.0</ele><time>2026-03-29T07:54:03.001Z</time></trkpt><trkpt lat="42.41272371008731" lon="14.014002319886984"><ele>124.0</ele><time>2026-03-29T07:54:04.001Z</time></trkpt><trkpt lat="42.412782802700654" lon="14.01413731144805"><ele>124.0</ele><time>2026-03-29T07:54:05.001Z</time></trkpt><trkpt lat="42.41284325429759" lon="14.01430621271784"><ele>125.25</ele><time>2026-03-29T07:54:06.001Z</time></trkpt><trkpt lat="42.41289732973108" lon="14.014494129844387"><ele>126.5</ele><time>2026-03-29T07:54:07.001Z</time></trkpt><trkpt lat="42.412948642978684" lon="14.01467333528928"><ele>127.75</ele><time>2026-03-29T07:54:08.001Z</time></trkpt><trkpt lat="42.41299306004648" lon="14.01481870397166"><ele>129.0</ele><time>2026-03-29T07:54:09.001Z</time></trkpt><trkpt lat="42.413050295934816" lon="14.014965597150821"><ele>125.5</ele><time>2026-03-29T07:54:10.001Z</time></trkpt><trkpt lat="42.41312251880859" lon="14.015132127687314"><ele>122.0</ele><time>2026-03-29T07:54:11.001Z</time></trkpt><trkpt lat="42.413201773552565" lon="14.015285026268423"><ele>118.5</ele><time>2026-03-29T07:54:12.001Z</time></trkpt><trkpt lat="42.41329520016075" lon="14.015448113499048"><ele>115.0</ele><time>2026-03-29T07:54:13.001Z</time></trkpt><trkpt lat="42.4133897079969" lon="14.015632231853683"><ele>116.75</ele><time>2026-03-29T07:54:14.001Z</time></trkpt><trkpt lat="42.41346410311929" lon="14.015823412130974"><ele>118.5</ele><time>2026-03-29T07:54:15.001Z</time></trkpt><trkpt lat="42.41354379481916" lon="14.015980743413197"><ele>120.25</ele><time>2026-03-29T07:54:16.001Z</time></trkpt><trkpt lat="42.413616204321706" lon="14.016123697796496"><ele>122.0</ele><time>2026-03-29T07:54:17.001Z</time></trkpt><trkpt lat="42.41368965180994" lon="14.016266525573265"><ele>122.0</ele><time>2026-03-29T07:54:18.001Z</time></trkpt><trkpt lat="42.41377560722435" lon="14.016396179571249"><ele>122.0</ele><time>2026-03-29T07:54:19.001Z</time></trkpt><trkpt lat="42.41389315427245" lon="14.016491277452777"><ele>122.0</ele><time>2026-03-29T07:54:20.001Z</time></trkpt><trkpt lat="42.414046682780985" lon="14.01649978703548"><ele>122.0</ele><time>2026-03-29T07:54:21.001Z</time></trkpt><trkpt lat="42.414191231661384" lon="14.01643056052272"><ele>118.0</ele><time>2026-03-29T07:54:22.001Z</time></trkpt><trkpt lat="42.41435780657575" lon="14.016352131340906"><ele>114.0</ele><time>2026-03-29T07:54:23.001Z</time></trkpt><trkpt lat="42.414535473514206" lon="14.01625926407972"><ele>110.0</ele><time>2026-03-29T07:54:24.001Z</time></trkpt><trkpt lat="42.414706929500824" lon="14.016181064808174"><ele>109.33333333333333</ele><time>2026-03-29T07:54:25.001Z</time></trkpt><trkpt lat="42.414864696811605" lon="14.016103464539082"><ele>108.66666666666666</ele><time>2026-03-29T07:54:26.001Z</time></trkpt><trkpt lat="42.415014909924196" lon="14.016028555389795"><ele>108.0</ele><time>2026-03-29T07:54:27Z</time></trkpt><trkpt lat="42.41516261495865" lon="14.015959165942183"><ele>108.0</ele><time>2026-03-29T07:54:28Z</time></trkpt><trkpt lat="42.415306945793716" lon="14.015891483996214"><ele>108.0</ele><time>2026-03-29T07:54:29Z</time></trkpt><trkpt lat="42.415435390194496" lon="14.015825332029985"><ele>108.0</ele><time>2026-03-29T07:54:30Z</time></trkpt><trkpt lat="42.415550036142214" lon="14.015765421899355"><ele>108.0</ele><time>2026-03-29T07:54:31Z</time></trkpt><trkpt lat="42.41566368619783" lon="14.01570256122324"><ele>107.75</ele><time>2026-03-29T07:54:32Z</time></trkpt><trkpt lat="42.41578164306154" lon="14.015638158025409"><ele>107.5</ele><time>2026-03-29T07:54:33Z</time></trkpt><trkpt lat="42.41590453952089" lon="14.015573087364636"><ele>107.25</ele><time>2026-03-29T07:54:34Z</time></trkpt><trkpt lat="42.41603223609643" lon="14.015509021105759"><ele>107.0</ele><time>2026-03-29T07:54:35Z</time></trkpt><trkpt lat="42.416160927682164" lon="14.01544135280876"><ele>107.0</ele><time>2026-03-29T07:54:36Z</time></trkpt><trkpt lat="42.41629061251938" lon="14.015372213495475"><ele>107.0</ele><time>2026-03-29T07:54:37Z</time></trkpt><trkpt lat="42.41641470729515" lon="14.015309946194954"><ele>107.0</ele><time>2026-03-29T07:54:38Z</time></trkpt><trkpt lat="42.41652339780916" lon="14.015258603019944"><ele>107.0</ele><time>2026-03-29T07:54:39Z</time></trkpt><trkpt lat="42.41662286637312" lon="14.015214814826727"><ele>107.33333333333333</ele><time>2026-03-29T07:54:40Z</time></trkpt><trkpt lat="42.41670961136264" lon="14.01516634070589"><ele>107.66666666666666</ele><time>2026-03-29T07:54:41Z</time></trkpt><trkpt lat="42.41678510407481" lon="14.01512180668892"><ele>108.0</ele><time>2026-03-29T07:54:42Z</time></trkpt><trkpt lat="42.41685243363979" lon="14.015088433516976"><ele>108.33333333333334</ele><time>2026-03-29T07:54:43Z</time></trkpt><trkpt lat="42.41691575019801" lon="14.015001425072798"><ele>108.66666666666667</ele><time>2026-03-29T07:54:46Z</time></trkpt><trkpt lat="42.41692614703662" lon="14.015089858339586"><ele>109.0</ele><time>2026-03-29T07:54:50Z</time></trkpt><trkpt lat="42.41686989858359" lon="14.015210725060706"><ele>109.0</ele><time>2026-03-29T07:54:51Z</time></trkpt><trkpt lat="42.41681601333864" lon="14.015392503593217"><ele>109.0</ele><time>2026-03-29T07:54:53Z</time></trkpt><trkpt lat="42.41677336824195" lon="14.015534277327317"><ele>109.0</ele><time>2026-03-29T07:54:54Z</time></trkpt><trkpt lat="42.416723081984266" lon="14.015693836396766"><ele>109.0</ele><time>2026-03-29T07:54:55Z</time></trkpt><trkpt lat="42.41665743339072" lon="14.01582145195984"><ele>108.4</ele><time>2026-03-29T07:54:56Z</time></trkpt><trkpt lat="42.416598804444696" lon="14.015925373123778"><ele>107.80000000000001</ele><time>2026-03-29T07:54:57.001Z</time></trkpt><trkpt lat="42.41654310061804" lon="14.015978914561133"><ele>107.19999999999999</ele><time>2026-03-29T07:54:58.001Z</time></trkpt><trkpt lat="42.416467074973845" lon="14.016017808423882"><ele>106.6</ele><time>2026-03-29T07:54:59.001Z</time></trkpt><trkpt lat="42.4163489712854" lon="14.016050643006237"><ele>106.0</ele><time>2026-03-29T07:55:01.001Z</time></trkpt><trkpt lat="42.416232288924455" lon="14.016043642038158"><ele>106.0</ele><time>2026-03-29T07:55:03.001Z</time></trkpt><trkpt lat="42.41616942001502" lon="14.016031931928621"><ele>106.0</ele><time>2026-03-29T07:55:04.001Z</time></trkpt><trkpt lat="42.416098342385766" lon="14.016020612056863"><ele>106.0</ele><time>2026-03-29T07:55:05.001Z</time></trkpt><trkpt lat="42.41602575807844" lon="14.016004696590814"><ele>106.0</ele><time>2026-03-29T07:55:06.001Z</time></trkpt><trkpt lat="42.415953836456666" lon="14.01598741232701"><ele>106.0</ele><time>2026-03-29T07:55:07.001Z</time></trkpt><trkpt lat="42.41588130852159" lon="14.01599045596211"><ele>106.0</ele><time>2026-03-29T07:55:08.001Z</time></trkpt><trkpt lat="42.415819368411654" lon="14.01600733876255"><ele>106.0</ele><time>2026-03-29T07:55:09.001Z</time></trkpt><trkpt lat="42.41576049305369" lon="14.016040652575331"><ele>106.00000000000001</ele><time>2026-03-29T07:55:10.001Z</time></trkpt><trkpt lat="42.415696112446064" lon="14.016071707046398"><ele>106.0</ele><time>2026-03-29T07:55:11.001Z</time></trkpt><trkpt lat="42.41567962790109" lon="14.016168631937182"><ele>106.0</ele><time>2026-03-29T07:55:13.001Z</time></trkpt><trkpt lat="42.41560865938644" lon="14.016104147633952"><ele>106.0</ele><time>2026-03-29T07:55:16.001Z</time></trkpt><trkpt lat="42.41554749091617" lon="14.015994650002373"><ele>106.00000000000001</ele><time>2026-03-29T07:55:18.001Z</time></trkpt><trkpt lat="42.41553357737474" lon="14.015833847263973"><ele>106.0</ele><time>2026-03-29T07:55:20.001Z</time></trkpt><trkpt lat="42.415562806773146" lon="14.01572475110143"><ele>106.19999999999999</ele><time>2026-03-29T07:55:21.001Z</time></trkpt><trkpt lat="42.41556158110719" lon="14.01561117147076"><ele>106.39999999999999</ele><time>2026-03-29T07:55:23.001Z</time></trkpt><trkpt lat="42.41552916287305" lon="14.015499338218477"><ele>106.6</ele><time>2026-03-29T07:55:24.001Z</time></trkpt><trkpt lat="42.41550168735521" lon="14.015351394514328"><ele>106.8</ele><time>2026-03-29T07:55:26.001Z</time></trkpt><trkpt lat="42.41548476025589" lon="14.015235077419026"><ele>107.0</ele><time>2026-03-29T07:55:27.001Z</time></trkpt><trkpt lat="42.415484062384174" lon="14.015075551431813"><ele>107.19999999999999</ele><time>2026-03-29T07:55:28.001Z</time></trkpt><trkpt lat="42.4155294158302" lon="14.01492326577933"><ele>107.39999999999999</ele><time>2026-03-29T07:55:29.001Z</time></trkpt><trkpt lat="42.415584162003206" lon="14.014786103362043"><ele>107.60000000000001</ele><time>2026-03-29T07:55:30.001Z</time></trkpt><trkpt lat="42.41562951205298" lon="14.014653923229051"><ele>107.80000000000001</ele><time>2026-03-29T07:55:31.001Z</time></trkpt><trkpt lat="42.415658363359476" lon="14.014541259465883"><ele>108.0</ele><time>2026-03-29T07:55:32.001Z</time></trkpt><trkpt lat="42.41567335386561" lon="14.014387796742746"><ele>108.0</ele><time>2026-03-29T07:55:33.001Z</time></trkpt><trkpt lat="42.41568572936039" lon="14.014228543042119"><ele>108.00000000000001</ele><time>2026-03-29T07:55:34.001Z</time></trkpt><trkpt lat="42.415720336662936" lon="14.01408653585097"><ele>108.00000000000001</ele><time>2026-03-29T07:55:35.001Z</time></trkpt><trkpt lat="42.415769043106145" lon="14.014011842234432"><ele>108.0</ele><time>2026-03-29T07:55:36.001Z</time></trkpt><trkpt lat="42.41582047735799" lon="14.01392312158726"><ele>108.0</ele><time>2026-03-29T07:55:37.001Z</time></trkpt><trkpt lat="42.41583056677139" lon="14.013759770334977"><ele>108.2</ele><time>2026-03-29T07:55:39.001Z</time></trkpt><trkpt lat="42.4157884148475" lon="14.013611101184035"><ele>108.4</ele><time>2026-03-29T07:55:41.001Z</time></trkpt><trkpt lat="42.415740589877856" lon="14.013458072728483"><ele>108.60000000000001</ele><time>2026-03-29T07:55:43.001Z</time></trkpt><trkpt lat="42.4157001694547" lon="14.013347966747064"><ele>108.80000000000001</ele><time>2026-03-29T07:55:44.001Z</time></trkpt><trkpt lat="42.41567145436704" lon="14.013207301839984"><ele>109.0</ele><time>2026-03-29T07:55:45.001Z</time></trkpt><trkpt lat="42.415640883479966" lon="14.013076212750244"><ele>109.00000000000001</ele><time>2026-03-29T07:55:46.001Z</time></trkpt><trkpt lat="42.415619740263956" lon="14.012966780332185"><ele>109.0</ele><time>2026-03-29T07:55:47.001Z</time></trkpt><trkpt lat="42.41562032275287" lon="14.012864680295994"><ele>109.0</ele><time>2026-03-29T07:55:48.001Z</time></trkpt><trkpt lat="42.41563691365994" lon="14.01274373859321"><ele>109.0</ele><time>2026-03-29T07:55:49.001Z</time></trkpt><trkpt lat="42.41565244736978" lon="14.012633351094266"><ele>109.00000000000001</ele><time>2026-03-29T07:55:50.001Z</time></trkpt><trkpt lat="42.41566839417344" lon="14.012508927706513"><ele>109.0</ele><time>2026-03-29T07:55:51.001Z</time></trkpt><trkpt lat="42.41565780222522" lon="14.012365833469769"><ele>109.0</ele><time>2026-03-29T07:55:52.001Z</time></trkpt><trkpt lat="42.41563380636984" lon="14.012243911424827"><ele>109.0</ele><time>2026-03-29T07:55:53.001Z</time></trkpt><trkpt lat="42.41559883839063" lon="14.01211473185244"><ele>109.0</ele><time>2026-03-29T07:55:54.001Z</time></trkpt><trkpt lat="42.41556093856007" lon="14.011992420291072"><ele>109.0</ele><time>2026-03-29T07:55:55.001Z</time></trkpt><trkpt lat="42.41552587987722" lon="14.011869535260926"><ele>109.0</ele><time>2026-03-29T07:55:56.001Z</time></trkpt><trkpt lat="42.41548490008703" lon="14.01174409072469"><ele>109.2</ele><time>2026-03-29T07:55:57.001Z</time></trkpt><trkpt lat="42.415438282124086" lon="14.01161739263571"><ele>109.4</ele><time>2026-03-29T07:55:58.001Z</time></trkpt><trkpt lat="42.41539423990484" lon="14.011484008365352"><ele>109.6</ele><time>2026-03-29T07:55:59.001Z</time></trkpt><trkpt lat="42.41534731786746" lon="14.011359506419437"><ele>109.8</ele><time>2026-03-29T07:56:00.001Z</time></trkpt><trkpt lat="42.41530889260151" lon="14.011242587779089"><ele>110.0</ele><time>2026-03-29T07:56:01.001Z</time></trkpt><trkpt lat="42.41527916346798" lon="14.011152970087505"><ele>109.99999999999999</ele><time>2026-03-29T07:56:02.001Z</time></trkpt><trkpt lat="42.41523256482522" lon="14.011089064561718"><ele>110.0</ele><time>2026-03-29T07:56:03.001Z</time></trkpt><trkpt lat="42.41514916272933" lon="14.010970212061128"><ele>110.0</ele><time>2026-03-29T07:56:05.001Z</time></trkpt><trkpt lat="42.415096365476344" lon="14.01089351095896"><ele>110.0</ele><time>2026-03-29T07:56:06.001Z</time></trkpt><trkpt lat="42.415040716063125" lon="14.010827965377858"><ele>109.99999999999999</ele><time>2026-03-29T07:56:07.001Z</time></trkpt><trkpt lat="42.41496849858518" lon="14.010773120856896"><ele>110.0</ele><time>2026-03-29T07:56:08.001Z</time></trkpt><trkpt lat="42.41489717303416" lon="14.01070516201403"><ele>110.2</ele><time>2026-03-29T07:56:09.001Z</time></trkpt><trkpt lat="42.414820138105256" lon="14.010633228336367"><ele>110.4</ele><time>2026-03-29T07:56:10.001Z</time></trkpt><trkpt lat="42.41474071062175" lon="14.010559147296407"><ele>110.6</ele><time>2026-03-29T07:56:11.001Z</time></trkpt><trkpt lat="42.41466146243995" lon="14.010476358718066"><ele>110.8</ele><time>2026-03-29T07:56:12.001Z</time></trkpt><trkpt lat="42.41458498009596" lon="14.010385959012147"><ele>111.0</ele><time>2026-03-29T07:56:13.001Z</time></trkpt><trkpt lat="42.41451441903491" lon="14.010290670934019"><ele>111.0</ele><time>2026-03-29T07:56:14.001Z</time></trkpt><trkpt lat="42.41444364332284" lon="14.010195954846923"><ele>111.0</ele><time>2026-03-29T07:56:15.001Z</time></trkpt><trkpt lat="42.41439084548396" lon="14.01011186808114"><ele>111.0</ele><time>2026-03-29T07:56:16.001Z</time></trkpt><trkpt lat="42.414302695813916" lon="14.009981638603408"><ele>111.0</ele><time>2026-03-29T07:56:18.001Z</time></trkpt><trkpt lat="42.41418793126336" lon="14.009952458681303"><ele>111.0</ele><time>2026-03-29T07:56:20.001Z</time></trkpt><trkpt lat="42.41412244201419" lon="14.009913995475252"><ele>111.6</ele><time>2026-03-29T07:56:22.001Z</time></trkpt><trkpt lat="42.41412087179817" lon="14.009766635938105"><ele>112.19999999999999</ele><time>2026-03-29T07:56:24.001Z</time></trkpt><trkpt lat="42.4141201106628" lon="14.009669613840773"><ele>112.80000000000001</ele><time>2026-03-29T07:56:25.001Z</time></trkpt><trkpt lat="42.41409003370923" lon="14.009528253599985"><ele>113.4</ele><time>2026-03-29T07:56:27.001Z</time></trkpt><trkpt lat="42.41406242465201" lon="14.009443657000514"><ele>114.0</ele><time>2026-03-29T07:56:28.001Z</time></trkpt><trkpt lat="42.413985564694926" lon="14.009324907631704"><ele>114.0</ele><time>2026-03-29T07:56:29.001Z</time></trkpt><trkpt lat="42.41391330339891" lon="14.009202385796547"><ele>114.0</ele><time>2026-03-29T07:56:31.001Z</time></trkpt><trkpt lat="42.41386972527722" lon="14.009133247886838"><ele>114.0</ele><time>2026-03-29T07:56:32.001Z</time></trkpt><trkpt lat="42.41382761467417" lon="14.009046637396999"><ele>114.0</ele><time>2026-03-29T07:56:33Z</time></trkpt><trkpt lat="42.41378567049958" lon="14.008964817257018"><ele>114.0</ele><time>2026-03-29T07:56:34Z</time></trkpt><trkpt lat="42.41372661332223" lon="14.008877703432587"><ele>114.0</ele><time>2026-03-29T07:56:35Z</time></trkpt><trkpt lat="42.41367953936368" lon="14.008807968117317"><ele>114.33333333333333</ele><time>2026-03-29T07:56:36Z</time></trkpt><trkpt lat="42.413656711339115" lon="14.008727507010205"><ele>114.66666666666666</ele><time>2026-03-29T07:56:37Z</time></trkpt><trkpt lat="42.413629183434374" lon="14.008621457439132"><ele>115.0</ele><time>2026-03-29T07:56:38Z</time></trkpt><trkpt lat="42.41360276395164" lon="14.008524033557114"><ele>115.33333333333333</ele><time>2026-03-29T07:56:39Z</time></trkpt><trkpt lat="42.41356890201361" lon="14.008426026322848"><ele>115.66666666666666</ele><time>2026-03-29T07:56:40Z</time></trkpt><trkpt lat="42.41351169648165" lon="14.008322071394767"><ele>116.0</ele><time>2026-03-29T07:56:41Z</time></trkpt><trkpt lat="42.413422451587536" lon="14.008228067763751"><ele>116.4</ele><time>2026-03-29T07:56:42Z</time></trkpt><trkpt lat="42.41333936414162" lon="14.0081406800661"><ele>116.8</ele><time>2026-03-29T07:56:43Z</time></trkpt><trkpt lat="42.41326145134212" lon="14.008040780263244"><ele>117.20000000000002</ele><time>2026-03-29T07:56:44Z</time></trkpt><trkpt lat="42.413235724684284" lon="14.007882320279064"><ele>117.60000000000001</ele><time>2026-03-29T07:56:46Z</time></trkpt><trkpt lat="42.41325009046341" lon="14.007783816636357"><ele>118.0</ele><time>2026-03-29T07:56:47Z</time></trkpt><trkpt lat="42.413238160907724" lon="14.007672399858263"><ele>118.00000000000001</ele><time>2026-03-29T07:56:48Z</time></trkpt><trkpt lat="42.41321854560456" lon="14.007585638753923"><ele>118.0</ele><time>2026-03-29T07:56:50Z</time></trkpt><trkpt lat="42.41307697101309" lon="14.00754255325367"><ele>118.0</ele><time>2026-03-29T07:57:13.001Z</time></trkpt><trkpt lat="42.413011599458926" lon="14.007563026833642"><ele>118.0</ele><time>2026-03-29T07:57:14.001Z</time></trkpt><trkpt lat="42.41295238225584" lon="14.00760265328771"><ele>118.00000000000001</ele><time>2026-03-29T07:57:15.001Z</time></trkpt><trkpt lat="42.41288324970847" lon="14.007624823470074"><ele>118.0</ele><time>2026-03-29T07:57:16.001Z</time></trkpt><trkpt lat="42.412793355847434" lon="14.007585526272836"><ele>117.60000000000001</ele><time>2026-03-29T07:57:18.001Z</time></trkpt><trkpt lat="42.412780185606024" lon="14.007486520785282"><ele>117.20000000000002</ele><time>2026-03-29T07:57:21.001Z</time></trkpt><trkpt lat="42.41271386294176" lon="14.007387642135022"><ele>116.8</ele><time>2026-03-29T07:57:23.001Z</time></trkpt><trkpt lat="42.41266244417664" lon="14.007326251989099"><ele>116.4</ele><time>2026-03-29T07:57:24.001Z</time></trkpt><trkpt lat="42.41261365645417" lon="14.00719308665746"><ele>116.0</ele><time>2026-03-29T07:57:26.001Z</time></trkpt><trkpt lat="42.412618994312695" lon="14.007029639215313"><ele>116.00000000000001</ele><time>2026-03-29T07:57:28.001Z</time></trkpt><trkpt lat="42.412591976531246" lon="14.006951354485528"><ele>116.0</ele><time>2026-03-29T07:57:29.001Z</time></trkpt><trkpt lat="42.41253195152287" lon="14.006903732772246"><ele>116.00000000000001</ele><time>2026-03-29T07:57:30.001Z</time></trkpt><trkpt lat="42.41246632400825" lon="14.00689026484438"><ele>116.00000000000001</ele><time>2026-03-29T07:57:31.001Z</time></trkpt><trkpt lat="42.41239480603927" lon="14.00685348872273"><ele>116.0</ele><time>2026-03-29T07:57:32.001Z</time></trkpt><trkpt lat="42.41234052619983" lon="14.006804952467037"><ele>116.00000000000001</ele><time>2026-03-29T07:57:33.001Z</time></trkpt><trkpt lat="42.41230251587776" lon="14.006732289072946"><ele>116.00000000000001</ele><time>2026-03-29T07:57:34.001Z</time></trkpt><trkpt lat="42.412292946872064" lon="14.006644722489266"><ele>116.0</ele><time>2026-03-29T07:57:35.001Z</time></trkpt><trkpt lat="42.41229318037857" lon="14.006540318396397"><ele>116.0</ele><time>2026-03-29T07:57:36.001Z</time></trkpt><trkpt lat="42.41228362115334" lon="14.006413812771983"><ele>116.0</ele><time>2026-03-29T07:57:37.001Z</time></trkpt><trkpt lat="42.412272370675126" lon="14.00626594209347"><ele>116.0</ele><time>2026-03-29T07:57:38.001Z</time></trkpt><trkpt lat="42.412252877789825" lon="14.006136941957921"><ele>116.0</ele><time>2026-03-29T07:57:39.001Z</time></trkpt><trkpt lat="42.41223565280243" lon="14.006042141954996"><ele>116.0</ele><time>2026-03-29T07:57:40.001Z</time></trkpt><trkpt lat="42.41219691617103" lon="14.005955363977668"><ele>116.0</ele><time>2026-03-29T07:57:42.001Z</time></trkpt><trkpt lat="42.412084064221176" lon="14.005872988597227"><ele>116.0</ele><time>2026-03-29T07:57:44.001Z</time></trkpt><trkpt lat="42.41201531196277" lon="14.005800705982816"><ele>116.0</ele><time>2026-03-29T07:57:45.001Z</time></trkpt><trkpt lat="42.411969545173704" lon="14.005698690867973"><ele>116.0</ele><time>2026-03-29T07:57:47.001Z</time></trkpt><trkpt lat="42.41178378549355" lon="14.00548870403415"><ele>115.66666666666666</ele><time>2026-03-29T07:57:59.001Z</time></trkpt><trkpt lat="42.41174890907228" lon="14.00541484781977"><ele>115.33333333333333</ele><time>2026-03-29T07:58:00.001Z</time></trkpt><trkpt lat="42.41170852767338" lon="14.005342481184645"><ele>115.0</ele><time>2026-03-29T07:58:01.001Z</time></trkpt><trkpt lat="42.411611106632634" lon="14.005247759007641"><ele>114.66666666666666</ele><time>2026-03-29T07:58:03.001Z</time></trkpt><trkpt lat="42.411543467514605" lon="14.005208284947514"><ele>114.33333333333333</ele><time>2026-03-29T07:58:04.001Z</time></trkpt><trkpt lat="42.411478234163674" lon="14.005151711889596"><ele>114.0</ele><time>2026-03-29T07:58:05.001Z</time></trkpt><trkpt lat="42.41139730361089" lon="14.005045808150864"><ele>114.0</ele><time>2026-03-29T07:58:07.001Z</time></trkpt><trkpt lat="42.41130821732847" lon="14.004959155915024"><ele>114.0</ele><time>2026-03-29T07:58:09.001Z</time></trkpt><trkpt lat="42.41123209197339" lon="14.004929878235963"><ele>114.0</ele><time>2026-03-29T07:58:10.001Z</time></trkpt><trkpt lat="42.411152754025665" lon="14.004878301683632"><ele>114.0</ele><time>2026-03-29T07:58:11.001Z</time></trkpt><trkpt lat="42.41107316482057" lon="14.004811809619472"><ele>114.0</ele><time>2026-03-29T07:58:12.001Z</time></trkpt><trkpt lat="42.41099249678851" lon="14.004752350630055"><ele>114.0</ele><time>2026-03-29T07:58:13.001Z</time></trkpt><trkpt lat="42.41090724563072" lon="14.004706248583465"><ele>114.0</ele><time>2026-03-29T07:58:14.001Z</time></trkpt><trkpt lat="42.41081255041488" lon="14.004674275151272"><ele>114.0</ele><time>2026-03-29T07:58:15.001Z</time></trkpt><trkpt lat="42.410713178537605" lon="14.004658721855522"><ele>114.0</ele><time>2026-03-29T07:58:16.001Z</time></trkpt><trkpt lat="42.410621578277805" lon="14.004650325598398"><ele>114.0</ele><time>2026-03-29T07:58:17.001Z</time></trkpt><trkpt lat="42.41053164458625" lon="14.004646524450965"><ele>114.2</ele><time>2026-03-29T07:58:18.001Z</time></trkpt><trkpt lat="42.41043065198319" lon="14.004635496287428"><ele>114.4</ele><time>2026-03-29T07:58:19.001Z</time></trkpt><trkpt lat="42.4103334966573" lon="14.004614032471112"><ele>114.6</ele><time>2026-03-29T07:58:20.001Z</time></trkpt><trkpt lat="42.41023731995745" lon="14.004590085917796"><ele>114.8</ele><time>2026-03-29T07:58:21.001Z</time></trkpt><trkpt lat="42.41013930293813" lon="14.00457017094948"><ele>115.0</ele><time>2026-03-29T07:58:22.001Z</time></trkpt><trkpt lat="42.41004412609327" lon="14.004553687205565"><ele>115.0</ele><time>2026-03-29T07:58:23.001Z</time></trkpt><trkpt lat="42.40995359002856" lon="14.004530627089395"><ele>115.0</ele><time>2026-03-29T07:58:24.001Z</time></trkpt><trkpt lat="42.409864426732064" lon="14.00450199375176"><ele>115.0</ele><time>2026-03-29T07:58:25.001Z</time></trkpt><trkpt lat="42.40977370224986" lon="14.0044687652843"><ele>115.0</ele><time>2026-03-29T07:58:26.001Z</time></trkpt><trkpt lat="42.409684750323855" lon="14.004413463649735"><ele>115.0</ele><time>2026-03-29T07:58:27.001Z</time></trkpt><trkpt lat="42.40960365335835" lon="14.00434017587496"><ele>115.0</ele><time>2026-03-29T07:58:28.001Z</time></trkpt><trkpt lat="42.409518158296116" lon="14.00428013054686"><ele>115.0</ele><time>2026-03-29T07:58:29.001Z</time></trkpt><trkpt lat="42.40941873672877" lon="14.004240134824055"><ele>115.0</ele><time>2026-03-29T07:58:30.001Z</time></trkpt><trkpt lat="42.40932027400665" lon="14.004203340675726"><ele>115.0</ele><time>2026-03-29T07:58:31.001Z</time></trkpt><trkpt lat="42.409218381294714" lon="14.004167996888587"><ele>115.0</ele><time>2026-03-29T07:58:32.001Z</time></trkpt><trkpt lat="42.40912573730843" lon="14.004115628541813"><ele>115.4</ele><time>2026-03-29T07:58:33.001Z</time></trkpt><trkpt lat="42.40904444881768" lon="14.004043612703365"><ele>115.8</ele><time>2026-03-29T07:58:34.001Z</time></trkpt><trkpt lat="42.40896327339455" lon="14.003975279561494"><ele>116.19999999999999</ele><time>2026-03-29T07:58:35.001Z</time></trkpt><trkpt lat="42.40888889732834" lon="14.003902961890788"><ele>116.6</ele><time>2026-03-29T07:58:36.001Z</time></trkpt><trkpt lat="42.40881395244873" lon="14.003829542967724"><ele>117.0</ele><time>2026-03-29T07:58:37.001Z</time></trkpt><trkpt lat="42.408740672809216" lon="14.003755647339776"><ele>117.0</ele><time>2026-03-29T07:58:38.001Z</time></trkpt><trkpt lat="42.40866870703255" lon="14.003679308167158"><ele>116.99999999999999</ele><time>2026-03-29T07:58:39Z</time></trkpt><trkpt lat="42.40860334907222" lon="14.00359650677345"><ele>116.99999999999999</ele><time>2026-03-29T07:58:40Z</time></trkpt><trkpt lat="42.40855003159355" lon="14.003499958119844"><ele>117.0</ele><time>2026-03-29T07:58:41Z</time></trkpt><trkpt lat="42.408510270702706" lon="14.003390498391829"><ele>117.0</ele><time>2026-03-29T07:58:42Z</time></trkpt><trkpt lat="42.40847134037841" lon="14.003270801340008"><ele>117.0</ele><time>2026-03-29T07:58:43Z</time></trkpt><trkpt lat="42.40843770129065" lon="14.003137354511031"><ele>116.99999999999999</ele><time>2026-03-29T07:58:44Z</time></trkpt><trkpt lat="42.408429147405265" lon="14.002992864339307"><ele>116.99999999999999</ele><time>2026-03-29T07:58:45Z</time></trkpt><trkpt lat="42.40843690534888" lon="14.002832719804566"><ele>117.0</ele><time>2026-03-29T07:58:46Z</time></trkpt><trkpt lat="42.40845536246698" lon="14.002673580966116"><ele>117.0</ele><time>2026-03-29T07:58:47Z</time></trkpt><trkpt lat="42.4084682437781" lon="14.002517208164601"><ele>117.0</ele><time>2026-03-29T07:58:48Z</time></trkpt><trkpt lat="42.408446627192724" lon="14.002368629455608"><ele>116.99999999999999</ele><time>2026-03-29T07:58:49Z</time></trkpt><trkpt lat="42.40842328204616" lon="14.002241674338299"><ele>116.99999999999999</ele><time>2026-03-29T07:58:50Z</time></trkpt><trkpt lat="42.40840658517673" lon="14.00210442940044"><ele>117.0</ele><time>2026-03-29T07:58:51Z</time></trkpt><trkpt lat="42.40838293211722" lon="14.001975846633425"><ele>117.0</ele><time>2026-03-29T07:58:52Z</time></trkpt><trkpt lat="42.408355568133395" lon="14.001848606753988"><ele>117.0</ele><time>2026-03-29T07:58:53Z</time></trkpt><trkpt lat="42.40833716378423" lon="14.001723733157576"><ele>117.0</ele><time>2026-03-29T07:58:54Z</time></trkpt><trkpt lat="42.40831324558099" lon="14.001600306249726"><ele>117.0</ele><time>2026-03-29T07:58:55Z</time></trkpt><trkpt lat="42.40828693806796" lon="14.001472018788478"><ele>117.0</ele><time>2026-03-29T07:58:56Z</time></trkpt><trkpt lat="42.40828184836754" lon="14.001355650568481"><ele>117.0</ele><time>2026-03-29T07:58:57Z</time></trkpt><trkpt lat="42.40829337147357" lon="14.001258392506676"><ele>117.0</ele><time>2026-03-29T07:58:58Z</time></trkpt><trkpt lat="42.4083251240858" lon="14.001183983562848"><ele>117.19999999999999</ele><time>2026-03-29T07:58:59Z</time></trkpt><trkpt lat="42.408370633009454" lon="14.001096425300126"><ele>117.39999999999999</ele><time>2026-03-29T07:59:00Z</time></trkpt><trkpt lat="42.40840345882634" lon="14.000977137683872"><ele>117.60000000000001</ele><time>2026-03-29T07:59:01Z</time></trkpt><trkpt lat="42.40844444890383" lon="14.000837965117773"><ele>117.80000000000001</ele><time>2026-03-29T07:59:02Z</time></trkpt><trkpt lat="42.40849733585257" lon="14.00069648887282"><ele>118.0</ele><time>2026-03-29T07:59:03Z</time></trkpt><trkpt lat="42.40856073870327" lon="14.000552107065939"><ele>118.5</ele><time>2026-03-29T07:59:04Z</time></trkpt><trkpt lat="42.40861379712877" lon="14.000394211712647"><ele>119.0</ele><time>2026-03-29T07:59:05Z</time></trkpt><trkpt lat="42.408662810965545" lon="14.000227756186318"><ele>119.5</ele><time>2026-03-29T07:59:06Z</time></trkpt><trkpt lat="42.408710607417085" lon="14.000083459482001"><ele>120.0</ele><time>2026-03-29T07:59:07Z</time></trkpt><trkpt lat="42.408758631102415" lon="13.99994124706366"><ele>120.0</ele><time>2026-03-29T07:59:08Z</time></trkpt><trkpt lat="42.40879739123041" lon="13.999787557798019"><ele>120.0</ele><time>2026-03-29T07:59:09Z</time></trkpt><trkpt lat="42.40882354166326" lon="13.999632720712027"><ele>120.0</ele><time>2026-03-29T07:59:10Z</time></trkpt><trkpt lat="42.40884872117275" lon="13.999483996441642"><ele>120.0</ele><time>2026-03-29T07:59:11Z</time></trkpt><trkpt lat="42.40889106020438" lon="13.99934794967848"><ele>120.0</ele><time>2026-03-29T07:59:12Z</time></trkpt><trkpt lat="42.408937691735154" lon="13.99921889050584"><ele>120.0</ele><time>2026-03-29T07:59:13Z</time></trkpt><trkpt lat="42.40899059243045" lon="13.999100197457276"><ele>120.0</ele><time>2026-03-29T07:59:14Z</time></trkpt><trkpt lat="42.4090635343142" lon="13.998988452516745"><ele>120.0</ele><time>2026-03-29T07:59:15Z</time></trkpt><trkpt lat="42.4091367200632" lon="13.998885456930866"><ele>120.0</ele><time>2026-03-29T07:59:16Z</time></trkpt><trkpt lat="42.409194253239235" lon="13.998794563523735"><ele>120.0</ele><time>2026-03-29T07:59:17Z</time></trkpt><trkpt lat="42.40924021994411" lon="13.998718888190254"><ele>120.0</ele><time>2026-03-29T07:59:18Z</time></trkpt><trkpt lat="42.40928573510763" lon="13.998649088793488"><ele>120.0</ele><time>2026-03-29T07:59:19Z</time></trkpt><trkpt lat="42.40932660775497" lon="13.998583986097639"><ele>120.0</ele><time>2026-03-29T07:59:20Z</time></trkpt><trkpt lat="42.409377463289786" lon="13.998515752868567"><ele>120.0</ele><time>2026-03-29T07:59:21Z</time></trkpt><trkpt lat="42.40942788204859" lon="13.998444947104447"><ele>120.0</ele><time>2026-03-29T07:59:22Z</time></trkpt><trkpt lat="42.40949351581496" lon="13.998309366942935"><ele>119.66666666666667</ele><time>2026-03-29T07:59:24Z</time></trkpt><trkpt lat="42.409545316047996" lon="13.99824773608445"><ele>119.33333333333334</ele><time>2026-03-29T07:59:25Z</time></trkpt><trkpt lat="42.409611629704784" lon="13.998187780129031"><ele>119.0</ele><time>2026-03-29T07:59:26Z</time></trkpt><trkpt lat="42.409678950759876" lon="13.998134911360113"><ele>118.66666666666667</ele><time>2026-03-29T07:59:27Z</time></trkpt><trkpt lat="42.409753096692945" lon="13.998079810113802"><ele>118.33333333333334</ele><time>2026-03-29T07:59:28Z</time></trkpt><trkpt lat="42.40981889153739" lon="13.998019554612286"><ele>118.0</ele><time>2026-03-29T07:59:29.001Z</time></trkpt><trkpt lat="42.40986330050701" lon="13.997955740708147"><ele>119.0</ele><time>2026-03-29T07:59:30.001Z</time></trkpt><trkpt lat="42.409950836245436" lon="13.997827397351132"><ele>120.00000000000001</ele><time>2026-03-29T07:59:32.001Z</time></trkpt><trkpt lat="42.41001347771839" lon="13.997775036699657"><ele>121.00000000000001</ele><time>2026-03-29T07:59:33.001Z</time></trkpt><trkpt lat="42.41011106046369" lon="13.997740772933847"><ele>122.0</ele><time>2026-03-29T07:59:35.001Z</time></trkpt><trkpt lat="42.4102274363993" lon="13.997705357071899"><ele>123.0</ele><time>2026-03-29T07:59:37.001Z</time></trkpt><trkpt lat="42.41029031119277" lon="13.997674656755564"><ele>123.0</ele><time>2026-03-29T07:59:38.001Z</time></trkpt><trkpt lat="42.41038815027352" lon="13.997650245213642"><ele>123.00000000000001</ele><time>2026-03-29T07:59:40.001Z</time></trkpt><trkpt lat="42.41025617773362" lon="13.997719198716782"><ele>123.00000000000001</ele><time>2026-03-29T08:00:06.001Z</time></trkpt><trkpt lat="42.410159208675374" lon="13.997745554376792"><ele>123.0</ele><time>2026-03-29T08:00:07.001Z</time></trkpt><trkpt lat="42.41006362540523" lon="13.997765084019038"><ele>123.0</ele><time>2026-03-29T08:00:08.001Z</time></trkpt><trkpt lat="42.40997449752685" lon="13.99779090859064"><ele>123.0</ele><time>2026-03-29T08:00:09.001Z</time></trkpt><trkpt lat="42.409906439864066" lon="13.997826486976036"><ele>123.0</ele><time>2026-03-29T08:00:10.001Z</time></trkpt><trkpt lat="42.40985504940422" lon="13.997882106380894"><ele>123.0</ele><time>2026-03-29T08:00:11.001Z</time></trkpt><trkpt lat="42.40981559272112" lon="13.997978583289811"><ele>123.0</ele><time>2026-03-29T08:00:12.001Z</time></trkpt><trkpt lat="42.409752119768676" lon="13.998081170043832"><ele>123.0</ele><time>2026-03-29T08:00:13.001Z</time></trkpt><trkpt lat="42.409677262158" lon="13.9981520882808"><ele>123.0</ele><time>2026-03-29T08:00:14.001Z</time></trkpt><trkpt lat="42.40959162142513" lon="13.998216449902898"><ele>122.5</ele><time>2026-03-29T08:00:15.001Z</time></trkpt><trkpt lat="42.409517728731586" lon="13.998284388873406"><ele>122.0</ele><time>2026-03-29T08:00:16.001Z</time></trkpt><trkpt lat="42.409451058494554" lon="13.99836298229535"><ele>121.5</ele><time>2026-03-29T08:00:17.001Z</time></trkpt><trkpt lat="42.40939237031566" lon="13.998451059020306"><ele>121.0</ele><time>2026-03-29T08:00:18.001Z</time></trkpt><trkpt lat="42.4093528635974" lon="13.998523982946592"><ele>120.5</ele><time>2026-03-29T08:00:19.001Z</time></trkpt><trkpt lat="42.409290997487055" lon="13.998568098553795"><ele>120.0</ele><time>2026-03-29T08:00:21.001Z</time></trkpt><trkpt lat="42.409250136716274" lon="13.998490315549628"><ele>119.66666666666667</ele><time>2026-03-29T08:00:24.001Z</time></trkpt><trkpt lat="42.40916341383358" lon="13.998312494718423"><ele>119.33333333333334</ele><time>2026-03-29T08:00:37.001Z</time></trkpt><trkpt lat="42.40910256994493" lon="13.99827811781735"><ele>119.0</ele><time>2026-03-29T08:00:38.001Z</time></trkpt><trkpt lat="42.4090432100662" lon="13.998239857858893"><ele>118.66666666666667</ele><time>2026-03-29T08:00:39.001Z</time></trkpt><trkpt lat="42.40901457998922" lon="13.998141214880198"><ele>118.33333333333334</ele><time>2026-03-29T08:00:41.001Z</time></trkpt><trkpt lat="42.409027402761176" lon="13.998051750818622"><ele>118.0</ele><time>2026-03-29T08:00:42.001Z</time></trkpt><trkpt lat="42.40906895500357" lon="13.997925291966698"><ele>118.0</ele><time>2026-03-29T08:00:43.001Z</time></trkpt><trkpt lat="42.40909206878997" lon="13.997793018668673"><ele>118.00000000000001</ele><time>2026-03-29T08:00:44.001Z</time></trkpt><trkpt lat="42.40908445991829" lon="13.997686820388225"><ele>118.00000000000001</ele><time>2026-03-29T08:00:47Z</time></trkpt><trkpt lat="42.409139497695804" lon="13.99755440315172"><ele>118.0</ele><time>2026-03-29T08:00:50Z</time></trkpt><trkpt lat="42.409169742085055" lon="13.997462872052065"><ele>118.0</ele><time>2026-03-29T08:00:52Z</time></trkpt><trkpt lat="42.40920496008715" lon="13.997278721942015"><ele>118.16666666666667</ele><time>2026-03-29T08:00:54Z</time></trkpt><trkpt lat="42.40922978228552" lon="13.997152870987131"><ele>118.33333333333334</ele><time>2026-03-29T08:00:55Z</time></trkpt><trkpt lat="42.409233439754146" lon="13.997062032279704"><ele>118.5</ele><time>2026-03-29T08:00:56Z</time></trkpt><trkpt lat="42.40923361448946" lon="13.996967923454465"><ele>118.66666666666666</ele><time>2026-03-29T08:00:57Z</time></trkpt><trkpt lat="42.40922208304489" lon="13.996881089384232"><ele>118.83333333333333</ele><time>2026-03-29T08:00:58Z</time></trkpt><trkpt lat="42.40924162590239" lon="13.996779740051684"><ele>119.0</ele><time>2026-03-29T08:01:00Z</time></trkpt><trkpt lat="42.4094426704194" lon="13.996649831813468"><ele>119.4</ele><time>2026-03-29T08:01:06Z</time></trkpt><trkpt lat="42.40946018833889" lon="13.996550309450797"><ele>119.80000000000001</ele><time>2026-03-29T08:01:07Z</time></trkpt><trkpt lat="42.40951431501628" lon="13.996436829807886"><ele>120.19999999999999</ele><time>2026-03-29T08:01:09Z</time></trkpt><trkpt lat="42.409568149065876" lon="13.996372121387457"><ele>120.6</ele><time>2026-03-29T08:01:11Z</time></trkpt><trkpt lat="42.40957798318344" lon="13.996233106615687"><ele>121.0</ele><time>2026-03-29T08:01:13Z</time></trkpt><trkpt lat="42.40952694171856" lon="13.996107580719235"><ele>121.0</ele><time>2026-03-29T08:01:15Z</time></trkpt><trkpt lat="42.4095318405886" lon="13.996013430799577"><ele>121.0</ele><time>2026-03-29T08:01:16Z</time></trkpt><trkpt lat="42.40958518195889" lon="13.995830507240418"><ele>121.0</ele><time>2026-03-29T08:01:18Z</time></trkpt><trkpt lat="42.40961749836235" lon="13.995750757611132"><ele>121.0</ele><time>2026-03-29T08:01:19Z</time></trkpt><trkpt lat="42.409666162213554" lon="13.995618619162665"><ele>121.0</ele><time>2026-03-29T08:01:20Z</time></trkpt><trkpt lat="42.409663484016" lon="13.995529281238255"><ele>121.19999999999999</ele><time>2026-03-29T08:01:21Z</time></trkpt><trkpt lat="42.40969168462677" lon="13.995403824976105"><ele>121.39999999999999</ele><time>2026-03-29T08:01:23Z</time></trkpt><trkpt lat="42.40972613961453" lon="13.995266980659412"><ele>121.6</ele><time>2026-03-29T08:01:25Z</time></trkpt><trkpt lat="42.409679189381166" lon="13.99519901469279"><ele>121.8</ele><time>2026-03-29T08:01:27Z</time></trkpt><trkpt lat="42.409654646338105" lon="13.995040968915315"><ele>122.0</ele><time>2026-03-29T08:01:29Z</time></trkpt><trkpt lat="42.409635624895955" lon="13.994940483839853"><ele>122.33333333333333</ele><time>2026-03-29T08:01:30Z</time></trkpt><trkpt lat="42.40960171898601" lon="13.994785167158778"><ele>122.66666666666666</ele><time>2026-03-29T08:01:31Z</time></trkpt><trkpt lat="42.409578673508925" lon="13.994660128711038"><ele>123.0</ele><time>2026-03-29T08:01:32Z</time></trkpt><trkpt lat="42.40954251349289" lon="13.9945801178102"><ele>123.33333333333334</ele><time>2026-03-29T08:01:36Z</time></trkpt><trkpt lat="42.40948737903366" lon="13.994521683923965"><ele>123.66666666666667</ele><time>2026-03-29T08:01:38Z</time></trkpt><trkpt lat="42.409462523444134" lon="13.994418042797715"><ele>124.0</ele><time>2026-03-29T08:01:41Z</time></trkpt><trkpt lat="42.40943274802194" lon="13.994339592734026"><ele>124.0</ele><time>2026-03-29T08:01:43Z</time></trkpt><trkpt lat="42.40937959500082" lon="13.994180612815715"><ele>124.0</ele><time>2026-03-29T08:01:45Z</time></trkpt><trkpt lat="42.40927258853599" lon="13.994160458118893"><ele>124.0</ele><time>2026-03-29T08:01:47Z</time></trkpt><trkpt lat="42.409215698036306" lon="13.994122737232482"><ele>124.0</ele><time>2026-03-29T08:01:48Z</time></trkpt><trkpt lat="42.40913046935547" lon="13.994040284079741"><ele>124.0</ele><time>2026-03-29T08:01:49Z</time></trkpt><trkpt lat="42.40912596604448" lon="13.993942315786947"><ele>124.33333333333334</ele><time>2026-03-29T08:01:50Z</time></trkpt><trkpt lat="42.40909862525895" lon="13.993809914496941"><ele>124.66666666666667</ele><time>2026-03-29T08:01:52Z</time></trkpt><trkpt lat="42.40904923892067" lon="13.99375272538278"><ele>125.0</ele><time>2026-03-29T08:01:53Z</time></trkpt><trkpt lat="42.40904657789378" lon="13.993658143973933"><ele>125.33333333333334</ele><time>2026-03-29T08:01:55.001Z</time></trkpt><trkpt lat="42.40908594787471" lon="13.99357313991152"><ele>125.66666666666667</ele><time>2026-03-29T08:01:57.001Z</time></trkpt><trkpt lat="42.40909927541011" lon="13.993419051453275"><ele>126.0</ele><time>2026-03-29T08:02:00.001Z</time></trkpt><trkpt lat="42.409097171452046" lon="13.993332520701625"><ele>126.0</ele><time>2026-03-29T08:02:03.001Z</time></trkpt><trkpt lat="42.40911795087883" lon="13.993421780881189"><ele>126.0</ele><time>2026-03-29T08:02:07.001Z</time></trkpt><trkpt lat="42.40914521989017" lon="13.993331773619575"><ele>126.0</ele><time>2026-03-29T08:02:11.001Z</time></trkpt><trkpt lat="42.40914982547694" lon="13.993245792106773"><ele>126.0</ele><time>2026-03-29T08:02:14.001Z</time></trkpt><trkpt lat="42.40917075850517" lon="13.993158973008054"><ele>126.0</ele><time>2026-03-29T08:02:17.001Z</time></trkpt><trkpt lat="42.409157255783406" lon="13.993043132867065"><ele>126.0</ele><time>2026-03-29T08:02:19.001Z</time></trkpt><trkpt lat="42.40919554778286" lon="13.99295726608328"><ele>126.0</ele><time>2026-03-29T08:02:23.001Z</time></trkpt><trkpt lat="42.40920411097493" lon="13.992796847281374"><ele>126.33333333333333</ele><time>2026-03-29T08:02:25.001Z</time></trkpt><trkpt lat="42.409117877640604" lon="13.992718646108793"><ele>126.66666666666666</ele><time>2026-03-29T08:02:28.001Z</time></trkpt><trkpt lat="42.409061061084344" lon="13.992676764986337"><ele>127.0</ele><time>2026-03-29T08:02:29.001Z</time></trkpt><trkpt lat="42.408997197626995" lon="13.99262846107054"><ele>127.33333333333333</ele><time>2026-03-29T08:02:30.001Z</time></trkpt><trkpt lat="42.40894489828146" lon="13.992557660364762"><ele>127.66666666666666</ele><time>2026-03-29T08:02:31.001Z</time></trkpt><trkpt lat="42.408905839008874" lon="13.992475925525884"><ele>128.0</ele><time>2026-03-29T08:02:32.001Z</time></trkpt><trkpt lat="42.40890189257411" lon="13.992373645004342"><ele>127.99999999999999</ele><time>2026-03-29T08:02:34.001Z</time></trkpt><trkpt lat="42.4089400685019" lon="13.992280721696122"><ele>128.0</ele><time>2026-03-29T08:02:36.001Z</time></trkpt><trkpt lat="42.40901502448436" lon="13.992170410706652"><ele>128.0</ele><time>2026-03-29T08:02:38.001Z</time></trkpt><trkpt lat="42.409088695073244" lon="13.992059335444779"><ele>128.0</ele><time>2026-03-29T08:02:40.001Z</time></trkpt><trkpt lat="42.40907722446616" lon="13.991955594455696"><ele>127.99999999999999</ele><time>2026-03-29T08:02:42.001Z</time></trkpt><trkpt lat="42.40901286772008" lon="13.991948357904695"><ele>128.0</ele><time>2026-03-29T08:02:48.001Z</time></trkpt><trkpt lat="42.40894551460576" lon="13.991935112295295"><ele>128.0</ele><time>2026-03-29T08:02:55Z</time></trkpt><trkpt lat="42.40887838096822" lon="13.991919354191703"><ele>127.99999999999999</ele><time>2026-03-29T08:03:00Z</time></trkpt><trkpt lat="42.40884637535779" lon="13.991840232427405"><ele>128.0</ele><time>2026-03-29T08:03:20Z</time></trkpt><trkpt lat="42.40881208457299" lon="13.991764300569164"><ele>128.0</ele><time>2026-03-29T08:03:25Z</time></trkpt><trkpt lat="42.40876981449372" lon="13.991698535266208"><ele>127.99999999999999</ele><time>2026-03-29T08:03:30Z</time></trkpt><trkpt lat="42.40870980326942" lon="13.991618312525768"><ele>128.0</ele><time>2026-03-29T08:03:36Z</time></trkpt><trkpt lat="42.40868857275273" lon="13.991490578414236"><ele>128.0</ele><time>2026-03-29T08:03:39Z</time></trkpt><trkpt lat="42.4085873153744" lon="13.99137397451823"><ele>127.99999999999999</ele><time>2026-03-29T08:03:41Z</time></trkpt><trkpt lat="42.40853381652223" lon="13.991299205200127"><ele>128.0</ele><time>2026-03-29T08:03:42Z</time></trkpt><trkpt lat="42.40845632614587" lon="13.99116861760923"><ele>128.0</ele><time>2026-03-29T08:03:44Z</time></trkpt><trkpt lat="42.408386221978965" lon="13.991123492527837"><ele>128.0</ele><time>2026-03-29T08:03:46Z</time></trkpt><trkpt lat="42.40833007604695" lon="13.991066790606768"><ele>127.99999999999999</ele><time>2026-03-29T08:03:49Z</time></trkpt><trkpt lat="42.40827099076268" lon="13.99103165643415"><ele>128.0</ele><time>2026-03-29T08:03:56Z</time></trkpt><trkpt lat="42.408119630595124" lon="13.990835495388025"><ele>128.0</ele><time>2026-03-29T08:05:14Z</time></trkpt><trkpt lat="42.408061098104945" lon="13.990707339637753"><ele>128.0</ele><time>2026-03-29T08:05:16Z</time></trkpt><trkpt lat="42.40800647826742" lon="13.990577362872951"><ele>128.0</ele><time>2026-03-29T08:05:18Z</time></trkpt><trkpt lat="42.40797552095718" lon="13.990479635109704"><ele>128.0</ele><time>2026-03-29T08:05:19Z</time></trkpt><trkpt lat="42.40795407443438" lon="13.990340611479944"><ele>128.0</ele><time>2026-03-29T08:05:20Z</time></trkpt><trkpt lat="42.407935943954826" lon="13.990208199100852"><ele>128.0</ele><time>2026-03-29T08:05:21Z</time></trkpt><trkpt lat="42.40791758525838" lon="13.99007065757175"><ele>128.0</ele><time>2026-03-29T08:05:22Z</time></trkpt><trkpt lat="42.40789005089848" lon="13.98993216945642"><ele>128.0</ele><time>2026-03-29T08:05:23Z</time></trkpt><trkpt lat="42.407861944325106" lon="13.98982030678151"><ele>128.0</ele><time>2026-03-29T08:05:24Z</time></trkpt><trkpt lat="42.40782304887289" lon="13.989705247058021"><ele>128.0</ele><time>2026-03-29T08:05:25Z</time></trkpt><trkpt lat="42.407753648490015" lon="13.989635848457425"><ele>127.99999999999999</ele><time>2026-03-29T08:05:26Z</time></trkpt><trkpt lat="42.40769347123198" lon="13.989575902466262"><ele>128.0</ele><time>2026-03-29T08:05:27Z</time></trkpt><trkpt lat="42.40764540444151" lon="13.989438403851745"><ele>128.0</ele><time>2026-03-29T08:05:29Z</time></trkpt><trkpt lat="42.40767271901705" lon="13.98935648997208"><ele>128.0</ele><time>2026-03-29T08:05:30Z</time></trkpt><trkpt lat="42.407714330207405" lon="13.989258344876118"><ele>127.99999999999999</ele><time>2026-03-29T08:05:31Z</time></trkpt><trkpt lat="42.40778993882629" lon="13.989149233232935"><ele>128.0</ele><time>2026-03-29T08:05:32Z</time></trkpt><trkpt lat="42.40786354930323" lon="13.988922605859473"><ele>128.25</ele><time>2026-03-29T08:05:33Z</time></trkpt><trkpt lat="42.40786989354118" lon="13.988778678360761"><ele>128.5</ele><time>2026-03-29T08:05:34Z</time></trkpt><trkpt lat="42.407904105244086" lon="13.988632650242025"><ele>128.75</ele><time>2026-03-29T08:05:35Z</time></trkpt><trkpt lat="42.407957218579455" lon="13.988481726497922"><ele>129.0</ele><time>2026-03-29T08:05:36Z</time></trkpt><trkpt lat="42.40800657818929" lon="13.988334763899607"><ele>129.0</ele><time>2026-03-29T08:05:37Z</time></trkpt><trkpt lat="42.40801734703608" lon="13.988234186859964"><ele>129.0</ele><time>2026-03-29T08:05:38Z</time></trkpt><trkpt lat="42.40799346479492" lon="13.98812670989435"><ele>129.0</ele><time>2026-03-29T08:05:39Z</time></trkpt><trkpt lat="42.40796932207172" lon="13.988014909305342"><ele>129.0</ele><time>2026-03-29T08:05:40Z</time></trkpt><trkpt lat="42.40794841241087" lon="13.98789755908955"><ele>129.0</ele><time>2026-03-29T08:05:41Z</time></trkpt><trkpt lat="42.407950888811854" lon="13.98774968127206"><ele>129.0</ele><time>2026-03-29T08:05:43Z</time></trkpt><trkpt lat="42.40795400355719" lon="13.987582591387804"><ele>129.16666666666666</ele><time>2026-03-29T08:05:47Z</time></trkpt><trkpt lat="42.407931190155026" lon="13.987493899598674"><ele>129.33333333333334</ele><time>2026-03-29T08:05:48Z</time></trkpt><trkpt lat="42.40795458307059" lon="13.987375637968045"><ele>129.5</ele><time>2026-03-29T08:05:49Z</time></trkpt><trkpt lat="42.40799483996183" lon="13.987256001868875"><ele>129.66666666666669</ele><time>2026-03-29T08:05:50Z</time></trkpt><trkpt lat="42.40799720781867" lon="13.987151030998092"><ele>129.83333333333334</ele><time>2026-03-29T08:05:51Z</time></trkpt><trkpt lat="42.40797042803445" lon="13.987071263704854"><ele>130.0</ele><time>2026-03-29T08:05:52Z</time></trkpt><trkpt lat="42.40793261393366" lon="13.986915638420404"><ele>130.0</ele><time>2026-03-29T08:05:54Z</time></trkpt><trkpt lat="42.40793787605374" lon="13.98681786441679"><ele>130.0</ele><time>2026-03-29T08:05:55Z</time></trkpt><trkpt lat="42.407928418703236" lon="13.98671529137343"><ele>130.0</ele><time>2026-03-29T08:05:56Z</time></trkpt><trkpt lat="42.40793519581713" lon="13.986585809184751"><ele>130.0</ele><time>2026-03-29T08:05:57Z</time></trkpt><trkpt lat="42.40793730044361" lon="13.986489256481178"><ele>130.0</ele><time>2026-03-29T08:05:58Z</time></trkpt><trkpt lat="42.407951693295686" lon="13.986395290468954"><ele>130.0</ele><time>2026-03-29T08:05:59Z</time></trkpt><trkpt lat="42.407923107591074" lon="13.986281887482319"><ele>130.2</ele><time>2026-03-29T08:06:01Z</time></trkpt><trkpt lat="42.40791088807111" lon="13.986153403965593"><ele>130.4</ele><time>2026-03-29T08:06:03Z</time></trkpt><trkpt lat="42.407897446248015" lon="13.985971235993242"><ele>130.6</ele><time>2026-03-29T08:06:05Z</time></trkpt><trkpt lat="42.40788829612246" lon="13.985853721185359"><ele>130.8</ele><time>2026-03-29T08:06:06Z</time></trkpt><trkpt lat="42.407880354224446" lon="13.985765995255031"><ele>131.0</ele><time>2026-03-29T08:06:07Z</time></trkpt><trkpt lat="42.40793046729093" lon="13.985601846659858"><ele>131.0</ele><time>2026-03-29T08:06:09Z</time></trkpt><trkpt lat="42.407944701442936" lon="13.985500030031224"><ele>131.0</ele><time>2026-03-29T08:06:10Z</time></trkpt><trkpt lat="42.40799884984894" lon="13.985435020536572"><ele>131.0</ele><time>2026-03-29T08:06:12Z</time></trkpt><trkpt lat="42.40809326819338" lon="13.985438637857268"><ele>131.0</ele><time>2026-03-29T08:06:14Z</time></trkpt><trkpt lat="42.40806989823003" lon="13.985336230015665"><ele>131.0</ele><time>2026-03-29T08:06:18Z</time></trkpt><trkpt lat="42.40803150729321" lon="13.985242684458111"><ele>131.0</ele><time>2026-03-29T08:06:20Z</time></trkpt><trkpt lat="42.40796963141055" lon="13.985220525553427"><ele>131.0</ele><time>2026-03-29T08:06:22Z</time></trkpt><trkpt lat="42.40790893885664" lon="13.985146042669971"><ele>131.0</ele><time>2026-03-29T08:06:25Z</time></trkpt><trkpt lat="42.40790411481764" lon="13.984982800964982"><ele>131.0</ele><time>2026-03-29T08:06:27Z</time></trkpt><trkpt lat="42.40792138857599" lon="13.984838836846407"><ele>131.0</ele><time>2026-03-29T08:06:29Z</time></trkpt><trkpt lat="42.40799135454875" lon="13.98469123988503"><ele>131.0</ele><time>2026-03-29T08:06:31Z</time></trkpt><trkpt lat="42.408006068610476" lon="13.984606935127704"><ele>132.0</ele><time>2026-03-29T08:06:32Z</time></trkpt><trkpt lat="42.40803798802688" lon="13.984533109673915"><ele>133.0</ele><time>2026-03-29T08:06:33Z</time></trkpt><trkpt lat="42.40807273802635" lon="13.984381293721052"><ele>134.0</ele><time>2026-03-29T08:06:35Z</time></trkpt><trkpt lat="42.40801915469146" lon="13.98424167436041"><ele>135.0</ele><time>2026-03-29T08:06:37Z</time></trkpt><trkpt lat="42.40793782830232" lon="13.984126587877082"><ele>136.0</ele><time>2026-03-29T08:06:39Z</time></trkpt><trkpt lat="42.407844430467314" lon="13.984060950513339"><ele>136.0</ele><time>2026-03-29T08:06:41Z</time></trkpt><trkpt lat="42.407797721192935" lon="13.983849736268601"><ele>136.0</ele><time>2026-03-29T08:06:43Z</time></trkpt><trkpt lat="42.407807051892426" lon="13.983765028294226"><ele>136.0</ele><time>2026-03-29T08:06:44Z</time></trkpt><trkpt lat="42.40782557704229" lon="13.983664810847923"><ele>136.0</ele><time>2026-03-29T08:06:45Z</time></trkpt><trkpt lat="42.407857260773085" lon="13.983568986581666"><ele>136.0</ele><time>2026-03-29T08:06:46Z</time></trkpt><trkpt lat="42.4078942003137" lon="13.983488223671353"><ele>136.0</ele><time>2026-03-29T08:06:47Z</time></trkpt><trkpt lat="42.407873994612864" lon="13.983354236317812"><ele>136.0</ele><time>2026-03-29T08:06:49Z</time></trkpt><trkpt lat="42.40781431932006" lon="13.98322143928781"><ele>136.0</ele><time>2026-03-29T08:06:51Z</time></trkpt><trkpt lat="42.407764219367294" lon="13.983051222450348"><ele>136.0</ele><time>2026-03-29T08:06:53Z</time></trkpt><trkpt lat="42.40773457855351" lon="13.982953958395493"><ele>136.0</ele><time>2026-03-29T08:06:54Z</time></trkpt><trkpt lat="42.4077024679996" lon="13.98287045815978"><ele>136.2</ele><time>2026-03-29T08:06:55Z</time></trkpt><trkpt lat="42.40764930162413" lon="13.98281140212425"><ele>136.39999999999998</ele><time>2026-03-29T08:06:56Z</time></trkpt><trkpt lat="42.40761748620604" lon="13.982736948741147"><ele>136.6</ele><time>2026-03-29T08:06:58Z</time></trkpt><trkpt lat="42.40765306266135" lon="13.982617845427363"><ele>136.79999999999998</ele><time>2026-03-29T08:07:00Z</time></trkpt><trkpt lat="42.40756541955125" lon="13.98253329676758"><ele>137.0</ele><time>2026-03-29T08:07:02.001Z</time></trkpt><trkpt lat="42.40744005573774" lon="13.982460675869596"><ele>137.33333333333331</ele><time>2026-03-29T08:07:04Z</time></trkpt><trkpt lat="42.407378304224956" lon="13.982398208378262"><ele>137.66666666666666</ele><time>2026-03-29T08:07:05Z</time></trkpt><trkpt lat="42.40729571328867" lon="13.98233167945106"><ele>138.0</ele><time>2026-03-29T08:07:07Z</time></trkpt><trkpt lat="42.40728084897817" lon="13.982243160356964"><ele>138.33333333333334</ele><time>2026-03-29T08:07:08Z</time></trkpt><trkpt lat="42.407274210221196" lon="13.982144491107377"><ele>138.66666666666669</ele><time>2026-03-29T08:07:09Z</time></trkpt><trkpt lat="42.407248073696564" lon="13.982027012748462"><ele>139.0</ele><time>2026-03-29T08:07:11Z</time></trkpt><trkpt lat="42.4071817495772" lon="13.981908777923673"><ele>138.83333333333334</ele><time>2026-03-29T08:07:14Z</time></trkpt><trkpt lat="42.40711422695721" lon="13.981853075393197"><ele>138.66666666666669</ele><time>2026-03-29T08:07:16Z</time></trkpt><trkpt lat="42.40705063080346" lon="13.981819682453272"><ele>138.5</ele><time>2026-03-29T08:07:23Z</time></trkpt><trkpt lat="42.406974401559104" lon="13.981792205271487"><ele>138.33333333333334</ele><time>2026-03-29T08:07:25Z</time></trkpt><trkpt lat="42.40690615629818" lon="13.981730145422805"><ele>138.16666666666666</ele><time>2026-03-29T08:07:28Z</time></trkpt><trkpt lat="42.40684923223666" lon="13.981606036489021"><ele>138.0</ele><time>2026-03-29T08:07:30Z</time></trkpt><trkpt lat="42.40683987618664" lon="13.981442703191055"><ele>138.0</ele><time>2026-03-29T08:07:32Z</time></trkpt><trkpt lat="42.4067803068886" lon="13.981317960617426"><ele>138.0</ele><time>2026-03-29T08:07:34Z</time></trkpt><trkpt lat="42.40674602014574" lon="13.981241686480049"><ele>138.0</ele><time>2026-03-29T08:07:35Z</time></trkpt><trkpt lat="42.40670296573142" lon="13.98115539156686"><ele>138.0</ele><time>2026-03-29T08:07:36Z</time></trkpt><trkpt lat="42.406659968632894" lon="13.981068908712238"><ele>138.0</ele><time>2026-03-29T08:07:37Z</time></trkpt><trkpt lat="42.40664550782453" lon="13.980973274572987"><ele>138.0</ele><time>2026-03-29T08:07:38Z</time></trkpt><trkpt lat="42.406634794888625" lon="13.980834040835262"><ele>138.0</ele><time>2026-03-29T08:07:40Z</time></trkpt><trkpt lat="42.40658532022135" lon="13.980766504157216"><ele>138.0</ele><time>2026-03-29T08:07:41Z</time></trkpt><trkpt lat="42.40653413655644" lon="13.98071020401997"><ele>138.0</ele><time>2026-03-29T08:07:42Z</time></trkpt><trkpt lat="42.40651473061024" lon="13.980586085849689"><ele>138.0</ele><time>2026-03-29T08:07:44Z</time></trkpt><trkpt lat="42.406485537364155" lon="13.980423061793866"><ele>138.0</ele><time>2026-03-29T08:07:47Z</time></trkpt><trkpt lat="42.40644729113032" lon="13.980339219103168"><ele>138.0</ele><time>2026-03-29T08:07:54Z</time></trkpt><trkpt lat="42.406431401526646" lon="13.98024342901053"><ele>138.0</ele><time>2026-03-29T08:07:56Z</time></trkpt><trkpt lat="42.40648675958814" lon="13.980133514923793"><ele>138.0</ele><time>2026-03-29T08:07:58Z</time></trkpt><trkpt lat="42.40655210652672" lon="13.980040968745005"><ele>138.0</ele><time>2026-03-29T08:07:59Z</time></trkpt><trkpt lat="42.40660027538411" lon="13.979952374588354"><ele>138.0</ele><time>2026-03-29T08:08:00Z</time></trkpt><trkpt lat="42.40664078901661" lon="13.979860259972332"><ele>138.0</ele><time>2026-03-29T08:08:01Z</time></trkpt><trkpt lat="42.40667436493902" lon="13.979782726060462"><ele>138.0</ele><time>2026-03-29T08:08:02Z</time></trkpt><trkpt lat="42.406750051936456" lon="13.97969707306628"><ele>138.4</ele><time>2026-03-29T08:08:04Z</time></trkpt><trkpt lat="42.40686125786068" lon="13.979751161987233"><ele>138.8</ele><time>2026-03-29T08:08:06Z</time></trkpt><trkpt lat="42.40692232064462" lon="13.979812938753248"><ele>139.2</ele><time>2026-03-29T08:08:07Z</time></trkpt><trkpt lat="42.40699427864147" lon="13.979898411282832"><ele>139.6</ele><time>2026-03-29T08:08:08Z</time></trkpt><trkpt lat="42.4070898778866" lon="13.979935919566078"><ele>140.0</ele><time>2026-03-29T08:08:09Z</time></trkpt><trkpt lat="42.40718888914221" lon="13.979915904644743"><ele>141.0</ele><time>2026-03-29T08:08:10Z</time></trkpt><trkpt lat="42.40726115953232" lon="13.979914195995745"><ele>142.0</ele><time>2026-03-29T08:08:11Z</time></trkpt><trkpt lat="42.40732842693153" lon="13.979944094824237"><ele>143.0</ele><time>2026-03-29T08:08:12Z</time></trkpt><trkpt lat="42.4073882162889" lon="13.979989007165564"><ele>144.0</ele><time>2026-03-29T08:08:13Z</time></trkpt><trkpt lat="42.40744266634135" lon="13.980038339857659"><ele>145.0</ele><time>2026-03-29T08:08:14Z</time></trkpt><trkpt lat="42.40749844316205" lon="13.980082708400241"><ele>146.0</ele><time>2026-03-29T08:08:15Z</time></trkpt><trkpt lat="42.407565597804044" lon="13.980111541702987"><ele>147.0</ele><time>2026-03-29T08:08:16Z</time></trkpt><trkpt lat="42.40763991501179" lon="13.980128569953235"><ele>147.0</ele><time>2026-03-29T08:08:17Z</time></trkpt><trkpt lat="42.407710290015544" lon="13.980140246970425"><ele>147.0</ele><time>2026-03-29T08:08:18Z</time></trkpt><trkpt lat="42.40778436087804" lon="13.98014444821095"><ele>147.0</ele><time>2026-03-29T08:08:19Z</time></trkpt><trkpt lat="42.40785324674157" lon="13.980133410210918"><ele>147.0</ele><time>2026-03-29T08:08:20Z</time></trkpt><trkpt lat="42.40797127186091" lon="13.980105824914016"><ele>147.0</ele><time>2026-03-29T08:08:22Z</time></trkpt><trkpt lat="42.40804671888401" lon="13.98007945058396"><ele>147.0</ele><time>2026-03-29T08:08:24Z</time></trkpt><trkpt lat="42.40811705399427" lon="13.97989088372548"><ele>147.4</ele><time>2026-03-29T08:12:23Z</time></trkpt><trkpt lat="42.408096704473195" lon="13.979788476030132"><ele>147.79999999999998</ele><time>2026-03-29T08:12:24Z</time></trkpt><trkpt lat="42.40805591713788" lon="13.979675454077455"><ele>148.2</ele><time>2026-03-29T08:12:25Z</time></trkpt><trkpt lat="42.40801387628677" lon="13.979548446833393"><ele>148.6</ele><time>2026-03-29T08:12:26Z</time></trkpt><trkpt lat="42.407968092252695" lon="13.979398206202509"><ele>149.0</ele><time>2026-03-29T08:12:27Z</time></trkpt><trkpt lat="42.40792533863155" lon="13.979236727492296"><ele>148.66666666666666</ele><time>2026-03-29T08:12:28Z</time></trkpt><trkpt lat="42.407878071270225" lon="13.979054410600101"><ele>148.33333333333334</ele><time>2026-03-29T08:12:29Z</time></trkpt><trkpt lat="42.40782254197568" lon="13.978851497538605"><ele>148.0</ele><time>2026-03-29T08:12:30Z</time></trkpt><trkpt lat="42.407769205244655" lon="13.97864724449162"><ele>148.0</ele><time>2026-03-29T08:12:31Z</time></trkpt><trkpt lat="42.4077140535363" lon="13.978451861588482"><ele>148.0</ele><time>2026-03-29T08:12:32Z</time></trkpt><trkpt lat="42.407658333237926" lon="13.978248669634034"><ele>148.0</ele><time>2026-03-29T08:12:33Z</time></trkpt><trkpt lat="42.40759892378085" lon="13.978020294818972"><ele>148.66666666666669</ele><time>2026-03-29T08:12:34Z</time></trkpt><trkpt lat="42.40753752766332" lon="13.977780463098709"><ele>149.33333333333334</ele><time>2026-03-29T08:12:35Z</time></trkpt><trkpt lat="42.407472717744554" lon="13.977535537363822"><ele>150.0</ele><time>2026-03-29T08:12:36Z</time></trkpt><trkpt lat="42.40740782619885" lon="13.977303714292782"><ele>151.33333333333334</ele><time>2026-03-29T08:12:37Z</time></trkpt><trkpt lat="42.40734270978042" lon="13.977063074704752"><ele>152.66666666666669</ele><time>2026-03-29T08:12:38Z</time></trkpt><trkpt lat="42.40727666451052" lon="13.976820180303601"><ele>154.0</ele><time>2026-03-29T08:12:39Z</time></trkpt><trkpt lat="42.40721198962437" lon="13.976579851893884"><ele>152.33333333333334</ele><time>2026-03-29T08:12:40Z</time></trkpt><trkpt lat="42.40715062985414" lon="13.97633707118681"><ele>150.66666666666666</ele><time>2026-03-29T08:12:41Z</time></trkpt><trkpt lat="42.40708960830116" lon="13.976087345206272"><ele>149.0</ele><time>2026-03-29T08:12:42Z</time></trkpt><trkpt lat="42.40702460932143" lon="13.975837520670675"><ele>149.0</ele><time>2026-03-29T08:12:43Z</time></trkpt><trkpt lat="42.40695766425424" lon="13.97559165836104"><ele>149.0</ele><time>2026-03-29T08:12:44Z</time></trkpt><trkpt lat="42.40689415711059" lon="13.975349522928816"><ele>149.0</ele><time>2026-03-29T08:12:45Z</time></trkpt><trkpt lat="42.406827363968375" lon="13.975109145194327"><ele>149.0</ele><time>2026-03-29T08:12:46Z</time></trkpt><trkpt lat="42.406760365174584" lon="13.974866938153768"><ele>149.0</ele><time>2026-03-29T08:12:47Z</time></trkpt><trkpt lat="42.40669352610705" lon="13.974620280291322"><ele>149.0</ele><time>2026-03-29T08:12:48Z</time></trkpt><trkpt lat="42.40662548352372" lon="13.97437203375445"><ele>149.33333333333331</ele><time>2026-03-29T08:12:49Z</time></trkpt><trkpt lat="42.40654971496253" lon="13.974121994332178"><ele>149.66666666666666</ele><time>2026-03-29T08:12:50Z</time></trkpt><trkpt lat="42.406476613341226" lon="13.973873005949429"><ele>150.0</ele><time>2026-03-29T08:12:51Z</time></trkpt><trkpt lat="42.40641589647183" lon="13.973621409649256"><ele>150.0</ele><time>2026-03-29T08:12:52Z</time></trkpt><trkpt lat="42.4063595396982" lon="13.973370486872643"><ele>150.0</ele><time>2026-03-29T08:12:53Z</time></trkpt><trkpt lat="42.4062990773812" lon="13.973124397479403"><ele>150.0</ele><time>2026-03-29T08:12:54Z</time></trkpt><trkpt lat="42.406230736607256" lon="13.97288377229735"><ele>150.33333333333334</ele><time>2026-03-29T08:12:55Z</time></trkpt><trkpt lat="42.406161409684856" lon="13.972647527571617"><ele>150.66666666666669</ele><time>2026-03-29T08:12:56Z</time></trkpt><trkpt lat="42.406097967441156" lon="13.972410693143964"><ele>151.0</ele><time>2026-03-29T08:12:57Z</time></trkpt><trkpt lat="42.406038859437956" lon="13.972178649446786"><ele>151.0</ele><time>2026-03-29T08:12:58Z</time></trkpt><trkpt lat="42.40598335391954" lon="13.971945237766356"><ele>151.0</ele><time>2026-03-29T08:12:59Z</time></trkpt><trkpt lat="42.40593593367696" lon="13.97171427357871"><ele>151.0</ele><time>2026-03-29T08:13:00Z</time></trkpt><trkpt lat="42.40590537014716" lon="13.971476101362963"><ele>151.0</ele><time>2026-03-29T08:13:01Z</time></trkpt><trkpt lat="42.405899608584086" lon="13.971221822545283"><ele>151.0</ele><time>2026-03-29T08:13:02Z</time></trkpt><trkpt lat="42.40591221927419" lon="13.970969049312272"><ele>151.0</ele><time>2026-03-29T08:13:03Z</time></trkpt><trkpt lat="42.40593362721371" lon="13.970724226193575"><ele>151.0</ele><time>2026-03-29T08:13:04Z</time></trkpt><trkpt lat="42.40595997324195" lon="13.970483061011706"><ele>151.0</ele><time>2026-03-29T08:13:05Z</time></trkpt><trkpt lat="42.40597907544291" lon="13.970247890534264"><ele>151.0</ele><time>2026-03-29T08:13:06Z</time></trkpt><trkpt lat="42.40598625449229" lon="13.969997590322196"><ele>151.0</ele><time>2026-03-29T08:13:07Z</time></trkpt><trkpt lat="42.40597006350493" lon="13.969749354057265"><ele>151.0</ele><time>2026-03-29T08:13:08Z</time></trkpt><trkpt lat="42.405918448705776" lon="13.969506530940501"><ele>151.0</ele><time>2026-03-29T08:13:09Z</time></trkpt><trkpt lat="42.40583758954155" lon="13.96928626936511"><ele>150.66666666666669</ele><time>2026-03-29T08:13:10Z</time></trkpt><trkpt lat="42.40574335228593" lon="13.969097511065039"><ele>150.33333333333334</ele><time>2026-03-29T08:13:11Z</time></trkpt><trkpt lat="42.40563626869235" lon="13.968916455839038"><ele>150.0</ele><time>2026-03-29T08:13:12Z</time></trkpt><trkpt lat="42.40551792668367" lon="13.96874869908747"><ele>149.66666666666666</ele><time>2026-03-29T08:13:13Z</time></trkpt><trkpt lat="42.405382740360736" lon="13.968600245340635"><ele>149.33333333333331</ele><time>2026-03-29T08:13:14Z</time></trkpt><trkpt lat="42.40523928923759" lon="13.968468596497145"><ele>149.0</ele><time>2026-03-29T08:13:15Z</time></trkpt><trkpt lat="42.405091373754544" lon="13.968350504153774"><ele>149.0</ele><time>2026-03-29T08:13:16Z</time></trkpt><trkpt lat="42.40493774264167" lon="13.968240273850741"><ele>149.0</ele><time>2026-03-29T08:13:17Z</time></trkpt><trkpt lat="42.40478894584601" lon="13.96812688456435"><ele>149.0</ele><time>2026-03-29T08:13:18Z</time></trkpt><trkpt lat="42.40463976686834" lon="13.968001575860098"><ele>149.33333333333331</ele><time>2026-03-29T08:13:19Z</time></trkpt><trkpt lat="42.40448874096244" lon="13.967887907031772"><ele>149.66666666666666</ele><time>2026-03-29T08:13:20Z</time></trkpt><trkpt lat="42.404336266463595" lon="13.967769548035886"><ele>150.0</ele><time>2026-03-29T08:13:21Z</time></trkpt><trkpt lat="42.404185806784426" lon="13.967648959090404"><ele>150.0</ele><time>2026-03-29T08:13:22Z</time></trkpt><trkpt lat="42.40403755992197" lon="13.967532071921159"><ele>150.0</ele><time>2026-03-29T08:13:23Z</time></trkpt><trkpt lat="42.4038827003338" lon="13.967411651828927"><ele>150.0</ele><time>2026-03-29T08:13:24Z</time></trkpt><trkpt lat="42.403728000711496" lon="13.967288004129806"><ele>151.0</ele><time>2026-03-29T08:13:25Z</time></trkpt><trkpt lat="42.40357242982237" lon="13.967166554844471"><ele>152.0</ele><time>2026-03-29T08:13:26Z</time></trkpt><trkpt lat="42.403418633031315" lon="13.967045831212753"><ele>153.0</ele><time>2026-03-29T08:13:27Z</time></trkpt><trkpt lat="42.40326265735783" lon="13.966924240722408"><ele>153.0</ele><time>2026-03-29T08:13:28Z</time></trkpt><trkpt lat="42.40310713830958" lon="13.966805092531676"><ele>153.0</ele><time>2026-03-29T08:13:29Z</time></trkpt><trkpt lat="42.402950984933256" lon="13.966684942856615"><ele>153.0</ele><time>2026-03-29T08:13:30Z</time></trkpt><trkpt lat="42.402795562930216" lon="13.966562798572449"><ele>154.33333333333334</ele><time>2026-03-29T08:13:31Z</time></trkpt><trkpt lat="42.402643339367486" lon="13.966434843689733"><ele>155.66666666666669</ele><time>2026-03-29T08:13:32Z</time></trkpt><trkpt lat="42.402494408692775" lon="13.966301070645724"><ele>157.0</ele><time>2026-03-29T08:13:33Z</time></trkpt><trkpt lat="42.40235132067285" lon="13.966160119714958"><ele>157.0</ele><time>2026-03-29T08:13:34Z</time></trkpt><trkpt lat="42.402214652970656" lon="13.966011867683482"><ele>157.0</ele><time>2026-03-29T08:13:35Z</time></trkpt><trkpt lat="42.40207888460276" lon="13.965857330179729"><ele>157.0</ele><time>2026-03-29T08:13:36Z</time></trkpt><trkpt lat="42.40194283135973" lon="13.965704285273388"><ele>158.66666666666669</ele><time>2026-03-29T08:13:37Z</time></trkpt><trkpt lat="42.40180693350594" lon="13.965558687113203"><ele>160.33333333333334</ele><time>2026-03-29T08:13:38Z</time></trkpt><trkpt lat="42.4016795928836" lon="13.965410642693834"><ele>162.0</ele><time>2026-03-29T08:13:39Z</time></trkpt><trkpt lat="42.401570280026675" lon="13.965254328586752"><ele>162.0</ele><time>2026-03-29T08:13:40Z</time></trkpt><trkpt lat="42.40147953222972" lon="13.965078984830713"><ele>162.0</ele><time>2026-03-29T08:13:41Z</time></trkpt><trkpt lat="42.401418875731196" lon="13.964878784540069"><ele>162.0</ele><time>2026-03-29T08:13:42Z</time></trkpt><trkpt lat="42.40140529712759" lon="13.964650615714605"><ele>161.66666666666666</ele><time>2026-03-29T08:13:43Z</time></trkpt><trkpt lat="42.40142799726392" lon="13.964419061920703"><ele>161.33333333333331</ele><time>2026-03-29T08:13:44Z</time></trkpt><trkpt lat="42.40147316994831" lon="13.964194454647764"><ele>161.0</ele><time>2026-03-29T08:13:45Z</time></trkpt><trkpt lat="42.40152533136108" lon="13.963995513719262"><ele>162.20000000000002</ele><time>2026-03-29T08:13:46Z</time></trkpt><trkpt lat="42.40156438241142" lon="13.96381998483271"><ele>163.4</ele><time>2026-03-29T08:13:47Z</time></trkpt><trkpt lat="42.401588544601616" lon="13.96366661391067"><ele>164.6</ele><time>2026-03-29T08:13:48Z</time></trkpt><trkpt lat="42.401609043629044" lon="13.963529062034132"><ele>165.8</ele><time>2026-03-29T08:13:49Z</time></trkpt><trkpt lat="42.40163174867052" lon="13.963409105020565"><ele>167.0</ele><time>2026-03-29T08:13:50Z</time></trkpt><trkpt lat="42.40165438124701" lon="13.963313856569437"><ele>168.16666666666666</ele><time>2026-03-29T08:13:51Z</time></trkpt><trkpt lat="42.401671336180726" lon="13.963225813538642"><ele>169.33333333333331</ele><time>2026-03-29T08:13:52Z</time></trkpt><trkpt lat="42.401692439579435" lon="13.963105148707808"><ele>170.5</ele><time>2026-03-29T08:13:54Z</time></trkpt><trkpt lat="42.40170266456174" lon="13.962954656072279"><ele>171.66666666666666</ele><time>2026-03-29T08:14:11Z</time></trkpt><trkpt lat="42.40170537317189" lon="13.962851708746491"><ele>172.83333333333334</ele><time>2026-03-29T08:14:12Z</time></trkpt><trkpt lat="42.40171752588314" lon="13.962755378524227"><ele>174.0</ele><time>2026-03-29T08:14:13Z</time></trkpt><trkpt lat="42.40172222816639" lon="13.96264077605017"><ele>174.75</ele><time>2026-03-29T08:14:14Z</time></trkpt><trkpt lat="42.40170500907084" lon="13.962493938787857"><ele>175.5</ele><time>2026-03-29T08:14:15Z</time></trkpt><trkpt lat="42.40166324272847" lon="13.962339471496492"><ele>176.25</ele><time>2026-03-29T08:14:16Z</time></trkpt><trkpt lat="42.401615858931024" lon="13.962198169563337"><ele>177.0</ele><time>2026-03-29T08:14:17Z</time></trkpt><trkpt lat="42.40156115128863" lon="13.962043976911945"><ele>177.0</ele><time>2026-03-29T08:14:18Z</time></trkpt><trkpt lat="42.40149927991221" lon="13.961869253450626"><ele>177.0</ele><time>2026-03-29T08:14:19Z</time></trkpt><trkpt lat="42.40144020771625" lon="13.961689629866333"><ele>177.0</ele><time>2026-03-29T08:14:20Z</time></trkpt><trkpt lat="42.401379739842454" lon="13.961506197047175"><ele>177.0</ele><time>2026-03-29T08:14:21Z</time></trkpt><trkpt lat="42.40130993187127" lon="13.961294101393399"><ele>178.33333333333334</ele><time>2026-03-29T08:14:22Z</time></trkpt><trkpt lat="42.4012234123118" lon="13.961041019837046"><ele>179.66666666666669</ele><time>2026-03-29T08:14:23Z</time></trkpt><trkpt lat="42.40114432484944" lon="13.960787275390151"><ele>181.0</ele><time>2026-03-29T08:14:24Z</time></trkpt><trkpt lat="42.401065425824285" lon="13.960539146867314"><ele>181.0</ele><time>2026-03-29T08:14:25Z</time></trkpt><trkpt lat="42.40098557367828" lon="13.960305004993899"><ele>181.0</ele><time>2026-03-29T08:14:26Z</time></trkpt><trkpt lat="42.40090831141766" lon="13.960075846484589"><ele>181.0</ele><time>2026-03-29T08:14:27Z</time></trkpt><trkpt lat="42.400839926158945" lon="13.95987510853461"><ele>181.0</ele><time>2026-03-29T08:14:28Z</time></trkpt><trkpt lat="42.40078417985924" lon="13.95970028322328"><ele>181.0</ele><time>2026-03-29T08:14:29Z</time></trkpt><trkpt lat="42.40072932842783" lon="13.95951786711156"><ele>181.0</ele><time>2026-03-29T08:14:30Z</time></trkpt><trkpt lat="42.40067186076961" lon="13.959336420594662"><ele>181.0</ele><time>2026-03-29T08:14:31Z</time></trkpt><trkpt lat="42.40061871903165" lon="13.959175499878299"><ele>181.20000000000002</ele><time>2026-03-29T08:14:32Z</time></trkpt><trkpt lat="42.400575388922526" lon="13.959033043321805"><ele>181.4</ele><time>2026-03-29T08:14:33Z</time></trkpt><trkpt lat="42.400540788630494" lon="13.95888803149282"><ele>181.6</ele><time>2026-03-29T08:14:34Z</time></trkpt><trkpt lat="42.40053044604574" lon="13.958762662886935"><ele>181.8</ele><time>2026-03-29T08:14:35Z</time></trkpt><trkpt lat="42.40050124084485" lon="13.95867108877859"><ele>182.0</ele><time>2026-03-29T08:14:36Z</time></trkpt><trkpt lat="42.40058249242145" lon="13.958505996831017"><ele>181.66666666666666</ele><time>2026-03-29T08:14:37Z</time></trkpt><trkpt lat="42.40065904062724" lon="13.958338533086229"><ele>181.33333333333334</ele><time>2026-03-29T08:14:38Z</time></trkpt><trkpt lat="42.40073907162123" lon="13.958194838550572"><ele>181.0</ele><time>2026-03-29T08:14:39Z</time></trkpt><trkpt lat="42.40085799462777" lon="13.957984156900583"><ele>181.0</ele><time>2026-03-29T08:14:40Z</time></trkpt><trkpt lat="42.40096155298012" lon="13.957790770522296"><ele>181.0</ele><time>2026-03-29T08:14:41Z</time></trkpt><trkpt lat="42.401070334180645" lon="13.957595680519487"><ele>181.0</ele><time>2026-03-29T08:14:42Z</time></trkpt><trkpt lat="42.40118095440584" lon="13.957400771673706"><ele>179.66666666666669</ele><time>2026-03-29T08:14:43Z</time></trkpt><trkpt lat="42.4012836768103" lon="13.95721441327088"><ele>178.33333333333334</ele><time>2026-03-29T08:14:44Z</time></trkpt><trkpt lat="42.40138228477303" lon="13.9570292111603"><ele>177.0</ele><time>2026-03-29T08:14:45Z</time></trkpt><trkpt lat="42.40148772677106" lon="13.95683525049694"><ele>176.33333333333334</ele><time>2026-03-29T08:14:46Z</time></trkpt><trkpt lat="42.4015964248698" lon="13.95663807286255"><ele>175.66666666666669</ele><time>2026-03-29T08:14:47Z</time></trkpt><trkpt lat="42.40171262255276" lon="13.956429442610881"><ele>175.0</ele><time>2026-03-29T08:14:48Z</time></trkpt><trkpt lat="42.401819731433385" lon="13.956236932500188"><ele>175.0</ele><time>2026-03-29T08:14:49Z</time></trkpt><trkpt lat="42.40192773647895" lon="13.956048268679824"><ele>175.0</ele><time>2026-03-29T08:14:50Z</time></trkpt><trkpt lat="42.40203745860793" lon="13.95585480406741"><ele>175.0</ele><time>2026-03-29T08:14:51Z</time></trkpt><trkpt lat="42.40214771104905" lon="13.955654074355007"><ele>177.66666666666669</ele><time>2026-03-29T08:14:52Z</time></trkpt><trkpt lat="42.402262218488985" lon="13.955448150823626"><ele>180.33333333333334</ele><time>2026-03-29T08:14:53Z</time></trkpt><trkpt lat="42.40237263038778" lon="13.955251432925674"><ele>183.0</ele><time>2026-03-29T08:14:54Z</time></trkpt><trkpt lat="42.40248376059669" lon="13.95505741170996"><ele>184.66666666666666</ele><time>2026-03-29T08:14:55Z</time></trkpt><trkpt lat="42.40259265547804" lon="13.95486874028137"><ele>186.33333333333331</ele><time>2026-03-29T08:14:56Z</time></trkpt><trkpt lat="42.40269528426725" lon="13.954678969861595"><ele>188.0</ele><time>2026-03-29T08:14:57Z</time></trkpt><trkpt lat="42.40280358530108" lon="13.95449124815583"><ele>188.0</ele><time>2026-03-29T08:14:58Z</time></trkpt><trkpt lat="42.40290847062942" lon="13.954294334655167"><ele>188.0</ele><time>2026-03-29T08:14:59Z</time></trkpt><trkpt lat="42.40301376940476" lon="13.954094053032357"><ele>188.0</ele><time>2026-03-29T08:15:00Z</time></trkpt><trkpt lat="42.40312776916217" lon="13.95389186527915"><ele>187.66666666666666</ele><time>2026-03-29T08:15:01Z</time></trkpt><trkpt lat="42.403246835430245" lon="13.95367812045334"><ele>187.33333333333334</ele><time>2026-03-29T08:15:02Z</time></trkpt><trkpt lat="42.40336534153617" lon="13.953463398186976"><ele>187.0</ele><time>2026-03-29T08:15:03Z</time></trkpt><trkpt lat="42.40348236347269" lon="13.953253691206642"><ele>187.0</ele><time>2026-03-29T08:15:04Z</time></trkpt><trkpt lat="42.40359392047042" lon="13.953046710256348"><ele>187.0</ele><time>2026-03-29T08:15:05Z</time></trkpt><trkpt lat="42.40370898433076" lon="13.952839816771235"><ele>187.0</ele><time>2026-03-29T08:15:06Z</time></trkpt><trkpt lat="42.40381869559488" lon="13.952638330674192"><ele>186.33333333333334</ele><time>2026-03-29T08:15:07Z</time></trkpt><trkpt lat="42.403920663449156" lon="13.952454042028602"><ele>185.66666666666666</ele><time>2026-03-29T08:15:08Z</time></trkpt><trkpt lat="42.404032448906435" lon="13.952254905414902"><ele>185.0</ele><time>2026-03-29T08:15:09Z</time></trkpt><trkpt lat="42.40414488829346" lon="13.952052270109595"><ele>185.0</ele><time>2026-03-29T08:15:10Z</time></trkpt><trkpt lat="42.40425477490129" lon="13.951852214286115"><ele>185.0</ele><time>2026-03-29T08:15:11Z</time></trkpt><trkpt lat="42.404360635688604" lon="13.95165724136208"><ele>185.0</ele><time>2026-03-29T08:15:12Z</time></trkpt><trkpt lat="42.40446644954059" lon="13.951465840701085"><ele>185.66666666666666</ele><time>2026-03-29T08:15:13Z</time></trkpt><trkpt lat="42.404569170541514" lon="13.951273648330012"><ele>186.33333333333334</ele><time>2026-03-29T08:15:14Z</time></trkpt><trkpt lat="42.40467797620536" lon="13.951077559478689"><ele>187.0</ele><time>2026-03-29T08:15:15Z</time></trkpt><trkpt lat="42.40479171321701" lon="13.950871775040776"><ele>188.0</ele><time>2026-03-29T08:15:16Z</time></trkpt><trkpt lat="42.40490868837296" lon="13.950651664098864"><ele>189.0</ele><time>2026-03-29T08:15:17Z</time></trkpt><trkpt lat="42.40502809314315" lon="13.950418318459572"><ele>190.0</ele><time>2026-03-29T08:15:18Z</time></trkpt><trkpt lat="42.405148773341196" lon="13.95017827652704"><ele>190.66666666666669</ele><time>2026-03-29T08:15:19Z</time></trkpt><trkpt lat="42.405285530210286" lon="13.94996339414423"><ele>191.33333333333334</ele><time>2026-03-29T08:15:20Z</time></trkpt><trkpt lat="42.40538275967176" lon="13.949749665467504"><ele>192.0</ele><time>2026-03-29T08:15:21Z</time></trkpt><trkpt lat="42.405481354154546" lon="13.949580731102524"><ele>192.66666666666669</ele><time>2026-03-29T08:15:22Z</time></trkpt><trkpt lat="42.4055778714643" lon="13.949408447837216"><ele>193.33333333333334</ele><time>2026-03-29T08:15:23Z</time></trkpt><trkpt lat="42.40567167410532" lon="13.949230190687967"><ele>194.0</ele><time>2026-03-29T08:15:24Z</time></trkpt><trkpt lat="42.40577539895299" lon="13.94905685697427"><ele>194.0</ele><time>2026-03-29T08:15:25Z</time></trkpt><trkpt lat="42.40586243597937" lon="13.94888962774253"><ele>194.0</ele><time>2026-03-29T08:15:26Z</time></trkpt><trkpt lat="42.40594362191648" lon="13.948739338287695"><ele>194.0</ele><time>2026-03-29T08:15:27Z</time></trkpt><trkpt lat="42.40602367153824" lon="13.948598551835504"><ele>194.0</ele><time>2026-03-29T08:15:28Z</time></trkpt><trkpt lat="42.40610481013831" lon="13.948453411652064"><ele>194.0</ele><time>2026-03-29T08:15:29Z</time></trkpt><trkpt lat="42.40619247261338" lon="13.948297680301174"><ele>194.0</ele><time>2026-03-29T08:15:30Z</time></trkpt><trkpt lat="42.40627682957103" lon="13.948151113542927"><ele>194.0</ele><time>2026-03-29T08:15:31Z</time></trkpt><trkpt lat="42.40635791672768" lon="13.948006808623079"><ele>194.0</ele><time>2026-03-29T08:15:32Z</time></trkpt><trkpt lat="42.40645278277851" lon="13.947859342644026"><ele>194.0</ele><time>2026-03-29T08:15:33Z</time></trkpt><trkpt lat="42.406578254628336" lon="13.947714943722719"><ele>194.0</ele><time>2026-03-29T08:15:34Z</time></trkpt><trkpt lat="42.406722284688286" lon="13.94751906289521"><ele>194.0</ele><time>2026-03-29T08:15:35Z</time></trkpt><trkpt lat="42.40688829815395" lon="13.94729427317982"><ele>195.0</ele><time>2026-03-29T08:15:36Z</time></trkpt><trkpt lat="42.40705376077779" lon="13.94707137947411"><ele>196.0</ele><time>2026-03-29T08:15:37Z</time></trkpt><trkpt lat="42.40721232128707" lon="13.946831524688958"><ele>193.0</ele><time>2026-03-29T08:15:38Z</time></trkpt><trkpt lat="42.407386388896526" lon="13.946630800179184"><ele>190.0</ele><time>2026-03-29T08:15:39Z</time></trkpt><trkpt lat="42.40753208489802" lon="13.94644480664604"><ele>187.0</ele><time>2026-03-29T08:15:40Z</time></trkpt><trkpt lat="42.40767464819974" lon="13.946240692121597"><ele>187.0</ele><time>2026-03-29T08:15:41Z</time></trkpt><trkpt lat="42.40782367821481" lon="13.94603800210531"><ele>187.0</ele><time>2026-03-29T08:15:42Z</time></trkpt><trkpt lat="42.40797676499444" lon="13.945833804026435"><ele>187.0</ele><time>2026-03-29T08:15:43Z</time></trkpt><trkpt lat="42.40812502915465" lon="13.945631228784146"><ele>187.0</ele><time>2026-03-29T08:15:44Z</time></trkpt><trkpt lat="42.408273169145566" lon="13.945431226647074"><ele>187.0</ele><time>2026-03-29T08:15:45Z</time></trkpt><trkpt lat="42.4084114257072" lon="13.945237460858685"><ele>187.0</ele><time>2026-03-29T08:15:46Z</time></trkpt><trkpt lat="42.408539155321336" lon="13.945066312239822"><ele>188.0</ele><time>2026-03-29T08:15:47Z</time></trkpt><trkpt lat="42.408647693538676" lon="13.944920886982638"><ele>189.0</ele><time>2026-03-29T08:15:48Z</time></trkpt><trkpt lat="42.408746320262914" lon="13.944787508877184"><ele>190.0</ele><time>2026-03-29T08:15:49Z</time></trkpt><trkpt lat="42.408843038773696" lon="13.944654824194462"><ele>191.0</ele><time>2026-03-29T08:15:50Z</time></trkpt><trkpt lat="42.40893318102881" lon="13.944520174460799"><ele>193.0</ele><time>2026-03-29T08:15:51Z</time></trkpt><trkpt lat="42.40902385388429" lon="13.944374134916643"><ele>195.0</ele><time>2026-03-29T08:15:52Z</time></trkpt><trkpt lat="42.40911224289143" lon="13.944196398933489"><ele>197.0</ele><time>2026-03-29T08:15:53Z</time></trkpt><trkpt lat="42.40919334318023" lon="13.943979086487795"><ele>198.0</ele><time>2026-03-29T08:15:54Z</time></trkpt><trkpt lat="42.40927140395093" lon="13.943722683594588"><ele>199.0</ele><time>2026-03-29T08:15:55Z</time></trkpt><trkpt lat="42.409380864020164" lon="13.943448977534143"><ele>200.0</ele><time>2026-03-29T08:15:56Z</time></trkpt><trkpt lat="42.409479647647906" lon="13.943131524554751"><ele>200.0</ele><time>2026-03-29T08:15:57Z</time></trkpt><trkpt lat="42.409592238986455" lon="13.94287455847031"><ele>200.0</ele><time>2026-03-29T08:15:58Z</time></trkpt><trkpt lat="42.40967618328375" lon="13.942666427127845"><ele>200.0</ele><time>2026-03-29T08:15:59Z</time></trkpt><trkpt lat="42.40974068336864" lon="13.942492283416858"><ele>200.25</ele><time>2026-03-29T08:16:00Z</time></trkpt><trkpt lat="42.409805071050805" lon="13.942323052229604"><ele>200.5</ele><time>2026-03-29T08:16:01Z</time></trkpt><trkpt lat="42.409873227758375" lon="13.942140609879965"><ele>200.75</ele><time>2026-03-29T08:16:02Z</time></trkpt><trkpt lat="42.40993120483649" lon="13.941979797880713"><ele>201.0</ele><time>2026-03-29T08:16:03Z</time></trkpt><trkpt lat="42.40998008542996" lon="13.9418467280314"><ele>201.0</ele><time>2026-03-29T08:16:04Z</time></trkpt><trkpt lat="42.41002615228324" lon="13.941730846833645"><ele>201.0</ele><time>2026-03-29T08:16:05Z</time></trkpt><trkpt lat="42.41006465788483" lon="13.941640591152414"><ele>201.0</ele><time>2026-03-29T08:16:06Z</time></trkpt><trkpt lat="42.410130245965306" lon="13.941558591990102"><ele>201.0</ele><time>2026-03-29T08:16:08Z</time></trkpt><trkpt lat="42.410286746937636" lon="13.941672924320196"><ele>201.0</ele><time>2026-03-29T08:16:10Z</time></trkpt><trkpt lat="42.41041664688829" lon="13.941720887812055"><ele>200.8</ele><time>2026-03-29T08:16:11Z</time></trkpt><trkpt lat="42.41053851368082" lon="13.941765870502222"><ele>200.60000000000002</ele><time>2026-03-29T08:16:12Z</time></trkpt><trkpt lat="42.41063491806394" lon="13.941799251484236"><ele>200.4</ele><time>2026-03-29T08:16:13Z</time></trkpt><trkpt lat="42.41073282621864" lon="13.941832600564526"><ele>200.2</ele><time>2026-03-29T08:16:14Z</time></trkpt><trkpt lat="42.410829276863474" lon="13.941863833200546"><ele>200.0</ele><time>2026-03-29T08:16:15Z</time></trkpt><trkpt lat="42.41091014374155" lon="13.94189001958834"><ele>200.00000000000003</ele><time>2026-03-29T08:16:16Z</time></trkpt><trkpt lat="42.41103666418751" lon="13.941928929885997"><ele>200.0</ele><time>2026-03-29T08:16:18Z</time></trkpt><trkpt lat="42.41111172501742" lon="13.941921434152222"><ele>200.0</ele><time>2026-03-29T08:16:19Z</time></trkpt><trkpt lat="42.411176805917385" lon="13.941943687760507"><ele>200.0</ele><time>2026-03-29T08:16:20Z</time></trkpt><trkpt lat="42.41123923466478" lon="13.941962169969303"><ele>200.00000000000003</ele><time>2026-03-29T08:16:21Z</time></trkpt><trkpt lat="42.41130172483794" lon="13.941973236704001"><ele>200.0</ele><time>2026-03-29T08:16:22Z</time></trkpt><trkpt lat="42.41140531811277" lon="13.942009306482502"><ele>199.50000000000003</ele><time>2026-03-29T08:16:24Z</time></trkpt><trkpt lat="42.41152719051437" lon="13.942036254577847"><ele>199.0</ele><time>2026-03-29T08:16:26Z</time></trkpt><trkpt lat="42.411590638952326" lon="13.942052269113818"><ele>198.5</ele><time>2026-03-29T08:16:27Z</time></trkpt><trkpt lat="42.411653713784204" lon="13.942073139924982"><ele>198.0</ele><time>2026-03-29T08:16:28Z</time></trkpt><trkpt lat="42.411740512513894" lon="13.942090468583727"><ele>197.50000000000003</ele><time>2026-03-29T08:16:30Z</time></trkpt><trkpt lat="42.41181065128482" lon="13.942102479506884"><ele>197.0</ele><time>2026-03-29T08:16:36Z</time></trkpt><trkpt lat="42.411885733861105" lon="13.942127722188202"><ele>197.0</ele><time>2026-03-29T08:16:38Z</time></trkpt><trkpt lat="42.411980695906564" lon="13.942190905867639"><ele>197.0</ele><time>2026-03-29T08:16:40Z</time></trkpt><trkpt lat="42.412075566168234" lon="13.942270254250941"><ele>197.0</ele><time>2026-03-29T08:16:42Z</time></trkpt><trkpt lat="42.41225594962569" lon="13.942281639707351"><ele>197.0</ele><time>2026-03-29T08:16:44Z</time></trkpt><trkpt lat="42.412338345297115" lon="13.942299679369995"><ele>196.50000000000003</ele><time>2026-03-29T08:16:45Z</time></trkpt><trkpt lat="42.41241034205987" lon="13.942336620357763"><ele>196.0</ele><time>2026-03-29T08:16:46Z</time></trkpt><trkpt lat="42.412458449602546" lon="13.942401054410754"><ele>195.5</ele><time>2026-03-29T08:16:47Z</time></trkpt><trkpt lat="42.41250528361469" lon="13.942481199208872"><ele>195.0</ele><time>2026-03-29T08:16:48Z</time></trkpt><trkpt lat="42.4125483940206" lon="13.942575902660414"><ele>194.50000000000003</ele><time>2026-03-29T08:16:49Z</time></trkpt><trkpt lat="42.41256889916739" lon="13.942699710379374"><ele>194.0</ele><time>2026-03-29T08:16:50Z</time></trkpt><trkpt lat="42.41257559742906" lon="13.942845832556186"><ele>190.25</ele><time>2026-03-29T08:16:51Z</time></trkpt><trkpt lat="42.41259762187088" lon="13.943001786035035"><ele>186.5</ele><time>2026-03-29T08:16:52Z</time></trkpt><trkpt lat="42.41263682396739" lon="13.943153354767942"><ele>182.75</ele><time>2026-03-29T08:16:53Z</time></trkpt><trkpt lat="42.41268413386427" lon="13.943290252230561"><ele>179.0</ele><time>2026-03-29T08:16:54Z</time></trkpt><trkpt lat="42.41272454396216" lon="13.943419120375632"><ele>177.6</ele><time>2026-03-29T08:16:55Z</time></trkpt><trkpt lat="42.41274877624821" lon="13.943520044805782"><ele>176.2</ele><time>2026-03-29T08:16:56Z</time></trkpt><trkpt lat="42.41277202033322" lon="13.94362557188312"><ele>174.79999999999998</ele><time>2026-03-29T08:16:57Z</time></trkpt><trkpt lat="42.41278576614796" lon="13.943785340421785"><ele>173.39999999999998</ele><time>2026-03-29T08:16:59Z</time></trkpt><trkpt lat="42.41282461342514" lon="13.943924745691113"><ele>172.0</ele><time>2026-03-29T08:17:01Z</time></trkpt><trkpt lat="42.41292527479489" lon="13.944001768844114"><ele>172.00000000000003</ele><time>2026-03-29T08:17:03Z</time></trkpt><trkpt lat="42.413009254019" lon="13.94403799618411"><ele>172.0</ele><time>2026-03-29T08:17:04Z</time></trkpt><trkpt lat="42.413086442315794" lon="13.94406156740694"><ele>172.0</ele><time>2026-03-29T08:17:05Z</time></trkpt><trkpt lat="42.41315258699294" lon="13.944083939393613"><ele>172.0</ele><time>2026-03-29T08:17:06Z</time></trkpt><trkpt lat="42.41321006712798" lon="13.944122372992673"><ele>172.0</ele><time>2026-03-29T08:17:07Z</time></trkpt><trkpt lat="42.41326617768567" lon="13.944173516123708"><ele>172.00000000000003</ele><time>2026-03-29T08:17:08Z</time></trkpt><trkpt lat="42.41331745020908" lon="13.944224093987012"><ele>172.0</ele><time>2026-03-29T08:17:09Z</time></trkpt><trkpt lat="42.41344451410307" lon="13.944212961762018"><ele>172.0</ele><time>2026-03-29T08:17:11Z</time></trkpt><trkpt lat="42.413533077823914" lon="13.944198193099258"><ele>172.0</ele><time>2026-03-29T08:17:12Z</time></trkpt><trkpt lat="42.41361583862968" lon="13.944206410722442"><ele>172.0</ele><time>2026-03-29T08:17:13Z</time></trkpt><trkpt lat="42.41369987058951" lon="13.944213352107345"><ele>172.0</ele><time>2026-03-29T08:17:14Z</time></trkpt><trkpt lat="42.41380204400539" lon="13.944224556016444"><ele>172.0</ele><time>2026-03-29T08:17:15Z</time></trkpt><trkpt lat="42.413920609929285" lon="13.944214253328132"><ele>171.75</ele><time>2026-03-29T08:17:16Z</time></trkpt><trkpt lat="42.414030922710296" lon="13.944196644411885"><ele>171.5</ele><time>2026-03-29T08:17:17Z</time></trkpt><trkpt lat="42.41413942611639" lon="13.944199096688383"><ele>171.25</ele><time>2026-03-29T08:17:18Z</time></trkpt><trkpt lat="42.41424922706915" lon="13.944177208854088"><ele>171.0</ele><time>2026-03-29T08:17:19Z</time></trkpt><trkpt lat="42.414363233233004" lon="13.944129372311718"><ele>171.0</ele><time>2026-03-29T08:17:20Z</time></trkpt><trkpt lat="42.414464720922446" lon="13.944068801842876"><ele>171.0</ele><time>2026-03-29T08:17:21Z</time></trkpt><trkpt lat="42.4145542209075" lon="13.944013771666883"><ele>171.0</ele><time>2026-03-29T08:17:22Z</time></trkpt><trkpt lat="42.41465375286184" lon="13.943943378274083"><ele>171.0</ele><time>2026-03-29T08:17:23Z</time></trkpt><trkpt lat="42.414766149784" lon="13.943868518381752"><ele>171.0</ele><time>2026-03-29T08:17:24Z</time></trkpt><trkpt lat="42.41487391296874" lon="13.94380163577966"><ele>171.20000000000002</ele><time>2026-03-29T08:17:25Z</time></trkpt><trkpt lat="42.41499079835688" lon="13.943738069770744"><ele>171.4</ele><time>2026-03-29T08:17:26Z</time></trkpt><trkpt lat="42.415106387783474" lon="13.943680654425222"><ele>171.6</ele><time>2026-03-29T08:17:27Z</time></trkpt><trkpt lat="42.415178205388536" lon="13.943632346230183"><ele>171.8</ele><time>2026-03-29T08:17:28Z</time></trkpt><trkpt lat="42.415224613918625" lon="13.943560046345437"><ele>172.0</ele><time>2026-03-29T08:17:29Z</time></trkpt><trkpt lat="42.41513871936335" lon="13.943383816865948"><ele>172.39999999999998</ele><time>2026-03-29T08:17:31Z</time></trkpt><trkpt lat="42.415063935442184" lon="13.943272689683765"><ele>172.79999999999998</ele><time>2026-03-29T08:17:32Z</time></trkpt><trkpt lat="42.415028817957555" lon="13.943162382397801"><ele>173.2</ele><time>2026-03-29T08:17:33Z</time></trkpt><trkpt lat="42.41503252915657" lon="13.943038188391496"><ele>173.6</ele><time>2026-03-29T08:17:34Z</time></trkpt><trkpt lat="42.41506393713139" lon="13.942892052059195"><ele>174.0</ele><time>2026-03-29T08:17:35Z</time></trkpt><trkpt lat="42.41511336873863" lon="13.942784674912811"><ele>174.0</ele><time>2026-03-29T08:17:36Z</time></trkpt><trkpt lat="42.415164810645045" lon="13.942720054881251"><ele>174.0</ele><time>2026-03-29T08:17:37Z</time></trkpt><trkpt lat="42.41521623821395" lon="13.942784624993902"><ele>174.0</ele><time>2026-03-29T08:17:41Z</time></trkpt><trkpt lat="42.41520690567133" lon="13.94290106761385"><ele>174.0</ele><time>2026-03-29T08:17:43Z</time></trkpt><trkpt lat="42.41511825721116" lon="13.943055884435271"><ele>174.0</ele><time>2026-03-29T08:17:45Z</time></trkpt><trkpt lat="42.41510913352654" lon="13.94317243808787"><ele>174.0</ele><time>2026-03-29T08:17:46Z</time></trkpt><trkpt lat="42.41513782483997" lon="13.94332957126234"><ele>174.0</ele><time>2026-03-29T08:17:47Z</time></trkpt><trkpt lat="42.41520860993193" lon="13.943476037737618"><ele>174.0</ele><time>2026-03-29T08:17:48Z</time></trkpt><trkpt lat="42.415267789328695" lon="13.943547298608538"><ele>174.0</ele><time>2026-03-29T08:17:49Z</time></trkpt><trkpt lat="42.415337237819095" lon="13.943661402574275"><ele>174.0</ele><time>2026-03-29T08:17:50Z</time></trkpt><trkpt lat="42.41540813143938" lon="13.943796934669631"><ele>174.25</ele><time>2026-03-29T08:17:51Z</time></trkpt><trkpt lat="42.41548553088174" lon="13.94393607562346"><ele>174.5</ele><time>2026-03-29T08:17:52Z</time></trkpt><trkpt lat="42.41556134994801" lon="13.94408379597863"><ele>174.75</ele><time>2026-03-29T08:17:53Z</time></trkpt><trkpt lat="42.41562955639783" lon="13.944215215139304"><ele>175.0</ele><time>2026-03-29T08:17:54Z</time></trkpt><trkpt lat="42.415685962480644" lon="13.94432352334258"><ele>176.0</ele><time>2026-03-29T08:17:55Z</time></trkpt><trkpt lat="42.4157143207216" lon="13.944458907007347"><ele>177.0</ele><time>2026-03-29T08:17:56Z</time></trkpt><trkpt lat="42.41569706749818" lon="13.94460759957233"><ele>178.0</ele><time>2026-03-29T08:17:57Z</time></trkpt><trkpt lat="42.41564536374805" lon="13.944728294163129"><ele>179.0</ele><time>2026-03-29T08:17:58Z</time></trkpt><trkpt lat="42.41556935538075" lon="13.944823994970768"><ele>180.0</ele><time>2026-03-29T08:17:59Z</time></trkpt><trkpt lat="42.41549107767046" lon="13.944908801934943"><ele>180.33333333333334</ele><time>2026-03-29T08:18:00Z</time></trkpt><trkpt lat="42.41544386712483" lon="13.944991575507077"><ele>180.66666666666666</ele><time>2026-03-29T08:18:01Z</time></trkpt><trkpt lat="42.41543802967755" lon="13.94509758446938"><ele>181.0</ele><time>2026-03-29T08:18:02Z</time></trkpt><trkpt lat="42.415459259756844" lon="13.945191251319004"><ele>181.33333333333331</ele><time>2026-03-29T08:18:03Z</time></trkpt><trkpt lat="42.415489177239046" lon="13.945275839596686"><ele>181.66666666666666</ele><time>2026-03-29T08:18:04Z</time></trkpt><trkpt lat="42.4155382888556" lon="13.945346135749357"><ele>182.0</ele><time>2026-03-29T08:18:05Z</time></trkpt><trkpt lat="42.41560586253866" lon="13.945414885068171"><ele>182.0</ele><time>2026-03-29T08:18:06Z</time></trkpt><trkpt lat="42.41570310951892" lon="13.945495266717222"><ele>182.0</ele><time>2026-03-29T08:18:07Z</time></trkpt><trkpt lat="42.415818944034655" lon="13.945596713130687"><ele>182.0</ele><time>2026-03-29T08:18:08Z</time></trkpt><trkpt lat="42.415935918552165" lon="13.945699019494294"><ele>182.0</ele><time>2026-03-29T08:18:09Z</time></trkpt><trkpt lat="42.41603969330473" lon="13.945793560629495"><ele>183.39999999999998</ele><time>2026-03-29T08:18:10Z</time></trkpt><trkpt lat="42.41610377836776" lon="13.945904354780957"><ele>184.79999999999998</ele><time>2026-03-29T08:18:11Z</time></trkpt><trkpt lat="42.41613646873619" lon="13.94603215568939"><ele>186.2</ele><time>2026-03-29T08:18:12Z</time></trkpt><trkpt lat="42.41612528853682" lon="13.946147180122313"><ele>187.6</ele><time>2026-03-29T08:18:13Z</time></trkpt><trkpt lat="42.416077185516485" lon="13.946306231566837"><ele>189.0</ele><time>2026-03-29T08:18:14Z</time></trkpt><trkpt lat="42.41600716213043" lon="13.946480596467673"><ele>189.0</ele><time>2026-03-29T08:18:15Z</time></trkpt><trkpt lat="42.41593075123438" lon="13.94668713660611"><ele>189.0</ele><time>2026-03-29T08:18:16Z</time></trkpt><trkpt lat="42.415847237064675" lon="13.946868927655332"><ele>189.0</ele><time>2026-03-29T08:18:17Z</time></trkpt><trkpt lat="42.41574966841803" lon="13.947020132392433"><ele>188.66666666666666</ele><time>2026-03-29T08:18:18Z</time></trkpt><trkpt lat="42.41560893847921" lon="13.947142687021966"><ele>188.33333333333331</ele><time>2026-03-29T08:18:19Z</time></trkpt><trkpt lat="42.41547843175182" lon="13.947226967555553"><ele>188.0</ele><time>2026-03-29T08:18:20Z</time></trkpt><trkpt lat="42.415369303786214" lon="13.947347606209583"><ele>188.0</ele><time>2026-03-29T08:18:21Z</time></trkpt><trkpt lat="42.415330883273796" lon="13.947525636896819"><ele>188.0</ele><time>2026-03-29T08:18:22Z</time></trkpt><trkpt lat="42.41529557723097" lon="13.947701120819723"><ele>188.0</ele><time>2026-03-29T08:18:23Z</time></trkpt><trkpt lat="42.41524898379935" lon="13.947934307638105"><ele>191.33333333333331</ele><time>2026-03-29T08:18:24Z</time></trkpt><trkpt lat="42.41519321152813" lon="13.948163097314538"><ele>194.66666666666666</ele><time>2026-03-29T08:18:25Z</time></trkpt><trkpt lat="42.415146737558295" lon="13.948372151260227"><ele>198.0</ele><time>2026-03-29T08:18:26Z</time></trkpt><trkpt lat="42.415080471493056" lon="13.948533948114145"><ele>198.0</ele><time>2026-03-29T08:18:27Z</time></trkpt><trkpt lat="42.414994317404485" lon="13.94865040852381"><ele>198.0</ele><time>2026-03-29T08:18:28Z</time></trkpt><trkpt lat="42.41491052468151" lon="13.948738578897874"><ele>198.0</ele><time>2026-03-29T08:18:29Z</time></trkpt><trkpt lat="42.414769520865356" lon="13.9488085312041"><ele>198.0</ele><time>2026-03-29T08:18:30Z</time></trkpt><trkpt lat="42.41461728343273" lon="13.94886129089708"><ele>198.0</ele><time>2026-03-29T08:18:31Z</time></trkpt><trkpt lat="42.4144771622516" lon="13.948960671706264"><ele>198.0</ele><time>2026-03-29T08:18:32Z</time></trkpt><trkpt lat="42.414385988170416" lon="13.949039937956007"><ele>198.0</ele><time>2026-03-29T08:18:33Z</time></trkpt><trkpt lat="42.414348621437945" lon="13.94915936724939"><ele>198.0</ele><time>2026-03-29T08:18:34Z</time></trkpt><trkpt lat="42.41438470606734" lon="13.94924046500203"><ele>198.0</ele><time>2026-03-29T08:18:35Z</time></trkpt><trkpt lat="42.41445607355307" lon="13.949276570786877"><ele>200.5</ele><time>2026-03-29T08:18:36Z</time></trkpt><trkpt lat="42.414603249714666" lon="13.949212648408965"><ele>203.0</ele><time>2026-03-29T08:18:38Z</time></trkpt><trkpt lat="42.41467365354002" lon="13.949108322299981"><ele>205.5</ele><time>2026-03-29T08:18:39Z</time></trkpt><trkpt lat="42.414786172408014" lon="13.94900613340511"><ele>208.0</ele><time>2026-03-29T08:18:40Z</time></trkpt><trkpt lat="42.414937140378385" lon="13.948926098013363"><ele>211.33333333333331</ele><time>2026-03-29T08:18:41Z</time></trkpt><trkpt lat="42.41509485715715" lon="13.948885152765786"><ele>214.66666666666669</ele><time>2026-03-29T08:18:42Z</time></trkpt><trkpt lat="42.41524664340462" lon="13.948857942463874"><ele>218.0</ele><time>2026-03-29T08:18:43Z</time></trkpt><trkpt lat="42.41540271956066" lon="13.94874313596235"><ele>218.33333333333334</ele><time>2026-03-29T08:18:44Z</time></trkpt><trkpt lat="42.415510890371486" lon="13.948618050032"><ele>218.66666666666669</ele><time>2026-03-29T08:18:45Z</time></trkpt><trkpt lat="42.415622835361184" lon="13.94844079602812"><ele>219.0</ele><time>2026-03-29T08:18:46Z</time></trkpt><trkpt lat="42.415744196845864" lon="13.948244548973582"><ele>219.0</ele><time>2026-03-29T08:18:47Z</time></trkpt><trkpt lat="42.41589815255753" lon="13.948081769188413"><ele>219.0</ele><time>2026-03-29T08:18:48Z</time></trkpt><trkpt lat="42.41604816555491" lon="13.947904250625342"><ele>219.0</ele><time>2026-03-29T08:18:49Z</time></trkpt><trkpt lat="42.416169560680395" lon="13.947735355627778"><ele>219.0</ele><time>2026-03-29T08:18:50Z</time></trkpt><trkpt lat="42.41629162862118" lon="13.94758229110011"><ele>219.0</ele><time>2026-03-29T08:18:51Z</time></trkpt><trkpt lat="42.41643581530786" lon="13.947437519688881"><ele>219.0</ele><time>2026-03-29T08:18:52Z</time></trkpt><trkpt lat="42.41659992311997" lon="13.947308083834805"><ele>223.33333333333331</ele><time>2026-03-29T08:18:53Z</time></trkpt><trkpt lat="42.41677283918982" lon="13.947190226649676"><ele>227.66666666666666</ele><time>2026-03-29T08:18:54Z</time></trkpt><trkpt lat="42.416932236801195" lon="13.947047727450212"><ele>232.0</ele><time>2026-03-29T08:18:55Z</time></trkpt><trkpt lat="42.41704714384654" lon="13.946893846056586"><ele>232.0</ele><time>2026-03-29T08:18:56Z</time></trkpt><trkpt lat="42.417128687620604" lon="13.94674834579408"><ele>232.0</ele><time>2026-03-29T08:18:57Z</time></trkpt><trkpt lat="42.41722941454066" lon="13.946597103984693"><ele>232.0</ele><time>2026-03-29T08:18:58Z</time></trkpt><trkpt lat="42.41734694179502" lon="13.946434632677697"><ele>235.33333333333331</ele><time>2026-03-29T08:18:59Z</time></trkpt><trkpt lat="42.41748401259043" lon="13.94626853902119"><ele>238.66666666666669</ele><time>2026-03-29T08:19:00Z</time></trkpt><trkpt lat="42.41764427970095" lon="13.946122254205598"><ele>242.0</ele><time>2026-03-29T08:19:01Z</time></trkpt><trkpt lat="42.41779089765456" lon="13.94603422515471"><ele>242.0</ele><time>2026-03-29T08:19:02Z</time></trkpt><trkpt lat="42.417922355903954" lon="13.945958303256855"><ele>242.0</ele><time>2026-03-29T08:19:03Z</time></trkpt><trkpt lat="42.4180607762667" lon="13.945900621077538"><ele>242.0</ele><time>2026-03-29T08:19:04Z</time></trkpt><trkpt lat="42.41818082174241" lon="13.945866534536437"><ele>242.0</ele><time>2026-03-29T08:19:05Z</time></trkpt><trkpt lat="42.418279713627186" lon="13.94584820972038"><ele>242.50000000000003</ele><time>2026-03-29T08:19:06Z</time></trkpt><trkpt lat="42.41835223731219" lon="13.945871147273829"><ele>243.0</ele><time>2026-03-29T08:19:07Z</time></trkpt><trkpt lat="42.41843027966917" lon="13.945985469407844"><ele>243.5</ele><time>2026-03-29T08:19:09Z</time></trkpt><trkpt lat="42.418427810990316" lon="13.946085035780754"><ele>244.0</ele><time>2026-03-29T08:19:10Z</time></trkpt><trkpt lat="42.418386451909385" lon="13.946172552462802"><ele>244.50000000000003</ele><time>2026-03-29T08:19:11Z</time></trkpt><trkpt lat="42.418321080181784" lon="13.946244738320502"><ele>245.0</ele><time>2026-03-29T08:19:12Z</time></trkpt><trkpt lat="42.41825673343324" lon="13.946258385136543"><ele>247.50000000000003</ele><time>2026-03-29T08:19:13Z</time></trkpt><trkpt lat="42.41818845945135" lon="13.946309423386907"><ele>250.0</ele><time>2026-03-29T08:19:18Z</time></trkpt><trkpt lat="42.41826898913508" lon="13.946348278585013"><ele>252.5</ele><time>2026-03-29T08:19:20Z</time></trkpt><trkpt lat="42.41826680734367" lon="13.9464566889697"><ele>255.0</ele><time>2026-03-29T08:19:21Z</time></trkpt><trkpt lat="42.41834761291038" lon="13.94644920640452"><ele>257.5</ele><time>2026-03-29T08:19:22Z</time></trkpt><trkpt lat="42.41842490473641" lon="13.946452100025862"><ele>260.0</ele><time>2026-03-29T08:19:23Z</time></trkpt><trkpt lat="42.41853466717932" lon="13.94645769201268"><ele>260.0</ele><time>2026-03-29T08:19:24Z</time></trkpt><trkpt lat="42.41867638264587" lon="13.946454909280035"><ele>260.0</ele><time>2026-03-29T08:19:25Z</time></trkpt><trkpt lat="42.41880186514498" lon="13.946444269236478"><ele>260.0</ele><time>2026-03-29T08:19:26Z</time></trkpt><trkpt lat="42.41892573743435" lon="13.946432064484535"><ele>260.0</ele><time>2026-03-29T08:19:27Z</time></trkpt><trkpt lat="42.41908033362541" lon="13.946463247463148"><ele>263.5</ele><time>2026-03-29T08:19:28Z</time></trkpt><trkpt lat="42.419209278878085" lon="13.946535671556768"><ele>267.0</ele><time>2026-03-29T08:19:29Z</time></trkpt><trkpt lat="42.41932570596841" lon="13.946657031183985"><ele>270.5</ele><time>2026-03-29T08:19:30Z</time></trkpt><trkpt lat="42.41943712494816" lon="13.946771105925821"><ele>274.0</ele><time>2026-03-29T08:19:31Z</time></trkpt><trkpt lat="42.41956818819351" lon="13.946939166335456"><ele>280.0</ele><time>2026-03-29T08:19:32Z</time></trkpt><trkpt lat="42.41970746979039" lon="13.947094855062549"><ele>286.0</ele><time>2026-03-29T08:19:33Z</time></trkpt><trkpt lat="42.41983854379139" lon="13.94720535592813"><ele>292.0</ele><time>2026-03-29T08:19:34Z</time></trkpt><trkpt lat="42.4199346818807" lon="13.947238394123554"><ele>298.0</ele><time>2026-03-29T08:19:35Z</time></trkpt><trkpt lat="42.42003024707066" lon="13.947287223581801"><ele>298.0</ele><time>2026-03-29T08:19:37Z</time></trkpt><trkpt lat="42.42010533278497" lon="13.947362597803078"><ele>298.0</ele><time>2026-03-29T08:19:38Z</time></trkpt><trkpt lat="42.4201812328266" lon="13.947429473479403"><ele>298.0</ele><time>2026-03-29T08:19:39Z</time></trkpt><trkpt lat="42.42019495172313" lon="13.947343703098234"><ele>298.0</ele><time>2026-03-29T08:19:41Z</time></trkpt><trkpt lat="42.42017788222902" lon="13.947179268881971"><ele>298.0</ele><time>2026-03-29T08:19:43Z</time></trkpt><trkpt lat="42.42018877091077" lon="13.94707542694753"><ele>298.0</ele><time>2026-03-29T08:19:44Z</time></trkpt><trkpt lat="42.42018618374727" lon="13.946916439075144"><ele>298.0</ele><time>2026-03-29T08:19:45Z</time></trkpt><trkpt lat="42.420184578743935" lon="13.94672863205891"><ele>298.0</ele><time>2026-03-29T08:19:46Z</time></trkpt><trkpt lat="42.420202632023944" lon="13.946537187101494"><ele>298.0</ele><time>2026-03-29T08:19:47Z</time></trkpt><trkpt lat="42.42022827565231" lon="13.946340843326068"><ele>298.0</ele><time>2026-03-29T08:19:48Z</time></trkpt><trkpt lat="42.420245303991976" lon="13.946138480377302"><ele>296.75</ele><time>2026-03-29T08:19:49Z</time></trkpt><trkpt lat="42.42025526457176" lon="13.945901037388573"><ele>295.5</ele><time>2026-03-29T08:19:50Z</time></trkpt><trkpt lat="42.420259794169446" lon="13.945698968053735"><ele>294.25</ele><time>2026-03-29T08:19:51Z</time></trkpt><trkpt lat="42.42026597603133" lon="13.94556069630177"><ele>293.0</ele><time>2026-03-29T08:19:52Z</time></trkpt><trkpt lat="42.42027085960666" lon="13.945400332883802"><ele>292.6666666666667</ele><time>2026-03-29T08:19:53Z</time></trkpt><trkpt lat="42.42022654449647" lon="13.945303168237448"><ele>292.33333333333337</ele><time>2026-03-29T08:19:54Z</time></trkpt><trkpt lat="42.42019562847078" lon="13.945227993923687"><ele>292.0</ele><time>2026-03-29T08:19:55Z</time></trkpt><trkpt lat="42.42014168301047" lon="13.94516215325576"><ele>291.6666666666667</ele><time>2026-03-29T08:19:56Z</time></trkpt><trkpt lat="42.420075876802215" lon="13.945106199246773"><ele>291.3333333333333</ele><time>2026-03-29T08:19:57Z</time></trkpt><trkpt lat="42.419999797643136" lon="13.945068768853789"><ele>291.0</ele><time>2026-03-29T08:19:58Z</time></trkpt><trkpt lat="42.419927452619255" lon="13.945039090109702"><ele>291.0</ele><time>2026-03-29T08:19:59Z</time></trkpt><trkpt lat="42.419864594655735" lon="13.945062829765067"><ele>291.0</ele><time>2026-03-29T08:20:00Z</time></trkpt><trkpt lat="42.419758532333326" lon="13.94504082541532"><ele>291.0</ele><time>2026-03-29T08:20:02Z</time></trkpt><trkpt lat="42.4197118796624" lon="13.944934014731238"><ele>291.0</ele><time>2026-03-29T08:20:04Z</time></trkpt><trkpt lat="42.41961703317363" lon="13.944832256210274"><ele>291.0</ele><time>2026-03-29T08:20:06Z</time></trkpt><trkpt lat="42.419562026700206" lon="13.944783943935704"><ele>286.6666666666667</ele><time>2026-03-29T08:20:07Z</time></trkpt><trkpt lat="42.41948749235286" lon="13.944715056182728"><ele>282.3333333333333</ele><time>2026-03-29T08:20:08Z</time></trkpt><trkpt lat="42.41942951660952" lon="13.944649055783557"><ele>278.0</ele><time>2026-03-29T08:20:09Z</time></trkpt><trkpt lat="42.41937376454995" lon="13.944584415522648"><ele>273.66666666666663</ele><time>2026-03-29T08:20:10Z</time></trkpt><trkpt lat="42.41932122341152" lon="13.944517913603969"><ele>269.3333333333333</ele><time>2026-03-29T08:20:11Z</time></trkpt><trkpt lat="42.41927251790563" lon="13.94444420834237"><ele>265.0</ele><time>2026-03-29T08:20:12Z</time></trkpt><trkpt lat="42.419218653715326" lon="13.944376326776643"><ele>265.0</ele><time>2026-03-29T08:20:13Z</time></trkpt><trkpt lat="42.41916213410813" lon="13.94432181176466"><ele>265.0</ele><time>2026-03-29T08:20:14Z</time></trkpt><trkpt lat="42.41908903340863" lon="13.944224522793691"><ele>265.0</ele><time>2026-03-29T08:20:16Z</time></trkpt><trkpt lat="42.41902883672582" lon="13.944118764089064"><ele>265.0</ele><time>2026-03-29T08:20:18Z</time></trkpt><trkpt lat="42.41893576008475" lon="13.944002104885604"><ele>265.0</ele><time>2026-03-29T08:20:20Z</time></trkpt><trkpt lat="42.418881113718726" lon="13.943934950789194"><ele>259.3333333333333</ele><time>2026-03-29T08:20:21Z</time></trkpt><trkpt lat="42.41880071069206" lon="13.943841802087217"><ele>253.66666666666666</ele><time>2026-03-29T08:20:23Z</time></trkpt><trkpt lat="42.418745071168736" lon="13.943769464989456"><ele>248.0</ele><time>2026-03-29T08:20:25Z</time></trkpt><trkpt lat="42.41869147352997" lon="13.943701094152432"><ele>242.33333333333331</ele><time>2026-03-29T08:20:27Z</time></trkpt><trkpt lat="42.41864786748983" lon="13.94363454788903"><ele>236.66666666666666</ele><time>2026-03-29T08:20:29Z</time></trkpt><trkpt lat="42.418590570255255" lon="13.94355344327236"><ele>231.0</ele><time>2026-03-29T08:20:31Z</time></trkpt><trkpt lat="42.418525296922354" lon="13.943499004391821"><ele>231.0</ele><time>2026-03-29T08:20:33Z</time></trkpt><trkpt lat="42.418464742599056" lon="13.943427141530078"><ele>231.0</ele><time>2026-03-29T08:20:35Z</time></trkpt><trkpt lat="42.41840661716293" lon="13.943365248804726"><ele>231.0</ele><time>2026-03-29T08:20:38Z</time></trkpt><trkpt lat="42.41833716060029" lon="13.943292223752952"><ele>231.0</ele><time>2026-03-29T08:20:39Z</time></trkpt><trkpt lat="42.41826989812529" lon="13.943214491384671"><ele>231.0</ele><time>2026-03-29T08:20:41Z</time></trkpt><trkpt lat="42.41820172987037" lon="13.943130787552912"><ele>231.0</ele><time>2026-03-29T08:20:43Z</time></trkpt><trkpt lat="42.418120747998394" lon="13.943025119603195"><ele>229.66666666666666</ele><time>2026-03-29T08:20:45Z</time></trkpt><trkpt lat="42.41802779321081" lon="13.942916749821995"><ele>228.33333333333331</ele><time>2026-03-29T08:20:47Z</time></trkpt><trkpt lat="42.417936242726036" lon="13.942808350161194"><ele>227.0</ele><time>2026-03-29T08:20:49Z</time></trkpt><trkpt lat="42.417886656985516" lon="13.942749325049919"><ele>225.66666666666666</ele><time>2026-03-29T08:20:50Z</time></trkpt><trkpt lat="42.41783692038312" lon="13.942693908802408"><ele>224.33333333333331</ele><time>2026-03-29T08:20:51Z</time></trkpt><trkpt lat="42.417787509898204" lon="13.942640949726506"><ele>223.0</ele><time>2026-03-29T08:20:52Z</time></trkpt><trkpt lat="42.41773979270351" lon="13.942583810711502"><ele>218.83333333333331</ele><time>2026-03-29T08:20:53Z</time></trkpt><trkpt lat="42.41768916057725" lon="13.942531225823762"><ele>214.66666666666666</ele><time>2026-03-29T08:20:54Z</time></trkpt><trkpt lat="42.41763982594613" lon="13.942477255886512"><ele>210.5</ele><time>2026-03-29T08:20:55Z</time></trkpt><trkpt lat="42.41758700977478" lon="13.942419751965106"><ele>206.33333333333331</ele><time>2026-03-29T08:20:56Z</time></trkpt><trkpt lat="42.417491937097104" lon="13.942316795137243"><ele>202.16666666666666</ele><time>2026-03-29T08:20:58Z</time></trkpt><trkpt lat="42.4174073119926" lon="13.942239882969172"><ele>198.0</ele><time>2026-03-29T08:21:00Z</time></trkpt><trkpt lat="42.417360033720676" lon="13.942163290536636"><ele>198.0</ele><time>2026-03-29T08:21:02Z</time></trkpt><trkpt lat="42.417314724117965" lon="13.942075356766372"><ele>198.0</ele><time>2026-03-29T08:21:05Z</time></trkpt><trkpt lat="42.41739241857858" lon="13.941984483728236"><ele>198.0</ele><time>2026-03-29T08:21:09Z</time></trkpt><trkpt lat="42.41747993780981" lon="13.94199825667871"><ele>198.0</ele><time>2026-03-29T08:21:10Z</time></trkpt><trkpt lat="42.41758478034166" lon="13.94202340981416"><ele>198.0</ele><time>2026-03-29T08:21:11Z</time></trkpt><trkpt lat="42.41770769495468" lon="13.94205372004148"><ele>198.0</ele><time>2026-03-29T08:21:12Z</time></trkpt><trkpt lat="42.4178147165966" lon="13.942123040477016"><ele>198.0</ele><time>2026-03-29T08:21:13Z</time></trkpt><trkpt lat="42.417892748368914" lon="13.942163100251388"><ele>198.0</ele><time>2026-03-29T08:21:14Z</time></trkpt><trkpt lat="42.41797783616023" lon="13.942169190349677"><ele>198.0</ele><time>2026-03-29T08:21:15Z</time></trkpt><trkpt lat="42.41808038799727" lon="13.94214535236243"><ele>198.0</ele><time>2026-03-29T08:21:16Z</time></trkpt><trkpt lat="42.41818980869596" lon="13.94211431203647"><ele>201.5</ele><time>2026-03-29T08:21:17Z</time></trkpt><trkpt lat="42.418302096301275" lon="13.942076896793631"><ele>205.0</ele><time>2026-03-29T08:21:18Z</time></trkpt><trkpt lat="42.41841815567777" lon="13.942033795426237"><ele>208.5</ele><time>2026-03-29T08:21:19Z</time></trkpt><trkpt lat="42.41855237571921" lon="13.942001851436926"><ele>212.0</ele><time>2026-03-29T08:21:20Z</time></trkpt><trkpt lat="42.41869048055009" lon="13.941937091546013"><ele>213.75</ele><time>2026-03-29T08:21:21Z</time></trkpt><trkpt lat="42.41883959323309" lon="13.941850874897286"><ele>215.5</ele><time>2026-03-29T08:21:22Z</time></trkpt><trkpt lat="42.418959458230205" lon="13.941783030112955"><ele>217.25</ele><time>2026-03-29T08:21:23Z</time></trkpt><trkpt lat="42.41906445918273" lon="13.941733969689361"><ele>219.0</ele><time>2026-03-29T08:21:24Z</time></trkpt><trkpt lat="42.41917480354941" lon="13.941706740735832"><ele>219.0</ele><time>2026-03-29T08:21:25Z</time></trkpt><trkpt lat="42.41929709261636" lon="13.941707899983259"><ele>219.0</ele><time>2026-03-29T08:21:26Z</time></trkpt><trkpt lat="42.419424324038346" lon="13.941747341205673"><ele>219.0</ele><time>2026-03-29T08:21:27Z</time></trkpt><trkpt lat="42.41955953084378" lon="13.941807223890153"><ele>219.0</ele><time>2026-03-29T08:21:28Z</time></trkpt><trkpt lat="42.41967764016559" lon="13.941835337313043"><ele>220.79999999999998</ele><time>2026-03-29T08:21:29Z</time></trkpt><trkpt lat="42.41977383315952" lon="13.941830515015242"><ele>222.59999999999997</ele><time>2026-03-29T08:21:30Z</time></trkpt><trkpt lat="42.41987232600239" lon="13.941819193751773"><ele>224.4</ele><time>2026-03-29T08:21:31Z</time></trkpt><trkpt lat="42.41998475362752" lon="13.94180884431501"><ele>226.2</ele><time>2026-03-29T08:21:32Z</time></trkpt><trkpt lat="42.42010682386429" lon="13.941797626211953"><ele>228.0</ele><time>2026-03-29T08:21:33Z</time></trkpt><trkpt lat="42.42022363826187" lon="13.941784255951811"><ele>228.0</ele><time>2026-03-29T08:21:34Z</time></trkpt><trkpt lat="42.42033907100837" lon="13.941777309484102"><ele>228.0</ele><time>2026-03-29T08:21:35Z</time></trkpt><trkpt lat="42.42044965422992" lon="13.941769597930833"><ele>228.0</ele><time>2026-03-29T08:21:36Z</time></trkpt><trkpt lat="42.42054333082632" lon="13.94173165730522"><ele>228.0</ele><time>2026-03-29T08:21:37Z</time></trkpt><trkpt lat="42.42061156842615" lon="13.941656517402734"><ele>228.0</ele><time>2026-03-29T08:21:38Z</time></trkpt><trkpt lat="42.42064508826219" lon="13.941561048046994"><ele>226.60000000000002</ele><time>2026-03-29T08:21:39Z</time></trkpt><trkpt lat="42.42066020134018" lon="13.941436087913596"><ele>225.20000000000002</ele><time>2026-03-29T08:21:41Z</time></trkpt><trkpt lat="42.42071554966216" lon="13.94123251103662"><ele>223.8</ele><time>2026-03-29T08:21:43Z</time></trkpt><trkpt lat="42.42074949434463" lon="13.941141906885415"><ele>222.4</ele><time>2026-03-29T08:21:44Z</time></trkpt><trkpt lat="42.42080410778009" lon="13.941052148151591"><ele>221.0</ele><time>2026-03-29T08:21:45Z</time></trkpt><trkpt lat="42.42087481927532" lon="13.940971254897406"><ele>221.0</ele><time>2026-03-29T08:21:46Z</time></trkpt><trkpt lat="42.420960564248375" lon="13.940883194284767"><ele>221.0</ele><time>2026-03-29T08:21:47Z</time></trkpt><trkpt lat="42.42106431206644" lon="13.940792396288236"><ele>221.0</ele><time>2026-03-29T08:21:48Z</time></trkpt><trkpt lat="42.421177290782396" lon="13.940691707320754"><ele>221.0</ele><time>2026-03-29T08:21:49Z</time></trkpt><trkpt lat="42.4213159092494" lon="13.940579455775566"><ele>223.75</ele><time>2026-03-29T08:21:50Z</time></trkpt><trkpt lat="42.42142248030695" lon="13.940498687969612"><ele>226.5</ele><time>2026-03-29T08:21:51Z</time></trkpt><trkpt lat="42.42152119412364" lon="13.940436877019163"><ele>229.25</ele><time>2026-03-29T08:21:52Z</time></trkpt><trkpt lat="42.42162902906539" lon="13.940373619161482"><ele>232.0</ele><time>2026-03-29T08:21:53Z</time></trkpt><trkpt lat="42.42173667995465" lon="13.940311823949633"><ele>232.0</ele><time>2026-03-29T08:21:54Z</time></trkpt><trkpt lat="42.42184929291439" lon="13.940239741176965"><ele>232.0</ele><time>2026-03-29T08:21:55Z</time></trkpt><trkpt lat="42.42195708495404" lon="13.940163824770528"><ele>232.0</ele><time>2026-03-29T08:21:56Z</time></trkpt><trkpt lat="42.4220696202077" lon="13.940094137354702"><ele>232.0</ele><time>2026-03-29T08:21:57Z</time></trkpt><trkpt lat="42.42218653198221" lon="13.940028565643123"><ele>231.0</ele><time>2026-03-29T08:21:58Z</time></trkpt><trkpt lat="42.422301926287844" lon="13.939960221410178"><ele>230.0</ele><time>2026-03-29T08:21:59Z</time></trkpt><trkpt lat="42.422419791400394" lon="13.939878828027473"><ele>229.0</ele><time>2026-03-29T08:22:00Z</time></trkpt><trkpt lat="42.42253349436476" lon="13.939783224763138"><ele>228.0</ele><time>2026-03-29T08:22:01Z</time></trkpt><trkpt lat="42.422652227542805" lon="13.93968152748884"><ele>228.0</ele><time>2026-03-29T08:22:02Z</time></trkpt><trkpt lat="42.42277055229637" lon="13.939585954799666"><ele>228.0</ele><time>2026-03-29T08:22:03Z</time></trkpt><trkpt lat="42.42286897378217" lon="13.939483146710657"><ele>228.0</ele><time>2026-03-29T08:22:04Z</time></trkpt><trkpt lat="42.422965425074075" lon="13.939404327665267"><ele>228.0</ele><time>2026-03-29T08:22:05Z</time></trkpt><trkpt lat="42.4230763953041" lon="13.939308038533435"><ele>226.66666666666669</ele><time>2026-03-29T08:22:06Z</time></trkpt><trkpt lat="42.42319551322146" lon="13.939180512265697"><ele>225.33333333333334</ele><time>2026-03-29T08:22:07Z</time></trkpt><trkpt lat="42.423332216171985" lon="13.939074523180357"><ele>224.0</ele><time>2026-03-29T08:22:08Z</time></trkpt><trkpt lat="42.423465072758866" lon="13.938990553790797"><ele>224.0</ele><time>2026-03-29T08:22:09Z</time></trkpt><trkpt lat="42.423578768865625" lon="13.938921298810554"><ele>223.99999999999997</ele><time>2026-03-29T08:22:10Z</time></trkpt><trkpt lat="42.42366918045451" lon="13.938855685208488"><ele>223.99999999999997</ele><time>2026-03-29T08:22:11Z</time></trkpt><trkpt lat="42.42374202149738" lon="13.938798564481909"><ele>224.0</ele><time>2026-03-29T08:22:12Z</time></trkpt><trkpt lat="42.423810088254285" lon="13.938750422377083"><ele>224.0</ele><time>2026-03-29T08:22:13Z</time></trkpt><trkpt lat="42.423865954759485" lon="13.938697144845069"><ele>224.2</ele><time>2026-03-29T08:22:14Z</time></trkpt><trkpt lat="42.42392232438781" lon="13.938629774783326"><ele>224.39999999999998</ele><time>2026-03-29T08:22:15Z</time></trkpt><trkpt lat="42.423989745039314" lon="13.938551624027959"><ele>224.6</ele><time>2026-03-29T08:22:16Z</time></trkpt><trkpt lat="42.42406613469216" lon="13.938458137231319"><ele>224.8</ele><time>2026-03-29T08:22:17Z</time></trkpt><trkpt lat="42.42415330762173" lon="13.938346786675515"><ele>225.0</ele><time>2026-03-29T08:22:18Z</time></trkpt><trkpt lat="42.42424764941148" lon="13.93823115720728"><ele>225.0</ele><time>2026-03-29T08:22:19Z</time></trkpt><trkpt lat="42.42433814922982" lon="13.938113868675355"><ele>225.0</ele><time>2026-03-29T08:22:20Z</time></trkpt><trkpt lat="42.42442418091507" lon="13.937994754503151"><ele>225.0</ele><time>2026-03-29T08:22:21Z</time></trkpt><trkpt lat="42.42450905727887" lon="13.937883701685168"><ele>225.0</ele><time>2026-03-29T08:22:22Z</time></trkpt><trkpt lat="42.424583124917206" lon="13.937782503238747"><ele>225.0</ele><time>2026-03-29T08:22:23Z</time></trkpt><trkpt lat="42.42463662115334" lon="13.937706124921586"><ele>225.0</ele><time>2026-03-29T08:22:24Z</time></trkpt><trkpt lat="42.424681973384935" lon="13.937646022095674"><ele>225.0</ele><time>2026-03-29T08:22:25Z</time></trkpt><trkpt lat="42.42474551651099" lon="13.93760344349729"><ele>225.0</ele><time>2026-03-29T08:22:27Z</time></trkpt><trkpt lat="42.424801644266395" lon="13.937682790461837"><ele>225.0</ele><time>2026-03-29T08:22:29Z</time></trkpt><trkpt lat="42.42482900758608" lon="13.9377918138115"><ele>225.0</ele><time>2026-03-29T08:22:30Z</time></trkpt><trkpt lat="42.42487482595667" lon="13.93795321656331"><ele>228.0</ele><time>2026-03-29T08:22:31Z</time></trkpt><trkpt lat="42.424951071466296" lon="13.93807789145718"><ele>231.0</ele><time>2026-03-29T08:22:32Z</time></trkpt><trkpt lat="42.42502826497929" lon="13.938194154829796"><ele>234.0</ele><time>2026-03-29T08:22:33Z</time></trkpt><trkpt lat="42.42511323114446" lon="13.938344340443583"><ele>237.0</ele><time>2026-03-29T08:22:34Z</time></trkpt><trkpt lat="42.42519360610937" lon="13.938524291666035"><ele>238.75</ele><time>2026-03-29T08:22:35Z</time></trkpt><trkpt lat="42.425236009435515" lon="13.938707638665319"><ele>240.5</ele><time>2026-03-29T08:22:36Z</time></trkpt><trkpt lat="42.42525295498865" lon="13.938882854338393"><ele>242.25</ele><time>2026-03-29T08:22:37Z</time></trkpt><trkpt lat="42.4252684867537" lon="13.939075682688449"><ele>244.0</ele><time>2026-03-29T08:22:38Z</time></trkpt><trkpt lat="42.42528317958067" lon="13.939281734369697"><ele>245.0</ele><time>2026-03-29T08:22:39Z</time></trkpt><trkpt lat="42.42529393454044" lon="13.939498684452237"><ele>246.0</ele><time>2026-03-29T08:22:40Z</time></trkpt><trkpt lat="42.42532112216436" lon="13.939690865672748"><ele>247.0</ele><time>2026-03-29T08:22:41Z</time></trkpt><trkpt lat="42.4253415604028" lon="13.939851816983523"><ele>248.0</ele><time>2026-03-29T08:22:42Z</time></trkpt><trkpt lat="42.42535235320283" lon="13.939981121514275"><ele>248.50000000000003</ele><time>2026-03-29T08:22:43Z</time></trkpt><trkpt lat="42.4253589950389" lon="13.940102270343365"><ele>249.0</ele><time>2026-03-29T08:22:44Z</time></trkpt><trkpt lat="42.42536470039724" lon="13.940220526829933"><ele>249.5</ele><time>2026-03-29T08:22:45Z</time></trkpt><trkpt lat="42.42536436732103" lon="13.940323634854929"><ele>250.0</ele><time>2026-03-29T08:22:46Z</time></trkpt><trkpt lat="42.42539876957686" lon="13.94042012561399"><ele>250.50000000000003</ele><time>2026-03-29T08:22:47Z</time></trkpt><trkpt lat="42.42544535888906" lon="13.94051822653123"><ele>251.0</ele><time>2026-03-29T08:22:48Z</time></trkpt><trkpt lat="42.42550959881398" lon="13.940621920509031"><ele>251.00000000000003</ele><time>2026-03-29T08:22:49Z</time></trkpt><trkpt lat="42.425526622649414" lon="13.940731812096685"><ele>251.0</ele><time>2026-03-29T08:22:50Z</time></trkpt><trkpt lat="42.425525459515285" lon="13.940859365711942"><ele>251.0</ele><time>2026-03-29T08:22:51Z</time></trkpt><trkpt lat="42.4255513941184" lon="13.940962998488322"><ele>251.0</ele><time>2026-03-29T08:22:52Z</time></trkpt><trkpt lat="42.4255776750197" lon="13.941057135978594"><ele>251.00000000000003</ele><time>2026-03-29T08:22:53Z</time></trkpt><trkpt lat="42.4255863089301" lon="13.941182426045316"><ele>251.0</ele><time>2026-03-29T08:22:54Z</time></trkpt><trkpt lat="42.42556493818681" lon="13.941330645779088"><ele>252.5</ele><time>2026-03-29T08:22:55Z</time></trkpt><trkpt lat="42.42557968418957" lon="13.941487925278807"><ele>254.0</ele><time>2026-03-29T08:22:56Z</time></trkpt><trkpt lat="42.4256036317346" lon="13.941626318555517"><ele>255.5</ele><time>2026-03-29T08:22:57Z</time></trkpt><trkpt lat="42.42560769299148" lon="13.941782489391585"><ele>257.0</ele><time>2026-03-29T08:22:58Z</time></trkpt><trkpt lat="42.42561217024842" lon="13.941950534596417"><ele>259.5</ele><time>2026-03-29T08:22:59Z</time></trkpt><trkpt lat="42.425625639164785" lon="13.942106869279803"><ele>262.0</ele><time>2026-03-29T08:23:00Z</time></trkpt><trkpt lat="42.425650426568865" lon="13.942256522916553"><ele>264.5</ele><time>2026-03-29T08:23:01Z</time></trkpt><trkpt lat="42.425676064096514" lon="13.942410172511174"><ele>267.0</ele><time>2026-03-29T08:23:02Z</time></trkpt><trkpt lat="42.42569792151485" lon="13.942564366239019"><ele>270.75</ele><time>2026-03-29T08:23:03Z</time></trkpt><trkpt lat="42.4257239084557" lon="13.94271969069243"><ele>274.5</ele><time>2026-03-29T08:23:04Z</time></trkpt><trkpt lat="42.42576113045781" lon="13.942875970865504"><ele>278.25</ele><time>2026-03-29T08:23:05Z</time></trkpt><trkpt lat="42.42580099970505" lon="13.943019892685454"><ele>282.0</ele><time>2026-03-29T08:23:06Z</time></trkpt><trkpt lat="42.42586448900008" lon="13.943176984469266"><ele>282.0</ele><time>2026-03-29T08:23:07Z</time></trkpt><trkpt lat="42.42593256509322" lon="13.943333866264894"><ele>282.0</ele><time>2026-03-29T08:23:08Z</time></trkpt><trkpt lat="42.42600466991414" lon="13.943477090299513"><ele>282.0</ele><time>2026-03-29T08:23:09Z</time></trkpt><trkpt lat="42.42607485780235" lon="13.943605592600932"><ele>282.0</ele><time>2026-03-29T08:23:10Z</time></trkpt><trkpt lat="42.42614103050586" lon="13.943720644852851"><ele>283.25</ele><time>2026-03-29T08:23:11Z</time></trkpt><trkpt lat="42.42621142937365" lon="13.943840934626538"><ele>284.5</ele><time>2026-03-29T08:23:12Z</time></trkpt><trkpt lat="42.42628241804194" lon="13.943965076680735"><ele>285.75</ele><time>2026-03-29T08:23:13Z</time></trkpt><trkpt lat="42.42636981683148" lon="13.944079276296142"><ele>287.0</ele><time>2026-03-29T08:23:14Z</time></trkpt><trkpt lat="42.426449456028834" lon="13.944194639798784"><ele>290.8</ele><time>2026-03-29T08:23:15Z</time></trkpt><trkpt lat="42.426518329002846" lon="13.944312504502369"><ele>294.6</ele><time>2026-03-29T08:23:16Z</time></trkpt><trkpt lat="42.426585352248644" lon="13.9444169809869"><ele>298.40000000000003</ele><time>2026-03-29T08:23:17Z</time></trkpt><trkpt lat="42.42664231605546" lon="13.944488862366168"><ele>302.2</ele><time>2026-03-29T08:23:18Z</time></trkpt><trkpt lat="42.426718129292134" lon="13.944607856508458"><ele>306.0</ele><time>2026-03-29T08:23:20Z</time></trkpt><trkpt lat="42.42677129194306" lon="13.944727151916755"><ele>306.0</ele><time>2026-03-29T08:23:21Z</time></trkpt><trkpt lat="42.42683714843805" lon="13.944864061023392"><ele>306.0</ele><time>2026-03-29T08:23:22Z</time></trkpt><trkpt lat="42.42689322962299" lon="13.944990272298268"><ele>306.0</ele><time>2026-03-29T08:23:23Z</time></trkpt><trkpt lat="42.42693475926325" lon="13.945128836726747"><ele>306.0</ele><time>2026-03-29T08:23:24Z</time></trkpt><trkpt lat="42.42698187509465" lon="13.945232179254171"><ele>306.0</ele><time>2026-03-29T08:23:25Z</time></trkpt><trkpt lat="42.427034190654375" lon="13.945318034880959"><ele>305.8333333333333</ele><time>2026-03-29T08:23:26Z</time></trkpt><trkpt lat="42.42708651361451" lon="13.945397981077592"><ele>305.6666666666667</ele><time>2026-03-29T08:23:27Z</time></trkpt><trkpt lat="42.427150536218186" lon="13.945459614904095"><ele>305.5</ele><time>2026-03-29T08:23:28Z</time></trkpt><trkpt lat="42.42723176475612" lon="13.945528305427194"><ele>305.33333333333337</ele><time>2026-03-29T08:23:29Z</time></trkpt><trkpt lat="42.427309110516106" lon="13.945589671432712"><ele>305.1666666666667</ele><time>2026-03-29T08:23:30Z</time></trkpt><trkpt lat="42.42736708082007" lon="13.94566141995064"><ele>305.0</ele><time>2026-03-29T08:23:31Z</time></trkpt><trkpt lat="42.4274345686484" lon="13.945724371798049"><ele>305.0</ele><time>2026-03-29T08:23:32Z</time></trkpt><trkpt lat="42.427527269694146" lon="13.945789495730953"><ele>305.0</ele><time>2026-03-29T08:23:33Z</time></trkpt><trkpt lat="42.427604277157165" lon="13.945883715818528"><ele>305.0</ele><time>2026-03-29T08:23:34Z</time></trkpt><trkpt lat="42.42763583218175" lon="13.946043556669247"><ele>305.0</ele><time>2026-03-29T08:23:35Z</time></trkpt><trkpt lat="42.42764865784237" lon="13.946183684001605"><ele>305.0</ele><time>2026-03-29T08:23:36Z</time></trkpt><trkpt lat="42.42765928447503" lon="13.946374027930341"><ele>308.0</ele><time>2026-03-29T08:23:48Z</time></trkpt><trkpt lat="42.427701775449215" lon="13.946574855881986"><ele>311.0</ele><time>2026-03-29T08:23:49Z</time></trkpt><trkpt lat="42.42775688200802" lon="13.946849854234769"><ele>314.0</ele><time>2026-03-29T08:23:50Z</time></trkpt><trkpt lat="42.42780719586273" lon="13.947092505151709"><ele>316.6666666666667</ele><time>2026-03-29T08:23:51Z</time></trkpt><trkpt lat="42.42785107577256" lon="13.947309943631067"><ele>319.3333333333333</ele><time>2026-03-29T08:23:52Z</time></trkpt><trkpt lat="42.4278986779186" lon="13.947538896935848"><ele>322.0</ele><time>2026-03-29T08:23:53Z</time></trkpt><trkpt lat="42.427994766967885" lon="13.947758934888842"><ele>326.66666666666663</ele><time>2026-03-29T08:23:54Z</time></trkpt><trkpt lat="42.42810368254568" lon="13.948018435491319"><ele>331.3333333333333</ele><time>2026-03-29T08:23:55Z</time></trkpt><trkpt lat="42.42820403994308" lon="13.948249019402173"><ele>336.0</ele><time>2026-03-29T08:23:56Z</time></trkpt><trkpt lat="42.428256032530456" lon="13.948386417690699"><ele>336.6666666666667</ele><time>2026-03-29T08:23:57Z</time></trkpt><trkpt lat="42.428332315593515" lon="13.948610218744982"><ele>337.33333333333337</ele><time>2026-03-29T08:23:58Z</time></trkpt><trkpt lat="42.42838410201671" lon="13.948847573605311"><ele>338.0</ele><time>2026-03-29T08:23:59Z</time></trkpt><trkpt lat="42.428423281453384" lon="13.949098440907502"><ele>337.0</ele><time>2026-03-29T08:24:00Z</time></trkpt><trkpt lat="42.42826644025927" lon="13.949348258643207"><ele>336.0</ele><time>2026-03-29T08:24:01Z</time></trkpt><trkpt lat="42.42825064683005" lon="13.94948520764467"><ele>335.0</ele><time>2026-03-29T08:24:02Z</time></trkpt><trkpt lat="42.42823195618162" lon="13.949591141389904"><ele>334.0</ele><time>2026-03-29T08:24:03Z</time></trkpt><trkpt lat="42.428250547113564" lon="13.949487231396642"><ele>334.0</ele><time>2026-03-29T08:24:07Z</time></trkpt><trkpt lat="42.42826121199636" lon="13.949572304979048"><ele>334.0</ele><time>2026-03-29T08:40:10Z</time></trkpt><trkpt lat="42.42827601639457" lon="13.949486673276338"><ele>334.0</ele><time>2026-03-29T08:46:41Z</time></trkpt><trkpt lat="42.42827665627878" lon="13.949390720524123"><ele>334.0</ele><time>2026-03-29T08:48:19Z</time></trkpt><trkpt lat="42.42829004745947" lon="13.949275174095565"><ele>334.0</ele><time>2026-03-29T08:48:22Z</time></trkpt><trkpt lat="42.42830973586578" lon="13.94912097254805"><ele>334.0</ele><time>2026-03-29T08:48:24Z</time></trkpt><trkpt lat="42.428323510049395" lon="13.948928721001119"><ele>334.4</ele><time>2026-03-29T08:48:26Z</time></trkpt><trkpt lat="42.42832644919077" lon="13.948825632533618"><ele>334.79999999999995</ele><time>2026-03-29T08:48:27Z</time></trkpt><trkpt lat="42.42831592547929" lon="13.948710427425242"><ele>335.20000000000005</ele><time>2026-03-29T08:48:28Z</time></trkpt><trkpt lat="42.428287549767745" lon="13.948569777605282"><ele>335.6</ele><time>2026-03-29T08:48:29Z</time></trkpt><trkpt lat="42.42824856998836" lon="13.948409729179566"><ele>336.0</ele><time>2026-03-29T08:48:30Z</time></trkpt><trkpt lat="42.42820391211174" lon="13.948249692153759"><ele>336.0</ele><time>2026-03-29T08:48:31Z</time></trkpt><trkpt lat="42.42814512274242" lon="13.948086451876843"><ele>336.0</ele><time>2026-03-29T08:48:32Z</time></trkpt><trkpt lat="42.428076226864334" lon="13.947924234655012"><ele>336.0</ele><time>2026-03-29T08:48:33Z</time></trkpt><trkpt lat="42.428012598408195" lon="13.947779946190028"><ele>336.0</ele><time>2026-03-29T08:48:34Z</time></trkpt><trkpt lat="42.427951345356284" lon="13.94765231130411"><ele>332.5</ele><time>2026-03-29T08:48:35Z</time></trkpt><trkpt lat="42.42789590302109" lon="13.947514813618792"><ele>329.0</ele><time>2026-03-29T08:48:36Z</time></trkpt><trkpt lat="42.427857159010244" lon="13.947364582170977"><ele>325.5</ele><time>2026-03-29T08:48:37Z</time></trkpt><trkpt lat="42.42782576809439" lon="13.94720653089318"><ele>322.0</ele><time>2026-03-29T08:48:38Z</time></trkpt><trkpt lat="42.42779967684905" lon="13.947031992634608"><ele>322.0</ele><time>2026-03-29T08:48:39Z</time></trkpt><trkpt lat="42.42776819410672" lon="13.946866017639929"><ele>322.0</ele><time>2026-03-29T08:48:40Z</time></trkpt><trkpt lat="42.42773691421469" lon="13.946708539559944"><ele>322.0</ele><time>2026-03-29T08:48:41Z</time></trkpt><trkpt lat="42.42770540853738" lon="13.946569433386186"><ele>322.0</ele><time>2026-03-29T08:48:42Z</time></trkpt><trkpt lat="42.427672755610274" lon="13.946444066730656"><ele>320.66666666666663</ele><time>2026-03-29T08:48:43Z</time></trkpt><trkpt lat="42.42764743062201" lon="13.946328239416976"><ele>319.3333333333333</ele><time>2026-03-29T08:48:44Z</time></trkpt><trkpt lat="42.42761821355972" lon="13.946230199957245"><ele>318.0</ele><time>2026-03-29T08:48:45Z</time></trkpt><trkpt lat="42.427597153136496" lon="13.946137442201598"><ele>316.6666666666667</ele><time>2026-03-29T08:48:46Z</time></trkpt><trkpt lat="42.42758423074394" lon="13.94603634855398"><ele>315.33333333333337</ele><time>2026-03-29T08:48:47Z</time></trkpt><trkpt lat="42.4275665553284" lon="13.945940212636799"><ele>314.0</ele><time>2026-03-29T08:48:48Z</time></trkpt><trkpt lat="42.42747810619935" lon="13.945774230907864"><ele>315.4</ele><time>2026-03-29T08:48:50Z</time></trkpt><trkpt lat="42.42738296034212" lon="13.94571416835285"><ele>316.79999999999995</ele><time>2026-03-29T08:48:51Z</time></trkpt><trkpt lat="42.427273073266264" lon="13.945662148966811"><ele>318.20000000000005</ele><time>2026-03-29T08:48:52Z</time></trkpt><trkpt lat="42.42719315279533" lon="13.945585723123415"><ele>319.6</ele><time>2026-03-29T08:48:53Z</time></trkpt><trkpt lat="42.42711143061177" lon="13.945488388271073"><ele>321.0</ele><time>2026-03-29T08:48:54Z</time></trkpt><trkpt lat="42.42703151047891" lon="13.945351716936125"><ele>321.0</ele><time>2026-03-29T08:48:55Z</time></trkpt><trkpt lat="42.42695672238533" lon="13.945208244268613"><ele>321.0</ele><time>2026-03-29T08:48:56Z</time></trkpt><trkpt lat="42.42689757893657" lon="13.945071323145324"><ele>321.0</ele><time>2026-03-29T08:48:57Z</time></trkpt><trkpt lat="42.42686311812661" lon="13.944975672620224"><ele>321.0</ele><time>2026-03-29T08:48:58Z</time></trkpt><trkpt lat="42.426838460757885" lon="13.944887614751165"><ele>321.0</ele><time>2026-03-29T08:48:59Z</time></trkpt><trkpt lat="42.42679803479006" lon="13.944800033863064"><ele>318.5</ele><time>2026-03-29T08:49:00Z</time></trkpt><trkpt lat="42.426753459599446" lon="13.944722678288365"><ele>316.0</ele><time>2026-03-29T08:49:01Z</time></trkpt><trkpt lat="42.42670098732879" lon="13.944624612142816"><ele>313.5</ele><time>2026-03-29T08:49:02Z</time></trkpt><trkpt lat="42.42665585598148" lon="13.944544186919755"><ele>311.0</ele><time>2026-03-29T08:49:03Z</time></trkpt><trkpt lat="42.42660665937994" lon="13.944465397535577"><ele>308.5</ele><time>2026-03-29T08:49:04Z</time></trkpt><trkpt lat="42.42654741265622" lon="13.944395881805349"><ele>306.0</ele><time>2026-03-29T08:49:05Z</time></trkpt><trkpt lat="42.426487731080705" lon="13.94430731340438"><ele>306.0</ele><time>2026-03-29T08:49:06Z</time></trkpt><trkpt lat="42.426442030913506" lon="13.944235697977843"><ele>306.0</ele><time>2026-03-29T08:49:07Z</time></trkpt><trkpt lat="42.426397006637565" lon="13.94416174393484"><ele>306.0</ele><time>2026-03-29T08:49:08Z</time></trkpt><trkpt lat="42.42634670534832" lon="13.944076843228315"><ele>306.0</ele><time>2026-03-29T08:49:09Z</time></trkpt><trkpt lat="42.426292658689356" lon="13.943994638070526"><ele>306.0</ele><time>2026-03-29T08:49:10Z</time></trkpt><trkpt lat="42.42623718224556" lon="13.943911149802705"><ele>306.0</ele><time>2026-03-29T08:49:11Z</time></trkpt><trkpt lat="42.42618378390368" lon="13.943828744461008"><ele>305.0</ele><time>2026-03-29T08:49:12Z</time></trkpt><trkpt lat="42.426134810050655" lon="13.943735838816343"><ele>304.0</ele><time>2026-03-29T08:49:13Z</time></trkpt><trkpt lat="42.42608414896608" lon="13.943652551954576"><ele>303.0</ele><time>2026-03-29T08:49:14Z</time></trkpt><trkpt lat="42.426030382808904" lon="13.943567873626323"><ele>302.0</ele><time>2026-03-29T08:49:15Z</time></trkpt><trkpt lat="42.42598095100789" lon="13.943482086434825"><ele>301.0</ele><time>2026-03-29T08:49:16Z</time></trkpt><trkpt lat="42.425941500721414" lon="13.943381780251146"><ele>300.0</ele><time>2026-03-29T08:49:17Z</time></trkpt><trkpt lat="42.42590226677752" lon="13.943286396293374"><ele>297.0</ele><time>2026-03-29T08:49:18Z</time></trkpt><trkpt lat="42.42586553065316" lon="13.943194324656556"><ele>294.0</ele><time>2026-03-29T08:49:19Z</time></trkpt><trkpt lat="42.4258257083945" lon="13.943100222210036"><ele>291.0</ele><time>2026-03-29T08:49:20Z</time></trkpt><trkpt lat="42.42578543674391" lon="13.942994762923314"><ele>288.0</ele><time>2026-03-29T08:49:21Z</time></trkpt><trkpt lat="42.42575111604543" lon="13.942887360107877"><ele>285.0</ele><time>2026-03-29T08:49:22Z</time></trkpt><trkpt lat="42.42572443174833" lon="13.94276654755027"><ele>282.0</ele><time>2026-03-29T08:49:23Z</time></trkpt><trkpt lat="42.425702615836165" lon="13.942643929713515"><ele>279.0</ele><time>2026-03-29T08:49:24Z</time></trkpt><trkpt lat="42.4256867753258" lon="13.942520959956475"><ele>276.0</ele><time>2026-03-29T08:49:25Z</time></trkpt><trkpt lat="42.42566215739619" lon="13.942392219044054"><ele>273.0</ele><time>2026-03-29T08:49:26Z</time></trkpt><trkpt lat="42.42563806546882" lon="13.942270568929734"><ele>270.0</ele><time>2026-03-29T08:49:27Z</time></trkpt><trkpt lat="42.42561881727516" lon="13.94214003792247"><ele>267.0</ele><time>2026-03-29T08:49:28Z</time></trkpt><trkpt lat="42.4256054914175" lon="13.942010431017785"><ele>267.0</ele><time>2026-03-29T08:49:29Z</time></trkpt><trkpt lat="42.42559376146778" lon="13.941891003772623"><ele>267.0</ele><time>2026-03-29T08:49:30Z</time></trkpt><trkpt lat="42.42559250331984" lon="13.941770616823064"><ele>267.0</ele><time>2026-03-29T08:49:31Z</time></trkpt><trkpt lat="42.42558919962077" lon="13.941650750855263"><ele>267.0</ele><time>2026-03-29T08:49:32Z</time></trkpt><trkpt lat="42.42558847887974" lon="13.941525828077307"><ele>267.0</ele><time>2026-03-29T08:49:33Z</time></trkpt><trkpt lat="42.42557979517091" lon="13.941403295358104"><ele>267.0</ele><time>2026-03-29T08:49:34Z</time></trkpt><trkpt lat="42.42556749252804" lon="13.941282746353645"><ele>265.3333333333333</ele><time>2026-03-29T08:49:35Z</time></trkpt><trkpt lat="42.425553591873005" lon="13.941167166259532"><ele>263.6666666666667</ele><time>2026-03-29T08:49:36Z</time></trkpt><trkpt lat="42.42555741311197" lon="13.94105854559674"><ele>262.0</ele><time>2026-03-29T08:49:37Z</time></trkpt><trkpt lat="42.425559791014365" lon="13.940959984610346"><ele>260.33333333333337</ele><time>2026-03-29T08:49:38Z</time></trkpt><trkpt lat="42.425544823468314" lon="13.940870576250529"><ele>258.6666666666667</ele><time>2026-03-29T08:49:39Z</time></trkpt><trkpt lat="42.42551359632839" lon="13.940773325990456"><ele>257.0</ele><time>2026-03-29T08:49:40Z</time></trkpt><trkpt lat="42.42548958664642" lon="13.94066773040649"><ele>257.1666666666667</ele><time>2026-03-29T08:49:41Z</time></trkpt><trkpt lat="42.42547234633351" lon="13.940573626385003"><ele>257.33333333333337</ele><time>2026-03-29T08:49:42Z</time></trkpt><trkpt lat="42.42544494716473" lon="13.940482026622185"><ele>257.5</ele><time>2026-03-29T08:49:43Z</time></trkpt><trkpt lat="42.42540611659063" lon="13.940401281822277"><ele>257.6666666666667</ele><time>2026-03-29T08:49:44Z</time></trkpt><trkpt lat="42.425374557077696" lon="13.940305491810593"><ele>257.8333333333333</ele><time>2026-03-29T08:49:45Z</time></trkpt><trkpt lat="42.425365271514366" lon="13.940196452644264"><ele>258.0</ele><time>2026-03-29T08:49:46Z</time></trkpt><trkpt lat="42.42537298469824" lon="13.940078150591397"><ele>256.0</ele><time>2026-03-29T08:49:47Z</time></trkpt><trkpt lat="42.425374370461604" lon="13.939960458819796"><ele>254.0</ele><time>2026-03-29T08:49:48Z</time></trkpt><trkpt lat="42.42535624145466" lon="13.939843335227131"><ele>252.0</ele><time>2026-03-29T08:49:49Z</time></trkpt><trkpt lat="42.42533731840317" lon="13.93972177844015"><ele>250.0</ele><time>2026-03-29T08:49:50Z</time></trkpt><trkpt lat="42.42532378054824" lon="13.939599267402693"><ele>248.0</ele><time>2026-03-29T08:49:51Z</time></trkpt><trkpt lat="42.425308566769964" lon="13.93947547311816"><ele>248.00000000000003</ele><time>2026-03-29T08:49:52Z</time></trkpt><trkpt lat="42.42529990097498" lon="13.939359485464557"><ele>248.0</ele><time>2026-03-29T08:49:53Z</time></trkpt><trkpt lat="42.42529456945247" lon="13.93923709037838"><ele>248.0</ele><time>2026-03-29T08:49:54Z</time></trkpt><trkpt lat="42.42528972441993" lon="13.939127792381175"><ele>248.0</ele><time>2026-03-29T08:49:55Z</time></trkpt><trkpt lat="42.42527659378775" lon="13.939038112334867"><ele>248.00000000000003</ele><time>2026-03-29T08:49:56Z</time></trkpt><trkpt lat="42.42526566652876" lon="13.938930852836958"><ele>248.0</ele><time>2026-03-29T08:49:57Z</time></trkpt><trkpt lat="42.42525508127898" lon="13.93882322731416"><ele>247.33333333333334</ele><time>2026-03-29T08:49:58Z</time></trkpt><trkpt lat="42.42524023567748" lon="13.938708586524248"><ele>246.66666666666669</ele><time>2026-03-29T08:49:59Z</time></trkpt><trkpt lat="42.42522382755533" lon="13.93859416106936"><ele>246.0</ele><time>2026-03-29T08:50:00Z</time></trkpt><trkpt lat="42.425200004200995" lon="13.938481886909454"><ele>245.33333333333331</ele><time>2026-03-29T08:50:01Z</time></trkpt><trkpt lat="42.425152798047876" lon="13.938372297093242"><ele>244.66666666666666</ele><time>2026-03-29T08:50:02Z</time></trkpt><trkpt lat="42.42510293290229" lon="13.938270972749178"><ele>244.0</ele><time>2026-03-29T08:50:03Z</time></trkpt><trkpt lat="42.42504502778327" lon="13.938168848261657"><ele>242.6</ele><time>2026-03-29T08:50:04Z</time></trkpt><trkpt lat="42.424987636023815" lon="13.938085151893914"><ele>241.2</ele><time>2026-03-29T08:50:05Z</time></trkpt><trkpt lat="42.42492645695675" lon="13.938017755789256"><ele>239.79999999999998</ele><time>2026-03-29T08:50:06Z</time></trkpt><trkpt lat="42.424855520918406" lon="13.93794565145237"><ele>238.39999999999998</ele><time>2026-03-29T08:50:07Z</time></trkpt><trkpt lat="42.42479794144673" lon="13.937845628098518"><ele>237.0</ele><time>2026-03-29T08:50:08Z</time></trkpt><trkpt lat="42.42476486061284" lon="13.937709314094059"><ele>237.0</ele><time>2026-03-29T08:50:09Z</time></trkpt><trkpt lat="42.42473864483209" lon="13.937556582777681"><ele>237.0</ele><time>2026-03-29T08:50:10Z</time></trkpt><trkpt lat="42.42470535524369" lon="13.937405128687868"><ele>237.0</ele><time>2026-03-29T08:50:11Z</time></trkpt><trkpt lat="42.42466681166791" lon="13.93725312517849"><ele>237.0</ele><time>2026-03-29T08:50:12Z</time></trkpt><trkpt lat="42.42463277371246" lon="13.937099373578956"><ele>232.75</ele><time>2026-03-29T08:50:13Z</time></trkpt><trkpt lat="42.42460552849212" lon="13.936940711800228"><ele>228.5</ele><time>2026-03-29T08:50:14Z</time></trkpt><trkpt lat="42.4245761529354" lon="13.93678474526764"><ele>224.25</ele><time>2026-03-29T08:50:15Z</time></trkpt><trkpt lat="42.42454620516187" lon="13.936630479741972"><ele>220.0</ele><time>2026-03-29T08:50:16Z</time></trkpt><trkpt lat="42.424521559192655" lon="13.93648074452277"><ele>219.25</ele><time>2026-03-29T08:50:17Z</time></trkpt><trkpt lat="42.42450367300075" lon="13.936328504941498"><ele>218.5</ele><time>2026-03-29T08:50:18Z</time></trkpt><trkpt lat="42.42450248624185" lon="13.93617257419994"><ele>217.75</ele><time>2026-03-29T08:50:19Z</time></trkpt><trkpt lat="42.42451310935444" lon="13.936013104032941"><ele>217.0</ele><time>2026-03-29T08:50:20Z</time></trkpt><trkpt lat="42.424533654079646" lon="13.935859868169407"><ele>216.39999999999998</ele><time>2026-03-29T08:50:21Z</time></trkpt><trkpt lat="42.424569096790734" lon="13.935726929729679"><ele>215.79999999999998</ele><time>2026-03-29T08:50:22Z</time></trkpt><trkpt lat="42.42461990034684" lon="13.935610314110553"><ele>215.2</ele><time>2026-03-29T08:50:23Z</time></trkpt><trkpt lat="42.42464573500437" lon="13.935493642128693"><ele>214.6</ele><time>2026-03-29T08:50:24Z</time></trkpt><trkpt lat="42.42462850534592" lon="13.935376695086221"><ele>214.0</ele><time>2026-03-29T08:50:25Z</time></trkpt><trkpt lat="42.42456375393903" lon="13.935269982384956"><ele>214.0</ele><time>2026-03-29T08:50:26Z</time></trkpt><trkpt lat="42.42446278242838" lon="13.935195732012827"><ele>214.0</ele><time>2026-03-29T08:50:27Z</time></trkpt><trkpt lat="42.42433440869603" lon="13.935194898805314"><ele>214.0</ele><time>2026-03-29T08:50:28Z</time></trkpt><trkpt lat="42.42419195059847" lon="13.935220809000121"><ele>214.0</ele><time>2026-03-29T08:50:29Z</time></trkpt><trkpt lat="42.42406108862744" lon="13.935254207838195"><ele>214.0</ele><time>2026-03-29T08:50:30Z</time></trkpt><trkpt lat="42.42395105165453" lon="13.93527879242262"><ele>213.99999999999997</ele><time>2026-03-29T08:50:31Z</time></trkpt><trkpt lat="42.42385032799217" lon="13.935278414569899"><ele>213.99999999999997</ele><time>2026-03-29T08:50:32Z</time></trkpt><trkpt lat="42.42376958531659" lon="13.935234801414072"><ele>214.0</ele><time>2026-03-29T08:50:33Z</time></trkpt><trkpt lat="42.4237038614784" lon="13.935164821863905"><ele>214.0</ele><time>2026-03-29T08:50:34Z</time></trkpt><trkpt lat="42.423666461906755" lon="13.935089239236973"><ele>212.0</ele><time>2026-03-29T08:50:35Z</time></trkpt><trkpt lat="42.423639525150115" lon="13.935011003050892"><ele>209.99999999999997</ele><time>2026-03-29T08:50:36Z</time></trkpt><trkpt lat="42.42360078248042" lon="13.934931011288167"><ele>208.0</ele><time>2026-03-29T08:50:37Z</time></trkpt><trkpt lat="42.423523745335906" lon="13.934832283795322"><ele>206.0</ele><time>2026-03-29T08:50:38Z</time></trkpt><trkpt lat="42.42343852067139" lon="13.934736864215449"><ele>204.0</ele><time>2026-03-29T08:50:39Z</time></trkpt><trkpt lat="42.42334241165798" lon="13.934648295631284"><ele>204.0</ele><time>2026-03-29T08:50:40Z</time></trkpt><trkpt lat="42.42325989772619" lon="13.934534200535532"><ele>204.0</ele><time>2026-03-29T08:50:41Z</time></trkpt><trkpt lat="42.423184474816146" lon="13.934414120138234"><ele>204.0</ele><time>2026-03-29T08:50:42Z</time></trkpt><trkpt lat="42.42311027905905" lon="13.934293970944433"><ele>204.0</ele><time>2026-03-29T08:50:43Z</time></trkpt><trkpt lat="42.423033422286565" lon="13.934167122744718"><ele>202.5</ele><time>2026-03-29T08:50:44Z</time></trkpt><trkpt lat="42.42295154729471" lon="13.934040655982765"><ele>201.0</ele><time>2026-03-29T08:50:45Z</time></trkpt><trkpt lat="42.422861054298366" lon="13.93393189248324"><ele>199.5</ele><time>2026-03-29T08:50:46Z</time></trkpt><trkpt lat="42.422755071824824" lon="13.933870759509894"><ele>198.0</ele><time>2026-03-29T08:50:47Z</time></trkpt><trkpt lat="42.422638736884245" lon="13.93386924441959"><ele>198.0</ele><time>2026-03-29T08:50:48Z</time></trkpt><trkpt lat="42.42252271475902" lon="13.933930034170157"><ele>198.0</ele><time>2026-03-29T08:50:49Z</time></trkpt><trkpt lat="42.42243123091205" lon="13.93404784162772"><ele>198.0</ele><time>2026-03-29T08:50:50Z</time></trkpt><trkpt lat="42.42238262302582" lon="13.934203928025784"><ele>198.0</ele><time>2026-03-29T08:50:51Z</time></trkpt><trkpt lat="42.42237370058818" lon="13.934378186309678"><ele>197.25</ele><time>2026-03-29T08:50:52Z</time></trkpt><trkpt lat="42.42239064910441" lon="13.934554670551863"><ele>196.5</ele><time>2026-03-29T08:50:53Z</time></trkpt><trkpt lat="42.422412748963204" lon="13.93476251221786"><ele>195.75</ele><time>2026-03-29T08:50:54Z</time></trkpt><trkpt lat="42.42243571885509" lon="13.93496187007646"><ele>195.0</ele><time>2026-03-29T08:50:55Z</time></trkpt><trkpt lat="42.42241380460322" lon="13.935146973867488"><ele>194.25</ele><time>2026-03-29T08:50:56Z</time></trkpt><trkpt lat="42.4223544624534" lon="13.935316011353342"><ele>193.5</ele><time>2026-03-29T08:50:57Z</time></trkpt><trkpt lat="42.42228669607912" lon="13.935484265964304"><ele>192.75</ele><time>2026-03-29T08:50:58Z</time></trkpt><trkpt lat="42.422215816787606" lon="13.935646821365152"><ele>192.0</ele><time>2026-03-29T08:50:59Z</time></trkpt><trkpt lat="42.42212894430247" lon="13.935791622825173"><ele>189.75</ele><time>2026-03-29T08:51:00Z</time></trkpt><trkpt lat="42.422012797897814" lon="13.935900545949067"><ele>187.5</ele><time>2026-03-29T08:51:01Z</time></trkpt><trkpt lat="42.421882236848326" lon="13.935940156645756"><ele>185.25</ele><time>2026-03-29T08:51:02Z</time></trkpt><trkpt lat="42.42174231799335" lon="13.935896421911695"><ele>183.0</ele><time>2026-03-29T08:51:03Z</time></trkpt><trkpt lat="42.42161074587547" lon="13.93590076044979"><ele>183.0</ele><time>2026-03-29T08:51:04Z</time></trkpt><trkpt lat="42.42148920871618" lon="13.93588720228291"><ele>183.0</ele><time>2026-03-29T08:51:05Z</time></trkpt><trkpt lat="42.42137520024424" lon="13.935885895031427"><ele>183.0</ele><time>2026-03-29T08:51:06Z</time></trkpt><trkpt lat="42.42125780372416" lon="13.935880417957243"><ele>183.0</ele><time>2026-03-29T08:51:07Z</time></trkpt><trkpt lat="42.421138697587054" lon="13.935841995418434"><ele>184.4</ele><time>2026-03-29T08:51:08Z</time></trkpt><trkpt lat="42.42103494419083" lon="13.935795041541564"><ele>185.8</ele><time>2026-03-29T08:51:09Z</time></trkpt><trkpt lat="42.4209604525205" lon="13.935724789266073"><ele>187.2</ele><time>2026-03-29T08:51:10Z</time></trkpt><trkpt lat="42.42091057413766" lon="13.935642423407646"><ele>188.6</ele><time>2026-03-29T08:51:11Z</time></trkpt><trkpt lat="42.42085897657422" lon="13.935580595982291"><ele>190.0</ele><time>2026-03-29T08:51:12Z</time></trkpt><trkpt lat="42.42080864441822" lon="13.935438487694725"><ele>190.0</ele><time>2026-03-29T08:51:14Z</time></trkpt><trkpt lat="42.42073156657031" lon="13.935404749860668"><ele>190.0</ele><time>2026-03-29T08:51:16Z</time></trkpt><trkpt lat="42.42070171377339" lon="13.935520456448721"><ele>190.0</ele><time>2026-03-29T08:51:18Z</time></trkpt><trkpt lat="42.42071111112623" lon="13.93561370593251"><ele>190.0</ele><time>2026-03-29T08:51:19Z</time></trkpt><trkpt lat="42.42072029379639" lon="13.935735460975168"><ele>190.0</ele><time>2026-03-29T08:51:20Z</time></trkpt><trkpt lat="42.42073272517963" lon="13.935874431154573"><ele>190.0</ele><time>2026-03-29T08:51:21Z</time></trkpt><trkpt lat="42.42076032735214" lon="13.936004553391575"><ele>189.0</ele><time>2026-03-29T08:51:22Z</time></trkpt><trkpt lat="42.420777705887176" lon="13.93612930876814"><ele>188.0</ele><time>2026-03-29T08:51:23Z</time></trkpt><trkpt lat="42.42075474534037" lon="13.936268950850721"><ele>187.0</ele><time>2026-03-29T08:51:24Z</time></trkpt><trkpt lat="42.42069451950246" lon="13.936413894941158"><ele>186.0</ele><time>2026-03-29T08:51:25Z</time></trkpt><trkpt lat="42.42063062138075" lon="13.93653457986264"><ele>185.0</ele><time>2026-03-29T08:51:26Z</time></trkpt><trkpt lat="42.420556498609095" lon="13.936635000099683"><ele>185.0</ele><time>2026-03-29T08:51:27Z</time></trkpt><trkpt lat="42.42049642551518" lon="13.936759718892855"><ele>185.0</ele><time>2026-03-29T08:51:28Z</time></trkpt><trkpt lat="42.42045238868451" lon="13.936911119480243"><ele>185.0</ele><time>2026-03-29T08:51:29Z</time></trkpt><trkpt lat="42.420412563237264" lon="13.937073201214972"><ele>185.0</ele><time>2026-03-29T08:51:30Z</time></trkpt><trkpt lat="42.42035802195062" lon="13.937242402344705"><ele>185.0</ele><time>2026-03-29T08:51:31Z</time></trkpt><trkpt lat="42.42029856906942" lon="13.937411430899521"><ele>185.0</ele><time>2026-03-29T08:51:32Z</time></trkpt><trkpt lat="42.420236762843174" lon="13.937599217925111"><ele>185.0</ele><time>2026-03-29T08:51:33Z</time></trkpt><trkpt lat="42.420176540146485" lon="13.937788368008098"><ele>185.0</ele><time>2026-03-29T08:51:34Z</time></trkpt><trkpt lat="42.420121810318626" lon="13.93797633541361"><ele>184.75</ele><time>2026-03-29T08:51:35Z</time></trkpt><trkpt lat="42.42007031877502" lon="13.938155033113674"><ele>184.5</ele><time>2026-03-29T08:51:36Z</time></trkpt><trkpt lat="42.42000886016069" lon="13.938313369862252"><ele>184.25</ele><time>2026-03-29T08:51:37Z</time></trkpt><trkpt lat="42.41994231719131" lon="13.93844440440375"><ele>184.0</ele><time>2026-03-29T08:51:38Z</time></trkpt><trkpt lat="42.419883076713816" lon="13.938534286277934"><ele>183.2</ele><time>2026-03-29T08:51:39Z</time></trkpt><trkpt lat="42.4197936334476" lon="13.938603410668685"><ele>182.39999999999998</ele><time>2026-03-29T08:51:41Z</time></trkpt><trkpt lat="42.41971894817969" lon="13.938590476010967"><ele>181.6</ele><time>2026-03-29T08:51:42Z</time></trkpt><trkpt lat="42.41961270182259" lon="13.938541864039038"><ele>180.8</ele><time>2026-03-29T08:51:43Z</time></trkpt><trkpt lat="42.41948689133999" lon="13.938495147979097"><ele>180.0</ele><time>2026-03-29T08:51:44Z</time></trkpt><trkpt lat="42.41935109297532" lon="13.938481619296745"><ele>179.75</ele><time>2026-03-29T08:51:45Z</time></trkpt><trkpt lat="42.419213022177445" lon="13.938481674403109"><ele>179.5</ele><time>2026-03-29T08:51:46Z</time></trkpt><trkpt lat="42.41908489942188" lon="13.938469111494555"><ele>179.25</ele><time>2026-03-29T08:51:47Z</time></trkpt><trkpt lat="42.418960375428604" lon="13.938451417793374"><ele>179.0</ele><time>2026-03-29T08:51:48Z</time></trkpt><trkpt lat="42.418871680908524" lon="13.93843795162713"><ele>179.2857142857143</ele><time>2026-03-29T08:51:49Z</time></trkpt><trkpt lat="42.418802802008095" lon="13.938436939707742"><ele>179.57142857142858</ele><time>2026-03-29T08:51:51Z</time></trkpt><trkpt lat="42.41874322344496" lon="13.938398741803766"><ele>179.85714285714286</ele><time>2026-03-29T08:51:54Z</time></trkpt><trkpt lat="42.4187433107599" lon="13.938313400311301"><ele>180.14285714285717</ele><time>2026-03-29T08:51:56Z</time></trkpt><trkpt lat="42.418772669398535" lon="13.938168585694696"><ele>180.42857142857142</ele><time>2026-03-29T08:51:58Z</time></trkpt><trkpt lat="42.41877642132627" lon="13.93807079070758"><ele>180.71428571428572</ele><time>2026-03-29T08:51:59Z</time></trkpt><trkpt lat="42.41877717323599" lon="13.937978819857479"><ele>181.0</ele><time>2026-03-29T08:52:00Z</time></trkpt><trkpt lat="42.418768980499344" lon="13.937874131041188"><ele>183.0</ele><time>2026-03-29T08:52:01Z</time></trkpt><trkpt lat="42.41875690051401" lon="13.937767341291567"><ele>185.0</ele><time>2026-03-29T08:52:02Z</time></trkpt><trkpt lat="42.41872236620129" lon="13.9376666342489"><ele>187.0</ele><time>2026-03-29T08:52:04Z</time></trkpt><trkpt lat="42.418659496401006" lon="13.937740908815966"><ele>189.0</ele><time>2026-03-29T08:52:06Z</time></trkpt><trkpt lat="42.41858744649651" lon="13.937832035772459"><ele>191.0</ele><time>2026-03-29T08:52:07Z</time></trkpt><trkpt lat="42.41851157438874" lon="13.937944837995135"><ele>191.0</ele><time>2026-03-29T08:52:08Z</time></trkpt><trkpt lat="42.41844791631741" lon="13.938065718403923"><ele>191.0</ele><time>2026-03-29T08:52:09Z</time></trkpt><trkpt lat="42.41837023278857" lon="13.938171045442958"><ele>191.0</ele><time>2026-03-29T08:52:10Z</time></trkpt><trkpt lat="42.41828245314738" lon="13.938237474341575"><ele>191.0</ele><time>2026-03-29T08:52:11Z</time></trkpt><trkpt lat="42.418206140153515" lon="13.938279701012494"><ele>191.0</ele><time>2026-03-29T08:52:12Z</time></trkpt><trkpt lat="42.418133253116075" lon="13.938319010892208"><ele>191.0</ele><time>2026-03-29T08:52:13Z</time></trkpt><trkpt lat="42.418071463696045" lon="13.938358655239531"><ele>191.0</ele><time>2026-03-29T08:52:14Z</time></trkpt><trkpt lat="42.417992392046926" lon="13.938432530748697"><ele>191.0</ele><time>2026-03-29T08:52:16Z</time></trkpt><trkpt lat="42.41790487138314" lon="13.938538133243865"><ele>191.0</ele><time>2026-03-29T08:52:18Z</time></trkpt><trkpt lat="42.41776794911209" lon="13.938495516360293"><ele>191.0</ele><time>2026-03-29T08:52:20Z</time></trkpt><trkpt lat="42.41768522815612" lon="13.938441531308637"><ele>190.0</ele><time>2026-03-29T08:52:21Z</time></trkpt><trkpt lat="42.41762242343206" lon="13.938424058840036"><ele>189.0</ele><time>2026-03-29T08:52:22Z</time></trkpt><trkpt lat="42.41751237547597" lon="13.93852055395217"><ele>188.0</ele><time>2026-03-29T08:52:24Z</time></trkpt><trkpt lat="42.417451711925644" lon="13.93861703637788"><ele>187.0</ele><time>2026-03-29T08:52:25Z</time></trkpt><trkpt lat="42.417383260169935" lon="13.93869944102635"><ele>186.0</ele><time>2026-03-29T08:52:26Z</time></trkpt><trkpt lat="42.41730024647527" lon="13.93873859835749"><ele>186.0</ele><time>2026-03-29T08:52:27Z</time></trkpt><trkpt lat="42.41719896576391" lon="13.938750028520113"><ele>186.0</ele><time>2026-03-29T08:52:28Z</time></trkpt><trkpt lat="42.41710975623009" lon="13.938763436342683"><ele>186.0</ele><time>2026-03-29T08:52:29Z</time></trkpt><trkpt lat="42.41703439800595" lon="13.938812948334522"><ele>186.0</ele><time>2026-03-29T08:52:31Z</time></trkpt><trkpt lat="42.41695648686786" lon="13.93879828288892"><ele>186.0</ele><time>2026-03-29T08:52:33Z</time></trkpt><trkpt lat="42.41688539721652" lon="13.938744919996292"><ele>186.0</ele><time>2026-03-29T08:52:34Z</time></trkpt><trkpt lat="42.41681327092456" lon="13.938655087049533"><ele>186.4</ele><time>2026-03-29T08:52:35Z</time></trkpt><trkpt lat="42.41677170510616" lon="13.93854306676321"><ele>186.8</ele><time>2026-03-29T08:52:36Z</time></trkpt><trkpt lat="42.41675463911301" lon="13.93841078670721"><ele>187.20000000000002</ele><time>2026-03-29T08:52:37Z</time></trkpt><trkpt lat="42.4167513932966" lon="13.938249056138158"><ele>187.60000000000002</ele><time>2026-03-29T08:52:38Z</time></trkpt><trkpt lat="42.416738604636926" lon="13.938075170105213"><ele>188.0</ele><time>2026-03-29T08:52:39Z</time></trkpt><trkpt lat="42.4166990862282" lon="13.937929732260848"><ele>190.0</ele><time>2026-03-29T08:52:40Z</time></trkpt><trkpt lat="42.4166007889131" lon="13.937812217591981"><ele>192.0</ele><time>2026-03-29T08:52:41Z</time></trkpt><trkpt lat="42.41646553933959" lon="13.937672051304542"><ele>194.0</ele><time>2026-03-29T08:52:42Z</time></trkpt><trkpt lat="42.4163464502689" lon="13.937526393583047"><ele>193.5</ele><time>2026-03-29T08:52:43Z</time></trkpt><trkpt lat="42.41626127315356" lon="13.937372236304007"><ele>193.0</ele><time>2026-03-29T08:52:44Z</time></trkpt><trkpt lat="42.41618282269508" lon="13.937197231285133"><ele>192.5</ele><time>2026-03-29T08:52:45Z</time></trkpt><trkpt lat="42.416108327407606" lon="13.937031518168737"><ele>192.0</ele><time>2026-03-29T08:52:46Z</time></trkpt><trkpt lat="42.41603933309303" lon="13.936863746523372"><ele>194.75</ele><time>2026-03-29T08:52:47Z</time></trkpt><trkpt lat="42.41598316830354" lon="13.936695682161533"><ele>197.5</ele><time>2026-03-29T08:52:48Z</time></trkpt><trkpt lat="42.41594492113714" lon="13.936535033034907"><ele>200.25</ele><time>2026-03-29T08:52:49Z</time></trkpt><trkpt lat="42.41592608891261" lon="13.936375780932368"><ele>203.0</ele><time>2026-03-29T08:52:50Z</time></trkpt><trkpt lat="42.415922153161176" lon="13.936222728544024"><ele>203.0</ele><time>2026-03-29T08:52:51Z</time></trkpt><trkpt lat="42.41591833021891" lon="13.936074915165332"><ele>203.0</ele><time>2026-03-29T08:52:52Z</time></trkpt><trkpt lat="42.4159113332137" lon="13.9359408310579"><ele>203.0</ele><time>2026-03-29T08:52:53Z</time></trkpt><trkpt lat="42.41590560967692" lon="13.93583075025892"><ele>203.0</ele><time>2026-03-29T08:52:54Z</time></trkpt><trkpt lat="42.415884656887584" lon="13.935701850489293"><ele>203.0</ele><time>2026-03-29T08:52:56Z</time></trkpt><trkpt lat="42.415806879625414" lon="13.935662631258431"><ele>204.16666666666669</ele><time>2026-03-29T08:52:59Z</time></trkpt><trkpt lat="42.41573711821683" lon="13.935688924222823"><ele>205.33333333333334</ele><time>2026-03-29T08:53:00Z</time></trkpt><trkpt lat="42.41566859520934" lon="13.935721995854301"><ele>206.5</ele><time>2026-03-29T08:53:01Z</time></trkpt><trkpt lat="42.41559160890667" lon="13.935737494310718"><ele>207.66666666666669</ele><time>2026-03-29T08:53:02Z</time></trkpt><trkpt lat="42.41550278012185" lon="13.935741512308182"><ele>208.83333333333334</ele><time>2026-03-29T08:53:03Z</time></trkpt><trkpt lat="42.41541881650534" lon="13.935726812087443"><ele>210.0</ele><time>2026-03-29T08:53:04Z</time></trkpt><trkpt lat="42.41535592885945" lon="13.935704678956183"><ele>211.0</ele><time>2026-03-29T08:53:05Z</time></trkpt><trkpt lat="42.41528852115621" lon="13.935679532249571"><ele>212.0</ele><time>2026-03-29T08:53:07Z</time></trkpt><trkpt lat="42.41522014435142" lon="13.935753810532702"><ele>213.0</ele><time>2026-03-29T08:53:11Z</time></trkpt><trkpt lat="42.41514291935942" lon="13.935811219796026"><ele>214.0</ele><time>2026-03-29T08:53:17Z</time></trkpt><trkpt lat="42.415187754705215" lon="13.935875769239379"><ele>215.0</ele><time>2026-03-29T08:53:20Z</time></trkpt><trkpt lat="42.41523652621309" lon="13.935811215417703"><ele>216.0</ele><time>2026-03-29T08:53:59Z</time></trkpt><trkpt lat="42.41530735055734" lon="13.935804768843296"><ele>216.0</ele><time>2026-03-29T08:54:07Z</time></trkpt><trkpt lat="42.41536255548129" lon="13.935846338173032"><ele>216.0</ele><time>2026-03-29T08:54:34Z</time></trkpt><trkpt lat="42.41534463788578" lon="13.935959465163506"><ele>216.0</ele><time>2026-03-29T09:12:53Z</time></trkpt><trkpt lat="42.41532800260882" lon="13.936050666333152"><ele>216.0</ele><time>2026-03-29T09:12:56Z</time></trkpt><trkpt lat="42.41531282411019" lon="13.936139824507672"><ele>216.0</ele><time>2026-03-29T09:12:58Z</time></trkpt><trkpt lat="42.415293615360994" lon="13.936230606091268"><ele>216.0</ele><time>2026-03-29T09:13:07Z</time></trkpt><trkpt lat="42.41524663564953" lon="13.93630246082113"><ele>216.0</ele><time>2026-03-29T09:13:16Z</time></trkpt><trkpt lat="42.41525462632422" lon="13.936200591644987"><ele>216.0</ele><time>2026-03-29T09:13:17Z</time></trkpt><trkpt lat="42.415254984204694" lon="13.936092034569775"><ele>216.0</ele><time>2026-03-29T09:13:19Z</time></trkpt><trkpt lat="42.415262284639155" lon="13.9359992155408"><ele>216.0</ele><time>2026-03-29T09:13:23Z</time></trkpt><trkpt lat="42.41530800652222" lon="13.93592240485164"><ele>216.0</ele><time>2026-03-29T09:13:29Z</time></trkpt><trkpt lat="42.41533650484367" lon="13.93583953688652"><ele>216.0</ele><time>2026-03-29T09:13:33Z</time></trkpt><trkpt lat="42.41527720161768" lon="13.935797938201237"><ele>216.0</ele><time>2026-03-29T09:15:35Z</time></trkpt><trkpt lat="42.41524885936707" lon="13.93567088675661"><ele>216.0</ele><time>2026-03-29T09:17:12.999Z</time></trkpt><trkpt lat="42.41518829927817" lon="13.935615481875981"><ele>216.00000000000003</ele><time>2026-03-29T09:17:13.999Z</time></trkpt><trkpt lat="42.415122574529356" lon="13.93556122072539"><ele>216.00000000000003</ele><time>2026-03-29T09:17:14.999Z</time></trkpt><trkpt lat="42.415041138309235" lon="13.935478529872178"><ele>216.0</ele><time>2026-03-29T09:17:15.999Z</time></trkpt><trkpt lat="42.414950421598796" lon="13.93540295510302"><ele>216.0</ele><time>2026-03-29T09:17:16.999Z</time></trkpt><trkpt lat="42.41484899492689" lon="13.93534665094121"><ele>216.0</ele><time>2026-03-29T09:17:17.999Z</time></trkpt><trkpt lat="42.414737749739324" lon="13.935264748630509"><ele>216.00000000000003</ele><time>2026-03-29T09:17:18.999Z</time></trkpt><trkpt lat="42.41466422500022" lon="13.935204998375491"><ele>216.00000000000003</ele><time>2026-03-29T09:17:19.999Z</time></trkpt><trkpt lat="42.41457178778238" lon="13.935152034688842"><ele>216.0</ele><time>2026-03-29T09:17:20.999Z</time></trkpt><trkpt lat="42.41451511129331" lon="13.935103790508231"><ele>216.0</ele><time>2026-03-29T09:17:21.999Z</time></trkpt><trkpt lat="42.41440452384303" lon="13.935046713997032"><ele>217.8</ele><time>2026-03-29T09:17:23.999Z</time></trkpt><trkpt lat="42.41430708180815" lon="13.93502702260578"><ele>219.60000000000002</ele><time>2026-03-29T09:17:25.999Z</time></trkpt><trkpt lat="42.41422587049568" lon="13.934910636509318"><ele>221.4</ele><time>2026-03-29T09:17:27.999Z</time></trkpt><trkpt lat="42.41417097211245" lon="13.934814014080194"><ele>223.2</ele><time>2026-03-29T09:17:28.999Z</time></trkpt><trkpt lat="42.41412552255124" lon="13.934666678940848"><ele>225.0</ele><time>2026-03-29T09:17:30.999Z</time></trkpt><trkpt lat="42.414061060489004" lon="13.934530045241647"><ele>225.0</ele><time>2026-03-29T09:17:32.999Z</time></trkpt><trkpt lat="42.414017949375186" lon="13.934465436119666"><ele>225.0</ele><time>2026-03-29T09:17:33.999Z</time></trkpt><trkpt lat="42.4139564938663" lon="13.93440061925349"><ele>225.0</ele><time>2026-03-29T09:17:34.999Z</time></trkpt><trkpt lat="42.413883892728336" lon="13.934305585398743"><ele>225.0</ele><time>2026-03-29T09:17:36.999Z</time></trkpt><trkpt lat="42.41383766673758" lon="13.93420825833671"><ele>225.0</ele><time>2026-03-29T09:17:42.999Z</time></trkpt><trkpt lat="42.413761036571" lon="13.934117869436637"><ele>225.0</ele><time>2026-03-29T09:17:46.999Z</time></trkpt><trkpt lat="42.41368100789602" lon="13.934053318632067"><ele>228.0</ele><time>2026-03-29T09:17:48.999Z</time></trkpt><trkpt lat="42.413616889628095" lon="13.934007540388095"><ele>231.0</ele><time>2026-03-29T09:17:49.999Z</time></trkpt><trkpt lat="42.41350546735587" lon="13.933908901303411"><ele>234.0</ele><time>2026-03-29T09:17:51.999Z</time></trkpt><trkpt lat="42.41342884909972" lon="13.933860469133336"><ele>237.0</ele><time>2026-03-29T09:17:52.999Z</time></trkpt><trkpt lat="42.413341861783216" lon="13.933834783718435"><ele>240.0</ele><time>2026-03-29T09:17:53.999Z</time></trkpt><trkpt lat="42.41326591322434" lon="13.93379535088383"><ele>240.0</ele><time>2026-03-29T09:17:55.999Z</time></trkpt><trkpt lat="42.41317250673415" lon="13.933671228808818"><ele>240.0</ele><time>2026-03-29T09:17:57.999Z</time></trkpt><trkpt lat="42.41312158910238" lon="13.933598961028009"><ele>240.0</ele><time>2026-03-29T09:17:58.999Z</time></trkpt><trkpt lat="42.413068198220806" lon="13.93352697612096"><ele>240.0</ele><time>2026-03-29T09:17:59.999Z</time></trkpt><trkpt lat="42.413009306423476" lon="13.93345592597759"><ele>240.0</ele><time>2026-03-29T09:18:00.999Z</time></trkpt><trkpt lat="42.41294231258246" lon="13.933390279131567"><ele>240.0</ele><time>2026-03-29T09:18:01.999Z</time></trkpt><trkpt lat="42.41286943122545" lon="13.933312199074996"><ele>240.8</ele><time>2026-03-29T09:18:02.999Z</time></trkpt><trkpt lat="42.412799967872544" lon="13.933223203292707"><ele>241.6</ele><time>2026-03-29T09:18:03.999Z</time></trkpt><trkpt lat="42.412726461748306" lon="13.933130977939035"><ele>242.39999999999998</ele><time>2026-03-29T09:18:04.999Z</time></trkpt><trkpt lat="42.41264979598134" lon="13.93304493049967"><ele>243.2</ele><time>2026-03-29T09:18:05.999Z</time></trkpt><trkpt lat="42.41257336540573" lon="13.932959985024379"><ele>244.0</ele><time>2026-03-29T09:18:06.999Z</time></trkpt><trkpt lat="42.412498338621994" lon="13.932871749805578"><ele>244.0</ele><time>2026-03-29T09:18:07.999Z</time></trkpt><trkpt lat="42.41241992742744" lon="13.932777301914495"><ele>243.99999999999997</ele><time>2026-03-29T09:18:08.999Z</time></trkpt><trkpt lat="42.41233696838771" lon="13.932680892573691"><ele>243.99999999999997</ele><time>2026-03-29T09:18:09.999Z</time></trkpt><trkpt lat="42.412252696748325" lon="13.932584386524594"><ele>244.0</ele><time>2026-03-29T09:18:10.999Z</time></trkpt><trkpt lat="42.41217561161182" lon="13.932495491008416"><ele>244.0</ele><time>2026-03-29T09:18:11.999Z</time></trkpt><trkpt lat="42.41208983506718" lon="13.932394590289253"><ele>244.75</ele><time>2026-03-29T09:18:12.999Z</time></trkpt><trkpt lat="42.411995176460415" lon="13.932279339172139"><ele>245.5</ele><time>2026-03-29T09:18:13.999Z</time></trkpt><trkpt lat="42.411892142984364" lon="13.932151956014264"><ele>246.25</ele><time>2026-03-29T09:18:14.999Z</time></trkpt><trkpt lat="42.411788080036914" lon="13.932023558513198"><ele>247.0</ele><time>2026-03-29T09:18:15.999Z</time></trkpt><trkpt lat="42.41168000769259" lon="13.93189597006742"><ele>247.0</ele><time>2026-03-29T09:18:16.999Z</time></trkpt><trkpt lat="42.41156262978401" lon="13.931781151714992"><ele>247.0</ele><time>2026-03-29T09:18:17.999Z</time></trkpt><trkpt lat="42.411443400661135" lon="13.93167450808877"><ele>247.0</ele><time>2026-03-29T09:18:18.999Z</time></trkpt><trkpt lat="42.41132203240095" lon="13.931583240685553"><ele>247.0</ele><time>2026-03-29T09:18:19.999Z</time></trkpt><trkpt lat="42.41120148983092" lon="13.93148999619678"><ele>248.5</ele><time>2026-03-29T09:18:20.999Z</time></trkpt><trkpt lat="42.41108159537033" lon="13.931399993746245"><ele>250.0</ele><time>2026-03-29T09:18:21.999Z</time></trkpt><trkpt lat="42.41096279763376" lon="13.931311580463575"><ele>251.5</ele><time>2026-03-29T09:18:22.999Z</time></trkpt><trkpt lat="42.41085052024419" lon="13.931219455316112"><ele>253.0</ele><time>2026-03-29T09:18:23.999Z</time></trkpt><trkpt lat="42.4107379754753" lon="13.931125749368436"><ele>253.0</ele><time>2026-03-29T09:18:24.999Z</time></trkpt><trkpt lat="42.41062708974855" lon="13.931037157072897"><ele>253.0</ele><time>2026-03-29T09:18:25.999Z</time></trkpt><trkpt lat="42.410519081508404" lon="13.930950671556921"><ele>253.0</ele><time>2026-03-29T09:18:26.999Z</time></trkpt><trkpt lat="42.41041484843404" lon="13.930864826627424"><ele>253.0</ele><time>2026-03-29T09:18:27.999Z</time></trkpt><trkpt lat="42.41030960318788" lon="13.930776808586918"><ele>253.5</ele><time>2026-03-29T09:18:28.999Z</time></trkpt><trkpt lat="42.41020168594581" lon="13.930687010130173"><ele>254.0</ele><time>2026-03-29T09:18:29.999Z</time></trkpt><trkpt lat="42.41009412452489" lon="13.93060503242624"><ele>254.5</ele><time>2026-03-29T09:18:30.999Z</time></trkpt><trkpt lat="42.40999150962896" lon="13.930523915128068"><ele>255.0</ele><time>2026-03-29T09:18:31.999Z</time></trkpt><trkpt lat="42.409902169728845" lon="13.930443439608734"><ele>255.0</ele><time>2026-03-29T09:18:32.999Z</time></trkpt><trkpt lat="42.409821841032795" lon="13.930366151038106"><ele>255.0</ele><time>2026-03-29T09:18:33.999Z</time></trkpt><trkpt lat="42.409739393757604" lon="13.930306427150061"><ele>255.0</ele><time>2026-03-29T09:18:34.999Z</time></trkpt><trkpt lat="42.40964721095482" lon="13.930298786677577"><ele>255.0</ele><time>2026-03-29T09:18:35.999Z</time></trkpt><trkpt lat="42.409557520440075" lon="13.93033510588633"><ele>255.0</ele><time>2026-03-29T09:18:36.999Z</time></trkpt><trkpt lat="42.40947805450572" lon="13.930403548066243"><ele>257.5</ele><time>2026-03-29T09:18:37.999Z</time></trkpt><trkpt lat="42.40939978719557" lon="13.930495694087643"><ele>260.0</ele><time>2026-03-29T09:18:38.999Z</time></trkpt><trkpt lat="42.40931206055139" lon="13.93062085337626"><ele>262.5</ele><time>2026-03-29T09:18:39.999Z</time></trkpt><trkpt lat="42.40921826478749" lon="13.930732141057753"><ele>265.0</ele><time>2026-03-29T09:18:40.999Z</time></trkpt><trkpt lat="42.40913013564963" lon="13.930833555334083"><ele>264.3333333333333</ele><time>2026-03-29T09:18:41.999Z</time></trkpt><trkpt lat="42.40904841554763" lon="13.93092646326183"><ele>263.66666666666663</ele><time>2026-03-29T09:18:42.999Z</time></trkpt><trkpt lat="42.408976740321194" lon="13.930975484533231"><ele>263.0</ele><time>2026-03-29T09:18:43.999Z</time></trkpt><trkpt lat="42.40890409528711" lon="13.9309966657931"><ele>262.3333333333333</ele><time>2026-03-29T09:18:44.999Z</time></trkpt><trkpt lat="42.40882917558481" lon="13.930998312413713"><ele>261.6666666666667</ele><time>2026-03-29T09:18:45.999Z</time></trkpt><trkpt lat="42.408751240840324" lon="13.930984620104274"><ele>261.0</ele><time>2026-03-29T09:18:46.999Z</time></trkpt><trkpt lat="42.40867591545567" lon="13.930957158680968"><ele>260.8</ele><time>2026-03-29T09:18:47.999Z</time></trkpt><trkpt lat="42.40860676780864" lon="13.930902888129069"><ele>260.6</ele><time>2026-03-29T09:18:48.999Z</time></trkpt><trkpt lat="42.408563185334316" lon="13.93078639379367"><ele>260.4</ele><time>2026-03-29T09:18:49.999Z</time></trkpt><trkpt lat="42.4084798953937" lon="13.930654180525895"><ele>260.2</ele><time>2026-03-29T09:18:50.999Z</time></trkpt><trkpt lat="42.40839469511208" lon="13.930502047951846"><ele>260.0</ele><time>2026-03-29T09:18:51.999Z</time></trkpt><trkpt lat="42.408303612799216" lon="13.930340341348368"><ele>261.5</ele><time>2026-03-29T09:18:52.999Z</time></trkpt><trkpt lat="42.408215028760004" lon="13.930185013631444"><ele>263.0</ele><time>2026-03-29T09:18:53.999Z</time></trkpt><trkpt lat="42.40814445670101" lon="13.930066731369024"><ele>264.5</ele><time>2026-03-29T09:18:55Z</time></trkpt><trkpt lat="42.408065327000564" lon="13.92996048013855"><ele>266.0</ele><time>2026-03-29T09:18:56Z</time></trkpt><trkpt lat="42.40796319359502" lon="13.929863336847434"><ele>266.0</ele><time>2026-03-29T09:18:57Z</time></trkpt><trkpt lat="42.407844159413926" lon="13.929783847589631"><ele>266.0</ele><time>2026-03-29T09:18:58Z</time></trkpt><trkpt lat="42.40772698671196" lon="13.929718339029733"><ele>266.0</ele><time>2026-03-29T09:18:59Z</time></trkpt><trkpt lat="42.40761965541229" lon="13.929656155613198"><ele>266.0</ele><time>2026-03-29T09:19:00Z</time></trkpt><trkpt lat="42.407525617268114" lon="13.92961880360912"><ele>266.0</ele><time>2026-03-29T09:19:01Z</time></trkpt><trkpt lat="42.40742509304478" lon="13.929606817641794"><ele>266.0</ele><time>2026-03-29T09:19:02Z</time></trkpt><trkpt lat="42.40730803461304" lon="13.929618757171847"><ele>266.0</ele><time>2026-03-29T09:19:03Z</time></trkpt><trkpt lat="42.40718442075823" lon="13.9296250641281"><ele>266.0</ele><time>2026-03-29T09:19:04Z</time></trkpt><trkpt lat="42.40707600317417" lon="13.929605061122418"><ele>265.0</ele><time>2026-03-29T09:19:05Z</time></trkpt><trkpt lat="42.4069888178753" lon="13.92956671435855"><ele>264.0</ele><time>2026-03-29T09:19:06Z</time></trkpt><trkpt lat="42.40691713369892" lon="13.929497531318278"><ele>263.0</ele><time>2026-03-29T09:19:07Z</time></trkpt><trkpt lat="42.406860946655314" lon="13.929405280996457"><ele>262.0</ele><time>2026-03-29T09:19:08Z</time></trkpt><trkpt lat="42.40681322332376" lon="13.929286735133859"><ele>261.0</ele><time>2026-03-29T09:19:09Z</time></trkpt><trkpt lat="42.40675738518584" lon="13.929142184718309"><ele>261.0</ele><time>2026-03-29T09:19:10Z</time></trkpt><trkpt lat="42.40670991720117" lon="13.929010040068778"><ele>261.0</ele><time>2026-03-29T09:19:11Z</time></trkpt><trkpt lat="42.40664389216223" lon="13.928904599052494"><ele>261.0</ele><time>2026-03-29T09:19:12Z</time></trkpt><trkpt lat="42.40653229551128" lon="13.928807842138346"><ele>261.0</ele><time>2026-03-29T09:19:13Z</time></trkpt><trkpt lat="42.406405227906156" lon="13.92870862026343"><ele>258.75</ele><time>2026-03-29T09:19:14Z</time></trkpt><trkpt lat="42.406287141197865" lon="13.928597810979737"><ele>256.5</ele><time>2026-03-29T09:19:15Z</time></trkpt><trkpt lat="42.406192852915126" lon="13.928493648524109"><ele>254.25</ele><time>2026-03-29T09:19:16Z</time></trkpt><trkpt lat="42.40612898923888" lon="13.92838721302339"><ele>252.0</ele><time>2026-03-29T09:19:17Z</time></trkpt><trkpt lat="42.40607978348608" lon="13.928259582334114"><ele>252.0</ele><time>2026-03-29T09:19:18Z</time></trkpt><trkpt lat="42.4060295336683" lon="13.928099031856174"><ele>252.0</ele><time>2026-03-29T09:19:19Z</time></trkpt><trkpt lat="42.405983068670004" lon="13.927915872355142"><ele>252.0</ele><time>2026-03-29T09:19:20Z</time></trkpt><trkpt lat="42.40593537581193" lon="13.927717429282877"><ele>252.0</ele><time>2026-03-29T09:19:21Z</time></trkpt><trkpt lat="42.40587765713848" lon="13.927515274704808"><ele>253.66666666666669</ele><time>2026-03-29T09:19:22Z</time></trkpt><trkpt lat="42.4058095284166" lon="13.927316294229739"><ele>255.33333333333334</ele><time>2026-03-29T09:19:23Z</time></trkpt><trkpt lat="42.405745130206036" lon="13.927133967352145"><ele>257.0</ele><time>2026-03-29T09:19:24Z</time></trkpt><trkpt lat="42.40568464343056" lon="13.926964405075676"><ele>257.0</ele><time>2026-03-29T09:19:25Z</time></trkpt><trkpt lat="42.405622772899406" lon="13.926802142925597"><ele>257.0</ele><time>2026-03-29T09:19:26Z</time></trkpt><trkpt lat="42.40556841825629" lon="13.926649681073991"><ele>257.0</ele><time>2026-03-29T09:19:27Z</time></trkpt><trkpt lat="42.4055288630155" lon="13.926480320257633"><ele>257.0</ele><time>2026-03-29T09:19:28Z</time></trkpt><trkpt lat="42.40550900072753" lon="13.926266344408821"><ele>254.75</ele><time>2026-03-29T09:19:29Z</time></trkpt><trkpt lat="42.40549452726294" lon="13.926038569295299"><ele>252.5</ele><time>2026-03-29T09:19:30Z</time></trkpt><trkpt lat="42.40547773384826" lon="13.925840415068068"><ele>250.25</ele><time>2026-03-29T09:19:31Z</time></trkpt><trkpt lat="42.40545322758936" lon="13.92567891368294"><ele>248.0</ele><time>2026-03-29T09:19:32Z</time></trkpt><trkpt lat="42.405397615769274" lon="13.925515198689077"><ele>248.0</ele><time>2026-03-29T09:19:33Z</time></trkpt><trkpt lat="42.40533352710624" lon="13.925384174047405"><ele>248.0</ele><time>2026-03-29T09:19:34Z</time></trkpt><trkpt lat="42.405282390157964" lon="13.925243852340884"><ele>248.0</ele><time>2026-03-29T09:19:35Z</time></trkpt><trkpt lat="42.40519797843999" lon="13.925096757368738"><ele>248.0</ele><time>2026-03-29T09:19:36Z</time></trkpt><trkpt lat="42.405093707057084" lon="13.924937365482139"><ele>251.33333333333334</ele><time>2026-03-29T09:19:37Z</time></trkpt><trkpt lat="42.404985455603814" lon="13.92478162434502"><ele>254.66666666666669</ele><time>2026-03-29T09:19:38Z</time></trkpt><trkpt lat="42.40487717385043" lon="13.924636953039817"><ele>258.0</ele><time>2026-03-29T09:19:39Z</time></trkpt><trkpt lat="42.40477398339688" lon="13.924494812166216"><ele>258.0</ele><time>2026-03-29T09:19:40Z</time></trkpt><trkpt lat="42.40469866936596" lon="13.924371432455793"><ele>258.0</ele><time>2026-03-29T09:19:41Z</time></trkpt><trkpt lat="42.40462051055909" lon="13.924231803095953"><ele>258.0</ele><time>2026-03-29T09:19:42Z</time></trkpt><trkpt lat="42.404545777922905" lon="13.924081475975159"><ele>258.0</ele><time>2026-03-29T09:19:43Z</time></trkpt><trkpt lat="42.40447319070545" lon="13.9239363013726"><ele>256.8333333333333</ele><time>2026-03-29T09:19:44Z</time></trkpt><trkpt lat="42.40439724649105" lon="13.923831324619956"><ele>255.66666666666669</ele><time>2026-03-29T09:19:45Z</time></trkpt><trkpt lat="42.40435166584429" lon="13.923734679260404"><ele>254.5</ele><time>2026-03-29T09:19:46Z</time></trkpt><trkpt lat="42.40430378372839" lon="13.923658341759191"><ele>253.33333333333334</ele><time>2026-03-29T09:19:47Z</time></trkpt><trkpt lat="42.404262573217906" lon="13.923574812916316"><ele>252.16666666666669</ele><time>2026-03-29T09:19:48Z</time></trkpt><trkpt lat="42.40420951938507" lon="13.923526886851514"><ele>251.0</ele><time>2026-03-29T09:19:49Z</time></trkpt><trkpt lat="42.404127476790336" lon="13.923474852896195"><ele>251.0</ele><time>2026-03-29T09:19:51Z</time></trkpt><trkpt lat="42.40405428011111" lon="13.923453076658216"><ele>251.0</ele><time>2026-03-29T09:19:54Z</time></trkpt><trkpt lat="42.40398297947441" lon="13.923403551955092"><ele>251.0</ele><time>2026-03-29T09:19:56Z</time></trkpt><trkpt lat="42.404014288501834" lon="13.923105629944613"><ele>251.0</ele><time>2026-03-29T09:19:58Z</time></trkpt><trkpt lat="42.40406677045858" lon="13.922971151892265"><ele>251.4</ele><time>2026-03-29T09:20:00Z</time></trkpt><trkpt lat="42.40410192199045" lon="13.922872578381837"><ele>251.8</ele><time>2026-03-29T09:20:01Z</time></trkpt><trkpt lat="42.40413046868813" lon="13.922764728981837"><ele>252.20000000000002</ele><time>2026-03-29T09:20:02Z</time></trkpt><trkpt lat="42.404146883161545" lon="13.922649780403518"><ele>252.60000000000002</ele><time>2026-03-29T09:20:03Z</time></trkpt><trkpt lat="42.404163077538556" lon="13.922508090241962"><ele>253.0</ele><time>2026-03-29T09:20:04Z</time></trkpt><trkpt lat="42.40418549431308" lon="13.922355927082915"><ele>255.5</ele><time>2026-03-29T09:20:05Z</time></trkpt><trkpt lat="42.40418191676053" lon="13.922178052711766"><ele>258.0</ele><time>2026-03-29T09:20:06Z</time></trkpt><trkpt lat="42.40414784717349" lon="13.92199065491856"><ele>260.5</ele><time>2026-03-29T09:20:07Z</time></trkpt><trkpt lat="42.40411735873226" lon="13.921775842348566"><ele>263.0</ele><time>2026-03-29T09:20:08Z</time></trkpt><trkpt lat="42.40410847991961" lon="13.921561488928257"><ele>265.25</ele><time>2026-03-29T09:20:09Z</time></trkpt><trkpt lat="42.404091344200026" lon="13.921351091507878"><ele>267.5</ele><time>2026-03-29T09:20:10Z</time></trkpt><trkpt lat="42.4040735430473" lon="13.921169360754766"><ele>269.75</ele><time>2026-03-29T09:20:11Z</time></trkpt><trkpt lat="42.40405031071626" lon="13.921016003826674"><ele>272.0</ele><time>2026-03-29T09:20:12Z</time></trkpt><trkpt lat="42.403975308627686" lon="13.920925198305937"><ele>272.0</ele><time>2026-03-29T09:20:14Z</time></trkpt><trkpt lat="42.40390501255714" lon="13.920941808004983"><ele>272.0</ele><time>2026-03-29T09:20:15Z</time></trkpt><trkpt lat="42.40386559399739" lon="13.921013462390592"><ele>272.0</ele><time>2026-03-29T09:20:16Z</time></trkpt><trkpt lat="42.40384580575301" lon="13.921142054534078"><ele>272.0</ele><time>2026-03-29T09:20:17Z</time></trkpt><trkpt lat="42.40377933501527" lon="13.921287092771015"><ele>272.0</ele><time>2026-03-29T09:20:18Z</time></trkpt><trkpt lat="42.403689790242545" lon="13.921440290309405"><ele>275.4</ele><time>2026-03-29T09:20:19Z</time></trkpt><trkpt lat="42.403618831161836" lon="13.921523220389979"><ele>278.79999999999995</ele><time>2026-03-29T09:20:20Z</time></trkpt><trkpt lat="42.403550987711355" lon="13.921558398829914"><ele>282.2</ele><time>2026-03-29T09:20:21Z</time></trkpt><trkpt lat="42.403453542716335" lon="13.921562645140032"><ele>285.59999999999997</ele><time>2026-03-29T09:20:22Z</time></trkpt><trkpt lat="42.40336921490184" lon="13.921554671020122"><ele>289.0</ele><time>2026-03-29T09:20:23Z</time></trkpt><trkpt lat="42.40326356803415" lon="13.921573869834573"><ele>289.0</ele><time>2026-03-29T09:20:24Z</time></trkpt><trkpt lat="42.403119321683974" lon="13.921552389063498"><ele>289.0</ele><time>2026-03-29T09:20:25Z</time></trkpt><trkpt lat="42.403004704280015" lon="13.92154531698097"><ele>289.0</ele><time>2026-03-29T09:20:26Z</time></trkpt><trkpt lat="42.40291112014336" lon="13.921515051092983"><ele>289.0</ele><time>2026-03-29T09:20:27Z</time></trkpt><trkpt lat="42.402813175908264" lon="13.921465637318835"><ele>288.75</ele><time>2026-03-29T09:20:28Z</time></trkpt><trkpt lat="42.402730389397874" lon="13.921378181926949"><ele>288.5</ele><time>2026-03-29T09:20:29Z</time></trkpt><trkpt lat="42.40264180698249" lon="13.921278038102892"><ele>288.25</ele><time>2026-03-29T09:20:30Z</time></trkpt><trkpt lat="42.40256473379299" lon="13.921140057767909"><ele>288.0</ele><time>2026-03-29T09:20:31Z</time></trkpt><trkpt lat="42.40250420291409" lon="13.920972102020501"><ele>292.3333333333333</ele><time>2026-03-29T09:20:32Z</time></trkpt><trkpt lat="42.40245918444394" lon="13.920763768857652"><ele>296.66666666666663</ele><time>2026-03-29T09:20:33Z</time></trkpt><trkpt lat="42.40238976789004" lon="13.920572323551857"><ele>301.0</ele><time>2026-03-29T09:20:34Z</time></trkpt><trkpt lat="42.40226052144332" lon="13.920408586004784"><ele>298.66666666666663</ele><time>2026-03-29T09:20:35Z</time></trkpt><trkpt lat="42.40208984534617" lon="13.920262499919577"><ele>296.3333333333333</ele><time>2026-03-29T09:20:36Z</time></trkpt><trkpt lat="42.401913419648565" lon="13.92014755490908"><ele>294.0</ele><time>2026-03-29T09:20:37Z</time></trkpt><trkpt lat="42.40173165394397" lon="13.920060471345524"><ele>296.8</ele><time>2026-03-29T09:20:38Z</time></trkpt><trkpt lat="42.401592336574296" lon="13.919974800767404"><ele>299.59999999999997</ele><time>2026-03-29T09:20:39Z</time></trkpt><trkpt lat="42.40149847730695" lon="13.919906188159665"><ele>302.4</ele><time>2026-03-29T09:20:40Z</time></trkpt><trkpt lat="42.40142909930735" lon="13.919860901392967"><ele>305.2</ele><time>2026-03-29T09:20:41Z</time></trkpt><trkpt lat="42.401341788712884" lon="13.919807833934739"><ele>308.0</ele><time>2026-03-29T09:20:42Z</time></trkpt><trkpt lat="42.40121659734743" lon="13.919821465559076"><ele>308.0</ele><time>2026-03-29T09:20:43Z</time></trkpt><trkpt lat="42.40107557273476" lon="13.919809778545607"><ele>308.0</ele><time>2026-03-29T09:20:44Z</time></trkpt><trkpt lat="42.40098358392676" lon="13.919746499723377"><ele>308.0</ele><time>2026-03-29T09:20:45Z</time></trkpt><trkpt lat="42.400879393310866" lon="13.919664329402929"><ele>308.0</ele><time>2026-03-29T09:20:46Z</time></trkpt><trkpt lat="42.400754004312425" lon="13.919585830457498"><ele>308.0</ele><time>2026-03-29T09:20:47Z</time></trkpt><trkpt lat="42.40061659210203" lon="13.919478615551018"><ele>308.0</ele><time>2026-03-29T09:20:48Z</time></trkpt><trkpt lat="42.40046337079332" lon="13.919373573599017"><ele>308.0</ele><time>2026-03-29T09:20:49Z</time></trkpt><trkpt lat="42.400317971162046" lon="13.919278102607711"><ele>311.0</ele><time>2026-03-29T09:20:50Z</time></trkpt><trkpt lat="42.40019988682818" lon="13.919172960817868"><ele>314.0</ele><time>2026-03-29T09:20:51Z</time></trkpt><trkpt lat="42.40008942776733" lon="13.91911572022785"><ele>317.0</ele><time>2026-03-29T09:20:52Z</time></trkpt><trkpt lat="42.39996840053719" lon="13.919056023113336"><ele>320.0</ele><time>2026-03-29T09:20:53Z</time></trkpt><trkpt lat="42.39986036956158" lon="13.918996839812388"><ele>320.0</ele><time>2026-03-29T09:20:54Z</time></trkpt><trkpt lat="42.399758049744854" lon="13.918881179464863"><ele>320.0</ele><time>2026-03-29T09:20:55Z</time></trkpt><trkpt lat="42.39965638638755" lon="13.918749262408287"><ele>320.0</ele><time>2026-03-29T09:20:56Z</time></trkpt><trkpt lat="42.39955134813632" lon="13.918626184666907"><ele>320.0</ele><time>2026-03-29T09:20:57Z</time></trkpt><trkpt lat="42.39946432068199" lon="13.918498285744356"><ele>319.25</ele><time>2026-03-29T09:20:58Z</time></trkpt><trkpt lat="42.399347517829035" lon="13.918431355254555"><ele>318.5</ele><time>2026-03-29T09:20:59Z</time></trkpt><trkpt lat="42.39926526802659" lon="13.918290765151532"><ele>317.75</ele><time>2026-03-29T09:21:00Z</time></trkpt><trkpt lat="42.399164612878195" lon="13.918133527859789"><ele>317.0</ele><time>2026-03-29T09:21:01Z</time></trkpt><trkpt lat="42.399090487630495" lon="13.918009251788781"><ele>317.0</ele><time>2026-03-29T09:21:02Z</time></trkpt><trkpt lat="42.39902448980987" lon="13.917896460515133"><ele>317.0</ele><time>2026-03-29T09:21:03Z</time></trkpt><trkpt lat="42.39897018721527" lon="13.917795553928304"><ele>317.0</ele><time>2026-03-29T09:21:04Z</time></trkpt><trkpt lat="42.39891488657711" lon="13.91771395595636"><ele>317.0</ele><time>2026-03-29T09:21:06Z</time></trkpt><trkpt lat="42.39882513892857" lon="13.91775148551114"><ele>317.0</ele><time>2026-03-29T09:21:08Z</time></trkpt><trkpt lat="42.39873247861663" lon="13.917654275955076"><ele>315.4</ele><time>2026-03-29T09:21:10Z</time></trkpt><trkpt lat="42.39868278218973" lon="13.91752706000007"><ele>313.79999999999995</ele><time>2026-03-29T09:21:11Z</time></trkpt><trkpt lat="42.39862259013143" lon="13.917399179696465"><ele>312.2</ele><time>2026-03-29T09:21:12Z</time></trkpt><trkpt lat="42.39854560371701" lon="13.917292022176973"><ele>310.59999999999997</ele><time>2026-03-29T09:21:13Z</time></trkpt><trkpt lat="42.39846550833312" lon="13.917189666583301"><ele>309.0</ele><time>2026-03-29T09:21:14Z</time></trkpt><trkpt lat="42.39838258305782" lon="13.917033549363856"><ele>309.0</ele><time>2026-03-29T09:21:15Z</time></trkpt><trkpt lat="42.39831772464631" lon="13.916862600787017"><ele>309.0</ele><time>2026-03-29T09:21:16Z</time></trkpt><trkpt lat="42.39825989517237" lon="13.916680969631734"><ele>309.0</ele><time>2026-03-29T09:21:17Z</time></trkpt><trkpt lat="42.39822283857754" lon="13.916526422531641"><ele>309.0</ele><time>2026-03-29T09:21:18Z</time></trkpt><trkpt lat="42.39819669884895" lon="13.916430002329147"><ele>309.3333333333333</ele><time>2026-03-29T09:21:19Z</time></trkpt><trkpt lat="42.398177164690516" lon="13.91633853327312"><ele>309.6666666666667</ele><time>2026-03-29T09:21:20Z</time></trkpt><trkpt lat="42.398130154369404" lon="13.916245764783705"><ele>310.0</ele><time>2026-03-29T09:21:22Z</time></trkpt><trkpt lat="42.39804278185278" lon="13.916207920792617"><ele>310.33333333333337</ele><time>2026-03-29T09:21:23Z</time></trkpt><trkpt lat="42.397941949712774" lon="13.91615556868485"><ele>310.6666666666667</ele><time>2026-03-29T09:21:24Z</time></trkpt><trkpt lat="42.39787259143135" lon="13.916147369852444"><ele>311.0</ele><time>2026-03-29T09:21:25Z</time></trkpt><trkpt lat="42.39779003177689" lon="13.916199794889206"><ele>311.0</ele><time>2026-03-29T09:21:26Z</time></trkpt><trkpt lat="42.39765708441962" lon="13.916254986306676"><ele>311.0</ele><time>2026-03-29T09:21:27Z</time></trkpt><trkpt lat="42.39753161690586" lon="13.916248360809226"><ele>311.0</ele><time>2026-03-29T09:21:28Z</time></trkpt><trkpt lat="42.39743208779654" lon="13.916207660714369"><ele>311.0</ele><time>2026-03-29T09:21:29Z</time></trkpt><trkpt lat="42.39733759671978" lon="13.916192678701364"><ele>311.0</ele><time>2026-03-29T09:21:30Z</time></trkpt><trkpt lat="42.3972416882251" lon="13.916180531617677"><ele>311.0</ele><time>2026-03-29T09:21:31Z</time></trkpt><trkpt lat="42.39714260315606" lon="13.916190429342052"><ele>311.0</ele><time>2026-03-29T09:21:32Z</time></trkpt><trkpt lat="42.39704412336994" lon="13.916192768724251"><ele>311.0</ele><time>2026-03-29T09:21:33Z</time></trkpt><trkpt lat="42.39695536208976" lon="13.916196630892022"><ele>311.0</ele><time>2026-03-29T09:21:34Z</time></trkpt><trkpt lat="42.396863714897904" lon="13.916157329822983"><ele>310.6</ele><time>2026-03-29T09:21:35Z</time></trkpt><trkpt lat="42.39678088825866" lon="13.916109296716645"><ele>310.20000000000005</ele><time>2026-03-29T09:21:36Z</time></trkpt><trkpt lat="42.39670339155647" lon="13.916064195374876"><ele>309.79999999999995</ele><time>2026-03-29T09:21:37Z</time></trkpt><trkpt lat="42.39660343912029" lon="13.915999680985122"><ele>309.4</ele><time>2026-03-29T09:21:38Z</time></trkpt><trkpt lat="42.396512516573075" lon="13.91596582783771"><ele>309.0</ele><time>2026-03-29T09:21:39Z</time></trkpt><trkpt lat="42.39643998819487" lon="13.915897150243433"><ele>311.0</ele><time>2026-03-29T09:21:40Z</time></trkpt><trkpt lat="42.396382058243006" lon="13.915825177180881"><ele>313.0</ele><time>2026-03-29T09:21:41Z</time></trkpt><trkpt lat="42.396308703635505" lon="13.915752152858108"><ele>315.0</ele><time>2026-03-29T09:21:42Z</time></trkpt><trkpt lat="42.39625109810014" lon="13.915656323978991"><ele>317.0</ele><time>2026-03-29T09:21:43Z</time></trkpt><trkpt lat="42.39620353505638" lon="13.915537998755635"><ele>319.0</ele><time>2026-03-29T09:21:44Z</time></trkpt><trkpt lat="42.39616481542154" lon="13.915411413488536"><ele>320.0</ele><time>2026-03-29T09:21:45Z</time></trkpt><trkpt lat="42.3961266720347" lon="13.915271253088108"><ele>321.0</ele><time>2026-03-29T09:21:46Z</time></trkpt><trkpt lat="42.39608520733847" lon="13.915130141264328"><ele>322.0</ele><time>2026-03-29T09:21:47Z</time></trkpt><trkpt lat="42.39604304233409" lon="13.914989442331098"><ele>323.0</ele><time>2026-03-29T09:21:48Z</time></trkpt><trkpt lat="42.39599290104216" lon="13.914879499172965"><ele>324.0</ele><time>2026-03-29T09:21:49Z</time></trkpt><trkpt lat="42.3959339480861" lon="13.914812942242197"><ele>324.5</ele><time>2026-03-29T09:21:50Z</time></trkpt><trkpt lat="42.39584789497995" lon="13.914738499233957"><ele>325.0</ele><time>2026-03-29T09:21:52Z</time></trkpt><trkpt lat="42.39575437888262" lon="13.914708636959212"><ele>325.5</ele><time>2026-03-29T09:21:54Z</time></trkpt><trkpt lat="42.39569283524562" lon="13.91465992434954"><ele>326.0</ele><time>2026-03-29T09:21:55Z</time></trkpt><trkpt lat="42.39565556266344" lon="13.914576419868094"><ele>326.5</ele><time>2026-03-29T09:21:56Z</time></trkpt><trkpt lat="42.39563475419149" lon="13.914472817289562"><ele>327.0</ele><time>2026-03-29T09:21:57Z</time></trkpt><trkpt lat="42.39562260169607" lon="13.91436937779141"><ele>328.6</ele><time>2026-03-29T09:21:58Z</time></trkpt><trkpt lat="42.3955926920739" lon="13.914237668917373"><ele>330.20000000000005</ele><time>2026-03-29T09:21:59Z</time></trkpt><trkpt lat="42.39555422672163" lon="13.914116754130275"><ele>331.8</ele><time>2026-03-29T09:22:00Z</time></trkpt><trkpt lat="42.395517096144566" lon="13.914014256584261"><ele>333.4</ele><time>2026-03-29T09:22:01Z</time></trkpt><trkpt lat="42.395470987012594" lon="13.913895106573548"><ele>335.0</ele><time>2026-03-29T09:22:02Z</time></trkpt><trkpt lat="42.395430441850586" lon="13.913803952001562"><ele>336.8</ele><time>2026-03-29T09:22:03Z</time></trkpt><trkpt lat="42.39539509637087" lon="13.913698470105402"><ele>338.6</ele><time>2026-03-29T09:22:04Z</time></trkpt><trkpt lat="42.39534235140573" lon="13.913598314592013"><ele>340.4</ele><time>2026-03-29T09:22:05Z</time></trkpt><trkpt lat="42.39525958666217" lon="13.913507140788168"><ele>342.2</ele><time>2026-03-29T09:22:06Z</time></trkpt><trkpt lat="42.39519336821325" lon="13.91340877096595"><ele>344.0</ele><time>2026-03-29T09:22:07Z</time></trkpt><trkpt lat="42.395128735544276" lon="13.91331369530153"><ele>345.0</ele><time>2026-03-29T09:22:08Z</time></trkpt><trkpt lat="42.39504775790597" lon="13.913241360019224"><ele>346.0</ele><time>2026-03-29T09:22:09Z</time></trkpt><trkpt lat="42.394953724949104" lon="13.91321286884901"><ele>347.0</ele><time>2026-03-29T09:22:10Z</time></trkpt><trkpt lat="42.39489651263335" lon="13.913166649720418"><ele>348.0</ele><time>2026-03-29T09:22:11Z</time></trkpt><trkpt lat="42.39482588526199" lon="13.913136792845643"><ele>349.0</ele><time>2026-03-29T09:22:12Z</time></trkpt><trkpt lat="42.39475024904759" lon="13.913108979048918"><ele>350.0</ele><time>2026-03-29T09:22:13Z</time></trkpt><trkpt lat="42.394682429463046" lon="13.913090354405618"><ele>350.0</ele><time>2026-03-29T09:22:14Z</time></trkpt><trkpt lat="42.39460881692706" lon="13.913018126571796"><ele>350.0</ele><time>2026-03-29T09:22:16Z</time></trkpt><trkpt lat="42.394620143206254" lon="13.912891713965264"><ele>350.0</ele><time>2026-03-29T09:22:18Z</time></trkpt><trkpt lat="42.39468018139905" lon="13.912806864874709"><ele>350.0</ele><time>2026-03-29T09:22:19Z</time></trkpt><trkpt lat="42.39474365319715" lon="13.912716872228211"><ele>350.0</ele><time>2026-03-29T09:22:20Z</time></trkpt><trkpt lat="42.39480714187249" lon="13.912613879222949"><ele>352.6</ele><time>2026-03-29T09:22:21Z</time></trkpt><trkpt lat="42.39486807269312" lon="13.912490979169961"><ele>355.2</ele><time>2026-03-29T09:22:22Z</time></trkpt><trkpt lat="42.394925316384786" lon="13.91234760097098"><ele>357.79999999999995</ele><time>2026-03-29T09:22:23Z</time></trkpt><trkpt lat="42.394970877027475" lon="13.912250899645452"><ele>360.4</ele><time>2026-03-29T09:22:24Z</time></trkpt><trkpt lat="42.39494614900792" lon="13.912097822132647"><ele>363.0</ele><time>2026-03-29T09:22:26Z</time></trkpt><trkpt lat="42.39487581011005" lon="13.912025006734298"><ele>363.0</ele><time>2026-03-29T09:22:27Z</time></trkpt><trkpt lat="42.394792398614904" lon="13.91194053824079"><ele>363.0</ele><time>2026-03-29T09:22:28Z</time></trkpt><trkpt lat="42.39470345307771" lon="13.911853969690526"><ele>363.0</ele><time>2026-03-29T09:22:29Z</time></trkpt><trkpt lat="42.394613021045274" lon="13.911795722012952"><ele>363.0</ele><time>2026-03-29T09:22:30Z</time></trkpt><trkpt lat="42.39454786871289" lon="13.911786969022975"><ele>363.0</ele><time>2026-03-29T09:22:31Z</time></trkpt><trkpt lat="42.39448354136177" lon="13.91179720772652"><ele>363.0</ele><time>2026-03-29T09:22:32Z</time></trkpt><trkpt lat="42.394396396590224" lon="13.911775719780923"><ele>364.59999999999997</ele><time>2026-03-29T09:22:33Z</time></trkpt><trkpt lat="42.39429169014673" lon="13.911737013536507"><ele>366.2</ele><time>2026-03-29T09:22:34Z</time></trkpt><trkpt lat="42.394184716847235" lon="13.911735362714486"><ele>367.8</ele><time>2026-03-29T09:22:35Z</time></trkpt><trkpt lat="42.394077085889045" lon="13.911747342169932"><ele>369.4</ele><time>2026-03-29T09:22:36Z</time></trkpt><trkpt lat="42.3939615627645" lon="13.911734202605682"><ele>371.0</ele><time>2026-03-29T09:22:37Z</time></trkpt><trkpt lat="42.39383544399619" lon="13.911702366375055"><ele>375.20000000000005</ele><time>2026-03-29T09:22:38Z</time></trkpt><trkpt lat="42.39373579631861" lon="13.91167857354162"><ele>379.40000000000003</ele><time>2026-03-29T09:22:39Z</time></trkpt><trkpt lat="42.39365305281377" lon="13.911644654080842"><ele>383.6</ele><time>2026-03-29T09:22:40Z</time></trkpt><trkpt lat="42.39357655646233" lon="13.911580805936893"><ele>387.8</ele><time>2026-03-29T09:22:41Z</time></trkpt><trkpt lat="42.39350768366554" lon="13.911473112953333"><ele>392.0</ele><time>2026-03-29T09:22:42Z</time></trkpt><trkpt lat="42.39344902337878" lon="13.911387330983073"><ele>392.0</ele><time>2026-03-29T09:22:43Z</time></trkpt><trkpt lat="42.39339643902279" lon="13.911282871387355"><ele>392.0</ele><time>2026-03-29T09:22:44Z</time></trkpt><trkpt lat="42.39333023814575" lon="13.911155280685861"><ele>392.0</ele><time>2026-03-29T09:22:45Z</time></trkpt><trkpt lat="42.393264114607184" lon="13.911079925869943"><ele>392.0</ele><time>2026-03-29T09:22:46Z</time></trkpt><trkpt lat="42.39320495925355" lon="13.911038027458531"><ele>392.0</ele><time>2026-03-29T09:22:47Z</time></trkpt><trkpt lat="42.39310111261261" lon="13.91109534272454"><ele>392.0</ele><time>2026-03-29T09:22:49Z</time></trkpt><trkpt lat="42.393028474211235" lon="13.911185675307081"><ele>392.0</ele><time>2026-03-29T09:22:50Z</time></trkpt><trkpt lat="42.392962401050305" lon="13.91130394788188"><ele>392.0</ele><time>2026-03-29T09:22:51Z</time></trkpt><trkpt lat="42.392915415375775" lon="13.911391958306577"><ele>392.0</ele><time>2026-03-29T09:22:52Z</time></trkpt><trkpt lat="42.39285689530316" lon="13.911472361497536"><ele>392.0</ele><time>2026-03-29T09:22:53Z</time></trkpt><trkpt lat="42.3927839341049" lon="13.911532375665956"><ele>396.0</ele><time>2026-03-29T09:22:54Z</time></trkpt><trkpt lat="42.39268278773047" lon="13.91160174849753"><ele>400.0</ele><time>2026-03-29T09:22:55Z</time></trkpt><trkpt lat="42.3926319822691" lon="13.911685141417184"><ele>404.0</ele><time>2026-03-29T09:22:56Z</time></trkpt><trkpt lat="42.392624710349864" lon="13.91182924895103"><ele>408.0</ele><time>2026-03-29T09:22:57Z</time></trkpt><trkpt lat="42.392621407417636" lon="13.91198345366832"><ele>412.0</ele><time>2026-03-29T09:22:58Z</time></trkpt><trkpt lat="42.39262502141078" lon="13.912113530746575"><ele>412.1666666666667</ele><time>2026-03-29T09:22:59Z</time></trkpt><trkpt lat="42.39260502122989" lon="13.912197230067957"><ele>412.33333333333337</ele><time>2026-03-29T09:23:00Z</time></trkpt><trkpt lat="42.39256860851617" lon="13.912285765747955"><ele>412.5</ele><time>2026-03-29T09:23:01Z</time></trkpt><trkpt lat="42.39251923066983" lon="13.912400928478277"><ele>412.66666666666663</ele><time>2026-03-29T09:23:02Z</time></trkpt><trkpt lat="42.392495500089986" lon="13.912527084648032"><ele>412.8333333333333</ele><time>2026-03-29T09:23:03Z</time></trkpt><trkpt lat="42.39251153280845" lon="13.912665468980856"><ele>413.0</ele><time>2026-03-29T09:23:04Z</time></trkpt><trkpt lat="42.39254098872103" lon="13.912801956369927"><ele>413.0</ele><time>2026-03-29T09:23:05Z</time></trkpt><trkpt lat="42.392549058560896" lon="13.912901294279276"><ele>413.0</ele><time>2026-03-29T09:23:06Z</time></trkpt><trkpt lat="42.39248694115364" lon="13.913031783474672"><ele>413.0</ele><time>2026-03-29T09:23:08Z</time></trkpt><trkpt lat="42.392475038056055" lon="13.913118861915384"><ele>413.0</ele><time>2026-03-29T09:23:09Z</time></trkpt><trkpt lat="42.39250318132513" lon="13.91326835538369"><ele>413.0</ele><time>2026-03-29T09:23:10Z</time></trkpt><trkpt lat="42.39256709993508" lon="13.91342791145759"><ele>412.4</ele><time>2026-03-29T09:23:11Z</time></trkpt><trkpt lat="42.39261245311748" lon="13.91354984360194"><ele>411.79999999999995</ele><time>2026-03-29T09:23:12Z</time></trkpt><trkpt lat="42.39265984587292" lon="13.913675784715018"><ele>411.2</ele><time>2026-03-29T09:23:13Z</time></trkpt><trkpt lat="42.39268216039459" lon="13.913790978964913"><ele>410.6</ele><time>2026-03-29T09:23:14Z</time></trkpt><trkpt lat="42.392715527944645" lon="13.913930873076108"><ele>410.0</ele><time>2026-03-29T09:23:16Z</time></trkpt><trkpt lat="42.39277811983449" lon="13.914017130646634"><ele>410.0</ele><time>2026-03-29T09:23:18Z</time></trkpt><trkpt lat="42.392825213487626" lon="13.914128223138377"><ele>410.0</ele><time>2026-03-29T09:23:20Z</time></trkpt><trkpt lat="42.392824142622906" lon="13.91421429639506"><ele>410.0</ele><time>2026-03-29T09:23:22Z</time></trkpt><trkpt lat="42.39272517444138" lon="13.914283968254642"><ele>410.0</ele><time>2026-03-29T09:23:26Z</time></trkpt><trkpt lat="42.392593139032606" lon="13.914357490701883"><ele>410.0</ele><time>2026-03-29T09:23:27Z</time></trkpt><trkpt lat="42.39251439155725" lon="13.914377640102298"><ele>407.5</ele><time>2026-03-29T09:23:28Z</time></trkpt><trkpt lat="42.392413278088185" lon="13.914412483934397"><ele>405.0</ele><time>2026-03-29T09:23:29Z</time></trkpt><trkpt lat="42.392278990359095" lon="13.91445404416984"><ele>402.5</ele><time>2026-03-29T09:23:30Z</time></trkpt><trkpt lat="42.39216101745339" lon="13.914507503856647"><ele>400.0</ele><time>2026-03-29T09:23:31Z</time></trkpt><trkpt lat="42.39203939710511" lon="13.91455329037536"><ele>400.0</ele><time>2026-03-29T09:23:32Z</time></trkpt><trkpt lat="42.391879565061394" lon="13.914612548281985"><ele>400.0</ele><time>2026-03-29T09:23:33Z</time></trkpt><trkpt lat="42.39170867320408" lon="13.914686199228225"><ele>400.0</ele><time>2026-03-29T09:23:34Z</time></trkpt><trkpt lat="42.3915335416263" lon="13.914772851849875"><ele>400.0</ele><time>2026-03-29T09:23:35Z</time></trkpt><trkpt lat="42.391368146991645" lon="13.914849689188756"><ele>400.0</ele><time>2026-03-29T09:23:36Z</time></trkpt><trkpt lat="42.39117394292696" lon="13.914938152933026"><ele>400.0</ele><time>2026-03-29T09:23:37Z</time></trkpt><trkpt lat="42.39102430183071" lon="13.915003356556833"><ele>399.0</ele><time>2026-03-29T09:23:38Z</time></trkpt><trkpt lat="42.39087278916883" lon="13.915075314314011"><ele>398.0</ele><time>2026-03-29T09:23:39Z</time></trkpt><trkpt lat="42.390755098550585" lon="13.915157289150155"><ele>397.0</ele><time>2026-03-29T09:23:40Z</time></trkpt><trkpt lat="42.39064313550848" lon="13.915255312530872"><ele>396.0</ele><time>2026-03-29T09:23:41Z</time></trkpt><trkpt lat="42.39054234262836" lon="13.915387829651907"><ele>402.0</ele><time>2026-03-29T09:23:42Z</time></trkpt><trkpt lat="42.39045956453214" lon="13.915561124924874"><ele>408.0</ele><time>2026-03-29T09:23:43Z</time></trkpt><trkpt lat="42.390394820354445" lon="13.915746993832881"><ele>414.0</ele><time>2026-03-29T09:23:44Z</time></trkpt><trkpt lat="42.39034170218377" lon="13.915940757326874"><ele>415.0</ele><time>2026-03-29T09:23:45Z</time></trkpt><trkpt lat="42.3903134649339" lon="13.91605773361711"><ele>416.0</ele><time>2026-03-29T09:23:46Z</time></trkpt><trkpt lat="42.39036247054496" lon="13.916222789001951"><ele>417.0</ele><time>2026-03-29T09:23:47Z</time></trkpt><trkpt lat="42.39043406903403" lon="13.91637435953437"><ele>418.0</ele><time>2026-03-29T09:23:48Z</time></trkpt><trkpt lat="42.39049493922932" lon="13.916542255105355"><ele>415.79999999999995</ele><time>2026-03-29T09:23:49Z</time></trkpt><trkpt lat="42.39054486411913" lon="13.916708432711573"><ele>413.6</ele><time>2026-03-29T09:23:50Z</time></trkpt><trkpt lat="42.39056728537578" lon="13.916809888569542"><ele>411.4</ele><time>2026-03-29T09:23:51Z</time></trkpt><trkpt lat="42.390603072563295" lon="13.916883659433642"><ele>409.20000000000005</ele><time>2026-03-29T09:25:10Z</time></trkpt><trkpt lat="42.39063314235929" lon="13.917003602862833"><ele>407.0</ele><time>2026-03-29T09:25:15Z</time></trkpt><trkpt lat="42.390693969874434" lon="13.917123839344177"><ele>406.99999999999994</ele><time>2026-03-29T09:25:17Z</time></trkpt><trkpt lat="42.3907421418208" lon="13.917186125220907"><ele>407.0</ele><time>2026-03-29T09:25:18Z</time></trkpt><trkpt lat="42.39079536043308" lon="13.917251509486963"><ele>407.0</ele><time>2026-03-29T09:25:19Z</time></trkpt><trkpt lat="42.390854909695825" lon="13.917337526852593"><ele>407.0</ele><time>2026-03-29T09:25:20Z</time></trkpt><trkpt lat="42.39091848237249" lon="13.917439290518699"><ele>406.99999999999994</ele><time>2026-03-29T09:25:21Z</time></trkpt><trkpt lat="42.39098155357928" lon="13.917550004005731"><ele>407.0</ele><time>2026-03-29T09:25:22Z</time></trkpt><trkpt lat="42.39105384553255" lon="13.917645369495695"><ele>406.25</ele><time>2026-03-29T09:25:23Z</time></trkpt><trkpt lat="42.39112580355676" lon="13.917747560439766"><ele>405.5</ele><time>2026-03-29T09:25:24Z</time></trkpt><trkpt lat="42.39120410905147" lon="13.917859097349567"><ele>404.75</ele><time>2026-03-29T09:25:25Z</time></trkpt><trkpt lat="42.39128845904873" lon="13.91797282862741"><ele>404.0</ele><time>2026-03-29T09:25:26Z</time></trkpt><trkpt lat="42.39138256947892" lon="13.918098886150203"><ele>401.6</ele><time>2026-03-29T09:25:27Z</time></trkpt><trkpt lat="42.3914684151865" lon="13.918218494927274"><ele>399.2</ele><time>2026-03-29T09:25:28Z</time></trkpt><trkpt lat="42.39153950906807" lon="13.91831635742294"><ele>396.8</ele><time>2026-03-29T09:25:29Z</time></trkpt><trkpt lat="42.39160449259095" lon="13.918410422065294"><ele>394.40000000000003</ele><time>2026-03-29T09:25:30Z</time></trkpt><trkpt lat="42.39167194233663" lon="13.918508415775994"><ele>392.0</ele><time>2026-03-29T09:25:31Z</time></trkpt><trkpt lat="42.39174022671619" lon="13.918608604249703"><ele>392.0</ele><time>2026-03-29T09:25:32Z</time></trkpt><trkpt lat="42.391810405742184" lon="13.918702858769624"><ele>392.0</ele><time>2026-03-29T09:25:33Z</time></trkpt><trkpt lat="42.39187850920274" lon="13.91879941351251"><ele>392.0</ele><time>2026-03-29T09:25:34Z</time></trkpt><trkpt lat="42.391942359487764" lon="13.918902346379323"><ele>392.0</ele><time>2026-03-29T09:25:35Z</time></trkpt><trkpt lat="42.392008772327344" lon="13.919006894867728"><ele>392.0</ele><time>2026-03-29T09:25:36Z</time></trkpt><trkpt lat="42.39208008887605" lon="13.919106506926697"><ele>392.0</ele><time>2026-03-29T09:25:37Z</time></trkpt><trkpt lat="42.39215276110676" lon="13.919204324725628"><ele>392.0</ele><time>2026-03-29T09:25:38Z</time></trkpt><trkpt lat="42.392224739195306" lon="13.919303410072741"><ele>392.0</ele><time>2026-03-29T09:25:39Z</time></trkpt><trkpt lat="42.39229460327646" lon="13.91940473230882"><ele>392.0</ele><time>2026-03-29T09:25:40Z</time></trkpt><trkpt lat="42.39236524903773" lon="13.919506609899356"><ele>392.0</ele><time>2026-03-29T09:25:41Z</time></trkpt><trkpt lat="42.39244079494277" lon="13.919613033512901"><ele>390.25</ele><time>2026-03-29T09:25:42Z</time></trkpt><trkpt lat="42.39252572526215" lon="13.919734262285079"><ele>388.5</ele><time>2026-03-29T09:25:43Z</time></trkpt><trkpt lat="42.39261620054657" lon="13.919859676438003"><ele>386.75</ele><time>2026-03-29T09:25:44Z</time></trkpt><trkpt lat="42.39270876604821" lon="13.91999571174947"><ele>385.0</ele><time>2026-03-29T09:25:45Z</time></trkpt><trkpt lat="42.3928001895357" lon="13.920132030887599"><ele>383.0</ele><time>2026-03-29T09:25:46Z</time></trkpt><trkpt lat="42.392899045574374" lon="13.920273148207386"><ele>381.0</ele><time>2026-03-29T09:25:47Z</time></trkpt><trkpt lat="42.39300735938562" lon="13.920419614065308"><ele>379.0</ele><time>2026-03-29T09:25:48Z</time></trkpt><trkpt lat="42.393117616999604" lon="13.920568522446654"><ele>378.5</ele><time>2026-03-29T09:25:49Z</time></trkpt><trkpt lat="42.393218577168156" lon="13.920725353265043"><ele>378.0</ele><time>2026-03-29T09:25:50Z</time></trkpt><trkpt lat="42.393308891544656" lon="13.920869879096328"><ele>377.5</ele><time>2026-03-29T09:25:51Z</time></trkpt><trkpt lat="42.39339382160304" lon="13.921000119986688"><ele>377.0</ele><time>2026-03-29T09:25:52Z</time></trkpt><trkpt lat="42.39347591881429" lon="13.921119331153905"><ele>376.25</ele><time>2026-03-29T09:25:53Z</time></trkpt><trkpt lat="42.39355795785098" lon="13.921235900321921"><ele>375.5</ele><time>2026-03-29T09:25:54Z</time></trkpt><trkpt lat="42.39364834004069" lon="13.921342682283738"><ele>374.75</ele><time>2026-03-29T09:25:55Z</time></trkpt><trkpt lat="42.393746049169835" lon="13.921441783104154"><ele>374.0</ele><time>2026-03-29T09:25:56Z</time></trkpt><trkpt lat="42.393853672362425" lon="13.921548387393335"><ele>372.5</ele><time>2026-03-29T09:25:57Z</time></trkpt><trkpt lat="42.393958004881874" lon="13.921668074067947"><ele>371.0</ele><time>2026-03-29T09:25:58Z</time></trkpt><trkpt lat="42.39404881264565" lon="13.921815591799417"><ele>369.5</ele><time>2026-03-29T09:25:59Z</time></trkpt><trkpt lat="42.39409999314147" lon="13.922005890119717"><ele>368.0</ele><time>2026-03-29T09:26:00Z</time></trkpt><trkpt lat="42.39414230089224" lon="13.922203536334951"><ele>367.0</ele><time>2026-03-29T09:26:01Z</time></trkpt><trkpt lat="42.394225021738805" lon="13.92238846892839"><ele>366.0</ele><time>2026-03-29T09:26:02Z</time></trkpt><trkpt lat="42.39434869023801" lon="13.92255172401826"><ele>365.0</ele><time>2026-03-29T09:26:03Z</time></trkpt><trkpt lat="42.394486682294655" lon="13.922677871339797"><ele>362.33333333333337</ele><time>2026-03-29T09:26:04Z</time></trkpt><trkpt lat="42.3946243973262" lon="13.92280647846904"><ele>359.6666666666667</ele><time>2026-03-29T09:26:05Z</time></trkpt><trkpt lat="42.394760714067246" lon="13.922943830263108"><ele>357.0</ele><time>2026-03-29T09:26:06Z</time></trkpt><trkpt lat="42.39488983273183" lon="13.923081329431795"><ele>355.0</ele><time>2026-03-29T09:26:07Z</time></trkpt><trkpt lat="42.39500552611792" lon="13.92322072829197"><ele>353.0</ele><time>2026-03-29T09:26:08Z</time></trkpt><trkpt lat="42.3951102504358" lon="13.92335519146283"><ele>351.0</ele><time>2026-03-29T09:26:09Z</time></trkpt><trkpt lat="42.39519612712927" lon="13.923494204547783"><ele>349.0</ele><time>2026-03-29T09:26:10Z</time></trkpt><trkpt lat="42.39526803727995" lon="13.92366107203815"><ele>347.66666666666663</ele><time>2026-03-29T09:26:11Z</time></trkpt><trkpt lat="42.39532602695151" lon="13.92384998883327"><ele>346.3333333333333</ele><time>2026-03-29T09:26:12Z</time></trkpt><trkpt lat="42.39538281582998" lon="13.924044923360077"><ele>345.0</ele><time>2026-03-29T09:26:13Z</time></trkpt><trkpt lat="42.395445898423645" lon="13.924239723528794"><ele>342.6666666666667</ele><time>2026-03-29T09:26:14Z</time></trkpt><trkpt lat="42.395521871936616" lon="13.924432226480695"><ele>340.33333333333337</ele><time>2026-03-29T09:26:15Z</time></trkpt><trkpt lat="42.395598302799165" lon="13.92462693768431"><ele>338.0</ele><time>2026-03-29T09:26:16Z</time></trkpt><trkpt lat="42.395666791570115" lon="13.924825436623193"><ele>338.0</ele><time>2026-03-29T09:26:17Z</time></trkpt><trkpt lat="42.39572373459593" lon="13.925031037143256"><ele>338.0</ele><time>2026-03-29T09:26:18Z</time></trkpt><trkpt lat="42.39577299444702" lon="13.925241304222073"><ele>338.0</ele><time>2026-03-29T09:26:19Z</time></trkpt><trkpt lat="42.395822407018635" lon="13.925447181316459"><ele>336.0</ele><time>2026-03-29T09:26:20Z</time></trkpt><trkpt lat="42.39587762701338" lon="13.925670443842913"><ele>334.0</ele><time>2026-03-29T09:26:21Z</time></trkpt><trkpt lat="42.395933517430706" lon="13.925897119834328"><ele>332.0</ele><time>2026-03-29T09:26:22Z</time></trkpt><trkpt lat="42.395985639947696" lon="13.92611464994654"><ele>329.33333333333337</ele><time>2026-03-29T09:26:23Z</time></trkpt><trkpt lat="42.39602936378943" lon="13.92631100056054"><ele>326.6666666666667</ele><time>2026-03-29T09:26:24Z</time></trkpt><trkpt lat="42.39607383757135" lon="13.92650292219501"><ele>324.0</ele><time>2026-03-29T09:26:25Z</time></trkpt><trkpt lat="42.39611989785399" lon="13.92669582928398"><ele>320.6666666666667</ele><time>2026-03-29T09:26:26Z</time></trkpt><trkpt lat="42.39617082027998" lon="13.926898628504293"><ele>317.33333333333337</ele><time>2026-03-29T09:26:27Z</time></trkpt><trkpt lat="42.39621767322564" lon="13.927092057863337"><ele>314.0</ele><time>2026-03-29T09:26:28Z</time></trkpt><trkpt lat="42.39626930993035" lon="13.927285420533948"><ele>314.0</ele><time>2026-03-29T09:26:29Z</time></trkpt><trkpt lat="42.39633481344341" lon="13.92746387385506"><ele>314.0</ele><time>2026-03-29T09:26:30Z</time></trkpt><trkpt lat="42.39643995042339" lon="13.927607061658865"><ele>314.0</ele><time>2026-03-29T09:26:31Z</time></trkpt><trkpt lat="42.39655727930014" lon="13.927726214286919"><ele>314.0</ele><time>2026-03-29T09:26:32Z</time></trkpt><trkpt lat="42.39667889684568" lon="13.927840471860996"><ele>315.33333333333337</ele><time>2026-03-29T09:26:33Z</time></trkpt><trkpt lat="42.39678037247843" lon="13.92798726353589"><ele>316.6666666666667</ele><time>2026-03-29T09:26:34Z</time></trkpt><trkpt lat="42.39684915618943" lon="13.928182297657592"><ele>318.0</ele><time>2026-03-29T09:26:35Z</time></trkpt><trkpt lat="42.39687489710952" lon="13.928389328569178"><ele>316.25</ele><time>2026-03-29T09:26:36Z</time></trkpt><trkpt lat="42.39688141094462" lon="13.928590778213136"><ele>314.5</ele><time>2026-03-29T09:26:37Z</time></trkpt><trkpt lat="42.396886675645526" lon="13.92879098508257"><ele>312.75</ele><time>2026-03-29T09:26:38Z</time></trkpt><trkpt lat="42.39689186441942" lon="13.928995357033081"><ele>311.0</ele><time>2026-03-29T09:26:39Z</time></trkpt><trkpt lat="42.39689063718929" lon="13.929211873692406"><ele>307.33333333333337</ele><time>2026-03-29T09:26:40Z</time></trkpt><trkpt lat="42.39691038601586" lon="13.929435856853834"><ele>303.6666666666667</ele><time>2026-03-29T09:26:41Z</time></trkpt><trkpt lat="42.39695130043663" lon="13.929657974974553"><ele>300.0</ele><time>2026-03-29T09:26:42Z</time></trkpt><trkpt lat="42.397000173230964" lon="13.929878378920383"><ele>296.6666666666667</ele><time>2026-03-29T09:26:43Z</time></trkpt><trkpt lat="42.397048586620144" lon="13.93009352604469"><ele>293.33333333333337</ele><time>2026-03-29T09:26:44Z</time></trkpt><trkpt lat="42.39709413106938" lon="13.930307142239078"><ele>290.0</ele><time>2026-03-29T09:26:45Z</time></trkpt><trkpt lat="42.39714051226731" lon="13.930515268392236"><ele>290.33333333333337</ele><time>2026-03-29T09:26:46Z</time></trkpt><trkpt lat="42.39718287496642" lon="13.930723788838465"><ele>290.6666666666667</ele><time>2026-03-29T09:26:47Z</time></trkpt><trkpt lat="42.39721774815164" lon="13.930932479261015"><ele>291.0</ele><time>2026-03-29T09:26:48Z</time></trkpt><trkpt lat="42.39724935743882" lon="13.931140982115517"><ele>290.0</ele><time>2026-03-29T09:26:49Z</time></trkpt><trkpt lat="42.397283697800084" lon="13.931333447444045"><ele>289.0</ele><time>2026-03-29T09:26:50Z</time></trkpt><trkpt lat="42.397318539869396" lon="13.931514687926626"><ele>288.0</ele><time>2026-03-29T09:26:51Z</time></trkpt><trkpt lat="42.39735487569826" lon="13.931690535577086"><ele>287.0</ele><time>2026-03-29T09:26:52Z</time></trkpt><trkpt lat="42.39739543754961" lon="13.931862113015175"><ele>286.0</ele><time>2026-03-29T09:26:53Z</time></trkpt><trkpt lat="42.39744025310471" lon="13.932024819039464"><ele>285.0</ele><time>2026-03-29T09:26:54Z</time></trkpt><trkpt lat="42.39749091555206" lon="13.932175754837031"><ele>284.0</ele><time>2026-03-29T09:26:55Z</time></trkpt><trkpt lat="42.397550826889415" lon="13.932315723497625"><ele>283.0</ele><time>2026-03-29T09:26:56Z</time></trkpt><trkpt lat="42.397586638229015" lon="13.932465564625423"><ele>281.25</ele><time>2026-03-29T09:26:57Z</time></trkpt><trkpt lat="42.39757801153272" lon="13.932627431031811"><ele>279.5</ele><time>2026-03-29T09:26:58Z</time></trkpt><trkpt lat="42.397517746289076" lon="13.932773273599164"><ele>277.75</ele><time>2026-03-29T09:26:59Z</time></trkpt><trkpt lat="42.397418963309846" lon="13.932880889137008"><ele>276.0</ele><time>2026-03-29T09:27:00Z</time></trkpt><trkpt lat="42.39729643773933" lon="13.932936087671859"><ele>273.5</ele><time>2026-03-29T09:27:01Z</time></trkpt><trkpt lat="42.39715589811951" lon="13.932937526314706"><ele>271.0</ele><time>2026-03-29T09:27:02Z</time></trkpt><trkpt lat="42.397016507366985" lon="13.932889920837015"><ele>268.5</ele><time>2026-03-29T09:27:03Z</time></trkpt><trkpt lat="42.39688064249621" lon="13.932789383579978"><ele>266.0</ele><time>2026-03-29T09:27:04Z</time></trkpt><trkpt lat="42.396743765967145" lon="13.93268030040973"><ele>266.0</ele><time>2026-03-29T09:27:05Z</time></trkpt><trkpt lat="42.39660942266508" lon="13.932588480603684"><ele>266.0</ele><time>2026-03-29T09:27:06Z</time></trkpt><trkpt lat="42.39647575409273" lon="13.932499047683043"><ele>266.0</ele><time>2026-03-29T09:27:07Z</time></trkpt><trkpt lat="42.39634744826796" lon="13.932400821217968"><ele>266.0</ele><time>2026-03-29T09:27:08Z</time></trkpt><trkpt lat="42.396232517587904" lon="13.932290472862624"><ele>266.25</ele><time>2026-03-29T09:27:09Z</time></trkpt><trkpt lat="42.396114750381926" lon="13.932176900348347"><ele>266.5</ele><time>2026-03-29T09:27:10Z</time></trkpt><trkpt lat="42.396002250698515" lon="13.93206388860783"><ele>266.75</ele><time>2026-03-29T09:27:11Z</time></trkpt><trkpt lat="42.39588963252903" lon="13.931947637276426"><ele>267.0</ele><time>2026-03-29T09:27:12Z</time></trkpt><trkpt lat="42.39577952291566" lon="13.931830020633544"><ele>268.25</ele><time>2026-03-29T09:27:13Z</time></trkpt><trkpt lat="42.39567051869004" lon="13.931717891228974"><ele>269.5</ele><time>2026-03-29T09:27:14Z</time></trkpt><trkpt lat="42.39555094913189" lon="13.931654703417536"><ele>270.75</ele><time>2026-03-29T09:27:15Z</time></trkpt><trkpt lat="42.395432275932045" lon="13.931641716708677"><ele>272.0</ele><time>2026-03-29T09:27:16Z</time></trkpt><trkpt lat="42.395330523419545" lon="13.93167824731233"><ele>276.25</ele><time>2026-03-29T09:27:17Z</time></trkpt><trkpt lat="42.39523957562897" lon="13.93175102977233"><ele>280.5</ele><time>2026-03-29T09:27:18Z</time></trkpt><trkpt lat="42.39516084625531" lon="13.931860870232569"><ele>284.75</ele><time>2026-03-29T09:27:19Z</time></trkpt><trkpt lat="42.395113469974795" lon="13.932001559941627"><ele>289.0</ele><time>2026-03-29T09:27:20Z</time></trkpt><trkpt lat="42.395107035838926" lon="13.932162779097169"><ele>289.0</ele><time>2026-03-29T09:27:21Z</time></trkpt><trkpt lat="42.395140200243645" lon="13.932332249483945"><ele>289.0</ele><time>2026-03-29T09:27:22Z</time></trkpt><trkpt lat="42.395207182468916" lon="13.932503952510197"><ele>289.0</ele><time>2026-03-29T09:27:23Z</time></trkpt><trkpt lat="42.39527529518046" lon="13.932690206397142"><ele>289.0</ele><time>2026-03-29T09:27:24Z</time></trkpt><trkpt lat="42.39533140403028" lon="13.932901102844577"><ele>288.3333333333333</ele><time>2026-03-29T09:27:25Z</time></trkpt><trkpt lat="42.39539278199769" lon="13.933115469649625"><ele>287.6666666666667</ele><time>2026-03-29T09:27:26Z</time></trkpt><trkpt lat="42.395473216283456" lon="13.933333114498657"><ele>287.0</ele><time>2026-03-29T09:27:27Z</time></trkpt><trkpt lat="42.395563787786145" lon="13.933560723148133"><ele>282.6666666666667</ele><time>2026-03-29T09:27:28Z</time></trkpt><trkpt lat="42.39565917650399" lon="13.933810407916084"><ele>278.3333333333333</ele><time>2026-03-29T09:27:29Z</time></trkpt><trkpt lat="42.39570193509524" lon="13.934051370390977"><ele>274.0</ele><time>2026-03-29T09:27:30Z</time></trkpt><trkpt lat="42.395725646576274" lon="13.934264131079072"><ele>274.0</ele><time>2026-03-29T09:27:31Z</time></trkpt><trkpt lat="42.39572815235312" lon="13.934466200238873"><ele>274.0</ele><time>2026-03-29T09:27:32Z</time></trkpt><trkpt lat="42.39571420501963" lon="13.934608219535331"><ele>274.0</ele><time>2026-03-29T09:27:33Z</time></trkpt><trkpt lat="42.39564741318696" lon="13.934701921657647"><ele>274.0</ele><time>2026-03-29T09:27:34Z</time></trkpt><trkpt lat="42.39554288699002" lon="13.934780493886649"><ele>274.2</ele><time>2026-03-29T09:27:35Z</time></trkpt><trkpt lat="42.39542740796128" lon="13.934838897698155"><ele>274.4</ele><time>2026-03-29T09:27:36Z</time></trkpt><trkpt lat="42.39531917422664" lon="13.934908028428621"><ele>274.6</ele><time>2026-03-29T09:27:37Z</time></trkpt><trkpt lat="42.39523118343357" lon="13.934988905086746"><ele>274.8</ele><time>2026-03-29T09:27:38Z</time></trkpt><trkpt lat="42.3951695942166" lon="13.935082265618233"><ele>275.0</ele><time>2026-03-29T09:27:39Z</time></trkpt><trkpt lat="42.395137535600995" lon="13.935204457765986"><ele>274.0</ele><time>2026-03-29T09:27:40Z</time></trkpt><trkpt lat="42.39515357319529" lon="13.935342766961353"><ele>273.0</ele><time>2026-03-29T09:27:41Z</time></trkpt><trkpt lat="42.39520505465963" lon="13.935499104629091"><ele>272.0</ele><time>2026-03-29T09:27:42Z</time></trkpt><trkpt lat="42.395262312177664" lon="13.93566505174083"><ele>271.0</ele><time>2026-03-29T09:27:43Z</time></trkpt><trkpt lat="42.395310784215724" lon="13.935835302457566"><ele>269.25</ele><time>2026-03-29T09:27:44Z</time></trkpt><trkpt lat="42.39536225236951" lon="13.93600754115294"><ele>267.5</ele><time>2026-03-29T09:27:45Z</time></trkpt><trkpt lat="42.395416053662316" lon="13.936180477130433"><ele>265.75</ele><time>2026-03-29T09:27:46Z</time></trkpt><trkpt lat="42.395467426671225" lon="13.936358507396122"><ele>264.0</ele><time>2026-03-29T09:27:47Z</time></trkpt><trkpt lat="42.39551676674662" lon="13.936529375623376"><ele>264.0</ele><time>2026-03-29T09:27:48Z</time></trkpt><trkpt lat="42.39556497610107" lon="13.936682960873684"><ele>264.0</ele><time>2026-03-29T09:27:49Z</time></trkpt><trkpt lat="42.395611162710615" lon="13.936832836660022"><ele>264.0</ele><time>2026-03-29T09:27:50Z</time></trkpt><trkpt lat="42.395658065711544" lon="13.93698937919698"><ele>264.0</ele><time>2026-03-29T09:27:51Z</time></trkpt><trkpt lat="42.39570468745586" lon="13.937151130817279"><ele>263.0</ele><time>2026-03-29T09:27:52Z</time></trkpt><trkpt lat="42.39575059020981" lon="13.937318535757603"><ele>262.0</ele><time>2026-03-29T09:27:53Z</time></trkpt><trkpt lat="42.39579565832949" lon="13.937484843522412"><ele>261.0</ele><time>2026-03-29T09:27:54Z</time></trkpt><trkpt lat="42.395844258720125" lon="13.93765409178023"><ele>260.0</ele><time>2026-03-29T09:27:55Z</time></trkpt><trkpt lat="42.39589530355144" lon="13.937830320603641"><ele>257.6666666666667</ele><time>2026-03-29T09:27:56Z</time></trkpt><trkpt lat="42.395955412751945" lon="13.938012120215896"><ele>255.33333333333331</ele><time>2026-03-29T09:27:57Z</time></trkpt><trkpt lat="42.39601432639451" lon="13.938200835815502"><ele>253.0</ele><time>2026-03-29T09:27:58Z</time></trkpt><trkpt lat="42.39607277552318" lon="13.938392426944985"><ele>251.33333333333331</ele><time>2026-03-29T09:27:59Z</time></trkpt><trkpt lat="42.396135527478556" lon="13.938589367820315"><ele>249.66666666666669</ele><time>2026-03-29T09:28:00Z</time></trkpt><trkpt lat="42.396198743178736" lon="13.93879380400148"><ele>248.0</ele><time>2026-03-29T09:28:01Z</time></trkpt><trkpt lat="42.3962637207398" lon="13.939005853217774"><ele>248.0</ele><time>2026-03-29T09:28:02Z</time></trkpt><trkpt lat="42.396328804522945" lon="13.939216797952142"><ele>248.0</ele><time>2026-03-29T09:28:03Z</time></trkpt><trkpt lat="42.39639288282023" lon="13.939429427154916"><ele>248.0</ele><time>2026-03-29T09:28:04Z</time></trkpt><trkpt lat="42.396460406592034" lon="13.939634121424382"><ele>248.0</ele><time>2026-03-29T09:28:05Z</time></trkpt><trkpt lat="42.3965339077759" lon="13.939829901593049"><ele>248.0</ele><time>2026-03-29T09:28:06Z</time></trkpt><trkpt lat="42.396615894924295" lon="13.94002783171073"><ele>248.0</ele><time>2026-03-29T09:28:07Z</time></trkpt><trkpt lat="42.39670326043324" lon="13.940223863425201"><ele>246.66666666666669</ele><time>2026-03-29T09:28:08Z</time></trkpt><trkpt lat="42.39678703939821" lon="13.940412844250648"><ele>245.33333333333331</ele><time>2026-03-29T09:28:09Z</time></trkpt><trkpt lat="42.396867441121984" lon="13.94060275678527"><ele>244.0</ele><time>2026-03-29T09:28:10Z</time></trkpt><trkpt lat="42.39694847611202" lon="13.940802680056823"><ele>242.0</ele><time>2026-03-29T09:28:11Z</time></trkpt><trkpt lat="42.397029862694566" lon="13.941001407106524"><ele>240.0</ele><time>2026-03-29T09:28:12Z</time></trkpt><trkpt lat="42.397111014162206" lon="13.94120042462669"><ele>238.0</ele><time>2026-03-29T09:28:13Z</time></trkpt><trkpt lat="42.39719600408424" lon="13.94139928133164"><ele>238.0</ele><time>2026-03-29T09:28:14Z</time></trkpt><trkpt lat="42.39728470550651" lon="13.941596466866663"><ele>238.0</ele><time>2026-03-29T09:28:15Z</time></trkpt><trkpt lat="42.397374307873825" lon="13.941799113921167"><ele>238.0</ele><time>2026-03-29T09:28:16Z</time></trkpt><trkpt lat="42.39746571620989" lon="13.942008065326432"><ele>236.0</ele><time>2026-03-29T09:28:17Z</time></trkpt><trkpt lat="42.397559205637165" lon="13.942215516829007"><ele>234.0</ele><time>2026-03-29T09:28:18Z</time></trkpt><trkpt lat="42.39764821869267" lon="13.942414139648415"><ele>232.0</ele><time>2026-03-29T09:28:19Z</time></trkpt><trkpt lat="42.39773755822851" lon="13.942608755500078"><ele>230.66666666666666</ele><time>2026-03-29T09:28:20Z</time></trkpt><trkpt lat="42.3978258379558" lon="13.942801160730856"><ele>229.33333333333331</ele><time>2026-03-29T09:28:21Z</time></trkpt><trkpt lat="42.39791525525304" lon="13.943000818288043"><ele>228.0</ele><time>2026-03-29T09:28:22Z</time></trkpt><trkpt lat="42.39800651330236" lon="13.943202121671236"><ele>226.66666666666669</ele><time>2026-03-29T09:28:23Z</time></trkpt><trkpt lat="42.39809772457753" lon="13.943407654654484"><ele>225.33333333333334</ele><time>2026-03-29T09:28:24Z</time></trkpt><trkpt lat="42.39818922639846" lon="13.94361753455475"><ele>224.0</ele><time>2026-03-29T09:28:25Z</time></trkpt><trkpt lat="42.39828178068293" lon="13.943830857877757"><ele>224.0</ele><time>2026-03-29T09:28:26Z</time></trkpt><trkpt lat="42.398376474450004" lon="13.944042207512394"><ele>224.0</ele><time>2026-03-29T09:28:27Z</time></trkpt><trkpt lat="42.39847258061058" lon="13.944254618419018"><ele>224.0</ele><time>2026-03-29T09:28:28Z</time></trkpt><trkpt lat="42.398566204695996" lon="13.944464784522264"><ele>222.66666666666669</ele><time>2026-03-29T09:28:29Z</time></trkpt><trkpt lat="42.398658304004485" lon="13.94467593424848"><ele>221.33333333333331</ele><time>2026-03-29T09:28:30Z</time></trkpt><trkpt lat="42.39875051505614" lon="13.94488708088682"><ele>220.0</ele><time>2026-03-29T09:28:31Z</time></trkpt><trkpt lat="42.39884323963787" lon="13.945096356318246"><ele>219.0</ele><time>2026-03-29T09:28:32Z</time></trkpt><trkpt lat="42.39893728951174" lon="13.945307407339804"><ele>218.0</ele><time>2026-03-29T09:28:33Z</time></trkpt><trkpt lat="42.39903047253287" lon="13.945523318250064"><ele>217.0</ele><time>2026-03-29T09:28:34Z</time></trkpt><trkpt lat="42.39912515159964" lon="13.94574302420242"><ele>216.0</ele><time>2026-03-29T09:28:35Z</time></trkpt><trkpt lat="42.399218146191345" lon="13.94596532964046"><ele>215.0</ele><time>2026-03-29T09:28:36Z</time></trkpt><trkpt lat="42.39930584808976" lon="13.946180429092243"><ele>214.0</ele><time>2026-03-29T09:28:37Z</time></trkpt><trkpt lat="42.399394063867575" lon="13.946392872829625"><ele>214.0</ele><time>2026-03-29T09:28:38Z</time></trkpt><trkpt lat="42.39947870652709" lon="13.94659814819225"><ele>214.0</ele><time>2026-03-29T09:28:39Z</time></trkpt><trkpt lat="42.399565207533804" lon="13.946801960027637"><ele>214.0</ele><time>2026-03-29T09:28:40Z</time></trkpt><trkpt lat="42.39963821597638" lon="13.946974299163761"><ele>213.5</ele><time>2026-03-29T09:28:41Z</time></trkpt><trkpt lat="42.399696295396275" lon="13.947132144312665"><ele>213.0</ele><time>2026-03-29T09:28:42Z</time></trkpt><trkpt lat="42.39975541996922" lon="13.947294559263455"><ele>212.5</ele><time>2026-03-29T09:28:43Z</time></trkpt><trkpt lat="42.399816159695646" lon="13.947459307316606"><ele>212.0</ele><time>2026-03-29T09:28:44Z</time></trkpt><trkpt lat="42.39987334136026" lon="13.947612828610993"><ele>212.0</ele><time>2026-03-29T09:28:45Z</time></trkpt><trkpt lat="42.39992004944941" lon="13.947735328644315"><ele>212.0</ele><time>2026-03-29T09:28:46Z</time></trkpt><trkpt lat="42.399965898815815" lon="13.947847289072081"><ele>212.0</ele><time>2026-03-29T09:28:47Z</time></trkpt><trkpt lat="42.400007114294574" lon="13.947945394298266"><ele>212.0</ele><time>2026-03-29T09:28:48Z</time></trkpt><trkpt lat="42.40004754232485" lon="13.948047473055068"><ele>212.0</ele><time>2026-03-29T09:28:49Z</time></trkpt><trkpt lat="42.40008927919666" lon="13.948152012543067"><ele>212.0</ele><time>2026-03-29T09:28:50Z</time></trkpt><trkpt lat="42.40013795099029" lon="13.948264043689091"><ele>212.0</ele><time>2026-03-29T09:28:51Z</time></trkpt><trkpt lat="42.400193570224566" lon="13.948385715498121"><ele>212.0</ele><time>2026-03-29T09:28:52Z</time></trkpt><trkpt lat="42.400251808197474" lon="13.948516928763144"><ele>212.0</ele><time>2026-03-29T09:28:53Z</time></trkpt><trkpt lat="42.40031407872365" lon="13.948663354304417"><ele>212.0</ele><time>2026-03-29T09:28:54Z</time></trkpt><trkpt lat="42.40037662364643" lon="13.948826267110238"><ele>210.0</ele><time>2026-03-29T09:28:55Z</time></trkpt><trkpt lat="42.400452689384444" lon="13.948992833314584"><ele>208.0</ele><time>2026-03-29T09:28:56Z</time></trkpt><trkpt lat="42.40055649792578" lon="13.949171770685503"><ele>206.0</ele><time>2026-03-29T09:28:57Z</time></trkpt><trkpt lat="42.40066485590898" lon="13.949387369227928"><ele>205.0</ele><time>2026-03-29T09:28:58Z</time></trkpt><trkpt lat="42.400745945174855" lon="13.949585629556125"><ele>204.0</ele><time>2026-03-29T09:28:59Z</time></trkpt><trkpt lat="42.400820130029395" lon="13.949753417316947"><ele>203.0</ele><time>2026-03-29T09:29:00Z</time></trkpt><trkpt lat="42.400899457121355" lon="13.949909809427794"><ele>200.75</ele><time>2026-03-29T09:29:01Z</time></trkpt><trkpt lat="42.40098427438012" lon="13.950066164366831"><ele>198.5</ele><time>2026-03-29T09:29:02Z</time></trkpt><trkpt lat="42.40106390505897" lon="13.950230460565615"><ele>196.25</ele><time>2026-03-29T09:29:03Z</time></trkpt><trkpt lat="42.401144470197565" lon="13.950407908743564"><ele>194.0</ele><time>2026-03-29T09:29:04Z</time></trkpt><trkpt lat="42.40124023373869" lon="13.950591655723088"><ele>195.0</ele><time>2026-03-29T09:29:05Z</time></trkpt><trkpt lat="42.401350234029536" lon="13.950779917571733"><ele>196.0</ele><time>2026-03-29T09:29:06Z</time></trkpt><trkpt lat="42.401454929666585" lon="13.950994814483684"><ele>197.0</ele><time>2026-03-29T09:29:07Z</time></trkpt><trkpt lat="42.40155040552737" lon="13.951238509273173"><ele>195.0</ele><time>2026-03-29T09:29:08Z</time></trkpt><trkpt lat="42.40164621977309" lon="13.951492068702622"><ele>193.0</ele><time>2026-03-29T09:29:09Z</time></trkpt><trkpt lat="42.401748772510054" lon="13.951741798054197"><ele>191.0</ele><time>2026-03-29T09:29:10Z</time></trkpt><trkpt lat="42.401849381697545" lon="13.951984848170884"><ele>189.66666666666666</ele><time>2026-03-29T09:29:11Z</time></trkpt><trkpt lat="42.40193781656026" lon="13.952221518260657"><ele>188.33333333333334</ele><time>2026-03-29T09:29:12Z</time></trkpt><trkpt lat="42.402014146085456" lon="13.952459998945141"><ele>187.0</ele><time>2026-03-29T09:29:13Z</time></trkpt><trkpt lat="42.40208413905683" lon="13.952696607026743"><ele>187.0</ele><time>2026-03-29T09:29:14Z</time></trkpt><trkpt lat="42.40215744211378" lon="13.95291982919008"><ele>187.0</ele><time>2026-03-29T09:29:15Z</time></trkpt><trkpt lat="42.40222439662641" lon="13.953141532365741"><ele>187.0</ele><time>2026-03-29T09:29:16Z</time></trkpt><trkpt lat="42.402287259975154" lon="13.953353949928573"><ele>186.33333333333334</ele><time>2026-03-29T09:29:17Z</time></trkpt><trkpt lat="42.40235129176589" lon="13.953558607421785"><ele>185.66666666666666</ele><time>2026-03-29T09:29:18Z</time></trkpt><trkpt lat="42.402416753477375" lon="13.953751537347252"><ele>185.0</ele><time>2026-03-29T09:29:19Z</time></trkpt><trkpt lat="42.402464913637594" lon="13.953917751136467"><ele>185.0</ele><time>2026-03-29T09:29:20Z</time></trkpt><trkpt lat="42.40251462333296" lon="13.954082630872456"><ele>185.0</ele><time>2026-03-29T09:29:21Z</time></trkpt><trkpt lat="42.40255566789641" lon="13.95422535288908"><ele>185.0</ele><time>2026-03-29T09:29:22Z</time></trkpt><trkpt lat="42.40259931897539" lon="13.954349224134873"><ele>185.0</ele><time>2026-03-29T09:29:23Z</time></trkpt><trkpt lat="42.40263788445696" lon="13.954446166396322"><ele>185.0</ele><time>2026-03-29T09:29:24Z</time></trkpt><trkpt lat="42.40266152401895" lon="13.954603145077284"><ele>184.6</ele><time>2026-03-29T09:29:26Z</time></trkpt><trkpt lat="42.40263227601927" lon="13.954715080272475"><ele>184.2</ele><time>2026-03-29T09:29:27Z</time></trkpt><trkpt lat="42.40256219482841" lon="13.954826017933515"><ele>183.8</ele><time>2026-03-29T09:29:28Z</time></trkpt><trkpt lat="42.402483461733446" lon="13.954946006511781"><ele>183.4</ele><time>2026-03-29T09:29:29Z</time></trkpt><trkpt lat="42.40241244613927" lon="13.955067822512763"><ele>183.0</ele><time>2026-03-29T09:29:30Z</time></trkpt><trkpt lat="42.40234753286725" lon="13.955188585049383"><ele>183.0</ele><time>2026-03-29T09:29:31Z</time></trkpt><trkpt lat="42.402269482419534" lon="13.955325828496294"><ele>183.0</ele><time>2026-03-29T09:29:32Z</time></trkpt><trkpt lat="42.402186228982195" lon="13.95547498464267"><ele>183.0</ele><time>2026-03-29T09:29:33Z</time></trkpt><trkpt lat="42.40209907638421" lon="13.955633949592311"><ele>183.0</ele><time>2026-03-29T09:29:34Z</time></trkpt><trkpt lat="42.402006894131894" lon="13.95579731642566"><ele>180.33333333333334</ele><time>2026-03-29T09:29:35Z</time></trkpt><trkpt lat="42.40190847953631" lon="13.955973324838185"><ele>177.66666666666669</ele><time>2026-03-29T09:29:36Z</time></trkpt><trkpt lat="42.40181098163353" lon="13.956159247783566"><ele>175.0</ele><time>2026-03-29T09:29:37Z</time></trkpt><trkpt lat="42.40170830157335" lon="13.956342677451879"><ele>175.0</ele><time>2026-03-29T09:29:38Z</time></trkpt><trkpt lat="42.40159825284705" lon="13.956535722965867"><ele>175.0</ele><time>2026-03-29T09:29:39Z</time></trkpt><trkpt lat="42.40148423751462" lon="13.956735275837499"><ele>175.0</ele><time>2026-03-29T09:29:40Z</time></trkpt><trkpt lat="42.40138020866469" lon="13.956927573774017"><ele>175.66666666666669</ele><time>2026-03-29T09:29:41Z</time></trkpt><trkpt lat="42.40127656984824" lon="13.957122455811216"><ele>176.33333333333334</ele><time>2026-03-29T09:29:42Z</time></trkpt><trkpt lat="42.40117008622136" lon="13.95732005418717"><ele>177.0</ele><time>2026-03-29T09:29:43Z</time></trkpt><trkpt lat="42.401067499038824" lon="13.95751297185195"><ele>178.33333333333334</ele><time>2026-03-29T09:29:44Z</time></trkpt><trkpt lat="42.400973641600906" lon="13.95768903027543"><ele>179.66666666666669</ele><time>2026-03-29T09:29:45Z</time></trkpt><trkpt lat="42.40087806310618" lon="13.957859132776314"><ele>181.0</ele><time>2026-03-29T09:29:46Z</time></trkpt><trkpt lat="42.40078555358176" lon="13.958020820990992"><ele>181.0</ele><time>2026-03-29T09:29:47Z</time></trkpt><trkpt lat="42.400712288170794" lon="13.958155342297934"><ele>181.0</ele><time>2026-03-29T09:29:48Z</time></trkpt><trkpt lat="42.40065140014941" lon="13.958279307801355"><ele>181.0</ele><time>2026-03-29T09:29:49Z</time></trkpt><trkpt lat="42.400593870320286" lon="13.958391275008422"><ele>181.0</ele><time>2026-03-29T09:29:50Z</time></trkpt><trkpt lat="42.40053983599566" lon="13.958490112848015"><ele>181.0</ele><time>2026-03-29T09:29:51Z</time></trkpt><trkpt lat="42.40049049947299" lon="13.958585832289653"><ele>181.20000000000002</ele><time>2026-03-29T09:29:52Z</time></trkpt><trkpt lat="42.400446775240496" lon="13.958679525786394"><ele>181.4</ele><time>2026-03-29T09:29:53Z</time></trkpt><trkpt lat="42.400402241445434" lon="13.958770194628311"><ele>181.6</ele><time>2026-03-29T09:29:54Z</time></trkpt><trkpt lat="42.40035741444237" lon="13.958859361273444"><ele>181.8</ele><time>2026-03-29T09:29:55Z</time></trkpt><trkpt lat="42.40049977089966" lon="13.959058420722481"><ele>182.0</ele><time>2026-03-29T09:29:56Z</time></trkpt><trkpt lat="42.40055303508735" lon="13.95917259040799"><ele>181.8</ele><time>2026-03-29T09:29:57Z</time></trkpt><trkpt lat="42.40060456551917" lon="13.95933143430304"><ele>181.6</ele><time>2026-03-29T09:29:59Z</time></trkpt><trkpt lat="42.40063908467657" lon="13.959448383381003"><ele>181.4</ele><time>2026-03-29T09:30:00Z</time></trkpt><trkpt lat="42.400683062772735" lon="13.959580365523001"><ele>181.20000000000002</ele><time>2026-03-29T09:30:01Z</time></trkpt><trkpt lat="42.40073613385144" lon="13.959725309812777"><ele>181.0</ele><time>2026-03-29T09:30:02Z</time></trkpt><trkpt lat="42.40079424123518" lon="13.959883458844041"><ele>181.0</ele><time>2026-03-29T09:30:03Z</time></trkpt><trkpt lat="42.400851062515315" lon="13.960056972813849"><ele>181.0</ele><time>2026-03-29T09:30:04Z</time></trkpt><trkpt lat="42.40090826725537" lon="13.960240864470745"><ele>181.0</ele><time>2026-03-29T09:30:05Z</time></trkpt><trkpt lat="42.400966505925474" lon="13.960422185514174"><ele>181.0</ele><time>2026-03-29T09:30:06Z</time></trkpt><trkpt lat="42.401026535043975" lon="13.960595191186304"><ele>181.0</ele><time>2026-03-29T09:30:07Z</time></trkpt><trkpt lat="42.401086562171635" lon="13.960778074994371"><ele>181.0</ele><time>2026-03-29T09:30:08Z</time></trkpt><trkpt lat="42.401147908709405" lon="13.960970471973209"><ele>181.0</ele><time>2026-03-29T09:30:09Z</time></trkpt><trkpt lat="42.40120828003227" lon="13.961160760628267"><ele>181.33333333333334</ele><time>2026-03-29T09:30:10Z</time></trkpt><trkpt lat="42.40127187101617" lon="13.96135513067248"><ele>181.66666666666666</ele><time>2026-03-29T09:30:11Z</time></trkpt><trkpt lat="42.401332469284554" lon="13.961551160868439"><ele>182.0</ele><time>2026-03-29T09:30:12Z</time></trkpt><trkpt lat="42.40139006274331" lon="13.961731888309329"><ele>180.75</ele><time>2026-03-29T09:30:13Z</time></trkpt><trkpt lat="42.401447645901165" lon="13.96190513755883"><ele>179.5</ele><time>2026-03-29T09:30:14Z</time></trkpt><trkpt lat="42.40150774033205" lon="13.962076968777266"><ele>178.25</ele><time>2026-03-29T09:30:15Z</time></trkpt><trkpt lat="42.4015664244602" lon="13.962247775845643"><ele>177.0</ele><time>2026-03-29T09:30:16Z</time></trkpt><trkpt lat="42.40161709574565" lon="13.962410567323621"><ele>176.25</ele><time>2026-03-29T09:30:17Z</time></trkpt><trkpt lat="42.401656106098116" lon="13.96256309308304"><ele>175.5</ele><time>2026-03-29T09:30:18Z</time></trkpt><trkpt lat="42.401677648680334" lon="13.962710435302233"><ele>174.75</ele><time>2026-03-29T09:30:19Z</time></trkpt><trkpt lat="42.401677410866675" lon="13.962856396322403"><ele>174.0</ele><time>2026-03-29T09:30:20Z</time></trkpt><trkpt lat="42.40165245159492" lon="13.96301111133332"><ele>174.0</ele><time>2026-03-29T09:30:21Z</time></trkpt><trkpt lat="42.40161009642129" lon="13.96319467074556"><ele>174.0</ele><time>2026-03-29T09:30:22Z</time></trkpt><trkpt lat="42.40157609385113" lon="13.96338969231402"><ele>174.0</ele><time>2026-03-29T09:30:23Z</time></trkpt><trkpt lat="42.40153608734598" lon="13.963600131578103"><ele>171.66666666666666</ele><time>2026-03-29T09:30:24Z</time></trkpt><trkpt lat="42.40149705488953" lon="13.963784434134297"><ele>169.33333333333331</ele><time>2026-03-29T09:30:25Z</time></trkpt><trkpt lat="42.40145769383982" lon="13.963986900304393"><ele>167.0</ele><time>2026-03-29T09:30:26Z</time></trkpt><trkpt lat="42.40142075151274" lon="13.964189327290507"><ele>165.0</ele><time>2026-03-29T09:30:27Z</time></trkpt><trkpt lat="42.4013876025041" lon="13.96439519052881"><ele>163.0</ele><time>2026-03-29T09:30:28Z</time></trkpt><trkpt lat="42.40136007539909" lon="13.964612640754225"><ele>161.0</ele><time>2026-03-29T09:30:29Z</time></trkpt><trkpt lat="42.40135605682686" lon="13.9648151388702"><ele>161.0</ele><time>2026-03-29T09:30:30Z</time></trkpt><trkpt lat="42.40139566099542" lon="13.965007064597243"><ele>161.0</ele><time>2026-03-29T09:30:31Z</time></trkpt><trkpt lat="42.401466019635784" lon="13.96518629712602"><ele>161.0</ele><time>2026-03-29T09:30:32Z</time></trkpt><trkpt lat="42.40156528281201" lon="13.965359250606259"><ele>161.33333333333331</ele><time>2026-03-29T09:30:33Z</time></trkpt><trkpt lat="42.40167976597396" lon="13.965509378325708"><ele>161.66666666666666</ele><time>2026-03-29T09:30:34Z</time></trkpt><trkpt lat="42.40180065348933" lon="13.96564716670841"><ele>162.0</ele><time>2026-03-29T09:30:35Z</time></trkpt><trkpt lat="42.40192369694827" lon="13.965783509242016"><ele>161.66666666666666</ele><time>2026-03-29T09:30:36Z</time></trkpt><trkpt lat="42.40204802743052" lon="13.965917862238113"><ele>161.33333333333331</ele><time>2026-03-29T09:30:37Z</time></trkpt><trkpt lat="42.4021758692726" lon="13.966056300885345"><ele>161.0</ele><time>2026-03-29T09:30:38Z</time></trkpt><trkpt lat="42.40229957076641" lon="13.966191676137925"><ele>159.66666666666666</ele><time>2026-03-29T09:30:39Z</time></trkpt><trkpt lat="42.40242122167445" lon="13.966320795243538"><ele>158.33333333333334</ele><time>2026-03-29T09:30:40Z</time></trkpt><trkpt lat="42.40254489685602" lon="13.966445333253303"><ele>157.0</ele><time>2026-03-29T09:30:41Z</time></trkpt><trkpt lat="42.40267020893385" lon="13.966560086298768"><ele>157.0</ele><time>2026-03-29T09:30:42Z</time></trkpt><trkpt lat="42.40279874582984" lon="13.966664447182755"><ele>157.0</ele><time>2026-03-29T09:30:43Z</time></trkpt><trkpt lat="42.402938515518585" lon="13.966765497060589"><ele>157.0</ele><time>2026-03-29T09:30:44Z</time></trkpt><trkpt lat="42.40308301563892" lon="13.966868909396707"><ele>155.66666666666669</ele><time>2026-03-29T09:30:45Z</time></trkpt><trkpt lat="42.403228706657515" lon="13.9669840668696"><ele>154.33333333333334</ele><time>2026-03-29T09:30:46.001Z</time></trkpt><trkpt lat="42.40337455368347" lon="13.967107062093445"><ele>153.0</ele><time>2026-03-29T09:30:47.001Z</time></trkpt><trkpt lat="42.403521537690736" lon="13.967222935148955"><ele>153.0</ele><time>2026-03-29T09:30:48.001Z</time></trkpt><trkpt lat="42.40367002457019" lon="13.967336149257177"><ele>153.0</ele><time>2026-03-29T09:30:49.001Z</time></trkpt><trkpt lat="42.40381773997326" lon="13.967460978874364"><ele>153.0</ele><time>2026-03-29T09:30:50.001Z</time></trkpt><trkpt lat="42.403959721697035" lon="13.967570894622705"><ele>152.0</ele><time>2026-03-29T09:30:51.001Z</time></trkpt><trkpt lat="42.404101496527176" lon="13.967689421126451"><ele>151.0</ele><time>2026-03-29T09:30:52.001Z</time></trkpt><trkpt lat="42.4042485131737" lon="13.967800682872454"><ele>150.0</ele><time>2026-03-29T09:30:53.001Z</time></trkpt><trkpt lat="42.404396200761404" lon="13.967909205907267"><ele>150.0</ele><time>2026-03-29T09:30:54.001Z</time></trkpt><trkpt lat="42.40454092308781" lon="13.968021903027006"><ele>150.0</ele><time>2026-03-29T09:30:55.001Z</time></trkpt><trkpt lat="42.40468630764574" lon="13.968134483561816"><ele>150.0</ele><time>2026-03-29T09:30:56.001Z</time></trkpt><trkpt lat="42.404831026491806" lon="13.968245397008722"><ele>149.66666666666666</ele><time>2026-03-29T09:30:57.001Z</time></trkpt><trkpt lat="42.404972552542425" lon="13.968353767752818"><ele>149.33333333333331</ele><time>2026-03-29T09:30:58.001Z</time></trkpt><trkpt lat="42.405113605085624" lon="13.96846403557039"><ele>149.0</ele><time>2026-03-29T09:30:59.001Z</time></trkpt><trkpt lat="42.405250670250254" lon="13.96857623593527"><ele>148.66666666666666</ele><time>2026-03-29T09:31:00.001Z</time></trkpt><trkpt lat="42.405389559388034" lon="13.968698643906013"><ele>148.33333333333334</ele><time>2026-03-29T09:31:01.001Z</time></trkpt><trkpt lat="42.405523586582284" lon="13.968843481521159"><ele>148.0</ele><time>2026-03-29T09:31:02.001Z</time></trkpt><trkpt lat="42.405641630040236" lon="13.969015466521288"><ele>149.0</ele><time>2026-03-29T09:31:03.001Z</time></trkpt><trkpt lat="42.40573458803187" lon="13.969206855752981"><ele>150.0</ele><time>2026-03-29T09:31:04Z</time></trkpt><trkpt lat="42.40581149021724" lon="13.96941309281441"><ele>151.0</ele><time>2026-03-29T09:31:05Z</time></trkpt><trkpt lat="42.405871643921174" lon="13.969625961679315"><ele>151.0</ele><time>2026-03-29T09:31:06.001Z</time></trkpt><trkpt lat="42.40591108843647" lon="13.969852176480353"><ele>151.0</ele><time>2026-03-29T09:31:07.001Z</time></trkpt><trkpt lat="42.405926104397416" lon="13.970086784428798"><ele>151.0</ele><time>2026-03-29T09:31:08.001Z</time></trkpt><trkpt lat="42.40592116345099" lon="13.970313418325464"><ele>151.0</ele><time>2026-03-29T09:31:09.001Z</time></trkpt><trkpt lat="42.40589037562951" lon="13.970536724965887"><ele>151.0</ele><time>2026-03-29T09:31:10.001Z</time></trkpt><trkpt lat="42.40585879585266" lon="13.970758675215022"><ele>151.0</ele><time>2026-03-29T09:31:11.001Z</time></trkpt><trkpt lat="42.40583536933048" lon="13.970980843003954"><ele>150.66666666666669</ele><time>2026-03-29T09:31:12.001Z</time></trkpt><trkpt lat="42.40582965786984" lon="13.97120785452492"><ele>150.33333333333334</ele><time>2026-03-29T09:31:13.001Z</time></trkpt><trkpt lat="42.40583771591768" lon="13.971434986845246"><ele>150.0</ele><time>2026-03-29T09:31:14.001Z</time></trkpt><trkpt lat="42.40585876971152" lon="13.971662425520085"><ele>150.33333333333334</ele><time>2026-03-29T09:31:15.001Z</time></trkpt><trkpt lat="42.40590313336329" lon="13.971884816510856"><ele>150.66666666666669</ele><time>2026-03-29T09:31:16.001Z</time></trkpt><trkpt lat="42.40595995998903" lon="13.972102369534138"><ele>151.0</ele><time>2026-03-29T09:31:17.001Z</time></trkpt><trkpt lat="42.40601825876637" lon="13.972316120039874"><ele>150.0</ele><time>2026-03-29T09:31:18.001Z</time></trkpt><trkpt lat="42.406077788161625" lon="13.972529941531395"><ele>149.0</ele><time>2026-03-29T09:31:19.001Z</time></trkpt><trkpt lat="42.40613374511734" lon="13.972742123284958"><ele>148.0</ele><time>2026-03-29T09:31:20.001Z</time></trkpt><trkpt lat="42.40618873119614" lon="13.972954299491434"><ele>148.0</ele><time>2026-03-29T09:31:21.001Z</time></trkpt><trkpt lat="42.40624566032041" lon="13.973168210076338"><ele>148.0</ele><time>2026-03-29T09:31:22.001Z</time></trkpt><trkpt lat="42.40630532562102" lon="13.973385808867809"><ele>148.0</ele><time>2026-03-29T09:31:23.001Z</time></trkpt><trkpt lat="42.40636480519653" lon="13.973606003800246"><ele>148.33333333333334</ele><time>2026-03-29T09:31:24.001Z</time></trkpt><trkpt lat="42.4064203747413" lon="13.97382490372686"><ele>148.66666666666666</ele><time>2026-03-29T09:31:25.001Z</time></trkpt><trkpt lat="42.40647504277913" lon="13.974041680502191"><ele>149.0</ele><time>2026-03-29T09:31:26.001Z</time></trkpt><trkpt lat="42.40652984910471" lon="13.974256072820046"><ele>149.0</ele><time>2026-03-29T09:31:27.001Z</time></trkpt><trkpt lat="42.40658939485988" lon="13.974468133103068"><ele>149.0</ele><time>2026-03-29T09:31:28.001Z</time></trkpt><trkpt lat="42.40664792570704" lon="13.974677926769402"><ele>149.0</ele><time>2026-03-29T09:31:29.001Z</time></trkpt><trkpt lat="42.40670350532583" lon="13.974885791781377"><ele>149.0</ele><time>2026-03-29T09:31:30.001Z</time></trkpt><trkpt lat="42.40676120301322" lon="13.975098265162416"><ele>149.0</ele><time>2026-03-29T09:31:31.001Z</time></trkpt><trkpt lat="42.40682070516328" lon="13.975319065150085"><ele>149.0</ele><time>2026-03-29T09:31:32.001Z</time></trkpt><trkpt lat="42.40687967319691" lon="13.975540449281091"><ele>149.0</ele><time>2026-03-29T09:31:33.001Z</time></trkpt><trkpt lat="42.40694051032573" lon="13.975764193093973"><ele>149.0</ele><time>2026-03-29T09:31:34.001Z</time></trkpt><trkpt lat="42.407000580793245" lon="13.975987636940777"><ele>149.0</ele><time>2026-03-29T09:31:35.001Z</time></trkpt><trkpt lat="42.40705791669456" lon="13.976211114207787"><ele>149.0</ele><time>2026-03-29T09:31:36.001Z</time></trkpt><trkpt lat="42.40711671277339" lon="13.976432152494985"><ele>149.0</ele><time>2026-03-29T09:31:37.001Z</time></trkpt><trkpt lat="42.407176862684935" lon="13.976656007599791"><ele>149.0</ele><time>2026-03-29T09:31:38.001Z</time></trkpt><trkpt lat="42.40723964999432" lon="13.976881387572785"><ele>149.33333333333331</ele><time>2026-03-29T09:31:39.001Z</time></trkpt><trkpt lat="42.40729974689207" lon="13.977104568578897"><ele>149.66666666666666</ele><time>2026-03-29T09:31:40.001Z</time></trkpt><trkpt lat="42.40735873091548" lon="13.977325128157933"><ele>150.0</ele><time>2026-03-29T09:31:41.001Z</time></trkpt><trkpt lat="42.407417027718544" lon="13.97754300206422"><ele>150.0</ele><time>2026-03-29T09:31:42.001Z</time></trkpt><trkpt lat="42.407476903332686" lon="13.97775805606187"><ele>150.0</ele><time>2026-03-29T09:31:43.001Z</time></trkpt><trkpt lat="42.40753818584262" lon="13.977974014116707"><ele>150.0</ele><time>2026-03-29T09:31:44.001Z</time></trkpt><trkpt lat="42.40759311019438" lon="13.978190464825015"><ele>149.33333333333334</ele><time>2026-03-29T09:31:45.001Z</time></trkpt><trkpt lat="42.407648499678274" lon="13.978407285877473"><ele>148.66666666666669</ele><time>2026-03-29T09:31:46.001Z</time></trkpt><trkpt lat="42.407709893279545" lon="13.978623676661318"><ele>148.0</ele><time>2026-03-29T09:31:47.001Z</time></trkpt><trkpt lat="42.40776729296851" lon="13.978840319085185"><ele>148.0</ele><time>2026-03-29T09:31:48.001Z</time></trkpt><trkpt lat="42.4078252397907" lon="13.979059678165116"><ele>148.0</ele><time>2026-03-29T09:31:49.001Z</time></trkpt><trkpt lat="42.40788433510419" lon="13.97927804819214"><ele>148.0</ele><time>2026-03-29T09:31:50.001Z</time></trkpt><trkpt lat="42.40794426206705" lon="13.979495820127344"><ele>150.66666666666669</ele><time>2026-03-29T09:31:51.001Z</time></trkpt><trkpt lat="42.408001309995704" lon="13.97970613694395"><ele>153.33333333333334</ele><time>2026-03-29T09:31:52.001Z</time></trkpt><trkpt lat="42.40805651913745" lon="13.979912979455243"><ele>156.0</ele><time>2026-03-29T09:31:53.001Z</time></trkpt><trkpt lat="42.40810996377605" lon="13.980122202563297"><ele>156.33333333333334</ele><time>2026-03-29T09:31:54.001Z</time></trkpt><trkpt lat="42.408165996623005" lon="13.980332241520117"><ele>156.66666666666669</ele><time>2026-03-29T09:31:55.001Z</time></trkpt><trkpt lat="42.40822462786917" lon="13.98054804843139"><ele>157.0</ele><time>2026-03-29T09:31:56.001Z</time></trkpt><trkpt lat="42.40828524762839" lon="13.980771181120726"><ele>155.33333333333334</ele><time>2026-03-29T09:31:57.001Z</time></trkpt><trkpt lat="42.408347178426645" lon="13.981004943678354"><ele>153.66666666666666</ele><time>2026-03-29T09:31:58.001Z</time></trkpt><trkpt lat="42.40840910859368" lon="13.98123766940032"><ele>152.0</ele><time>2026-03-29T09:31:59.001Z</time></trkpt><trkpt lat="42.40846988729571" lon="13.981463795798343"><ele>150.33333333333331</ele><time>2026-03-29T09:32:00.001Z</time></trkpt><trkpt lat="42.408529162238274" lon="13.981685384969571"><ele>148.66666666666666</ele><time>2026-03-29T09:32:01.001Z</time></trkpt><trkpt lat="42.408588629608246" lon="13.981908333768983"><ele>147.0</ele><time>2026-03-29T09:32:02.001Z</time></trkpt><trkpt lat="42.408649462568526" lon="13.982129443743364"><ele>147.0</ele><time>2026-03-29T09:32:03.001Z</time></trkpt><trkpt lat="42.408711234285676" lon="13.982354619034735"><ele>147.0</ele><time>2026-03-29T09:32:04.001Z</time></trkpt><trkpt lat="42.408773553936754" lon="13.982583625199306"><ele>147.0</ele><time>2026-03-29T09:32:05.001Z</time></trkpt><trkpt lat="42.408834977159295" lon="13.9828128397017"><ele>149.66666666666666</ele><time>2026-03-29T09:32:06.001Z</time></trkpt><trkpt lat="42.40889357488676" lon="13.983031144050427"><ele>152.33333333333331</ele><time>2026-03-29T09:32:07.001Z</time></trkpt><trkpt lat="42.408950481659446" lon="13.983245582661311"><ele>155.0</ele><time>2026-03-29T09:32:08.001Z</time></trkpt><trkpt lat="42.40901144332048" lon="13.983455937562843"><ele>155.0</ele><time>2026-03-29T09:32:09.001Z</time></trkpt><trkpt lat="42.409070748570855" lon="13.983674179471487"><ele>155.0</ele><time>2026-03-29T09:32:10.001Z</time></trkpt><trkpt lat="42.409128882639386" lon="13.983893035785457"><ele>155.0</ele><time>2026-03-29T09:32:11.001Z</time></trkpt><trkpt lat="42.409186271487044" lon="13.984110939337254"><ele>152.66666666666666</ele><time>2026-03-29T09:32:12.001Z</time></trkpt><trkpt lat="42.409246645025206" lon="13.984329254343152"><ele>150.33333333333334</ele><time>2026-03-29T09:32:13.001Z</time></trkpt><trkpt lat="42.4093053166745" lon="13.984548222741834"><ele>148.0</ele><time>2026-03-29T09:32:14.001Z</time></trkpt><trkpt lat="42.409364051422" lon="13.984769770276563"><ele>148.0</ele><time>2026-03-29T09:32:15.001Z</time></trkpt><trkpt lat="42.40942001477682" lon="13.984994919650017"><ele>148.0</ele><time>2026-03-29T09:32:16.001Z</time></trkpt><trkpt lat="42.40948015196843" lon="13.985221165650593"><ele>148.0</ele><time>2026-03-29T09:32:17.001Z</time></trkpt><trkpt lat="42.40954221644524" lon="13.985451634256247"><ele>147.33333333333334</ele><time>2026-03-29T09:32:18.001Z</time></trkpt><trkpt lat="42.40960436926665" lon="13.98568776960445"><ele>146.66666666666666</ele><time>2026-03-29T09:32:19.001Z</time></trkpt><trkpt lat="42.409667264997026" lon="13.98592135909435"><ele>146.0</ele><time>2026-03-29T09:32:20.001Z</time></trkpt><trkpt lat="42.409728612031465" lon="13.986150950186499"><ele>147.66666666666666</ele><time>2026-03-29T09:32:21.001Z</time></trkpt><trkpt lat="42.4097908042684" lon="13.98638143654053"><ele>149.33333333333334</ele><time>2026-03-29T09:32:22.001Z</time></trkpt><trkpt lat="42.40985513013751" lon="13.986616090105585"><ele>151.0</ele><time>2026-03-29T09:32:23.001Z</time></trkpt><trkpt lat="42.40991863206583" lon="13.986853682457086"><ele>151.0</ele><time>2026-03-29T09:32:24.001Z</time></trkpt><trkpt lat="42.409983343478935" lon="13.987092459655935"><ele>151.0</ele><time>2026-03-29T09:32:25.001Z</time></trkpt><trkpt lat="42.41004784565361" lon="13.987330239160661"><ele>151.0</ele><time>2026-03-29T09:32:26.001Z</time></trkpt><trkpt lat="42.41011297549334" lon="13.987565898995799"><ele>149.66666666666669</ele><time>2026-03-29T09:32:27.001Z</time></trkpt><trkpt lat="42.41017640183982" lon="13.987803698357611"><ele>148.33333333333334</ele><time>2026-03-29T09:32:28.001Z</time></trkpt><trkpt lat="42.41023726915587" lon="13.988039664124978"><ele>147.0</ele><time>2026-03-29T09:32:29.001Z</time></trkpt><trkpt lat="42.41029922343401" lon="13.988269374619724"><ele>146.66666666666666</ele><time>2026-03-29T09:32:30.001Z</time></trkpt><trkpt lat="42.41036042024708" lon="13.988494874762592"><ele>146.33333333333331</ele><time>2026-03-29T09:32:31.001Z</time></trkpt><trkpt lat="42.410420839659324" lon="13.988720712490613"><ele>146.0</ele><time>2026-03-29T09:32:32.001Z</time></trkpt><trkpt lat="42.410480388967784" lon="13.988944363756499"><ele>146.66666666666666</ele><time>2026-03-29T09:32:33.001Z</time></trkpt><trkpt lat="42.4105390357286" lon="13.989164494171657"><ele>147.33333333333334</ele><time>2026-03-29T09:32:34.001Z</time></trkpt><trkpt lat="42.41059725118422" lon="13.989383467167544"><ele>148.0</ele><time>2026-03-29T09:32:35.001Z</time></trkpt><trkpt lat="42.410657305089245" lon="13.989601143284409"><ele>148.0</ele><time>2026-03-29T09:32:36.001Z</time></trkpt><trkpt lat="42.41072226191418" lon="13.989823590171767"><ele>148.0</ele><time>2026-03-29T09:32:37.001Z</time></trkpt><trkpt lat="42.410783739391405" lon="13.990044793679074"><ele>148.0</ele><time>2026-03-29T09:32:38.001Z</time></trkpt><trkpt lat="42.41083899874488" lon="13.99026256735654"><ele>148.0</ele><time>2026-03-29T09:32:39.001Z</time></trkpt><trkpt lat="42.41089191812668" lon="13.990480442727334"><ele>148.0</ele><time>2026-03-29T09:32:40.001Z</time></trkpt><trkpt lat="42.41094711415876" lon="13.990690527343217"><ele>148.0</ele><time>2026-03-29T09:32:41.001Z</time></trkpt><trkpt lat="42.41100223793783" lon="13.990900746369306"><ele>147.33333333333334</ele><time>2026-03-29T09:32:42.001Z</time></trkpt><trkpt lat="42.4110568375349" lon="13.991114888735062"><ele>146.66666666666666</ele><time>2026-03-29T09:32:43.001Z</time></trkpt><trkpt lat="42.41111449011351" lon="13.99133366146937"><ele>146.0</ele><time>2026-03-29T09:32:44.001Z</time></trkpt><trkpt lat="42.411174182024745" lon="13.991552226876857"><ele>146.66666666666666</ele><time>2026-03-29T09:32:45.001Z</time></trkpt><trkpt lat="42.411232301913635" lon="13.991766521002662"><ele>147.33333333333334</ele><time>2026-03-29T09:32:46.001Z</time></trkpt><trkpt lat="42.41129250224548" lon="13.991983324791788"><ele>148.0</ele><time>2026-03-29T09:32:47.001Z</time></trkpt><trkpt lat="42.41134966374535" lon="13.99219964563568"><ele>148.0</ele><time>2026-03-29T09:32:48.001Z</time></trkpt><trkpt lat="42.41140805277299" lon="13.992417484353643"><ele>148.0</ele><time>2026-03-29T09:32:49.001Z</time></trkpt><trkpt lat="42.411466685484214" lon="13.992634130690817"><ele>148.0</ele><time>2026-03-29T09:32:50.001Z</time></trkpt><trkpt lat="42.41152419911024" lon="13.992849278237456"><ele>146.33333333333334</ele><time>2026-03-29T09:32:51.001Z</time></trkpt><trkpt lat="42.411584298282364" lon="13.993066435581571"><ele>144.66666666666666</ele><time>2026-03-29T09:32:52.001Z</time></trkpt><trkpt lat="42.41164048434876" lon="13.993282359546841"><ele>143.0</ele><time>2026-03-29T09:32:53.001Z</time></trkpt><trkpt lat="42.411697050954515" lon="13.993496691851478"><ele>142.0</ele><time>2026-03-29T09:32:54.001Z</time></trkpt><trkpt lat="42.41175541953209" lon="13.9937113282787"><ele>141.0</ele><time>2026-03-29T09:32:55.001Z</time></trkpt><trkpt lat="42.4118127462358" lon="13.993926071105077"><ele>140.0</ele><time>2026-03-29T09:32:56.001Z</time></trkpt><trkpt lat="42.411870518493345" lon="13.994138951006965"><ele>139.0</ele><time>2026-03-29T09:32:57.001Z</time></trkpt><trkpt lat="42.41192842122716" lon="13.994352275002276"><ele>138.0</ele><time>2026-03-29T09:32:58.001Z</time></trkpt><trkpt lat="42.41198647149207" lon="13.99456413696293"><ele>137.0</ele><time>2026-03-29T09:32:59.001Z</time></trkpt><trkpt lat="42.41204330419895" lon="13.994776359107856"><ele>137.0</ele><time>2026-03-29T09:33:00.001Z</time></trkpt><trkpt lat="42.412097631321785" lon="13.994985014103689"><ele>137.0</ele><time>2026-03-29T09:33:01.001Z</time></trkpt><trkpt lat="42.41215328565928" lon="13.995196985280458"><ele>137.0</ele><time>2026-03-29T09:33:02.001Z</time></trkpt><trkpt lat="42.412209834380576" lon="13.99540961650572"><ele>137.0</ele><time>2026-03-29T09:33:03.001Z</time></trkpt><trkpt lat="42.41226653856139" lon="13.995620237979136"><ele>137.0</ele><time>2026-03-29T09:33:04.001Z</time></trkpt><trkpt lat="42.41232156078275" lon="13.995828193628627"><ele>137.0</ele><time>2026-03-29T09:33:05.001Z</time></trkpt><trkpt lat="42.41238182950387" lon="13.9960341620574"><ele>137.0</ele><time>2026-03-29T09:33:06.001Z</time></trkpt><trkpt lat="42.412445737958535" lon="13.9962372536477"><ele>137.0</ele><time>2026-03-29T09:33:07.001Z</time></trkpt><trkpt lat="42.41252240573117" lon="13.996430605032097"><ele>137.0</ele><time>2026-03-29T09:33:08.001Z</time></trkpt><trkpt lat="42.412611122669055" lon="13.99661188098109"><ele>135.66666666666666</ele><time>2026-03-29T09:33:09.001Z</time></trkpt><trkpt lat="42.41270434448538" lon="13.996791980380427"><ele>134.33333333333334</ele><time>2026-03-29T09:33:10.001Z</time></trkpt><trkpt lat="42.41280422860096" lon="13.996972559069636"><ele>133.0</ele><time>2026-03-29T09:33:11.001Z</time></trkpt><trkpt lat="42.41291114015662" lon="13.997154853627933"><ele>133.66666666666669</ele><time>2026-03-29T09:33:12.001Z</time></trkpt><trkpt lat="42.41301541842921" lon="13.9973308846882"><ele>134.33333333333334</ele><time>2026-03-29T09:33:13.001Z</time></trkpt><trkpt lat="42.413120892456895" lon="13.997510350765724"><ele>135.0</ele><time>2026-03-29T09:33:14.001Z</time></trkpt><trkpt lat="42.41322224459141" lon="13.99768576168742"><ele>135.0</ele><time>2026-03-29T09:33:15.001Z</time></trkpt><trkpt lat="42.41332217492182" lon="13.997853943848286"><ele>135.0</ele><time>2026-03-29T09:33:16.001Z</time></trkpt><trkpt lat="42.41341741671563" lon="13.998016982379998"><ele>135.0</ele><time>2026-03-29T09:33:17.001Z</time></trkpt><trkpt lat="42.4135104674841" lon="13.998175409584864"><ele>135.0</ele><time>2026-03-29T09:33:18.001Z</time></trkpt><trkpt lat="42.41360139479687" lon="13.998331080922721"><ele>135.0</ele><time>2026-03-29T09:33:19.001Z</time></trkpt><trkpt lat="42.41368952013193" lon="13.998481209314638"><ele>135.0</ele><time>2026-03-29T09:33:20.001Z</time></trkpt><trkpt lat="42.41377932230437" lon="13.99863872730117"><ele>135.0</ele><time>2026-03-29T09:33:21.001Z</time></trkpt><trkpt lat="42.413873235030366" lon="13.99879488532173"><ele>134.66666666666666</ele><time>2026-03-29T09:33:22.001Z</time></trkpt><trkpt lat="42.41396897148704" lon="13.998958469960826"><ele>134.33333333333331</ele><time>2026-03-29T09:33:23.001Z</time></trkpt><trkpt lat="42.41406472829924" lon="13.999126159110224"><ele>134.0</ele><time>2026-03-29T09:33:24.001Z</time></trkpt><trkpt lat="42.4141621494786" lon="13.999294428163044"><ele>134.0</ele><time>2026-03-29T09:33:25.001Z</time></trkpt><trkpt lat="42.41426027079891" lon="13.999465242432132"><ele>134.0</ele><time>2026-03-29T09:33:26.001Z</time></trkpt><trkpt lat="42.414360318621675" lon="13.999638261139307"><ele>134.0</ele><time>2026-03-29T09:33:27.001Z</time></trkpt><trkpt lat="42.414461440292904" lon="13.999813029463182"><ele>134.0</ele><time>2026-03-29T09:33:28.001Z</time></trkpt><trkpt lat="42.41456346624018" lon="13.999986921199671"><ele>134.0</ele><time>2026-03-29T09:33:29.001Z</time></trkpt><trkpt lat="42.414664766537356" lon="14.00016166175505"><ele>134.0</ele><time>2026-03-29T09:33:30.001Z</time></trkpt><trkpt lat="42.41476611264115" lon="14.000336179539072"><ele>134.0</ele><time>2026-03-29T09:33:31.001Z</time></trkpt><trkpt lat="42.414868651749615" lon="14.000511505550806"><ele>134.0</ele><time>2026-03-29T09:33:32.001Z</time></trkpt><trkpt lat="42.414971207053384" lon="14.000683841542974"><ele>134.0</ele><time>2026-03-29T09:33:33.001Z</time></trkpt><trkpt lat="42.415075166783126" lon="14.000856504778971"><ele>135.0</ele><time>2026-03-29T09:33:34.001Z</time></trkpt><trkpt lat="42.415178332434024" lon="14.001032220723603"><ele>136.0</ele><time>2026-03-29T09:33:35.001Z</time></trkpt><trkpt lat="42.41528160616307" lon="14.00120834988191"><ele>137.0</ele><time>2026-03-29T09:33:36.001Z</time></trkpt><trkpt lat="42.415385151307845" lon="14.001384228045055"><ele>136.66666666666666</ele><time>2026-03-29T09:33:37.001Z</time></trkpt><trkpt lat="42.41548821416317" lon="14.001558234915276"><ele>136.33333333333334</ele><time>2026-03-29T09:33:38.001Z</time></trkpt><trkpt lat="42.415588981743" lon="14.00173264593273"><ele>136.0</ele><time>2026-03-29T09:33:39.001Z</time></trkpt><trkpt lat="42.41569184856574" lon="14.001909918533865"><ele>135.33333333333334</ele><time>2026-03-29T09:33:40.001Z</time></trkpt><trkpt lat="42.41579770497894" lon="14.002085986328675"><ele>134.66666666666666</ele><time>2026-03-29T09:33:41.001Z</time></trkpt><trkpt lat="42.415905610915516" lon="14.00226543294198"><ele>134.0</ele><time>2026-03-29T09:33:42.001Z</time></trkpt><trkpt lat="42.41601156716311" lon="14.002443940678692"><ele>134.0</ele><time>2026-03-29T09:33:43.001Z</time></trkpt><trkpt lat="42.41611449169692" lon="14.002626391050564"><ele>134.0</ele><time>2026-03-29T09:33:44.001Z</time></trkpt><trkpt lat="42.41622229776286" lon="14.002811236262215"><ele>134.0</ele><time>2026-03-29T09:33:45.001Z</time></trkpt><trkpt lat="42.41633014102876" lon="14.002996224369943"><ele>134.0</ele><time>2026-03-29T09:33:46.001Z</time></trkpt><trkpt lat="42.416437882331316" lon="14.003180185921565"><ele>134.0</ele><time>2026-03-29T09:33:47.001Z</time></trkpt><trkpt lat="42.416546052257786" lon="14.003364451254953"><ele>134.0</ele><time>2026-03-29T09:33:48.001Z</time></trkpt><trkpt lat="42.41665114770033" lon="14.003547296902486"><ele>133.33333333333331</ele><time>2026-03-29T09:33:49.001Z</time></trkpt><trkpt lat="42.41675592073232" lon="14.003731722070926"><ele>132.66666666666666</ele><time>2026-03-29T09:33:50.001Z</time></trkpt><trkpt lat="42.41686110248496" lon="14.003914025604109"><ele>132.0</ele><time>2026-03-29T09:33:51.001Z</time></trkpt><trkpt lat="42.41696168873356" lon="14.004091915356044"><ele>131.33333333333334</ele><time>2026-03-29T09:33:52.001Z</time></trkpt><trkpt lat="42.41706395843927" lon="14.004265685765992"><ele>130.66666666666669</ele><time>2026-03-29T09:33:53.001Z</time></trkpt><trkpt lat="42.417167477803666" lon="14.00443775715663"><ele>130.0</ele><time>2026-03-29T09:33:54.001Z</time></trkpt><trkpt lat="42.41727133383056" lon="14.00461108127621"><ele>131.33333333333334</ele><time>2026-03-29T09:33:55.001Z</time></trkpt><trkpt lat="42.41737564990886" lon="14.004785565439239"><ele>132.66666666666666</ele><time>2026-03-29T09:33:56.001Z</time></trkpt><trkpt lat="42.41747973812083" lon="14.00496275782867"><ele>134.0</ele><time>2026-03-29T09:33:57.001Z</time></trkpt><trkpt lat="42.417581304413225" lon="14.005145574612241"><ele>134.0</ele><time>2026-03-29T09:33:58.001Z</time></trkpt><trkpt lat="42.417684107697" lon="14.005323746881515"><ele>134.0</ele><time>2026-03-29T09:33:59.001Z</time></trkpt><trkpt lat="42.41778517329252" lon="14.0055026324504"><ele>134.0</ele><time>2026-03-29T09:34:00.001Z</time></trkpt><trkpt lat="42.4178872387677" lon="14.005680528830625"><ele>133.66666666666666</ele><time>2026-03-29T09:34:01.001Z</time></trkpt><trkpt lat="42.417988791856146" lon="14.005858380339399"><ele>133.33333333333334</ele><time>2026-03-29T09:34:02.001Z</time></trkpt><trkpt lat="42.41809225842496" lon="14.00603099203365"><ele>133.0</ele><time>2026-03-29T09:34:03.001Z</time></trkpt><trkpt lat="42.41819635181218" lon="14.006201658897952"><ele>133.0</ele><time>2026-03-29T09:34:04.001Z</time></trkpt><trkpt lat="42.418298321470076" lon="14.0063730945055"><ele>133.0</ele><time>2026-03-29T09:34:05.001Z</time></trkpt><trkpt lat="42.41839719077399" lon="14.006540032056021"><ele>133.0</ele><time>2026-03-29T09:34:06.001Z</time></trkpt><trkpt lat="42.41849420911535" lon="14.006708024833372"><ele>132.0</ele><time>2026-03-29T09:34:07.001Z</time></trkpt><trkpt lat="42.41858800548844" lon="14.006872645461172"><ele>131.0</ele><time>2026-03-29T09:34:08.001Z</time></trkpt><trkpt lat="42.41868504831481" lon="14.007034861024362"><ele>130.0</ele><time>2026-03-29T09:34:09.001Z</time></trkpt><trkpt lat="42.41877848787431" lon="14.007201669781477"><ele>130.0</ele><time>2026-03-29T09:34:10.001Z</time></trkpt><trkpt lat="42.418874607000014" lon="14.007362369193528"><ele>130.0</ele><time>2026-03-29T09:34:11.001Z</time></trkpt><trkpt lat="42.418969166450104" lon="14.007525899975956"><ele>130.0</ele><time>2026-03-29T09:34:12.001Z</time></trkpt><trkpt lat="42.419065595475416" lon="14.007691584599787"><ele>130.0</ele><time>2026-03-29T09:34:13.001Z</time></trkpt><trkpt lat="42.419164705037055" lon="14.007866300301542"><ele>130.0</ele><time>2026-03-29T09:34:14.001Z</time></trkpt><trkpt lat="42.41926708696565" lon="14.008041810684716"><ele>130.0</ele><time>2026-03-29T09:34:15.001Z</time></trkpt><trkpt lat="42.41937503385402" lon="14.008222579985784"><ele>129.0</ele><time>2026-03-29T09:34:16.001Z</time></trkpt><trkpt lat="42.419482995482994" lon="14.00840825146662"><ele>128.0</ele><time>2026-03-29T09:34:17.001Z</time></trkpt><trkpt lat="42.41959120701678" lon="14.008596141438193"><ele>127.0</ele><time>2026-03-29T09:34:18.001Z</time></trkpt><trkpt lat="42.4196997876973" lon="14.008781505242593"><ele>126.66666666666667</ele><time>2026-03-29T09:34:19.001Z</time></trkpt><trkpt lat="42.41980670367395" lon="14.00896220851335"><ele>126.33333333333334</ele><time>2026-03-29T09:34:20.001Z</time></trkpt><trkpt lat="42.419909971624776" lon="14.009141459642663"><ele>126.0</ele><time>2026-03-29T09:34:21.001Z</time></trkpt><trkpt lat="42.42001460668477" lon="14.009318522335832"><ele>125.66666666666666</ele><time>2026-03-29T09:34:22.001Z</time></trkpt><trkpt lat="42.42011767233602" lon="14.009493141724082"><ele>125.33333333333333</ele><time>2026-03-29T09:34:23.001Z</time></trkpt><trkpt lat="42.42021807613053" lon="14.009667127072817"><ele>125.0</ele><time>2026-03-29T09:34:24.001Z</time></trkpt><trkpt lat="42.420317836185845" lon="14.009837973001378"><ele>124.66666666666666</ele><time>2026-03-29T09:34:25.001Z</time></trkpt><trkpt lat="42.42041637411565" lon="14.010007940625421"><ele>124.33333333333334</ele><time>2026-03-29T09:34:26.001Z</time></trkpt><trkpt lat="42.42051996476221" lon="14.010178743972325"><ele>124.0</ele><time>2026-03-29T09:34:27.001Z</time></trkpt><trkpt lat="42.420622907036616" lon="14.0103541349502"><ele>124.0</ele><time>2026-03-29T09:34:28.001Z</time></trkpt><trkpt lat="42.42072522322272" lon="14.01052880768608"><ele>124.0</ele><time>2026-03-29T09:34:29.001Z</time></trkpt><trkpt lat="42.42082708011856" lon="14.010705445655192"><ele>124.0</ele><time>2026-03-29T09:34:30.001Z</time></trkpt><trkpt lat="42.420929800715044" lon="14.010877363789758"><ele>123.66666666666667</ele><time>2026-03-29T09:34:31.001Z</time></trkpt><trkpt lat="42.421031528970815" lon="14.01104753583819"><ele>123.33333333333334</ele><time>2026-03-29T09:34:32.001Z</time></trkpt><trkpt lat="42.42112989879722" lon="14.011211819478136"><ele>123.0</ele><time>2026-03-29T09:34:33.001Z</time></trkpt><trkpt lat="42.42122390777265" lon="14.011366586449412"><ele>123.25</ele><time>2026-03-29T09:34:34.001Z</time></trkpt><trkpt lat="42.42131987888129" lon="14.011527092099724"><ele>123.5</ele><time>2026-03-29T09:34:35.001Z</time></trkpt><trkpt lat="42.42141296012036" lon="14.011689059428443"><ele>123.75</ele><time>2026-03-29T09:34:36.001Z</time></trkpt><trkpt lat="42.421495486804766" lon="14.011837465931167"><ele>124.0</ele><time>2026-03-29T09:34:37.001Z</time></trkpt><trkpt lat="42.42156792909375" lon="14.011969767829054"><ele>124.00000000000001</ele><time>2026-03-29T09:34:38.001Z</time></trkpt><trkpt lat="42.421636788700056" lon="14.012088691774753"><ele>124.0</ele><time>2026-03-29T09:34:39.001Z</time></trkpt><trkpt lat="42.42169235764445" lon="14.012191475917458"><ele>124.0</ele><time>2026-03-29T09:34:40.001Z</time></trkpt><trkpt lat="42.421741113562184" lon="14.012281182100903"><ele>124.0</ele><time>2026-03-29T09:34:41.001Z</time></trkpt><trkpt lat="42.42178180080811" lon="14.012349661619325"><ele>124.00000000000001</ele><time>2026-03-29T09:34:42.001Z</time></trkpt><trkpt lat="42.42183701680812" lon="14.012448740671813"><ele>124.0</ele><time>2026-03-29T09:34:44.001Z</time></trkpt><trkpt lat="42.421880061240856" lon="14.012523976017999"><ele>123.66666666666667</ele><time>2026-03-29T09:34:46.001Z</time></trkpt><trkpt lat="42.42192237504737" lon="14.012599738677173"><ele>123.33333333333334</ele><time>2026-03-29T09:35:04.001Z</time></trkpt><trkpt lat="42.421995024293594" lon="14.012723678756982"><ele>123.0</ele><time>2026-03-29T09:35:06.001Z</time></trkpt><trkpt lat="42.42204384759535" lon="14.012800347025435"><ele>122.66666666666666</ele><time>2026-03-29T09:35:07.001Z</time></trkpt><trkpt lat="42.42209367125816" lon="14.012893420832354"><ele>122.33333333333333</ele><time>2026-03-29T09:35:08.001Z</time></trkpt><trkpt lat="42.422152141558584" lon="14.012995605694583"><ele>122.0</ele><time>2026-03-29T09:35:09.001Z</time></trkpt><trkpt lat="42.422220034376274" lon="14.013113260942175"><ele>122.0</ele><time>2026-03-29T09:35:10.001Z</time></trkpt><trkpt lat="42.42229128005404" lon="14.013236949644265"><ele>122.0</ele><time>2026-03-29T09:35:11.001Z</time></trkpt><trkpt lat="42.42236018685069" lon="14.013352206183546"><ele>122.0</ele><time>2026-03-29T09:35:12.001Z</time></trkpt><trkpt lat="42.422439662269475" lon="14.013488890152843"><ele>122.0</ele><time>2026-03-29T09:35:13.001Z</time></trkpt><trkpt lat="42.422523414260425" lon="14.01363551681541"><ele>122.0</ele><time>2026-03-29T09:35:14.001Z</time></trkpt><trkpt lat="42.4226126036716" lon="14.013789146505479"><ele>122.0</ele><time>2026-03-29T09:35:15.001Z</time></trkpt><trkpt lat="42.42269903388751" lon="14.013937611015628"><ele>122.0</ele><time>2026-03-29T09:35:16.001Z</time></trkpt><trkpt lat="42.42278149876324" lon="14.014080754684915"><ele>122.0</ele><time>2026-03-29T09:35:17.001Z</time></trkpt><trkpt lat="42.42286961083651" lon="14.014232891801935"><ele>121.75</ele><time>2026-03-29T09:35:18.001Z</time></trkpt><trkpt lat="42.42296070885095" lon="14.014388135272823"><ele>121.5</ele><time>2026-03-29T09:35:19.001Z</time></trkpt><trkpt lat="42.42304916207495" lon="14.014537171926538"><ele>121.25</ele><time>2026-03-29T09:35:20.001Z</time></trkpt><trkpt lat="42.42313541216285" lon="14.014685598480844"><ele>121.0</ele><time>2026-03-29T09:35:21.001Z</time></trkpt><trkpt lat="42.42322292529477" lon="14.014838012084033"><ele>120.0</ele><time>2026-03-29T09:35:22.001Z</time></trkpt><trkpt lat="42.42331450510434" lon="14.014995313142302"><ele>119.0</ele><time>2026-03-29T09:35:23.001Z</time></trkpt><trkpt lat="42.42340938267563" lon="14.015157540985935"><ele>118.0</ele><time>2026-03-29T09:35:24.001Z</time></trkpt><trkpt lat="42.42351136255436" lon="14.015312785099168"><ele>118.0</ele><time>2026-03-29T09:35:25.001Z</time></trkpt><trkpt lat="42.423604330048" lon="14.015488564872467"><ele>118.0</ele><time>2026-03-29T09:35:26.001Z</time></trkpt><trkpt lat="42.42371118972675" lon="14.015657572365127"><ele>118.0</ele><time>2026-03-29T09:35:27.001Z</time></trkpt><trkpt lat="42.423822403428794" lon="14.01582864128937"><ele>116.33333333333334</ele><time>2026-03-29T09:35:28.001Z</time></trkpt><trkpt lat="42.42391844662127" lon="14.016020733315829"><ele>114.66666666666666</ele><time>2026-03-29T09:35:29.001Z</time></trkpt><trkpt lat="42.42402219868782" lon="14.016199904440812"><ele>113.0</ele><time>2026-03-29T09:35:30.001Z</time></trkpt><trkpt lat="42.42412377424143" lon="14.016375316939941"><ele>113.0</ele><time>2026-03-29T09:35:31.001Z</time></trkpt><trkpt lat="42.42423266882494" lon="14.016542989932983"><ele>113.0</ele><time>2026-03-29T09:35:32.001Z</time></trkpt><trkpt lat="42.42432458081418" lon="14.016725667271"><ele>113.0</ele><time>2026-03-29T09:35:33.001Z</time></trkpt><trkpt lat="42.4244215552486" lon="14.016902690176082"><ele>113.33333333333333</ele><time>2026-03-29T09:35:34.001Z</time></trkpt><trkpt lat="42.42451938241002" lon="14.017075047159196"><ele>113.66666666666666</ele><time>2026-03-29T09:35:35.001Z</time></trkpt><trkpt lat="42.424617715179295" lon="14.017244812892596"><ele>114.0</ele><time>2026-03-29T09:35:36.001Z</time></trkpt><trkpt lat="42.42471689954449" lon="14.017413406419339"><ele>113.66666666666666</ele><time>2026-03-29T09:35:37.001Z</time></trkpt><trkpt lat="42.42481466258074" lon="14.017581152420751"><ele>113.33333333333333</ele><time>2026-03-29T09:35:38.001Z</time></trkpt><trkpt lat="42.42491227937707" lon="14.017751466977233"><ele>113.0</ele><time>2026-03-29T09:35:39.001Z</time></trkpt><trkpt lat="42.42501069241526" lon="14.017915862921674"><ele>113.0</ele><time>2026-03-29T09:35:40.001Z</time></trkpt><trkpt lat="42.42510968109453" lon="14.018078191431774"><ele>113.0</ele><time>2026-03-29T09:35:41.001Z</time></trkpt><trkpt lat="42.42520771734434" lon="14.018244753571292"><ele>113.0</ele><time>2026-03-29T09:35:42.001Z</time></trkpt><trkpt lat="42.42530542731629" lon="14.01841433592939"><ele>112.33333333333333</ele><time>2026-03-29T09:35:43.001Z</time></trkpt><trkpt lat="42.42540206964489" lon="14.01858350013388"><ele>111.66666666666666</ele><time>2026-03-29T09:35:44.001Z</time></trkpt><trkpt lat="42.42549927698329" lon="14.018755747717208"><ele>111.0</ele><time>2026-03-29T09:35:45.001Z</time></trkpt><trkpt lat="42.42559759878127" lon="14.01893009533585"><ele>111.0</ele><time>2026-03-29T09:35:46.001Z</time></trkpt><trkpt lat="42.42569696416683" lon="14.01910576071189"><ele>111.0</ele><time>2026-03-29T09:35:47.001Z</time></trkpt><trkpt lat="42.42579899028707" lon="14.019278713361935"><ele>111.0</ele><time>2026-03-29T09:35:48.001Z</time></trkpt><trkpt lat="42.4259049690221" lon="14.01945010101593"><ele>110.33333333333334</ele><time>2026-03-29T09:35:49.001Z</time></trkpt><trkpt lat="42.42600977095334" lon="14.019623349318946"><ele>109.66666666666667</ele><time>2026-03-29T09:35:50.001Z</time></trkpt><trkpt lat="42.42611559355759" lon="14.019803285863977"><ele>109.0</ele><time>2026-03-29T09:35:51.001Z</time></trkpt><trkpt lat="42.42622139134358" lon="14.01998850462549"><ele>108.33333333333334</ele><time>2026-03-29T09:35:52.001Z</time></trkpt><trkpt lat="42.42632303908502" lon="14.02017092348052"><ele>107.66666666666666</ele><time>2026-03-29T09:35:53.001Z</time></trkpt><trkpt lat="42.42642528714277" lon="14.020352262105868"><ele>107.0</ele><time>2026-03-29T09:35:54.001Z</time></trkpt><trkpt lat="42.42652490262143" lon="14.020529717824724"><ele>107.0</ele><time>2026-03-29T09:35:55.001Z</time></trkpt><trkpt lat="42.426622370405255" lon="14.02070524585777"><ele>107.0</ele><time>2026-03-29T09:35:56.001Z</time></trkpt><trkpt lat="42.42671947827105" lon="14.020877555571529"><ele>107.0</ele><time>2026-03-29T09:35:57.001Z</time></trkpt><trkpt lat="42.42681863261794" lon="14.021049063069231"><ele>107.0</ele><time>2026-03-29T09:35:58.001Z</time></trkpt><trkpt lat="42.42691603024975" lon="14.02122014834318"><ele>107.0</ele><time>2026-03-29T09:35:59.001Z</time></trkpt><trkpt lat="42.42701394119624" lon="14.021390810330754"><ele>107.0</ele><time>2026-03-29T09:36:00.001Z</time></trkpt><trkpt lat="42.42711100204831" lon="14.021558235567344"><ele>107.33333333333333</ele><time>2026-03-29T09:36:01.001Z</time></trkpt><trkpt lat="42.427208108502036" lon="14.021723389314262"><ele>107.66666666666666</ele><time>2026-03-29T09:36:02.001Z</time></trkpt><trkpt lat="42.42730715161488" lon="14.021890330676028"><ele>108.0</ele><time>2026-03-29T09:36:03.001Z</time></trkpt><trkpt lat="42.427407291191045" lon="14.022059578254048"><ele>108.0</ele><time>2026-03-29T09:36:04.001Z</time></trkpt><trkpt lat="42.42750731981457" lon="14.022228304513728"><ele>108.0</ele><time>2026-03-29T09:36:05.001Z</time></trkpt><trkpt lat="42.42760598733934" lon="14.022396552120275"><ele>108.0</ele><time>2026-03-29T09:36:06.001Z</time></trkpt><trkpt lat="42.427702429391346" lon="14.02256971592001"><ele>107.66666666666666</ele><time>2026-03-29T09:36:07.001Z</time></trkpt><trkpt lat="42.42779983397427" lon="14.0227452734416"><ele>107.33333333333333</ele><time>2026-03-29T09:36:08.001Z</time></trkpt><trkpt lat="42.427899373866836" lon="14.022920429888474"><ele>107.0</ele><time>2026-03-29T09:36:09.001Z</time></trkpt><trkpt lat="42.42799885280635" lon="14.023095200681405"><ele>107.0</ele><time>2026-03-29T09:36:10.001Z</time></trkpt><trkpt lat="42.42809830020325" lon="14.023270025112692"><ele>107.0</ele><time>2026-03-29T09:36:11.001Z</time></trkpt><trkpt lat="42.42819802627328" lon="14.02344417825415"><ele>107.0</ele><time>2026-03-29T09:36:12.001Z</time></trkpt><trkpt lat="42.428299767620494" lon="14.023617416002187"><ele>107.0</ele><time>2026-03-29T09:36:13.001Z</time></trkpt><trkpt lat="42.42840338857094" lon="14.023788636145598"><ele>107.0</ele><time>2026-03-29T09:36:14.001Z</time></trkpt><trkpt lat="42.428510066525874" lon="14.023961280308463"><ele>107.0</ele><time>2026-03-29T09:36:15.001Z</time></trkpt><trkpt lat="42.428618741219665" lon="14.024137449283245"><ele>107.0</ele><time>2026-03-29T09:36:16.001Z</time></trkpt><trkpt lat="42.428720507919884" lon="14.024326413081967"><ele>107.0</ele><time>2026-03-29T09:36:17.001Z</time></trkpt><trkpt lat="42.42882218594317" lon="14.024509485345222"><ele>107.0</ele><time>2026-03-29T09:36:18.001Z</time></trkpt><trkpt lat="42.428924077652795" lon="14.024690473564"><ele>107.0</ele><time>2026-03-29T09:36:19.001Z</time></trkpt><trkpt lat="42.42902510502964" lon="14.024863538578327"><ele>107.0</ele><time>2026-03-29T09:36:20.001Z</time></trkpt><trkpt lat="42.42912681161711" lon="14.025029672890517"><ele>107.0</ele><time>2026-03-29T09:36:21.001Z</time></trkpt><trkpt lat="42.429228795561386" lon="14.02518891577996"><ele>107.0</ele><time>2026-03-29T09:36:22.001Z</time></trkpt><trkpt lat="42.429322878831925" lon="14.025356082908006"><ele>107.0</ele><time>2026-03-29T09:36:23.001Z</time></trkpt><trkpt lat="42.429413333355726" lon="14.02552451118287"><ele>107.0</ele><time>2026-03-29T09:36:24.001Z</time></trkpt><trkpt lat="42.42950673457232" lon="14.025694713334946"><ele>106.66666666666666</ele><time>2026-03-29T09:36:25.001Z</time></trkpt><trkpt lat="42.42960597657758" lon="14.025866507445793"><ele>106.33333333333334</ele><time>2026-03-29T09:36:26.001Z</time></trkpt><trkpt lat="42.42970414948187" lon="14.026038090481398"><ele>106.0</ele><time>2026-03-29T09:36:27.001Z</time></trkpt><trkpt lat="42.429790577097364" lon="14.026201784394118"><ele>106.0</ele><time>2026-03-29T09:36:28.001Z</time></trkpt><trkpt lat="42.429866932822534" lon="14.026352770985094"><ele>106.0</ele><time>2026-03-29T09:36:29.001Z</time></trkpt><trkpt lat="42.42994345154841" lon="14.026502722830903"><ele>106.0</ele><time>2026-03-29T09:36:30.001Z</time></trkpt><trkpt lat="42.43001591338015" lon="14.0266445433623"><ele>106.0</ele><time>2026-03-29T09:36:31.001Z</time></trkpt><trkpt lat="42.43008006769045" lon="14.026767739664486"><ele>106.0</ele><time>2026-03-29T09:36:32.001Z</time></trkpt><trkpt lat="42.430141791561915" lon="14.026879907876557"><ele>106.0</ele><time>2026-03-29T09:36:33.001Z</time></trkpt><trkpt lat="42.43020169016081" lon="14.026983647953779"><ele>106.0</ele><time>2026-03-29T09:36:34.001Z</time></trkpt><trkpt lat="42.43026401188282" lon="14.027082269320692"><ele>106.0</ele><time>2026-03-29T09:36:35.001Z</time></trkpt><trkpt lat="42.43033017678424" lon="14.027169899396792"><ele>106.0</ele><time>2026-03-29T09:36:36.001Z</time></trkpt><trkpt lat="42.43040053561302" lon="14.027248880996599"><ele>106.00000000000001</ele><time>2026-03-29T09:36:37.001Z</time></trkpt><trkpt lat="42.430453896468244" lon="14.027317063628644"><ele>106.0</ele><time>2026-03-29T09:36:38.001Z</time></trkpt><trkpt lat="42.43053863414533" lon="14.02730924396572"><ele>106.0</ele><time>2026-03-29T09:36:39.001Z</time></trkpt><trkpt lat="42.43060677665103" lon="14.027234133113943"><ele>106.0</ele><time>2026-03-29T09:36:40.001Z</time></trkpt><trkpt lat="42.43062884089109" lon="14.027108883135222"><ele>106.00000000000001</ele><time>2026-03-29T09:36:41.001Z</time></trkpt><trkpt lat="42.430641899588" lon="14.026978591862651"><ele>106.0</ele><time>2026-03-29T09:36:42.001Z</time></trkpt><trkpt lat="42.4306549667061" lon="14.026864182493885"><ele>106.0</ele><time>2026-03-29T09:36:43.001Z</time></trkpt><trkpt lat="42.43067723848608" lon="14.026758286844116"><ele>106.0</ele><time>2026-03-29T09:36:44.001Z</time></trkpt><trkpt lat="42.43067540321929" lon="14.026659817194433"><ele>106.0</ele><time>2026-03-29T09:36:45.001Z</time></trkpt><trkpt lat="42.43051008681035" lon="14.02657827899186"><ele>106.0</ele><time>2026-03-29T09:36:48.001Z</time></trkpt><trkpt lat="42.43044739838278" lon="14.026671685433023"><ele>106.0</ele><time>2026-03-29T09:36:49.001Z</time></trkpt><trkpt lat="42.43038483484549" lon="14.02674911943708"><ele>106.0</ele><time>2026-03-29T09:36:50.001Z</time></trkpt><trkpt lat="42.43030303982826" lon="14.026818088175755"><ele>106.0</ele><time>2026-03-29T09:36:52.001Z</time></trkpt><trkpt lat="42.43024217673238" lon="14.026624316098383"><ele>106.0</ele><time>2026-03-29T09:36:53.001Z</time></trkpt><trkpt lat="42.43018485125162" lon="14.026542955113195"><ele>106.0</ele><time>2026-03-29T09:36:55.001Z</time></trkpt><trkpt lat="42.43016707773798" lon="14.026403903997444"><ele>106.0</ele><time>2026-03-29T09:36:57.001Z</time></trkpt><trkpt lat="42.43024398218485" lon="14.02648430883013"><ele>106.0</ele><time>2026-03-29T09:36:58.001Z</time></trkpt><trkpt lat="42.43028391936361" lon="14.026582005774552"><ele>106.0</ele><time>2026-03-29T09:37:07.001Z</time></trkpt></trkseg></trk></gpx>